<?xml version="1.0" encoding="UTF-8" standalone="no" ?>
<gpx xmlns="http://www.topografix.com/GPX/1/1" xmlns:xsi="http://www.w3.org/2001/XMLSchema-instance" xsi:schemaLocation="http://www.topografix.com/GPX/1/1 http://www.topografix.com/GPX/1/1/gpx.xsd" version="1.1" creator="VisuGPX - https://www.visugpx.com">
  <metadata>
    <name>DB Clem split</name>
  </metadata>
  <wpt lat="42.20966" lon="-1.51524">
    <ele>292.9</ele>
    <name><![CDATA[CP1]]></name>
  </wpt>
  <wpt lat="40.40677" lon="-1.44426">
    <ele>1162.2</ele>
    <name><![CDATA[CP2]]></name>
  </wpt>
  <wpt lat="37.54317" lon="-3.04779">
    <ele>794.7</ele>
    <name><![CDATA[CP3]]></name>
  </wpt>
  <wpt lat="37.04445" lon="-2.52483">
    <ele>472.4</ele>
    <name><![CDATA[CP4]]></name>
  </wpt>
  <trk>
    <name><![CDATA[DB Clem final]]></name>
    <trkseg>
      <trkpt lat="37.04442" lon="-2.52488">
        <ele>472.337765</ele>
        <time>2022-02-25T00:46:15.168Z</time>
      </trkpt>
      <trkpt lat="37.04401" lon="-2.525">
        <ele>472.257267</ele>
        <time>2022-02-25T00:46:30.215Z</time>
      </trkpt>
      <trkpt lat="37.04382" lon="-2.52516">
        <ele>472.212822</ele>
        <time>2022-02-25T00:46:38.582Z</time>
      </trkpt>
      <trkpt lat="37.04364" lon="-2.52523">
        <ele>472.175615</ele>
        <time>2022-02-25T00:46:45.642Z</time>
      </trkpt>
      <trkpt lat="37.04355" lon="-2.52518">
        <ele>472.157508</ele>
        <time>2022-02-25T00:46:49.193Z</time>
      </trkpt>
      <trkpt lat="37.04345" lon="-2.52488">
        <ele>472.107899</ele>
        <time>2022-02-25T00:46:58.660Z</time>
      </trkpt>
      <trkpt lat="37.04319" lon="-2.52481">
        <ele>472.055647</ele>
        <time>2022-02-25T00:47:08.502Z</time>
      </trkpt>
      <trkpt lat="37.04301" lon="-2.52467">
        <ele>471.985744</ele>
        <time>2022-02-25T00:47:15.460Z</time>
      </trkpt>
      <trkpt lat="37.04286" lon="-2.52444">
        <ele>471.857254</ele>
        <time>2022-02-25T00:47:23.869Z</time>
      </trkpt>
      <trkpt lat="37.04218" lon="-2.52441">
        <ele>471.495886</ele>
        <time>2022-02-25T00:47:49.192Z</time>
      </trkpt>
      <trkpt lat="37.04206" lon="-2.52444">
        <ele>471.432733</ele>
        <time>2022-02-25T00:47:53.546Z</time>
      </trkpt>
      <trkpt lat="37.04198" lon="-2.52455">
        <ele>471.369026</ele>
        <time>2022-02-25T00:47:57.849Z</time>
      </trkpt>
      <trkpt lat="37.042" lon="-2.52486">
        <ele>471.241464</ele>
        <time>2022-02-25T00:48:06.146Z</time>
      </trkpt>
      <trkpt lat="37.04188" lon="-2.52518">
        <ele>471.089757</ele>
        <time>2022-02-25T00:48:16.177Z</time>
      </trkpt>
      <trkpt lat="37.04176" lon="-2.52516">
        <ele>470.903018</ele>
        <time>2022-02-25T00:48:20.781Z</time>
      </trkpt>
      <trkpt lat="37.0417" lon="-2.52482">
        <ele>470.47954</ele>
        <time>2022-02-25T00:48:30.285Z</time>
      </trkpt>
      <trkpt lat="37.04166" lon="-2.52481">
        <ele>470.418095</ele>
        <time>2022-02-25T00:48:31.626Z</time>
      </trkpt>
      <trkpt lat="37.04162" lon="-2.52483">
        <ele>470.343523</ele>
        <time>2022-02-25T00:48:33.288Z</time>
      </trkpt>
      <trkpt lat="37.04152" lon="-2.52514">
        <ele>469.93381</ele>
        <time>2022-02-25T00:48:42.145Z</time>
      </trkpt>
      <trkpt lat="37.04143" lon="-2.52515">
        <ele>469.794697</ele>
        <time>2022-02-25T00:48:45.098Z</time>
      </trkpt>
      <trkpt lat="37.04105" lon="-2.52521">
        <ele>469.200906</ele>
        <time>2022-02-25T00:48:57.665Z</time>
      </trkpt>
      <trkpt lat="37.04102" lon="-2.52526">
        <ele>469.122601</ele>
        <time>2022-02-25T00:48:59.386Z</time>
      </trkpt>
      <trkpt lat="37.04106" lon="-2.5255">
        <ele>468.820384</ele>
        <time>2022-02-25T00:49:06.025Z</time>
      </trkpt>
      <trkpt lat="37.04113" lon="-2.52557">
        <ele>468.679712</ele>
        <time>2022-02-25T00:49:09.118Z</time>
      </trkpt>
      <trkpt lat="37.04134" lon="-2.52562">
        <ele>468.34213</ele>
        <time>2022-02-25T00:49:16.413Z</time>
      </trkpt>
      <trkpt lat="37.04198" lon="-2.5256">
        <ele>466.782685</ele>
        <time>2022-02-25T00:49:36.584Z</time>
      </trkpt>
      <trkpt lat="37.04216" lon="-2.52555">
        <ele>466.322334</ele>
        <time>2022-02-25T00:49:42.244Z</time>
      </trkpt>
      <trkpt lat="37.04223" lon="-2.52548">
        <ele>466.094321</ele>
        <time>2022-02-25T00:49:45.010Z</time>
      </trkpt>
      <trkpt lat="37.04221" lon="-2.52512">
        <ele>465.37526</ele>
        <time>2022-02-25T00:49:54.276Z</time>
      </trkpt>
      <trkpt lat="37.0423" lon="-2.52493">
        <ele>464.944689</ele>
        <time>2022-02-25T00:49:59.876Z</time>
      </trkpt>
      <trkpt lat="37.04254" lon="-2.52497">
        <ele>464.34388</ele>
        <time>2022-02-25T00:50:07.386Z</time>
      </trkpt>
      <trkpt lat="37.04268" lon="-2.52507">
        <ele>463.948457</ele>
        <time>2022-02-25T00:50:12.501Z</time>
      </trkpt>
      <trkpt lat="37.043" lon="-2.52567">
        <ele>462.328127</ele>
        <time>2022-02-25T00:50:30.742Z</time>
      </trkpt>
      <trkpt lat="37.043" lon="-2.52584">
        <ele>461.960704</ele>
        <time>2022-02-25T00:50:35.040Z</time>
      </trkpt>
      <trkpt lat="37.04277" lon="-2.52601">
        <ele>461.207108</ele>
        <time>2022-02-25T00:50:43.394Z</time>
      </trkpt>
      <trkpt lat="37.04251" lon="-2.52635">
        <ele>460.142934</ele>
        <time>2022-02-25T00:50:55.067Z</time>
      </trkpt>
      <trkpt lat="37.04244" lon="-2.52662">
        <ele>459.524876</ele>
        <time>2022-02-25T00:51:01.965Z</time>
      </trkpt>
      <trkpt lat="37.04262" lon="-2.5268">
        <ele>458.881205</ele>
        <time>2022-02-25T00:51:09.009Z</time>
      </trkpt>
      <trkpt lat="37.04276" lon="-2.5268">
        <ele>458.512254</ele>
        <time>2022-02-25T00:51:13.412Z</time>
      </trkpt>
      <trkpt lat="37.04299" lon="-2.52668">
        <ele>457.839323</ele>
        <time>2022-02-25T00:51:21.413Z</time>
      </trkpt>
      <trkpt lat="37.04326" lon="-2.52674">
        <ele>457.114644</ele>
        <time>2022-02-25T00:51:30.085Z</time>
      </trkpt>
      <trkpt lat="37.0436" lon="-2.52629">
        <ele>455.806759</ele>
        <time>2022-02-25T00:51:45.761Z</time>
      </trkpt>
      <trkpt lat="37.04372" lon="-2.52621">
        <ele>455.437165</ele>
        <time>2022-02-25T00:51:50.230Z</time>
      </trkpt>
      <trkpt lat="37.04381" lon="-2.52622">
        <ele>455.191115</ele>
        <time>2022-02-25T00:51:52.981Z</time>
      </trkpt>
      <trkpt lat="37.04385" lon="-2.527">
        <ele>453.486745</ele>
        <time>2022-02-25T00:52:12.644Z</time>
      </trkpt>
      <trkpt lat="37.04402" lon="-2.52706">
        <ele>452.962481</ele>
        <time>2022-02-25T00:52:17.916Z</time>
      </trkpt>
      <trkpt lat="37.04442" lon="-2.52706">
        <ele>451.737416</ele>
        <time>2022-02-25T00:52:30.554Z</time>
      </trkpt>
      <trkpt lat="37.04442" lon="-2.52735">
        <ele>451.023892</ele>
        <time>2022-02-25T00:52:37.736Z</time>
      </trkpt>
      <trkpt lat="37.0443" lon="-2.52773">
        <ele>450.035324</ele>
        <time>2022-02-25T00:52:47.947Z</time>
      </trkpt>
      <trkpt lat="37.04426" lon="-2.52807">
        <ele>449.227176</ele>
        <time>2022-02-25T00:52:56.267Z</time>
      </trkpt>
      <trkpt lat="37.04428" lon="-2.52884">
        <ele>447.2796</ele>
        <time>2022-02-25T00:53:15.417Z</time>
      </trkpt>
      <trkpt lat="37.04424" lon="-2.52906">
        <ele>446.68079</ele>
        <time>2022-02-25T00:53:21.148Z</time>
      </trkpt>
      <trkpt lat="37.0444" lon="-2.52938">
        <ele>445.697384</ele>
        <time>2022-02-25T00:53:30.425Z</time>
      </trkpt>
      <trkpt lat="37.04433" lon="-2.52944">
        <ele>445.433117</ele>
        <time>2022-02-25T00:53:32.913Z</time>
      </trkpt>
      <trkpt lat="37.04415" lon="-2.52941">
        <ele>444.8322</ele>
        <time>2022-02-25T00:53:38.571Z</time>
      </trkpt>
      <trkpt lat="37.04406" lon="-2.52946">
        <ele>444.510437</ele>
        <time>2022-02-25T00:53:41.597Z</time>
      </trkpt>
      <trkpt lat="37.04403" lon="-2.52958">
        <ele>444.187845</ele>
        <time>2022-02-25T00:53:44.672Z</time>
      </trkpt>
      <trkpt lat="37.04409" lon="-2.52967">
        <ele>443.879559</ele>
        <time>2022-02-25T00:53:47.658Z</time>
      </trkpt>
      <trkpt lat="37.04428" lon="-2.52973">
        <ele>443.244326</ele>
        <time>2022-02-25T00:53:53.743Z</time>
      </trkpt>
      <trkpt lat="37.04447" lon="-2.53003">
        <ele>441.895382</ele>
        <time>2022-02-25T00:54:03.183Z</time>
      </trkpt>
      <trkpt lat="37.04466" lon="-2.53089">
        <ele>437.983208</ele>
        <time>2022-02-25T00:54:23.663Z</time>
      </trkpt>
      <trkpt lat="37.04453" lon="-2.53176">
        <ele>434.046058</ele>
        <time>2022-02-25T00:54:43.353Z</time>
      </trkpt>
      <trkpt lat="37.04427" lon="-2.53248">
        <ele>430.548646</ele>
        <time>2022-02-25T00:55:00.586Z</time>
      </trkpt>
      <trkpt lat="37.04401" lon="-2.53274">
        <ele>428.712565</ele>
        <time>2022-02-25T00:55:09.616Z</time>
      </trkpt>
      <trkpt lat="37.04361" lon="-2.53296">
        <ele>426.245275</ele>
        <time>2022-02-25T00:55:21.941Z</time>
      </trkpt>
      <trkpt lat="37.04306" lon="-2.53316">
        <ele>422.997945</ele>
        <time>2022-02-25T00:55:38.483Z</time>
      </trkpt>
      <trkpt lat="37.04252" lon="-2.53322">
        <ele>421.379327</ele>
        <time>2022-02-25T00:55:54.809Z</time>
      </trkpt>
      <trkpt lat="37.04233" lon="-2.5333">
        <ele>420.834395</ele>
        <time>2022-02-25T00:56:01.214Z</time>
      </trkpt>
      <trkpt lat="37.04198" lon="-2.53378">
        <ele>419.388569</ele>
        <time>2022-02-25T00:56:18.046Z</time>
      </trkpt>
      <trkpt lat="37.0413" lon="-2.53454">
        <ele>417.543598</ele>
        <time>2022-02-25T00:56:47.569Z</time>
      </trkpt>
      <trkpt lat="37.04104" lon="-2.53475">
        <ele>417.307193</ele>
        <time>2022-02-25T00:56:57.895Z</time>
      </trkpt>
      <trkpt lat="37.04069" lon="-2.53488">
        <ele>417.034636</ele>
        <time>2022-02-25T00:57:10.057Z</time>
      </trkpt>
      <trkpt lat="37.04047" lon="-2.53494">
        <ele>416.859287</ele>
        <time>2022-02-25T00:57:18.127Z</time>
      </trkpt>
      <trkpt lat="37.04022" lon="-2.53485">
        <ele>416.668001</ele>
        <time>2022-02-25T00:57:27.322Z</time>
      </trkpt>
      <trkpt lat="37.03939" lon="-2.53443">
        <ele>417.185447</ele>
        <time>2022-02-25T00:58:05.269Z</time>
      </trkpt>
      <trkpt lat="37.03906" lon="-2.53414">
        <ele>417.718588</ele>
        <time>2022-02-25T00:58:23.822Z</time>
      </trkpt>
      <trkpt lat="37.03878" lon="-2.53399">
        <ele>418.13365</ele>
        <time>2022-02-25T00:58:38.439Z</time>
      </trkpt>
      <trkpt lat="37.03838" lon="-2.53381">
        <ele>418.694095</ele>
        <time>2022-02-25T00:58:58.091Z</time>
      </trkpt>
      <trkpt lat="37.03794" lon="-2.53375">
        <ele>418.022603</ele>
        <time>2022-02-25T00:59:18.159Z</time>
      </trkpt>
      <trkpt lat="37.03713" lon="-2.53396">
        <ele>416.149878</ele>
        <time>2022-02-25T00:59:45.055Z</time>
      </trkpt>
      <trkpt lat="37.03683" lon="-2.53423">
        <ele>415.308965</ele>
        <time>2022-02-25T00:59:55.920Z</time>
      </trkpt>
      <trkpt lat="37.03669" lon="-2.53442">
        <ele>414.855892</ele>
        <time>2022-02-25T01:00:01.633Z</time>
      </trkpt>
      <trkpt lat="37.03665" lon="-2.5347">
        <ele>413.745621</ele>
        <time>2022-02-25T01:00:08.133Z</time>
      </trkpt>
      <trkpt lat="37.03667" lon="-2.53513">
        <ele>411.813443</ele>
        <time>2022-02-25T01:00:17.923Z</time>
      </trkpt>
      <trkpt lat="37.03654" lon="-2.53571">
        <ele>409.19139</ele>
        <time>2022-02-25T01:00:31.083Z</time>
      </trkpt>
      <trkpt lat="37.0362" lon="-2.53608">
        <ele>406.671256</ele>
        <time>2022-02-25T01:00:43.750Z</time>
      </trkpt>
      <trkpt lat="37.03584" lon="-2.53626">
        <ele>404.70686</ele>
        <time>2022-02-25T01:00:54.467Z</time>
      </trkpt>
      <trkpt lat="37.03554" lon="-2.53632">
        <ele>404.076921</ele>
        <time>2022-02-25T01:01:03.627Z</time>
      </trkpt>
      <trkpt lat="37.03527" lon="-2.53629">
        <ele>403.518581</ele>
        <time>2022-02-25T01:01:12.561Z</time>
      </trkpt>
      <trkpt lat="37.03496" lon="-2.53613">
        <ele>402.824245</ele>
        <time>2022-02-25T01:01:24.193Z</time>
      </trkpt>
      <trkpt lat="37.03467" lon="-2.53579">
        <ele>402.017096</ele>
        <time>2022-02-25T01:01:37.793Z</time>
      </trkpt>
      <trkpt lat="37.03429" lon="-2.53545">
        <ele>401.073342</ele>
        <time>2022-02-25T01:01:53.893Z</time>
      </trkpt>
      <trkpt lat="37.034" lon="-2.53546">
        <ele>400.739857</ele>
        <time>2022-02-25T01:02:03.818Z</time>
      </trkpt>
      <trkpt lat="37.03381" lon="-2.53565">
        <ele>400.446823</ele>
        <time>2022-02-25T01:02:12.480Z</time>
      </trkpt>
      <trkpt lat="37.03342" lon="-2.53634">
        <ele>399.66789</ele>
        <time>2022-02-25T01:02:35.337Z</time>
      </trkpt>
      <trkpt lat="37.03333" lon="-2.53663">
        <ele>399.375757</ele>
        <time>2022-02-25T01:02:43.834Z</time>
      </trkpt>
      <trkpt lat="37.0333" lon="-2.53692">
        <ele>399.102338</ele>
        <time>2022-02-25T01:02:51.715Z</time>
      </trkpt>
      <trkpt lat="37.03284" lon="-2.5373">
        <ele>398.331973</ele>
        <time>2022-02-25T01:03:10.185Z</time>
      </trkpt>
      <trkpt lat="37.03195" lon="-2.53734">
        <ele>397.049451</ele>
        <time>2022-02-25T01:03:40.313Z</time>
      </trkpt>
      <trkpt lat="37.0313" lon="-2.53704">
        <ele>395.798871</ele>
        <time>2022-02-25T01:04:03.476Z</time>
      </trkpt>
      <trkpt lat="37.03049" lon="-2.53735">
        <ele>393.679255</ele>
        <time>2022-02-25T01:04:30.833Z</time>
      </trkpt>
      <trkpt lat="37.0301" lon="-2.53741">
        <ele>392.693702</ele>
        <time>2022-02-25T01:04:43.116Z</time>
      </trkpt>
      <trkpt lat="37.02887" lon="-2.53763">
        <ele>388.642757</ele>
        <time>2022-02-25T01:05:20.340Z</time>
      </trkpt>
      <trkpt lat="37.0284" lon="-2.53766">
        <ele>386.976475</ele>
        <time>2022-02-25T01:05:34.546Z</time>
      </trkpt>
      <trkpt lat="37.02801" lon="-2.53788">
        <ele>385.482894</ele>
        <time>2022-02-25T01:05:47.544Z</time>
      </trkpt>
      <trkpt lat="37.0276" lon="-2.53784">
        <ele>384.210748</ele>
        <time>2022-02-25T01:06:00.481Z</time>
      </trkpt>
      <trkpt lat="37.02734" lon="-2.53769">
        <ele>383.337322</ele>
        <time>2022-02-25T01:06:09.420Z</time>
      </trkpt>
      <trkpt lat="37.02716" lon="-2.53768">
        <ele>382.785436</ele>
        <time>2022-02-25T01:06:15.209Z</time>
      </trkpt>
      <trkpt lat="37.0266" lon="-2.53827">
        <ele>380.583453</ele>
        <time>2022-02-25T01:06:37.766Z</time>
      </trkpt>
      <trkpt lat="37.02579" lon="-2.53833">
        <ele>377.622001</ele>
        <time>2022-02-25T01:07:02.336Z</time>
      </trkpt>
      <trkpt lat="37.02542" lon="-2.53851">
        <ele>376.112048</ele>
        <time>2022-02-25T01:07:14.158Z</time>
      </trkpt>
      <trkpt lat="37.02463" lon="-2.5392">
        <ele>372.52955</ele>
        <time>2022-02-25T01:07:42.802Z</time>
      </trkpt>
      <trkpt lat="37.02444" lon="-2.53914">
        <ele>371.883225</ele>
        <time>2022-02-25T01:07:48.585Z</time>
      </trkpt>
      <trkpt lat="37.02395" lon="-2.5385">
        <ele>369.518687</ele>
        <time>2022-02-25T01:08:09.945Z</time>
      </trkpt>
      <trkpt lat="37.02361" lon="-2.53821">
        <ele>368.136093</ele>
        <time>2022-02-25T01:08:22.818Z</time>
      </trkpt>
      <trkpt lat="37.02311" lon="-2.53744">
        <ele>365.927063</ele>
        <time>2022-02-25T01:08:48.146Z</time>
      </trkpt>
      <trkpt lat="37.02249" lon="-2.53702">
        <ele>364.190133</ele>
        <time>2022-02-25T01:09:10.717Z</time>
      </trkpt>
      <trkpt lat="37.02219" lon="-2.53693">
        <ele>363.422756</ele>
        <time>2022-02-25T01:09:20.652Z</time>
      </trkpt>
      <trkpt lat="37.02178" lon="-2.53692">
        <ele>362.380539</ele>
        <time>2022-02-25T01:09:33.450Z</time>
      </trkpt>
      <trkpt lat="37.02099" lon="-2.53709">
        <ele>360.165883</ele>
        <time>2022-02-25T01:09:58.549Z</time>
      </trkpt>
      <trkpt lat="37.02006" lon="-2.53739">
        <ele>357.568746</ele>
        <time>2022-02-25T01:10:28.424Z</time>
      </trkpt>
      <trkpt lat="37.01934" lon="-2.5377">
        <ele>355.677326</ele>
        <time>2022-02-25T01:10:52.738Z</time>
      </trkpt>
      <trkpt lat="37.01859" lon="-2.53802">
        <ele>353.733011</ele>
        <time>2022-02-25T01:11:17.952Z</time>
      </trkpt>
      <trkpt lat="37.01791" lon="-2.53858">
        <ele>351.652269</ele>
        <time>2022-02-25T01:11:44.076Z</time>
      </trkpt>
      <trkpt lat="37.01723" lon="-2.53904">
        <ele>349.693801</ele>
        <time>2022-02-25T01:12:08.411Z</time>
      </trkpt>
      <trkpt lat="37.01655" lon="-2.53933">
        <ele>347.755582</ele>
        <time>2022-02-25T01:12:30.943Z</time>
      </trkpt>
      <trkpt lat="37.01594" lon="-2.53944">
        <ele>346.000501</ele>
        <time>2022-02-25T01:12:50.136Z</time>
      </trkpt>
      <trkpt lat="37.01534" lon="-2.53926">
        <ele>344.242597</ele>
        <time>2022-02-25T01:13:09.519Z</time>
      </trkpt>
      <trkpt lat="37.01496" lon="-2.53905">
        <ele>343.140852</ele>
        <time>2022-02-25T01:13:22.378Z</time>
      </trkpt>
      <trkpt lat="37.01435" lon="-2.53883">
        <ele>341.513724</ele>
        <time>2022-02-25T01:13:42.316Z</time>
      </trkpt>
      <trkpt lat="37.01262" lon="-2.53845">
        <ele>337.729338</ele>
        <time>2022-02-25T01:14:38.615Z</time>
      </trkpt>
      <trkpt lat="37.01245" lon="-2.53831">
        <ele>337.402563</ele>
        <time>2022-02-25T01:14:45.039Z</time>
      </trkpt>
      <trkpt lat="37.01217" lon="-2.53784">
        <ele>336.614286</ele>
        <time>2022-02-25T01:15:00.942Z</time>
      </trkpt>
      <trkpt lat="37.01146" lon="-2.53715">
        <ele>335.825097</ele>
        <time>2022-02-25T01:15:32.749Z</time>
      </trkpt>
      <trkpt lat="37.01037" lon="-2.53654">
        <ele>335.310998</ele>
        <time>2022-02-25T01:16:16.034Z</time>
      </trkpt>
      <trkpt lat="37.00983" lon="-2.53661">
        <ele>334.977721</ele>
        <time>2022-02-25T01:16:35.529Z</time>
      </trkpt>
      <trkpt lat="37.0088" lon="-2.53626">
        <ele>334.297407</ele>
        <time>2022-02-25T01:17:14.395Z</time>
      </trkpt>
      <trkpt lat="37.00819" lon="-2.53627">
        <ele>332.748405</ele>
        <time>2022-02-25T01:17:34.302Z</time>
      </trkpt>
      <trkpt lat="37.00765" lon="-2.53643">
        <ele>330.747079</ele>
        <time>2022-02-25T01:17:51.745Z</time>
      </trkpt>
      <trkpt lat="37.00493" lon="-2.53696">
        <ele>318.399074</ele>
        <time>2022-02-25T01:19:10.305Z</time>
      </trkpt>
      <trkpt lat="37.0029" lon="-2.53697">
        <ele>314.741891</ele>
        <time>2022-02-25T01:20:15.177Z</time>
      </trkpt>
      <trkpt lat="37.0027" lon="-2.53695">
        <ele>315.195954</ele>
        <time>2022-02-25T01:20:23.002Z</time>
      </trkpt>
      <trkpt lat="37.00275" lon="-2.53806">
        <ele>317.26707</ele>
        <time>2022-02-25T01:21:09.561Z</time>
      </trkpt>
      <trkpt lat="37.00252" lon="-2.53899">
        <ele>320.730622</ele>
        <time>2022-02-25T01:22:00.970Z</time>
      </trkpt>
      <trkpt lat="37.00241" lon="-2.5392">
        <ele>322.036258</ele>
        <time>2022-02-25T01:22:15.991Z</time>
      </trkpt>
      <trkpt lat="37.00182" lon="-2.53998">
        <ele>327.646298</ele>
        <time>2022-02-25T01:23:16.610Z</time>
      </trkpt>
      <trkpt lat="37.00181" lon="-2.54062">
        <ele>331.064592</ele>
        <time>2022-02-25T01:23:53.612Z</time>
      </trkpt>
      <trkpt lat="37.00187" lon="-2.54087">
        <ele>332.61871</ele>
        <time>2022-02-25T01:24:09.613Z</time>
      </trkpt>
      <trkpt lat="37.00218" lon="-2.54152">
        <ele>336.943926</ele>
        <time>2022-02-25T01:24:52.129Z</time>
      </trkpt>
      <trkpt lat="37.0022" lon="-2.54177">
        <ele>338.393118</ele>
        <time>2022-02-25T01:25:07.171Z</time>
      </trkpt>
      <trkpt lat="37.00168" lon="-2.54243">
        <ele>343.847859</ele>
        <time>2022-02-25T01:26:01.186Z</time>
      </trkpt>
      <trkpt lat="37.00146" lon="-2.54295">
        <ele>347.825425</ele>
        <time>2022-02-25T01:26:38.071Z</time>
      </trkpt>
      <trkpt lat="37.00139" lon="-2.5435">
        <ele>351.538569</ele>
        <time>2022-02-25T01:27:15.482Z</time>
      </trkpt>
      <trkpt lat="37.0015" lon="-2.5441">
        <ele>355.642265</ele>
        <time>2022-02-25T01:27:55.353Z</time>
      </trkpt>
      <trkpt lat="37.00166" lon="-2.54428">
        <ele>357.453639</ele>
        <time>2022-02-25T01:28:12.277Z</time>
      </trkpt>
      <trkpt lat="37.00217" lon="-2.54442">
        <ele>360.513468</ele>
        <time>2022-02-25T01:28:52.665Z</time>
      </trkpt>
      <trkpt lat="37.00247" lon="-2.54456">
        <ele>362.287391</ele>
        <time>2022-02-25T01:29:14.183Z</time>
      </trkpt>
      <trkpt lat="37.003" lon="-2.54522">
        <ele>366.436228</ele>
        <time>2022-02-25T01:29:59.343Z</time>
      </trkpt>
      <trkpt lat="37.00296" lon="-2.54546">
        <ele>367.524736</ele>
        <time>2022-02-25T01:30:10.464Z</time>
      </trkpt>
      <trkpt lat="37.00255" lon="-2.54518">
        <ele>370.353326</ele>
        <time>2022-02-25T01:30:32.587Z</time>
      </trkpt>
      <trkpt lat="37.00219" lon="-2.54514">
        <ele>372.654269</ele>
        <time>2022-02-25T01:30:52.247Z</time>
      </trkpt>
      <trkpt lat="37.00238" lon="-2.54536">
        <ele>374.279563</ele>
        <time>2022-02-25T01:31:08.910Z</time>
      </trkpt>
      <trkpt lat="37.00232" lon="-2.54541">
        <ele>374.74387</ele>
        <time>2022-02-25T01:31:13.697Z</time>
      </trkpt>
      <trkpt lat="37.00215" lon="-2.54539">
        <ele>375.772909</ele>
        <time>2022-02-25T01:31:25.433Z</time>
      </trkpt>
      <trkpt lat="37.00235" lon="-2.54562">
        <ele>377.445912</ele>
        <time>2022-02-25T01:31:47.465Z</time>
      </trkpt>
      <trkpt lat="37.00223" lon="-2.54575">
        <ele>378.39748</ele>
        <time>2022-02-25T01:32:00.346Z</time>
      </trkpt>
      <trkpt lat="37.00228" lon="-2.54596">
        <ele>379.87042</ele>
        <time>2022-02-25T01:32:16.936Z</time>
      </trkpt>
      <trkpt lat="37.00223" lon="-2.5466">
        <ele>386.80825</ele>
        <time>2022-02-25T01:33:06.944Z</time>
      </trkpt>
      <trkpt lat="37.00256" lon="-2.5472">
        <ele>394.620514</ele>
        <time>2022-02-25T01:34:10.455Z</time>
      </trkpt>
      <trkpt lat="37.00251" lon="-2.54764">
        <ele>399.44351</ele>
        <time>2022-02-25T01:34:50.251Z</time>
      </trkpt>
      <trkpt lat="37.00255" lon="-2.54777">
        <ele>400.898476</ele>
        <time>2022-02-25T01:35:01.985Z</time>
      </trkpt>
      <trkpt lat="37.00276" lon="-2.54781">
        <ele>403.839084</ele>
        <time>2022-02-25T01:35:27.516Z</time>
      </trkpt>
      <trkpt lat="37.00269" lon="-2.54821">
        <ele>408.079069</ele>
        <time>2022-02-25T01:36:05.395Z</time>
      </trkpt>
      <trkpt lat="37.00247" lon="-2.54827">
        <ele>410.961625</ele>
        <time>2022-02-25T01:36:29.780Z</time>
      </trkpt>
      <trkpt lat="37.00247" lon="-2.54872">
        <ele>415.634089</ele>
        <time>2022-02-25T01:37:07.436Z</time>
      </trkpt>
      <trkpt lat="37.00221" lon="-2.54923">
        <ele>421.816145</ele>
        <time>2022-02-25T01:37:53.224Z</time>
      </trkpt>
      <trkpt lat="37.00224" lon="-2.54968">
        <ele>426.556873</ele>
        <time>2022-02-25T01:38:27.748Z</time>
      </trkpt>
      <trkpt lat="37.00213" lon="-2.55019">
        <ele>430.692249</ele>
        <time>2022-02-25T01:39:05.028Z</time>
      </trkpt>
      <trkpt lat="37.00212" lon="-2.55059">
        <ele>433.796395</ele>
        <time>2022-02-25T01:39:33.276Z</time>
      </trkpt>
      <trkpt lat="37.00206" lon="-2.55093">
        <ele>436.576593</ele>
        <time>2022-02-25T01:39:58.134Z</time>
      </trkpt>
      <trkpt lat="37.00218" lon="-2.5521">
        <ele>445.745018</ele>
        <time>2022-02-25T01:41:14.460Z</time>
      </trkpt>
      <trkpt lat="37.00226" lon="-2.55247">
        <ele>448.724012</ele>
        <time>2022-02-25T01:41:38.272Z</time>
      </trkpt>
      <trkpt lat="37.00222" lon="-2.55309">
        <ele>453.532664</ele>
        <time>2022-02-25T01:42:23.089Z</time>
      </trkpt>
      <trkpt lat="37.00236" lon="-2.55337">
        <ele>456.07207</ele>
        <time>2022-02-25T01:42:46.118Z</time>
      </trkpt>
      <trkpt lat="37.00229" lon="-2.55361">
        <ele>458.052201</ele>
        <time>2022-02-25T01:43:04.813Z</time>
      </trkpt>
      <trkpt lat="37.00238" lon="-2.5541">
        <ele>461.854025</ele>
        <time>2022-02-25T01:43:38.488Z</time>
      </trkpt>
      <trkpt lat="37.00238" lon="-2.55464">
        <ele>465.321736</ele>
        <time>2022-02-25T01:44:14.381Z</time>
      </trkpt>
      <trkpt lat="37.00224" lon="-2.5548">
        <ele>466.882308</ele>
        <time>2022-02-25T01:44:31.693Z</time>
      </trkpt>
      <trkpt lat="37.00189" lon="-2.55474">
        <ele>469.72471</ele>
        <time>2022-02-25T01:44:59.502Z</time>
      </trkpt>
      <trkpt lat="37.0017" lon="-2.55489">
        <ele>471.592304</ele>
        <time>2022-02-25T01:45:16.999Z</time>
      </trkpt>
      <trkpt lat="37.0016" lon="-2.55525">
        <ele>474.036635</ele>
        <time>2022-02-25T01:45:40.233Z</time>
      </trkpt>
      <trkpt lat="37.00153" lon="-2.55531">
        <ele>474.724564</ele>
        <time>2022-02-25T01:45:47.501Z</time>
      </trkpt>
      <trkpt lat="37.00138" lon="-2.55528">
        <ele>475.972121</ele>
        <time>2022-02-25T01:45:59.041Z</time>
      </trkpt>
      <trkpt lat="37.00127" lon="-2.55538">
        <ele>476.237462</ele>
        <time>2022-02-25T01:46:07.426Z</time>
      </trkpt>
      <trkpt lat="37.00131" lon="-2.55574">
        <ele>476.443022</ele>
        <time>2022-02-25T01:46:23.974Z</time>
      </trkpt>
      <trkpt lat="37.00144" lon="-2.5559">
        <ele>476.576729</ele>
        <time>2022-02-25T01:46:31.964Z</time>
      </trkpt>
      <trkpt lat="37.00141" lon="-2.55603">
        <ele>476.651944</ele>
        <time>2022-02-25T01:46:35.599Z</time>
      </trkpt>
      <trkpt lat="37.00118" lon="-2.55608">
        <ele>476.820287</ele>
        <time>2022-02-25T01:46:43.634Z</time>
      </trkpt>
      <trkpt lat="37.00104" lon="-2.55595">
        <ele>476.94629</ele>
        <time>2022-02-25T01:46:49.643Z</time>
      </trkpt>
      <trkpt lat="37.00094" lon="-2.55611">
        <ele>477.063853</ele>
        <time>2022-02-25T01:46:55.479Z</time>
      </trkpt>
      <trkpt lat="37.00112" lon="-2.5564">
        <ele>477.276637</ele>
        <time>2022-02-25T01:47:05.633Z</time>
      </trkpt>
      <trkpt lat="37.00134" lon="-2.557">
        <ele>475.673861</ele>
        <time>2022-02-25T01:47:24.050Z</time>
      </trkpt>
      <trkpt lat="37.0013" lon="-2.5572">
        <ele>474.675377</ele>
        <time>2022-02-25T01:47:28.492Z</time>
      </trkpt>
      <trkpt lat="37.00079" lon="-2.55732">
        <ele>471.532222</ele>
        <time>2022-02-25T01:47:36.710Z</time>
      </trkpt>
      <trkpt lat="37.00066" lon="-2.55757">
        <ele>470.090761</ele>
        <time>2022-02-25T01:47:40.173Z</time>
      </trkpt>
      <trkpt lat="37.00061" lon="-2.55791">
        <ele>468.39503</ele>
        <time>2022-02-25T01:47:44.345Z</time>
      </trkpt>
      <trkpt lat="37.00071" lon="-2.55823">
        <ele>466.717806</ele>
        <time>2022-02-25T01:47:48.375Z</time>
      </trkpt>
      <trkpt lat="37.00084" lon="-2.55843">
        <ele>464.441474</ele>
        <time>2022-02-25T01:47:53.261Z</time>
      </trkpt>
      <trkpt lat="37.00083" lon="-2.55893">
        <ele>459.508022</ele>
        <time>2022-02-25T01:48:03.588Z</time>
      </trkpt>
      <trkpt lat="37.00067" lon="-2.55946">
        <ele>453.929686</ele>
        <time>2022-02-25T01:48:14.767Z</time>
      </trkpt>
      <trkpt lat="37.00062" lon="-2.56023">
        <ele>446.218215</ele>
        <time>2022-02-25T01:48:29.714Z</time>
      </trkpt>
      <trkpt lat="37.00074" lon="-2.56049">
        <ele>443.204413</ele>
        <time>2022-02-25T01:48:35.663Z</time>
      </trkpt>
      <trkpt lat="37.00067" lon="-2.56124">
        <ele>435.578386</ele>
        <time>2022-02-25T01:48:50.464Z</time>
      </trkpt>
      <trkpt lat="37.0007" lon="-2.56161">
        <ele>431.806539</ele>
        <time>2022-02-25T01:48:57.748Z</time>
      </trkpt>
      <trkpt lat="37.00082" lon="-2.5618">
        <ele>429.382898</ele>
        <time>2022-02-25T01:49:02.500Z</time>
      </trkpt>
      <trkpt lat="37.0008" lon="-2.56218">
        <ele>425.560842</ele>
        <time>2022-02-25T01:49:10.029Z</time>
      </trkpt>
      <trkpt lat="37.00073" lon="-2.56233">
        <ele>423.742771</ele>
        <time>2022-02-25T01:49:13.671Z</time>
      </trkpt>
      <trkpt lat="37.00074" lon="-2.56271">
        <ele>420.578716</ele>
        <time>2022-02-25T01:49:21.406Z</time>
      </trkpt>
      <trkpt lat="37.00062" lon="-2.56287">
        <ele>419.346476</ele>
        <time>2022-02-25T01:49:26.015Z</time>
      </trkpt>
      <trkpt lat="37.00052" lon="-2.5633">
        <ele>416.883244</ele>
        <time>2022-02-25T01:49:35.615Z</time>
      </trkpt>
      <trkpt lat="37.00027" lon="-2.56403">
        <ele>412.515146</ele>
        <time>2022-02-25T01:49:53.397Z</time>
      </trkpt>
      <trkpt lat="37.00009" lon="-2.5643">
        <ele>410.559411</ele>
        <time>2022-02-25T01:50:01.491Z</time>
      </trkpt>
      <trkpt lat="36.9998" lon="-2.56435">
        <ele>408.788497</ele>
        <time>2022-02-25T01:50:10.019Z</time>
      </trkpt>
      <trkpt lat="36.99967" lon="-2.56444">
        <ele>408.278015</ele>
        <time>2022-02-25T01:50:14.536Z</time>
      </trkpt>
      <trkpt lat="36.99959" lon="-2.56486">
        <ele>407.111631</ele>
        <time>2022-02-25T01:50:25.000Z</time>
      </trkpt>
      <trkpt lat="36.99964" lon="-2.56531">
        <ele>405.868519</ele>
        <time>2022-02-25T01:50:36.487Z</time>
      </trkpt>
      <trkpt lat="36.9996" lon="-2.56566">
        <ele>404.925324</ele>
        <time>2022-02-25T01:50:45.186Z</time>
      </trkpt>
      <trkpt lat="36.99903" lon="-2.56657">
        <ele>401.848696</ele>
        <time>2022-02-25T01:51:01.913Z</time>
      </trkpt>
      <trkpt lat="36.99874" lon="-2.5668">
        <ele>400.767704</ele>
        <time>2022-02-25T01:51:07.982Z</time>
      </trkpt>
      <trkpt lat="36.99842" lon="-2.56719">
        <ele>399.350604</ele>
        <time>2022-02-25T01:51:16.046Z</time>
      </trkpt>
      <trkpt lat="36.99827" lon="-2.56769">
        <ele>398.012757</ele>
        <time>2022-02-25T01:51:23.695Z</time>
      </trkpt>
      <trkpt lat="36.99768" lon="-2.5682">
        <ele>395.536104</ele>
        <time>2022-02-25T01:51:36.610Z</time>
      </trkpt>
      <trkpt lat="36.99738" lon="-2.56827">
        <ele>394.438631</ele>
        <time>2022-02-25T01:51:42.111Z</time>
      </trkpt>
      <trkpt lat="36.99716" lon="-2.56823">
        <ele>393.647083</ele>
        <time>2022-02-25T01:51:45.974Z</time>
      </trkpt>
      <trkpt lat="36.99685" lon="-2.56806">
        <ele>392.417</ele>
        <time>2022-02-25T01:51:52.042Z</time>
      </trkpt>
      <trkpt lat="36.99648" lon="-2.56852">
        <ele>390.379654</ele>
        <time>2022-02-25T01:52:01.224Z</time>
      </trkpt>
      <trkpt lat="36.9963" lon="-2.56893">
        <ele>388.250106</ele>
        <time>2022-02-25T01:52:07.285Z</time>
      </trkpt>
      <trkpt lat="36.99626" lon="-2.56937">
        <ele>386.179753</ele>
        <time>2022-02-25T01:52:13.022Z</time>
      </trkpt>
      <trkpt lat="36.9965" lon="-2.56997">
        <ele>383.096238</ele>
        <time>2022-02-25T01:52:21.571Z</time>
      </trkpt>
      <trkpt lat="36.99666" lon="-2.571">
        <ele>378.464767</ele>
        <time>2022-02-25T01:52:34.918Z</time>
      </trkpt>
      <trkpt lat="36.99683" lon="-2.57157">
        <ele>375.971751</ele>
        <time>2022-02-25T01:52:42.791Z</time>
      </trkpt>
      <trkpt lat="36.99693" lon="-2.57193">
        <ele>374.390098</ele>
        <time>2022-02-25T01:52:47.826Z</time>
      </trkpt>
      <trkpt lat="36.99695" lon="-2.57218">
        <ele>373.32702</ele>
        <time>2022-02-25T01:52:51.274Z</time>
      </trkpt>
      <trkpt lat="36.99686" lon="-2.57258">
        <ele>371.630144</ele>
        <time>2022-02-25T01:52:56.955Z</time>
      </trkpt>
      <trkpt lat="36.99657" lon="-2.57306">
        <ele>369.727411</ele>
        <time>2022-02-25T01:53:05.621Z</time>
      </trkpt>
      <trkpt lat="36.99633" lon="-2.57335">
        <ele>368.535016</ele>
        <time>2022-02-25T01:53:11.566Z</time>
      </trkpt>
      <trkpt lat="36.9963" lon="-2.57354">
        <ele>367.975226</ele>
        <time>2022-02-25T01:53:14.380Z</time>
      </trkpt>
      <trkpt lat="36.99632" lon="-2.57371">
        <ele>367.482842</ele>
        <time>2022-02-25T01:53:16.860Z</time>
      </trkpt>
      <trkpt lat="36.99669" lon="-2.57396">
        <ele>365.978332</ele>
        <time>2022-02-25T01:53:24.451Z</time>
      </trkpt>
      <trkpt lat="36.99682" lon="-2.57441">
        <ele>364.624824</ele>
        <time>2022-02-25T01:53:30.889Z</time>
      </trkpt>
      <trkpt lat="36.99684" lon="-2.57458">
        <ele>364.081427</ele>
        <time>2022-02-25T01:53:33.192Z</time>
      </trkpt>
      <trkpt lat="36.99678" lon="-2.57491">
        <ele>363.02758</ele>
        <time>2022-02-25T01:53:37.780Z</time>
      </trkpt>
      <trkpt lat="36.99687" lon="-2.57517">
        <ele>362.145968</ele>
        <time>2022-02-25T01:53:41.620Z</time>
      </trkpt>
      <trkpt lat="36.99685" lon="-2.57569">
        <ele>360.549675</ele>
        <time>2022-02-25T01:53:48.641Z</time>
      </trkpt>
      <trkpt lat="36.99671" lon="-2.57579">
        <ele>359.945462</ele>
        <time>2022-02-25T01:53:51.187Z</time>
      </trkpt>
      <trkpt lat="36.99625" lon="-2.57585">
        <ele>358.128359</ele>
        <time>2022-02-25T01:53:59.604Z</time>
      </trkpt>
      <trkpt lat="36.99593" lon="-2.57578">
        <ele>357.275817</ele>
        <time>2022-02-25T01:54:05.559Z</time>
      </trkpt>
      <trkpt lat="36.9957" lon="-2.57584">
        <ele>356.837707</ele>
        <time>2022-02-25T01:54:10.245Z</time>
      </trkpt>
      <trkpt lat="36.99531" lon="-2.57605">
        <ele>356.045164</ele>
        <time>2022-02-25T01:54:18.446Z</time>
      </trkpt>
      <trkpt lat="36.99512" lon="-2.57607">
        <ele>355.708557</ele>
        <time>2022-02-25T01:54:22.364Z</time>
      </trkpt>
      <trkpt lat="36.99476" lon="-2.57616">
        <ele>355.03038</ele>
        <time>2022-02-25T01:54:30.223Z</time>
      </trkpt>
      <trkpt lat="36.9946" lon="-2.5763">
        <ele>354.663912</ele>
        <time>2022-02-25T01:54:34.264Z</time>
      </trkpt>
      <trkpt lat="36.99451" lon="-2.57648">
        <ele>354.344622</ele>
        <time>2022-02-25T01:54:37.931Z</time>
      </trkpt>
      <trkpt lat="36.9945" lon="-2.57665">
        <ele>353.628019</ele>
        <time>2022-02-25T01:54:40.396Z</time>
      </trkpt>
      <trkpt lat="36.99457" lon="-2.57683">
        <ele>352.607465</ele>
        <time>2022-02-25T01:54:43.547Z</time>
      </trkpt>
      <trkpt lat="36.99461" lon="-2.57731">
        <ele>350.280653</ele>
        <time>2022-02-25T01:54:50.157Z</time>
      </trkpt>
      <trkpt lat="36.99471" lon="-2.57788">
        <ele>347.437017</ele>
        <time>2022-02-25T01:54:57.682Z</time>
      </trkpt>
      <trkpt lat="36.99503" lon="-2.57832">
        <ele>344.543212</ele>
        <time>2022-02-25T01:55:04.888Z</time>
      </trkpt>
      <trkpt lat="36.99506" lon="-2.57861">
        <ele>343.062248</ele>
        <time>2022-02-25T01:55:08.289Z</time>
      </trkpt>
      <trkpt lat="36.99499" lon="-2.5791">
        <ele>339.634713</ele>
        <time>2022-02-25T01:55:14.212Z</time>
      </trkpt>
      <trkpt lat="36.99488" lon="-2.57973">
        <ele>335.161321</ele>
        <time>2022-02-25T01:55:21.984Z</time>
      </trkpt>
      <trkpt lat="36.99491" lon="-2.57983">
        <ele>334.464918</ele>
        <time>2022-02-25T01:55:23.165Z</time>
      </trkpt>
      <trkpt lat="36.99502" lon="-2.58022">
        <ele>331.601858</ele>
        <time>2022-02-25T01:55:28.210Z</time>
      </trkpt>
      <trkpt lat="36.9951" lon="-2.58049">
        <ele>329.619327</ele>
        <time>2022-02-25T01:55:31.793Z</time>
      </trkpt>
      <trkpt lat="36.9947" lon="-2.58043">
        <ele>327.173057</ele>
        <time>2022-02-25T01:55:38.306Z</time>
      </trkpt>
      <trkpt lat="36.99402" lon="-2.58062">
        <ele>324.683764</ele>
        <time>2022-02-25T01:55:50.591Z</time>
      </trkpt>
      <trkpt lat="36.99382" lon="-2.58061">
        <ele>323.972896</ele>
        <time>2022-02-25T01:55:54.317Z</time>
      </trkpt>
      <trkpt lat="36.99354" lon="-2.58128">
        <ele>321.829005</ele>
        <time>2022-02-25T01:56:05.470Z</time>
      </trkpt>
      <trkpt lat="36.99332" lon="-2.58174">
        <ele>320.334347</ele>
        <time>2022-02-25T01:56:14.087Z</time>
      </trkpt>
      <trkpt lat="36.99311" lon="-2.58206">
        <ele>319.223891</ele>
        <time>2022-02-25T01:56:20.554Z</time>
      </trkpt>
      <trkpt lat="36.99295" lon="-2.58217">
        <ele>318.601469</ele>
        <time>2022-02-25T01:56:23.859Z</time>
      </trkpt>
      <trkpt lat="36.99283" lon="-2.5822">
        <ele>318.182753</ele>
        <time>2022-02-25T01:56:26.026Z</time>
      </trkpt>
      <trkpt lat="36.99269" lon="-2.58231">
        <ele>317.614082</ele>
        <time>2022-02-25T01:56:29.005Z</time>
      </trkpt>
      <trkpt lat="36.99262" lon="-2.5827">
        <ele>316.520163</ele>
        <time>2022-02-25T01:56:34.351Z</time>
      </trkpt>
      <trkpt lat="36.99254" lon="-2.58292">
        <ele>315.848795</ele>
        <time>2022-02-25T01:56:37.553Z</time>
      </trkpt>
      <trkpt lat="36.99227" lon="-2.58345">
        <ele>313.559587</ele>
        <time>2022-02-25T01:56:45.865Z</time>
      </trkpt>
      <trkpt lat="36.99207" lon="-2.5836">
        <ele>312.406828</ele>
        <time>2022-02-25T01:56:49.553Z</time>
      </trkpt>
      <trkpt lat="36.99186" lon="-2.58371">
        <ele>311.263712</ele>
        <time>2022-02-25T01:56:53.440Z</time>
      </trkpt>
      <trkpt lat="36.99169" lon="-2.58389">
        <ele>310.110836</ele>
        <time>2022-02-25T01:56:57.403Z</time>
      </trkpt>
      <trkpt lat="36.99164" lon="-2.58403">
        <ele>309.476772</ele>
        <time>2022-02-25T01:56:59.578Z</time>
      </trkpt>
      <trkpt lat="36.99124" lon="-2.58423">
        <ele>307.319638</ele>
        <time>2022-02-25T01:57:06.642Z</time>
      </trkpt>
      <trkpt lat="36.9911" lon="-2.58445">
        <ele>306.202115</ele>
        <time>2022-02-25T01:57:10.189Z</time>
      </trkpt>
      <trkpt lat="36.991" lon="-2.58498">
        <ele>303.960371</ele>
        <time>2022-02-25T01:57:17.186Z</time>
      </trkpt>
      <trkpt lat="36.99096" lon="-2.58504">
        <ele>303.676338</ele>
        <time>2022-02-25T01:57:18.083Z</time>
      </trkpt>
      <trkpt lat="36.99104" lon="-2.58506">
        <ele>303.261416</ele>
        <time>2022-02-25T01:57:19.446Z</time>
      </trkpt>
      <trkpt lat="36.99086" lon="-2.58533">
        <ele>301.811172</ele>
        <time>2022-02-25T01:57:24.155Z</time>
      </trkpt>
      <trkpt lat="36.99073" lon="-2.58539">
        <ele>301.11019</ele>
        <time>2022-02-25T01:57:26.539Z</time>
      </trkpt>
      <trkpt lat="36.99054" lon="-2.58557">
        <ele>299.902194</ele>
        <time>2022-02-25T01:57:30.601Z</time>
      </trkpt>
      <trkpt lat="36.99053" lon="-2.58559">
        <ele>299.813229</ele>
        <time>2022-02-25T01:57:30.926Z</time>
      </trkpt>
      <trkpt lat="36.9905" lon="-2.58558">
        <ele>299.685354</ele>
        <time>2022-02-25T01:57:31.385Z</time>
      </trkpt>
      <trkpt lat="36.99034" lon="-2.5855">
        <ele>298.804221</ele>
        <time>2022-02-25T01:57:34.262Z</time>
      </trkpt>
      <trkpt lat="36.99028" lon="-2.58552">
        <ele>298.480269</ele>
        <time>2022-02-25T01:57:35.353Z</time>
      </trkpt>
      <trkpt lat="36.98991" lon="-2.58562">
        <ele>296.494503</ele>
        <time>2022-02-25T01:57:41.671Z</time>
      </trkpt>
      <trkpt lat="36.98975" lon="-2.58578">
        <ele>295.311639</ele>
        <time>2022-02-25T01:57:45.108Z</time>
      </trkpt>
      <trkpt lat="36.9896" lon="-2.58592">
        <ele>294.242189</ele>
        <time>2022-02-25T01:57:48.125Z</time>
      </trkpt>
      <trkpt lat="36.98938" lon="-2.58608">
        <ele>292.788188</ele>
        <time>2022-02-25T01:57:52.161Z</time>
      </trkpt>
      <trkpt lat="36.98935" lon="-2.58612">
        <ele>292.511938</ele>
        <time>2022-02-25T01:57:52.928Z</time>
      </trkpt>
      <trkpt lat="36.98927" lon="-2.58654">
        <ele>290.534869</ele>
        <time>2022-02-25T01:57:58.489Z</time>
      </trkpt>
      <trkpt lat="36.98914" lon="-2.58688">
        <ele>288.814563</ele>
        <time>2022-02-25T01:58:03.400Z</time>
      </trkpt>
      <trkpt lat="36.9891" lon="-2.58689">
        <ele>288.58387</ele>
        <time>2022-02-25T01:58:04.008Z</time>
      </trkpt>
      <trkpt lat="36.98895" lon="-2.58681">
        <ele>287.656392</ele>
        <time>2022-02-25T01:58:06.770Z</time>
      </trkpt>
      <trkpt lat="36.9889" lon="-2.58679">
        <ele>287.329015</ele>
        <time>2022-02-25T01:58:07.683Z</time>
      </trkpt>
      <trkpt lat="36.98877" lon="-2.5871">
        <ele>285.863086</ele>
        <time>2022-02-25T01:58:12.174Z</time>
      </trkpt>
      <trkpt lat="36.98852" lon="-2.58766">
        <ele>283.215989</ele>
        <time>2022-02-25T01:58:20.522Z</time>
      </trkpt>
      <trkpt lat="36.98852" lon="-2.5877">
        <ele>283.064328</ele>
        <time>2022-02-25T01:58:22.614Z</time>
      </trkpt>
      <trkpt lat="36.98851" lon="-2.5877">
        <ele>283.002783</ele>
        <time>2022-02-25T01:58:22.787Z</time>
      </trkpt>
      <trkpt lat="36.98845" lon="-2.58769">
        <ele>282.683511</ele>
        <time>2022-02-25T01:58:23.731Z</time>
      </trkpt>
      <trkpt lat="36.98844" lon="-2.58772">
        <ele>282.555476</ele>
        <time>2022-02-25T01:58:24.150Z</time>
      </trkpt>
      <trkpt lat="36.98841" lon="-2.58787">
        <ele>281.947103</ele>
        <time>2022-02-25T01:58:26.176Z</time>
      </trkpt>
      <trkpt lat="36.98836" lon="-2.58807">
        <ele>281.079978</ele>
        <time>2022-02-25T01:58:28.860Z</time>
      </trkpt>
      <trkpt lat="36.98853" lon="-2.58816">
        <ele>280.13493</ele>
        <time>2022-02-25T01:58:31.948Z</time>
      </trkpt>
      <trkpt lat="36.98839" lon="-2.5889">
        <ele>277.391453</ele>
        <time>2022-02-25T01:58:42.253Z</time>
      </trkpt>
      <trkpt lat="36.98716" lon="-2.58887">
        <ele>275.384387</ele>
        <time>2022-02-25T01:59:05.891Z</time>
      </trkpt>
      <trkpt lat="36.98754" lon="-2.58926">
        <ele>274.804369</ele>
        <time>2022-02-25T01:59:17.840Z</time>
      </trkpt>
      <trkpt lat="36.98755" lon="-2.5893">
        <ele>274.90041</ele>
        <time>2022-02-25T01:59:18.607Z</time>
      </trkpt>
      <trkpt lat="36.98761" lon="-2.59084">
        <ele>278.894741</ele>
        <time>2022-02-25T02:00:02.537Z</time>
      </trkpt>
      <trkpt lat="36.9877" lon="-2.59123">
        <ele>279.943324</ele>
        <time>2022-02-25T02:00:18.912Z</time>
      </trkpt>
      <trkpt lat="36.98781" lon="-2.59148">
        <ele>280.900246</ele>
        <time>2022-02-25T02:00:31.582Z</time>
      </trkpt>
      <trkpt lat="36.9878" lon="-2.59181">
        <ele>282.703324</ele>
        <time>2022-02-25T02:00:45.911Z</time>
      </trkpt>
      <trkpt lat="36.98771" lon="-2.59193">
        <ele>283.56009</ele>
        <time>2022-02-25T02:00:54.721Z</time>
      </trkpt>
      <trkpt lat="36.98736" lon="-2.59219">
        <ele>286.344029</ele>
        <time>2022-02-25T02:01:19.120Z</time>
      </trkpt>
      <trkpt lat="36.98647" lon="-2.59277">
        <ele>292.862108</ele>
        <time>2022-02-25T02:02:19.865Z</time>
      </trkpt>
      <trkpt lat="36.98573" lon="-2.5929">
        <ele>294.272419</ele>
        <time>2022-02-25T02:02:55.419Z</time>
      </trkpt>
      <trkpt lat="36.9849" lon="-2.59325">
        <ele>295.918546</ele>
        <time>2022-02-25T02:03:15.019Z</time>
      </trkpt>
      <trkpt lat="36.98462" lon="-2.59351">
        <ele>295.033487</ele>
        <time>2022-02-25T02:03:21.390Z</time>
      </trkpt>
      <trkpt lat="36.98428" lon="-2.59361">
        <ele>293.437761</ele>
        <time>2022-02-25T02:03:27.297Z</time>
      </trkpt>
      <trkpt lat="36.98401" lon="-2.59371">
        <ele>292.142749</ele>
        <time>2022-02-25T02:03:32.006Z</time>
      </trkpt>
      <trkpt lat="36.98388" lon="-2.59379">
        <ele>291.497548</ele>
        <time>2022-02-25T02:03:34.370Z</time>
      </trkpt>
      <trkpt lat="36.9838" lon="-2.59397">
        <ele>290.763561</ele>
        <time>2022-02-25T02:03:37.046Z</time>
      </trkpt>
      <trkpt lat="36.98383" lon="-2.59409">
        <ele>290.326464</ele>
        <time>2022-02-25T02:03:38.520Z</time>
      </trkpt>
      <trkpt lat="36.98377" lon="-2.59428">
        <ele>289.561691</ele>
        <time>2022-02-25T02:03:41.449Z</time>
      </trkpt>
      <trkpt lat="36.98379" lon="-2.59475">
        <ele>287.880971</ele>
        <time>2022-02-25T02:03:47.467Z</time>
      </trkpt>
      <trkpt lat="36.98372" lon="-2.59492">
        <ele>287.270676</ele>
        <time>2022-02-25T02:03:49.855Z</time>
      </trkpt>
      <trkpt lat="36.98382" lon="-2.59523">
        <ele>286.19187</ele>
        <time>2022-02-25T02:03:54.480Z</time>
      </trkpt>
      <trkpt lat="36.98383" lon="-2.59528">
        <ele>286.037584</ele>
        <time>2022-02-25T02:03:55.095Z</time>
      </trkpt>
      <trkpt lat="36.9838" lon="-2.59538">
        <ele>285.708626</ele>
        <time>2022-02-25T02:03:56.387Z</time>
      </trkpt>
      <trkpt lat="36.98375" lon="-2.59553">
        <ele>285.211279</ele>
        <time>2022-02-25T02:03:58.715Z</time>
      </trkpt>
      <trkpt lat="36.98376" lon="-2.59591">
        <ele>284.021355</ele>
        <time>2022-02-25T02:04:03.950Z</time>
      </trkpt>
      <trkpt lat="36.98379" lon="-2.59597">
        <ele>283.790032</ele>
        <time>2022-02-25T02:04:05.207Z</time>
      </trkpt>
      <trkpt lat="36.98377" lon="-2.59625">
        <ele>282.902286</ele>
        <time>2022-02-25T02:04:09.235Z</time>
      </trkpt>
      <trkpt lat="36.9837" lon="-2.5963">
        <ele>282.591532</ele>
        <time>2022-02-25T02:04:10.719Z</time>
      </trkpt>
      <trkpt lat="36.98367" lon="-2.59651">
        <ele>281.90274</ele>
        <time>2022-02-25T02:04:13.867Z</time>
      </trkpt>
      <trkpt lat="36.98366" lon="-2.5967">
        <ele>281.295503</ele>
        <time>2022-02-25T02:04:16.579Z</time>
      </trkpt>
      <trkpt lat="36.98362" lon="-2.5969">
        <ele>280.748763</ele>
        <time>2022-02-25T02:04:19.735Z</time>
      </trkpt>
      <trkpt lat="36.98361" lon="-2.59718">
        <ele>280.320406</ele>
        <time>2022-02-25T02:04:23.779Z</time>
      </trkpt>
      <trkpt lat="36.98365" lon="-2.59733">
        <ele>280.067956</ele>
        <time>2022-02-25T02:04:26.098Z</time>
      </trkpt>
      <trkpt lat="36.98372" lon="-2.59735">
        <ele>279.924006</ele>
        <time>2022-02-25T02:04:27.493Z</time>
      </trkpt>
      <trkpt lat="36.98376" lon="-2.59747">
        <ele>279.710415</ele>
        <time>2022-02-25T02:04:29.634Z</time>
      </trkpt>
      <trkpt lat="36.98388" lon="-2.598">
        <ele>278.845103</ele>
        <time>2022-02-25T02:04:37.907Z</time>
      </trkpt>
      <trkpt lat="36.98375" lon="-2.59811">
        <ele>278.533188</ele>
        <time>2022-02-25T02:04:40.831Z</time>
      </trkpt>
      <trkpt lat="36.98377" lon="-2.59839">
        <ele>278.08131</ele>
        <time>2022-02-25T02:04:45.453Z</time>
      </trkpt>
      <trkpt lat="36.98386" lon="-2.59869">
        <ele>277.586784</ele>
        <time>2022-02-25T02:04:50.487Z</time>
      </trkpt>
      <trkpt lat="36.98318" lon="-2.59902">
        <ele>277.614173</ele>
        <time>2022-02-25T02:05:05.318Z</time>
      </trkpt>
      <trkpt lat="36.98312" lon="-2.59906">
        <ele>277.656792</ele>
        <time>2022-02-25T02:05:06.953Z</time>
      </trkpt>
      <trkpt lat="36.98472" lon="-2.60351">
        <ele>280.558798</ele>
        <time>2022-02-25T02:06:51.976Z</time>
      </trkpt>
      <trkpt lat="36.98517" lon="-2.60479">
        <ele>282.105112</ele>
        <time>2022-02-25T02:07:26.912Z</time>
      </trkpt>
      <trkpt lat="36.98516" lon="-2.60697">
        <ele>284.822024</ele>
        <time>2022-02-25T02:08:18.971Z</time>
      </trkpt>
      <trkpt lat="36.98514" lon="-2.60822">
        <ele>286.391505</ele>
        <time>2022-02-25T02:08:48.320Z</time>
      </trkpt>
      <trkpt lat="36.98593" lon="-2.60998">
        <ele>289.207374</ele>
        <time>2022-02-25T02:09:38.384Z</time>
      </trkpt>
      <trkpt lat="36.98612" lon="-2.61052">
        <ele>290.064182</ele>
        <time>2022-02-25T02:09:53.414Z</time>
      </trkpt>
      <trkpt lat="36.98617" lon="-2.61094">
        <ele>290.673648</ele>
        <time>2022-02-25T02:10:04.307Z</time>
      </trkpt>
      <trkpt lat="36.98615" lon="-2.61217">
        <ele>292.486112</ele>
        <time>2022-02-25T02:10:35.725Z</time>
      </trkpt>
      <trkpt lat="36.98623" lon="-2.61264">
        <ele>293.192012</ele>
        <time>2022-02-25T02:10:47.908Z</time>
      </trkpt>
      <trkpt lat="36.98678" lon="-2.61396">
        <ele>294.867157</ele>
        <time>2022-02-25T02:11:23.666Z</time>
      </trkpt>
      <trkpt lat="36.98704" lon="-2.61502">
        <ele>295.940569</ele>
        <time>2022-02-25T02:11:48.032Z</time>
      </trkpt>
      <trkpt lat="36.98705" lon="-2.61574">
        <ele>296.518284</ele>
        <time>2022-02-25T02:12:02.352Z</time>
      </trkpt>
      <trkpt lat="36.98697" lon="-2.61601">
        <ele>296.73256</ele>
        <time>2022-02-25T02:12:07.720Z</time>
      </trkpt>
      <trkpt lat="36.98607" lon="-2.61757">
        <ele>298.713708</ele>
        <time>2022-02-25T02:12:50.501Z</time>
      </trkpt>
      <trkpt lat="36.9859" lon="-2.61814">
        <ele>299.77309</ele>
        <time>2022-02-25T02:13:06.156Z</time>
      </trkpt>
      <trkpt lat="36.98589" lon="-2.61877">
        <ele>300.866101</ele>
        <time>2022-02-25T02:13:23.442Z</time>
      </trkpt>
      <trkpt lat="36.98577" lon="-2.61938">
        <ele>302.066299</ele>
        <time>2022-02-25T02:13:42.584Z</time>
      </trkpt>
      <trkpt lat="36.98567" lon="-2.61986">
        <ele>303.247268</ele>
        <time>2022-02-25T02:13:57.982Z</time>
      </trkpt>
      <trkpt lat="36.98569" lon="-2.62014">
        <ele>303.900688</ele>
        <time>2022-02-25T02:14:06.724Z</time>
      </trkpt>
      <trkpt lat="36.98576" lon="-2.62031">
        <ele>304.368144</ele>
        <time>2022-02-25T02:14:12.984Z</time>
      </trkpt>
      <trkpt lat="36.98635" lon="-2.62099">
        <ele>306.742324</ele>
        <time>2022-02-25T02:14:41.858Z</time>
      </trkpt>
      <trkpt lat="36.98651" lon="-2.62139">
        <ele>307.753216</ele>
        <time>2022-02-25T02:14:54.404Z</time>
      </trkpt>
      <trkpt lat="36.98654" lon="-2.62155">
        <ele>308.125066</ele>
        <time>2022-02-25T02:14:59.417Z</time>
      </trkpt>
      <trkpt lat="36.98606" lon="-2.62587">
        <ele>319.746413</ele>
        <time>2022-02-25T02:17:04.567Z</time>
      </trkpt>
      <trkpt lat="36.98563" lon="-2.62741">
        <ele>329.934548</ele>
        <time>2022-02-25T02:18:31.211Z</time>
      </trkpt>
      <trkpt lat="36.98562" lon="-2.62744">
        <ele>330.190296</ele>
        <time>2022-02-25T02:18:33.454Z</time>
      </trkpt>
      <trkpt lat="36.98544" lon="-2.62794">
        <ele>334.054011</ele>
        <time>2022-02-25T02:19:06.271Z</time>
      </trkpt>
      <trkpt lat="36.98523" lon="-2.62831">
        <ele>337.525131</ele>
        <time>2022-02-25T02:19:32.464Z</time>
      </trkpt>
      <trkpt lat="36.98435" lon="-2.62928">
        <ele>348.863202</ele>
        <time>2022-02-25T02:20:52.610Z</time>
      </trkpt>
      <trkpt lat="36.98387" lon="-2.63008">
        <ele>356.617655</ele>
        <time>2022-02-25T02:21:52.494Z</time>
      </trkpt>
      <trkpt lat="36.9836" lon="-2.63034">
        <ele>359.95526</ele>
        <time>2022-02-25T02:22:17.472Z</time>
      </trkpt>
      <trkpt lat="36.9832" lon="-2.63054">
        <ele>364.113679</ele>
        <time>2022-02-25T02:22:48.299Z</time>
      </trkpt>
      <trkpt lat="36.98289" lon="-2.63075">
        <ele>367.174457</ele>
        <time>2022-02-25T02:23:12.249Z</time>
      </trkpt>
      <trkpt lat="36.98274" lon="-2.63094">
        <ele>368.450092</ele>
        <time>2022-02-25T02:23:25.975Z</time>
      </trkpt>
      <trkpt lat="36.98232" lon="-2.63232">
        <ele>375.378985</ele>
        <time>2022-02-25T02:24:31.419Z</time>
      </trkpt>
      <trkpt lat="36.98232" lon="-2.63259">
        <ele>376.649245</ele>
        <time>2022-02-25T02:24:37.508Z</time>
      </trkpt>
      <trkpt lat="36.98244" lon="-2.63296">
        <ele>377.721588</ele>
        <time>2022-02-25T02:24:45.707Z</time>
      </trkpt>
      <trkpt lat="36.9826" lon="-2.63318">
        <ele>378.271443</ele>
        <time>2022-02-25T02:24:51.249Z</time>
      </trkpt>
      <trkpt lat="36.98279" lon="-2.6332">
        <ele>378.721068</ele>
        <time>2022-02-25T02:24:56.121Z</time>
      </trkpt>
      <trkpt lat="36.98294" lon="-2.63312">
        <ele>379.093431</ele>
        <time>2022-02-25T02:25:00.515Z</time>
      </trkpt>
      <trkpt lat="36.98321" lon="-2.63263">
        <ele>380.18046</ele>
        <time>2022-02-25T02:25:15.333Z</time>
      </trkpt>
      <trkpt lat="36.98339" lon="-2.63249">
        <ele>380.665058</ele>
        <time>2022-02-25T02:25:22.872Z</time>
      </trkpt>
      <trkpt lat="36.98364" lon="-2.63256">
        <ele>381.273775</ele>
        <time>2022-02-25T02:25:33.331Z</time>
      </trkpt>
      <trkpt lat="36.98375" lon="-2.63277">
        <ele>382.50731</ele>
        <time>2022-02-25T02:25:41.333Z</time>
      </trkpt>
      <trkpt lat="36.98373" lon="-2.63304">
        <ele>383.984626</ele>
        <time>2022-02-25T02:25:51.401Z</time>
      </trkpt>
      <trkpt lat="36.98274" lon="-2.63407">
        <ele>392.890212</ele>
        <time>2022-02-25T02:27:08.052Z</time>
      </trkpt>
      <trkpt lat="36.98265" lon="-2.63421">
        <ele>393.909808</ele>
        <time>2022-02-25T02:27:19.176Z</time>
      </trkpt>
      <trkpt lat="36.9826" lon="-2.63441">
        <ele>395.378274</ele>
        <time>2022-02-25T02:27:31.304Z</time>
      </trkpt>
      <trkpt lat="36.9826" lon="-2.6355">
        <ele>403.009485</ele>
        <time>2022-02-25T02:28:32.389Z</time>
      </trkpt>
      <trkpt lat="36.98264" lon="-2.63582">
        <ele>405.264272</ele>
        <time>2022-02-25T02:28:48.858Z</time>
      </trkpt>
      <trkpt lat="36.98277" lon="-2.63602">
        <ele>407.048078</ele>
        <time>2022-02-25T02:29:02.119Z</time>
      </trkpt>
      <trkpt lat="36.98303" lon="-2.63616">
        <ele>409.514184</ele>
        <time>2022-02-25T02:29:19.135Z</time>
      </trkpt>
      <trkpt lat="36.98348" lon="-2.63625">
        <ele>412.701316</ele>
        <time>2022-02-25T02:29:46.109Z</time>
      </trkpt>
      <trkpt lat="36.98372" lon="-2.63647">
        <ele>414.77087</ele>
        <time>2022-02-25T02:30:04.329Z</time>
      </trkpt>
      <trkpt lat="36.98425" lon="-2.63766">
        <ele>422.088843</ele>
        <time>2022-02-25T02:31:06.128Z</time>
      </trkpt>
      <trkpt lat="36.98428" lon="-2.63791">
        <ele>422.460721</ele>
        <time>2022-02-25T02:31:15.708Z</time>
      </trkpt>
      <trkpt lat="36.98424" lon="-2.63862">
        <ele>423.532211</ele>
        <time>2022-02-25T02:31:38.446Z</time>
      </trkpt>
      <trkpt lat="36.98459" lon="-2.63859">
        <ele>424.187947</ele>
        <time>2022-02-25T02:31:48.264Z</time>
      </trkpt>
      <trkpt lat="36.98473" lon="-2.63873">
        <ele>424.53059</ele>
        <time>2022-02-25T02:31:52.432Z</time>
      </trkpt>
      <trkpt lat="36.9848" lon="-2.63891">
        <ele>424.817079</ele>
        <time>2022-02-25T02:31:55.614Z</time>
      </trkpt>
      <trkpt lat="36.98485" lon="-2.63905">
        <ele>425.04697</ele>
        <time>2022-02-25T02:31:58.084Z</time>
      </trkpt>
      <trkpt lat="36.9849" lon="-2.63918">
        <ele>425.260766</ele>
        <time>2022-02-25T02:32:00.331Z</time>
      </trkpt>
      <trkpt lat="36.98497" lon="-2.63922">
        <ele>425.315889</ele>
        <time>2022-02-25T02:32:01.741Z</time>
      </trkpt>
      <trkpt lat="36.98511" lon="-2.63925">
        <ele>425.016521</ele>
        <time>2022-02-25T02:32:04.330Z</time>
      </trkpt>
      <trkpt lat="36.98531" lon="-2.63917">
        <ele>424.557845</ele>
        <time>2022-02-25T02:32:08.026Z</time>
      </trkpt>
      <trkpt lat="36.98539" lon="-2.63913">
        <ele>424.365197</ele>
        <time>2022-02-25T02:32:09.587Z</time>
      </trkpt>
      <trkpt lat="36.98569" lon="-2.63899">
        <ele>423.677931</ele>
        <time>2022-02-25T02:32:14.712Z</time>
      </trkpt>
      <trkpt lat="36.98577" lon="-2.63895">
        <ele>423.497151</ele>
        <time>2022-02-25T02:32:16.160Z</time>
      </trkpt>
      <trkpt lat="36.98588" lon="-2.63891">
        <ele>423.257015</ele>
        <time>2022-02-25T02:32:18.111Z</time>
      </trkpt>
      <trkpt lat="36.98614" lon="-2.63894">
        <ele>422.693096</ele>
        <time>2022-02-25T02:32:22.600Z</time>
      </trkpt>
      <trkpt lat="36.98626" lon="-2.63905">
        <ele>422.366044</ele>
        <time>2022-02-25T02:32:25.263Z</time>
      </trkpt>
      <trkpt lat="36.98664" lon="-2.63899">
        <ele>421.551982</ele>
        <time>2022-02-25T02:32:32.296Z</time>
      </trkpt>
      <trkpt lat="36.98676" lon="-2.63904">
        <ele>421.705126</ele>
        <time>2022-02-25T02:32:35.061Z</time>
      </trkpt>
      <trkpt lat="36.98754" lon="-2.63984">
        <ele>423.910043</ele>
        <time>2022-02-25T02:33:07.203Z</time>
      </trkpt>
      <trkpt lat="36.98779" lon="-2.64039">
        <ele>425.013598</ele>
        <time>2022-02-25T02:33:28.615Z</time>
      </trkpt>
      <trkpt lat="36.9878" lon="-2.64042">
        <ele>425.074395</ele>
        <time>2022-02-25T02:33:29.819Z</time>
      </trkpt>
      <trkpt lat="36.98796" lon="-2.641">
        <ele>426.677849</ele>
        <time>2022-02-25T02:33:50.465Z</time>
      </trkpt>
      <trkpt lat="36.98804" lon="-2.6413">
        <ele>427.626297</ele>
        <time>2022-02-25T02:34:01.604Z</time>
      </trkpt>
      <trkpt lat="36.98838" lon="-2.64268">
        <ele>431.981141</ele>
        <time>2022-02-25T02:34:49.742Z</time>
      </trkpt>
      <trkpt lat="36.9884" lon="-2.64312">
        <ele>432.735701</ele>
        <time>2022-02-25T02:35:02.636Z</time>
      </trkpt>
      <trkpt lat="36.98852" lon="-2.64379">
        <ele>433.707875</ele>
        <time>2022-02-25T02:35:21.269Z</time>
      </trkpt>
      <trkpt lat="36.98862" lon="-2.64432">
        <ele>434.479374</ele>
        <time>2022-02-25T02:35:35.008Z</time>
      </trkpt>
      <trkpt lat="36.98902" lon="-2.64509">
        <ele>434.955471</ele>
        <time>2022-02-25T02:35:53.097Z</time>
      </trkpt>
      <trkpt lat="36.98929" lon="-2.64566">
        <ele>433.828801</ele>
        <time>2022-02-25T02:36:03.462Z</time>
      </trkpt>
      <trkpt lat="36.9894" lon="-2.64587">
        <ele>433.401188</ele>
        <time>2022-02-25T02:36:07.099Z</time>
      </trkpt>
      <trkpt lat="36.9912" lon="-2.6494">
        <ele>424.346864</ele>
        <time>2022-02-25T02:37:03.163Z</time>
      </trkpt>
      <trkpt lat="36.99151" lon="-2.65022">
        <ele>423.605556</ele>
        <time>2022-02-25T02:37:18.251Z</time>
      </trkpt>
      <trkpt lat="36.99161" lon="-2.65073">
        <ele>423.291063</ele>
        <time>2022-02-25T02:37:30.710Z</time>
      </trkpt>
      <trkpt lat="36.99164" lon="-2.65132">
        <ele>424.571684</ele>
        <time>2022-02-25T02:37:48.424Z</time>
      </trkpt>
      <trkpt lat="36.99159" lon="-2.65423">
        <ele>429.959167</ele>
        <time>2022-02-25T02:39:14.513Z</time>
      </trkpt>
      <trkpt lat="36.9916" lon="-2.65444">
        <ele>430.28018</ele>
        <time>2022-02-25T02:39:19.283Z</time>
      </trkpt>
      <trkpt lat="36.99173" lon="-2.65506">
        <ele>431.230367</ele>
        <time>2022-02-25T02:39:33.478Z</time>
      </trkpt>
      <trkpt lat="36.99198" lon="-2.65562">
        <ele>430.733974</ele>
        <time>2022-02-25T02:39:44.193Z</time>
      </trkpt>
      <trkpt lat="36.99216" lon="-2.65597">
        <ele>430.215008</ele>
        <time>2022-02-25T02:39:50.103Z</time>
      </trkpt>
      <trkpt lat="36.9921" lon="-2.6562">
        <ele>429.909893</ele>
        <time>2022-02-25T02:39:53.399Z</time>
      </trkpt>
      <trkpt lat="36.99206" lon="-2.65629">
        <ele>429.783825</ele>
        <time>2022-02-25T02:39:54.782Z</time>
      </trkpt>
      <trkpt lat="36.99208" lon="-2.6565">
        <ele>429.519634</ele>
        <time>2022-02-25T02:39:57.501Z</time>
      </trkpt>
      <trkpt lat="36.99237" lon="-2.65719">
        <ele>428.679685</ele>
        <time>2022-02-25T02:40:08.716Z</time>
      </trkpt>
      <trkpt lat="36.99255" lon="-2.65749">
        <ele>429.736821</ele>
        <time>2022-02-25T02:40:16.481Z</time>
      </trkpt>
      <trkpt lat="36.99271" lon="-2.6576">
        <ele>430.381305</ele>
        <time>2022-02-25T02:40:22.881Z</time>
      </trkpt>
      <trkpt lat="36.99303" lon="-2.65782">
        <ele>431.650515</ele>
        <time>2022-02-25T02:40:37.756Z</time>
      </trkpt>
      <trkpt lat="36.99338" lon="-2.65831">
        <ele>433.491577</ele>
        <time>2022-02-25T02:41:00.258Z</time>
      </trkpt>
      <trkpt lat="36.99314" lon="-2.6587">
        <ele>434.83337</ele>
        <time>2022-02-25T02:41:19.835Z</time>
      </trkpt>
      <trkpt lat="36.99301" lon="-2.65884">
        <ele>436.586096</ele>
        <time>2022-02-25T02:41:30.437Z</time>
      </trkpt>
      <trkpt lat="36.9929" lon="-2.65884">
        <ele>437.731744</ele>
        <time>2022-02-25T02:41:37.420Z</time>
      </trkpt>
      <trkpt lat="36.9926" lon="-2.65907">
        <ele>441.404257</ele>
        <time>2022-02-25T02:42:03.085Z</time>
      </trkpt>
      <trkpt lat="36.99271" lon="-2.65948">
        <ele>445.058848</ele>
        <time>2022-02-25T02:42:32.523Z</time>
      </trkpt>
      <trkpt lat="36.99278" lon="-2.6598">
        <ele>447.812587</ele>
        <time>2022-02-25T02:42:56.499Z</time>
      </trkpt>
      <trkpt lat="36.9928" lon="-2.66002">
        <ele>449.720552</ele>
        <time>2022-02-25T02:43:12.596Z</time>
      </trkpt>
      <trkpt lat="36.9928" lon="-2.66018">
        <ele>451.030406</ele>
        <time>2022-02-25T02:43:22.504Z</time>
      </trkpt>
      <trkpt lat="36.99272" lon="-2.66075">
        <ele>455.837175</ele>
        <time>2022-02-25T02:43:57.027Z</time>
      </trkpt>
      <trkpt lat="36.99256" lon="-2.66091">
        <ele>458.014131</ele>
        <time>2022-02-25T02:44:15.283Z</time>
      </trkpt>
      <trkpt lat="36.99256" lon="-2.66107">
        <ele>459.285193</ele>
        <time>2022-02-25T02:44:21.766Z</time>
      </trkpt>
      <trkpt lat="36.99243" lon="-2.66113">
        <ele>460.661887</ele>
        <time>2022-02-25T02:44:33.547Z</time>
      </trkpt>
      <trkpt lat="36.99236" lon="-2.66129">
        <ele>462.208973</ele>
        <time>2022-02-25T02:44:43.041Z</time>
      </trkpt>
      <trkpt lat="36.99235" lon="-2.66165">
        <ele>465.180845</ele>
        <time>2022-02-25T02:45:08.575Z</time>
      </trkpt>
      <trkpt lat="36.9924" lon="-2.6617">
        <ele>465.87158</ele>
        <time>2022-02-25T02:45:11.898Z</time>
      </trkpt>
      <trkpt lat="36.99243" lon="-2.66183">
        <ele>467.001683</ele>
        <time>2022-02-25T02:45:19.911Z</time>
      </trkpt>
      <trkpt lat="36.99233" lon="-2.66211">
        <ele>469.545952</ele>
        <time>2022-02-25T02:45:40.155Z</time>
      </trkpt>
      <trkpt lat="36.99227" lon="-2.66239">
        <ele>471.947395</ele>
        <time>2022-02-25T02:45:59.965Z</time>
      </trkpt>
      <trkpt lat="36.99199" lon="-2.66293">
        <ele>474.108857</ele>
        <time>2022-02-25T02:46:25.482Z</time>
      </trkpt>
      <trkpt lat="36.99192" lon="-2.66317">
        <ele>474.8588</ele>
        <time>2022-02-25T02:46:35.417Z</time>
      </trkpt>
      <trkpt lat="36.99171" lon="-2.66355">
        <ele>476.21474</ele>
        <time>2022-02-25T02:46:48.614Z</time>
      </trkpt>
      <trkpt lat="36.99175" lon="-2.66373">
        <ele>476.754206</ele>
        <time>2022-02-25T02:46:52.775Z</time>
      </trkpt>
      <trkpt lat="36.99174" lon="-2.664">
        <ele>477.537217</ele>
        <time>2022-02-25T02:47:01.979Z</time>
      </trkpt>
      <trkpt lat="36.99168" lon="-2.66417">
        <ele>478.080847</ele>
        <time>2022-02-25T02:47:05.087Z</time>
      </trkpt>
      <trkpt lat="36.99171" lon="-2.66424">
        <ele>478.303457</ele>
        <time>2022-02-25T02:47:06.210Z</time>
      </trkpt>
      <trkpt lat="36.9916" lon="-2.66446">
        <ele>479.003033</ele>
        <time>2022-02-25T02:47:11.507Z</time>
      </trkpt>
      <trkpt lat="36.99161" lon="-2.66458">
        <ele>479.074643</ele>
        <time>2022-02-25T02:47:13.694Z</time>
      </trkpt>
      <trkpt lat="36.99166" lon="-2.66466">
        <ele>479.141462</ele>
        <time>2022-02-25T02:47:15.370Z</time>
      </trkpt>
      <trkpt lat="36.99205" lon="-2.66481">
        <ele>479.468198</ele>
        <time>2022-02-25T02:47:23.238Z</time>
      </trkpt>
      <trkpt lat="36.99213" lon="-2.6649">
        <ele>479.551566</ele>
        <time>2022-02-25T02:47:25.171Z</time>
      </trkpt>
      <trkpt lat="36.9922" lon="-2.66511">
        <ele>479.699945</ele>
        <time>2022-02-25T02:47:28.689Z</time>
      </trkpt>
      <trkpt lat="36.99222" lon="-2.66552">
        <ele>479.957227</ele>
        <time>2022-02-25T02:47:35.631Z</time>
      </trkpt>
      <trkpt lat="36.9923" lon="-2.66598">
        <ele>480.261736</ele>
        <time>2022-02-25T02:47:44.816Z</time>
      </trkpt>
      <trkpt lat="36.99245" lon="-2.66645">
        <ele>482.421502</ele>
        <time>2022-02-25T02:48:02.923Z</time>
      </trkpt>
      <trkpt lat="36.99231" lon="-2.66684">
        <ele>485.853792</ele>
        <time>2022-02-25T02:48:23.501Z</time>
      </trkpt>
      <trkpt lat="36.99232" lon="-2.66695">
        <ele>486.783496</ele>
        <time>2022-02-25T02:48:29.025Z</time>
      </trkpt>
      <trkpt lat="36.99244" lon="-2.66715">
        <ele>488.787152</ele>
        <time>2022-02-25T02:48:44.026Z</time>
      </trkpt>
      <trkpt lat="36.99267" lon="-2.66726">
        <ele>491.305054</ele>
        <time>2022-02-25T02:49:04.432Z</time>
      </trkpt>
      <trkpt lat="36.99272" lon="-2.66736">
        <ele>492.229668</ele>
        <time>2022-02-25T02:49:12.779Z</time>
      </trkpt>
      <trkpt lat="36.99272" lon="-2.66756">
        <ele>493.853237</ele>
        <time>2022-02-25T02:49:26.774Z</time>
      </trkpt>
      <trkpt lat="36.99265" lon="-2.66814">
        <ele>498.548789</ele>
        <time>2022-02-25T02:50:10.601Z</time>
      </trkpt>
      <trkpt lat="36.99241" lon="-2.66867">
        <ele>504.12532</ele>
        <time>2022-02-25T02:50:55.371Z</time>
      </trkpt>
      <trkpt lat="36.99228" lon="-2.66922">
        <ele>509.312288</ele>
        <time>2022-02-25T02:51:34.591Z</time>
      </trkpt>
      <trkpt lat="36.99202" lon="-2.66946">
        <ele>512.956175</ele>
        <time>2022-02-25T02:51:59.203Z</time>
      </trkpt>
      <trkpt lat="36.9921" lon="-2.66973">
        <ele>515.587461</ele>
        <time>2022-02-25T02:52:16.037Z</time>
      </trkpt>
      <trkpt lat="36.99209" lon="-2.66986">
        <ele>516.791788</ele>
        <time>2022-02-25T02:52:22.309Z</time>
      </trkpt>
      <trkpt lat="36.99192" lon="-2.67033">
        <ele>520.615194</ele>
        <time>2022-02-25T02:52:48.514Z</time>
      </trkpt>
      <trkpt lat="36.99192" lon="-2.67042">
        <ele>521.101505</ele>
        <time>2022-02-25T02:52:52.952Z</time>
      </trkpt>
      <trkpt lat="36.99199" lon="-2.6705">
        <ele>521.784554</ele>
        <time>2022-02-25T02:52:58.547Z</time>
      </trkpt>
      <trkpt lat="36.99247" lon="-2.67052">
        <ele>525.171389</ele>
        <time>2022-02-25T02:53:23.590Z</time>
      </trkpt>
      <trkpt lat="36.99253" lon="-2.67058">
        <ele>525.74236</ele>
        <time>2022-02-25T02:53:27.461Z</time>
      </trkpt>
      <trkpt lat="36.99256" lon="-2.67071">
        <ele>526.501533</ele>
        <time>2022-02-25T02:53:33.635Z</time>
      </trkpt>
      <trkpt lat="36.99255" lon="-2.67174">
        <ele>532.281464</ele>
        <time>2022-02-25T02:54:20.658Z</time>
      </trkpt>
      <trkpt lat="36.99233" lon="-2.67332">
        <ele>540.355926</ele>
        <time>2022-02-25T02:55:35.856Z</time>
      </trkpt>
      <trkpt lat="36.99226" lon="-2.67348">
        <ele>541.262316</ele>
        <time>2022-02-25T02:55:43.421Z</time>
      </trkpt>
      <trkpt lat="36.99128" lon="-2.67427">
        <ele>544.3763</ele>
        <time>2022-02-25T02:56:28.882Z</time>
      </trkpt>
      <trkpt lat="36.99121" lon="-2.67438">
        <ele>544.533475</ele>
        <time>2022-02-25T02:56:31.361Z</time>
      </trkpt>
      <trkpt lat="36.9912" lon="-2.67463">
        <ele>544.809215</ele>
        <time>2022-02-25T02:56:35.442Z</time>
      </trkpt>
      <trkpt lat="36.99127" lon="-2.67476">
        <ele>544.990264</ele>
        <time>2022-02-25T02:56:37.769Z</time>
      </trkpt>
      <trkpt lat="36.9917" lon="-2.67467">
        <ele>545.595866</ele>
        <time>2022-02-25T02:56:45.819Z</time>
      </trkpt>
      <trkpt lat="36.99194" lon="-2.67485">
        <ele>546.205452</ele>
        <time>2022-02-25T02:56:51.445Z</time>
      </trkpt>
      <trkpt lat="36.99216" lon="-2.67493">
        <ele>546.758228</ele>
        <time>2022-02-25T02:56:59.090Z</time>
      </trkpt>
      <trkpt lat="36.99222" lon="-2.67502">
        <ele>546.986218</ele>
        <time>2022-02-25T02:57:02.693Z</time>
      </trkpt>
      <trkpt lat="36.99226" lon="-2.67522">
        <ele>547.386271</ele>
        <time>2022-02-25T02:57:08.500Z</time>
      </trkpt>
      <trkpt lat="36.99208" lon="-2.67571">
        <ele>548.429631</ele>
        <time>2022-02-25T02:57:24.738Z</time>
      </trkpt>
      <trkpt lat="36.99201" lon="-2.67599">
        <ele>548.998302</ele>
        <time>2022-02-25T02:57:34.283Z</time>
      </trkpt>
      <trkpt lat="36.99204" lon="-2.67639">
        <ele>549.767888</ele>
        <time>2022-02-25T02:57:47.208Z</time>
      </trkpt>
      <trkpt lat="36.99187" lon="-2.67677">
        <ele>551.293438</ele>
        <time>2022-02-25T02:58:02.070Z</time>
      </trkpt>
      <trkpt lat="36.99185" lon="-2.677">
        <ele>552.261062</ele>
        <time>2022-02-25T02:58:09.687Z</time>
      </trkpt>
      <trkpt lat="36.99193" lon="-2.67747">
        <ele>554.285323</ele>
        <time>2022-02-25T02:58:27.995Z</time>
      </trkpt>
      <trkpt lat="36.99218" lon="-2.67786">
        <ele>556.38005</ele>
        <time>2022-02-25T02:58:48.836Z</time>
      </trkpt>
      <trkpt lat="36.9921" lon="-2.67829">
        <ele>558.204307</ele>
        <time>2022-02-25T02:59:07.468Z</time>
      </trkpt>
      <trkpt lat="36.99234" lon="-2.67863">
        <ele>560.432961</ele>
        <time>2022-02-25T02:59:25.277Z</time>
      </trkpt>
      <trkpt lat="36.9925" lon="-2.67905">
        <ele>563.349297</ele>
        <time>2022-02-25T02:59:45.182Z</time>
      </trkpt>
      <trkpt lat="36.99275" lon="-2.67921">
        <ele>565.506519</ele>
        <time>2022-02-25T03:00:01.884Z</time>
      </trkpt>
      <trkpt lat="36.99277" lon="-2.67948">
        <ele>567.20699</ele>
        <time>2022-02-25T03:00:17.214Z</time>
      </trkpt>
      <trkpt lat="36.99273" lon="-2.67968">
        <ele>568.511952</ele>
        <time>2022-02-25T03:00:28.274Z</time>
      </trkpt>
      <trkpt lat="36.99201" lon="-2.68064">
        <ele>575.992843</ele>
        <time>2022-02-25T03:01:37.237Z</time>
      </trkpt>
      <trkpt lat="36.99195" lon="-2.68107">
        <ele>578.146972</ele>
        <time>2022-02-25T03:01:58.768Z</time>
      </trkpt>
      <trkpt lat="36.99166" lon="-2.68146">
        <ele>580.803931</ele>
        <time>2022-02-25T03:02:22.306Z</time>
      </trkpt>
      <trkpt lat="36.99164" lon="-2.68163">
        <ele>581.652963</ele>
        <time>2022-02-25T03:02:29.079Z</time>
      </trkpt>
      <trkpt lat="36.99182" lon="-2.68199">
        <ele>583.693754</ele>
        <time>2022-02-25T03:02:43.565Z</time>
      </trkpt>
      <trkpt lat="36.9918" lon="-2.68212">
        <ele>584.370089</ele>
        <time>2022-02-25T03:02:47.945Z</time>
      </trkpt>
      <trkpt lat="36.99157" lon="-2.68231">
        <ele>584.701403</ele>
        <time>2022-02-25T03:02:56.490Z</time>
      </trkpt>
      <trkpt lat="36.9913" lon="-2.68233">
        <ele>584.924263</ele>
        <time>2022-02-25T03:03:03.387Z</time>
      </trkpt>
      <trkpt lat="36.99082" lon="-2.68253">
        <ele>585.338184</ele>
        <time>2022-02-25T03:03:14.350Z</time>
      </trkpt>
      <trkpt lat="36.9908" lon="-2.68263">
        <ele>585.411595</ele>
        <time>2022-02-25T03:03:16.365Z</time>
      </trkpt>
      <trkpt lat="36.99107" lon="-2.68302">
        <ele>585.751417</ele>
        <time>2022-02-25T03:03:25.369Z</time>
      </trkpt>
      <trkpt lat="36.99123" lon="-2.68339">
        <ele>585.914192</ele>
        <time>2022-02-25T03:03:33.688Z</time>
      </trkpt>
      <trkpt lat="36.99126" lon="-2.68381">
        <ele>585.555407</ele>
        <time>2022-02-25T03:03:43.138Z</time>
      </trkpt>
      <trkpt lat="36.99123" lon="-2.68391">
        <ele>585.466996</ele>
        <time>2022-02-25T03:03:45.066Z</time>
      </trkpt>
      <trkpt lat="36.99077" lon="-2.68429">
        <ele>584.881234</ele>
        <time>2022-02-25T03:03:56.491Z</time>
      </trkpt>
      <trkpt lat="36.99037" lon="-2.68495">
        <ele>584.182242</ele>
        <time>2022-02-25T03:04:08.612Z</time>
      </trkpt>
      <trkpt lat="36.99047" lon="-2.68512">
        <ele>583.874112</ele>
        <time>2022-02-25T03:04:11.507Z</time>
      </trkpt>
      <trkpt lat="36.99111" lon="-2.6854">
        <ele>581.551349</ele>
        <time>2022-02-25T03:04:22.682Z</time>
      </trkpt>
      <trkpt lat="36.99124" lon="-2.68574">
        <ele>580.506038</ele>
        <time>2022-02-25T03:04:27.718Z</time>
      </trkpt>
      <trkpt lat="36.99137" lon="-2.68589">
        <ele>579.904473</ele>
        <time>2022-02-25T03:04:30.724Z</time>
      </trkpt>
      <trkpt lat="36.99148" lon="-2.6859">
        <ele>579.506283</ele>
        <time>2022-02-25T03:04:32.588Z</time>
      </trkpt>
      <trkpt lat="36.99181" lon="-2.68576">
        <ele>578.31313</ele>
        <time>2022-02-25T03:04:38.407Z</time>
      </trkpt>
      <trkpt lat="36.99209" lon="-2.68585">
        <ele>577.851705</ele>
        <time>2022-02-25T03:04:43.405Z</time>
      </trkpt>
      <trkpt lat="36.99213" lon="-2.68605">
        <ele>577.804931</ele>
        <time>2022-02-25T03:04:46.191Z</time>
      </trkpt>
      <trkpt lat="36.99199" lon="-2.68658">
        <ele>577.673372</ele>
        <time>2022-02-25T03:04:54.624Z</time>
      </trkpt>
      <trkpt lat="36.99205" lon="-2.68674">
        <ele>577.631195</ele>
        <time>2022-02-25T03:04:57.463Z</time>
      </trkpt>
      <trkpt lat="36.99227" lon="-2.68695">
        <ele>577.550247</ele>
        <time>2022-02-25T03:05:03.160Z</time>
      </trkpt>
      <trkpt lat="36.99249" lon="-2.6876">
        <ele>577.384212</ele>
        <time>2022-02-25T03:05:21.518Z</time>
      </trkpt>
      <trkpt lat="36.99246" lon="-2.68768">
        <ele>577.529002</ele>
        <time>2022-02-25T03:05:24.131Z</time>
      </trkpt>
      <trkpt lat="36.99213" lon="-2.68782">
        <ele>578.762343</ele>
        <time>2022-02-25T03:05:39.248Z</time>
      </trkpt>
      <trkpt lat="36.99183" lon="-2.68758">
        <ele>579.985264</ele>
        <time>2022-02-25T03:05:55.441Z</time>
      </trkpt>
      <trkpt lat="36.99161" lon="-2.68749">
        <ele>580.807438</ele>
        <time>2022-02-25T03:06:06.723Z</time>
      </trkpt>
      <trkpt lat="36.99087" lon="-2.68762">
        <ele>583.434431</ele>
        <time>2022-02-25T03:06:34.803Z</time>
      </trkpt>
      <trkpt lat="36.99042" lon="-2.68819">
        <ele>584.101026</ele>
        <time>2022-02-25T03:06:57.600Z</time>
      </trkpt>
      <trkpt lat="36.99027" lon="-2.68825">
        <ele>584.207477</ele>
        <time>2022-02-25T03:07:03.368Z</time>
      </trkpt>
      <trkpt lat="36.99017" lon="-2.68835">
        <ele>584.295454</ele>
        <time>2022-02-25T03:07:06.934Z</time>
      </trkpt>
      <trkpt lat="36.99004" lon="-2.68863">
        <ele>584.474771</ele>
        <time>2022-02-25T03:07:15.818Z</time>
      </trkpt>
      <trkpt lat="36.98991" lon="-2.68864">
        <ele>584.566217</ele>
        <time>2022-02-25T03:07:18.732Z</time>
      </trkpt>
      <trkpt lat="36.98981" lon="-2.68858">
        <ele>584.647168</ele>
        <time>2022-02-25T03:07:21.386Z</time>
      </trkpt>
      <trkpt lat="36.98968" lon="-2.68861">
        <ele>584.736718</ele>
        <time>2022-02-25T03:07:23.874Z</time>
      </trkpt>
      <trkpt lat="36.98964" lon="-2.68869">
        <ele>584.790194</ele>
        <time>2022-02-25T03:07:25.201Z</time>
      </trkpt>
      <trkpt lat="36.98968" lon="-2.68887">
        <ele>584.892095</ele>
        <time>2022-02-25T03:07:27.822Z</time>
      </trkpt>
      <trkpt lat="36.98963" lon="-2.68902">
        <ele>584.759001</ele>
        <time>2022-02-25T03:07:30.104Z</time>
      </trkpt>
      <trkpt lat="36.9893" lon="-2.68902">
        <ele>583.102026</ele>
        <time>2022-02-25T03:07:35.498Z</time>
      </trkpt>
      <trkpt lat="36.98925" lon="-2.6891">
        <ele>582.693202</ele>
        <time>2022-02-25T03:07:36.768Z</time>
      </trkpt>
      <trkpt lat="36.98949" lon="-2.68946">
        <ele>580.804226</ele>
        <time>2022-02-25T03:07:42.914Z</time>
      </trkpt>
      <trkpt lat="36.98968" lon="-2.69003">
        <ele>578.323752</ele>
        <time>2022-02-25T03:07:50.767Z</time>
      </trkpt>
      <trkpt lat="36.98972" lon="-2.69112">
        <ele>572.790078</ele>
        <time>2022-02-25T03:08:03.803Z</time>
      </trkpt>
      <trkpt lat="36.98975" lon="-2.69121">
        <ele>572.161084</ele>
        <time>2022-02-25T03:08:04.942Z</time>
      </trkpt>
      <trkpt lat="36.98989" lon="-2.69132">
        <ele>570.86244</ele>
        <time>2022-02-25T03:08:07.253Z</time>
      </trkpt>
      <trkpt lat="36.99004" lon="-2.69129">
        <ele>569.666411</ele>
        <time>2022-02-25T03:08:09.365Z</time>
      </trkpt>
      <trkpt lat="36.99017" lon="-2.69093">
        <ele>567.149841</ele>
        <time>2022-02-25T03:08:13.895Z</time>
      </trkpt>
      <trkpt lat="36.99045" lon="-2.69039">
        <ele>563.074317</ele>
        <time>2022-02-25T03:08:21.399Z</time>
      </trkpt>
      <trkpt lat="36.99079" lon="-2.68992">
        <ele>562.481256</ele>
        <time>2022-02-25T03:08:29.262Z</time>
      </trkpt>
      <trkpt lat="36.99097" lon="-2.68977">
        <ele>563.05858</ele>
        <time>2022-02-25T03:08:32.853Z</time>
      </trkpt>
      <trkpt lat="36.99115" lon="-2.6897">
        <ele>563.55716</ele>
        <time>2022-02-25T03:08:36.191Z</time>
      </trkpt>
      <trkpt lat="36.99128" lon="-2.68969">
        <ele>563.904702</ele>
        <time>2022-02-25T03:08:40.189Z</time>
      </trkpt>
      <trkpt lat="36.99137" lon="-2.68977">
        <ele>564.193174</ele>
        <time>2022-02-25T03:08:43.990Z</time>
      </trkpt>
      <trkpt lat="36.99132" lon="-2.69003">
        <ele>564.743725</ele>
        <time>2022-02-25T03:08:53.662Z</time>
      </trkpt>
      <trkpt lat="36.99133" lon="-2.69034">
        <ele>565.394991</ele>
        <time>2022-02-25T03:09:08.338Z</time>
      </trkpt>
      <trkpt lat="36.99145" lon="-2.69072">
        <ele>566.262104</ele>
        <time>2022-02-25T03:09:33.121Z</time>
      </trkpt>
      <trkpt lat="36.99144" lon="-2.69128">
        <ele>573.234058</ele>
        <time>2022-02-25T03:10:14.553Z</time>
      </trkpt>
      <trkpt lat="36.9913" lon="-2.69167">
        <ele>579.095177</ele>
        <time>2022-02-25T03:10:50.650Z</time>
      </trkpt>
      <trkpt lat="36.99106" lon="-2.69217">
        <ele>586.933679</ele>
        <time>2022-02-25T03:11:45.477Z</time>
      </trkpt>
      <trkpt lat="36.991" lon="-2.69256">
        <ele>592.32242</ele>
        <time>2022-02-25T03:12:24.082Z</time>
      </trkpt>
      <trkpt lat="36.99056" lon="-2.69316">
        <ele>602.532894</ele>
        <time>2022-02-25T03:13:44.474Z</time>
      </trkpt>
      <trkpt lat="36.99054" lon="-2.69327">
        <ele>603.874548</ele>
        <time>2022-02-25T03:13:54.935Z</time>
      </trkpt>
      <trkpt lat="36.99062" lon="-2.69393">
        <ele>611.771669</ele>
        <time>2022-02-25T03:14:47.499Z</time>
      </trkpt>
      <trkpt lat="36.99066" lon="-2.69528">
        <ele>625.153784</ele>
        <time>2022-02-25T03:16:15.762Z</time>
      </trkpt>
      <trkpt lat="36.99049" lon="-2.6955">
        <ele>626.535361</ele>
        <time>2022-02-25T03:16:31.637Z</time>
      </trkpt>
      <trkpt lat="36.99017" lon="-2.69565">
        <ele>628.469119</ele>
        <time>2022-02-25T03:16:48.852Z</time>
      </trkpt>
      <trkpt lat="36.99005" lon="-2.69578">
        <ele>629.332011</ele>
        <time>2022-02-25T03:16:55.304Z</time>
      </trkpt>
      <trkpt lat="36.99001" lon="-2.69593">
        <ele>630.03591</ele>
        <time>2022-02-25T03:17:00.092Z</time>
      </trkpt>
      <trkpt lat="36.99005" lon="-2.69602">
        <ele>630.508434</ele>
        <time>2022-02-25T03:17:03.163Z</time>
      </trkpt>
      <trkpt lat="36.99083" lon="-2.69612">
        <ele>634.495977</ele>
        <time>2022-02-25T03:17:27.174Z</time>
      </trkpt>
      <trkpt lat="36.99089" lon="-2.69615">
        <ele>634.710762</ele>
        <time>2022-02-25T03:17:28.500Z</time>
      </trkpt>
      <trkpt lat="36.99096" lon="-2.69628">
        <ele>635.161711</ele>
        <time>2022-02-25T03:17:32.842Z</time>
      </trkpt>
      <trkpt lat="36.99102" lon="-2.69714">
        <ele>637.601599</ele>
        <time>2022-02-25T03:17:59.630Z</time>
      </trkpt>
      <trkpt lat="36.9906" lon="-2.69784">
        <ele>640.077819</ele>
        <time>2022-02-25T03:18:29.498Z</time>
      </trkpt>
      <trkpt lat="36.99054" lon="-2.69805">
        <ele>641.375563</ele>
        <time>2022-02-25T03:18:39.363Z</time>
      </trkpt>
      <trkpt lat="36.99061" lon="-2.69829">
        <ele>642.887222</ele>
        <time>2022-02-25T03:18:50.174Z</time>
      </trkpt>
      <trkpt lat="36.99056" lon="-2.69874">
        <ele>645.497372</ele>
        <time>2022-02-25T03:19:11.526Z</time>
      </trkpt>
      <trkpt lat="36.9907" lon="-2.69954">
        <ele>650.309363</ele>
        <time>2022-02-25T03:19:52.112Z</time>
      </trkpt>
      <trkpt lat="36.99068" lon="-2.69981">
        <ele>651.919504</ele>
        <time>2022-02-25T03:20:07.258Z</time>
      </trkpt>
      <trkpt lat="36.99049" lon="-2.70021">
        <ele>654.851785</ele>
        <time>2022-02-25T03:20:30.385Z</time>
      </trkpt>
      <trkpt lat="36.99075" lon="-2.70062">
        <ele>658.527307</ele>
        <time>2022-02-25T03:20:57.480Z</time>
      </trkpt>
      <trkpt lat="36.99084" lon="-2.70084">
        <ele>660.235516</ele>
        <time>2022-02-25T03:21:09.104Z</time>
      </trkpt>
      <trkpt lat="36.9907" lon="-2.70231">
        <ele>670.194731</ele>
        <time>2022-02-25T03:22:47.282Z</time>
      </trkpt>
      <trkpt lat="36.99105" lon="-2.70335">
        <ele>676.446368</ele>
        <time>2022-02-25T03:23:59.837Z</time>
      </trkpt>
      <trkpt lat="36.99111" lon="-2.70399">
        <ele>680.018225</ele>
        <time>2022-02-25T03:24:33.629Z</time>
      </trkpt>
      <trkpt lat="36.99092" lon="-2.70427">
        <ele>681.62248</ele>
        <time>2022-02-25T03:24:49.913Z</time>
      </trkpt>
      <trkpt lat="36.99131" lon="-2.7054">
        <ele>683.819275</ele>
        <time>2022-02-25T03:25:32.596Z</time>
      </trkpt>
      <trkpt lat="36.99202" lon="-2.70622">
        <ele>686.832522</ele>
        <time>2022-02-25T03:26:17.758Z</time>
      </trkpt>
      <trkpt lat="36.99216" lon="-2.70648">
        <ele>688.282921</ele>
        <time>2022-02-25T03:26:32.323Z</time>
      </trkpt>
      <trkpt lat="36.99215" lon="-2.70676">
        <ele>689.576143</ele>
        <time>2022-02-25T03:26:46.222Z</time>
      </trkpt>
      <trkpt lat="36.99174" lon="-2.70793">
        <ele>695.409573</ele>
        <time>2022-02-25T03:28:00.035Z</time>
      </trkpt>
      <trkpt lat="36.9915" lon="-2.70811">
        <ele>697.195188</ele>
        <time>2022-02-25T03:28:23.098Z</time>
      </trkpt>
      <trkpt lat="36.99148" lon="-2.70856">
        <ele>699.50573</ele>
        <time>2022-02-25T03:28:51.703Z</time>
      </trkpt>
      <trkpt lat="36.99135" lon="-2.70906">
        <ele>702.148268</ele>
        <time>2022-02-25T03:29:22.464Z</time>
      </trkpt>
      <trkpt lat="36.99138" lon="-2.70965">
        <ele>705.148102</ele>
        <time>2022-02-25T03:29:53.776Z</time>
      </trkpt>
      <trkpt lat="36.99151" lon="-2.7101">
        <ele>707.356253</ele>
        <time>2022-02-25T03:30:16.611Z</time>
      </trkpt>
      <trkpt lat="36.99155" lon="-2.71037">
        <ele>707.741454</ele>
        <time>2022-02-25T03:30:28.450Z</time>
      </trkpt>
      <trkpt lat="36.99161" lon="-2.71084">
        <ele>708.386265</ele>
        <time>2022-02-25T03:30:45.877Z</time>
      </trkpt>
      <trkpt lat="36.99178" lon="-2.71099">
        <ele>708.74948</ele>
        <time>2022-02-25T03:30:54.375Z</time>
      </trkpt>
      <trkpt lat="36.99177" lon="-2.71126">
        <ele>709.122129</ele>
        <time>2022-02-25T03:31:03.298Z</time>
      </trkpt>
      <trkpt lat="36.99162" lon="-2.71173">
        <ele>709.809183</ele>
        <time>2022-02-25T03:31:19.197Z</time>
      </trkpt>
      <trkpt lat="36.99151" lon="-2.71261">
        <ele>710.750128</ele>
        <time>2022-02-25T03:31:49.199Z</time>
      </trkpt>
      <trkpt lat="36.99099" lon="-2.71432">
        <ele>712.147513</ele>
        <time>2022-02-25T03:32:51.296Z</time>
      </trkpt>
      <trkpt lat="36.99105" lon="-2.71495">
        <ele>712.401998</ele>
        <time>2022-02-25T03:33:11.504Z</time>
      </trkpt>
      <trkpt lat="36.99127" lon="-2.71517">
        <ele>712.541476</ele>
        <time>2022-02-25T03:33:21.910Z</time>
      </trkpt>
      <trkpt lat="36.99131" lon="-2.71549">
        <ele>712.672881</ele>
        <time>2022-02-25T03:33:31.485Z</time>
      </trkpt>
      <trkpt lat="36.99128" lon="-2.71597">
        <ele>712.863007</ele>
        <time>2022-02-25T03:33:45.625Z</time>
      </trkpt>
      <trkpt lat="36.99108" lon="-2.71629">
        <ele>713.06679</ele>
        <time>2022-02-25T03:33:58.851Z</time>
      </trkpt>
      <trkpt lat="36.9911" lon="-2.71662">
        <ele>713.724701</ele>
        <time>2022-02-25T03:34:10.010Z</time>
      </trkpt>
      <trkpt lat="36.99105" lon="-2.71702">
        <ele>714.53439</ele>
        <time>2022-02-25T03:34:24.896Z</time>
      </trkpt>
      <trkpt lat="36.99112" lon="-2.71745">
        <ele>715.417318</ele>
        <time>2022-02-25T03:34:43.094Z</time>
      </trkpt>
      <trkpt lat="36.99099" lon="-2.71934">
        <ele>719.155141</ele>
        <time>2022-02-25T03:36:05.564Z</time>
      </trkpt>
      <trkpt lat="36.99109" lon="-2.72058">
        <ele>721.556738</ele>
        <time>2022-02-25T03:36:52.833Z</time>
      </trkpt>
      <trkpt lat="36.99131" lon="-2.72112">
        <ele>722.467254</ele>
        <time>2022-02-25T03:37:12.604Z</time>
      </trkpt>
      <trkpt lat="36.99141" lon="-2.72175">
        <ele>723.330072</ele>
        <time>2022-02-25T03:37:33.262Z</time>
      </trkpt>
      <trkpt lat="36.99133" lon="-2.72263">
        <ele>724.523581</ele>
        <time>2022-02-25T03:38:06.119Z</time>
      </trkpt>
      <trkpt lat="36.99119" lon="-2.72314">
        <ele>725.26959</ele>
        <time>2022-02-25T03:38:28.541Z</time>
      </trkpt>
      <trkpt lat="36.99069" lon="-2.72365">
        <ele>726.391253</ele>
        <time>2022-02-25T03:39:04.040Z</time>
      </trkpt>
      <trkpt lat="36.99061" lon="-2.72393">
        <ele>726.818038</ele>
        <time>2022-02-25T03:39:16.195Z</time>
      </trkpt>
      <trkpt lat="36.99003" lon="-2.72459">
        <ele>727.806547</ele>
        <time>2022-02-25T03:39:47.391Z</time>
      </trkpt>
      <trkpt lat="36.98998" lon="-2.72482">
        <ele>727.11605</ele>
        <time>2022-02-25T03:39:53.741Z</time>
      </trkpt>
      <trkpt lat="36.98999" lon="-2.72512">
        <ele>726.244615</ele>
        <time>2022-02-25T03:40:01.316Z</time>
      </trkpt>
      <trkpt lat="36.99022" lon="-2.72553">
        <ele>724.795003</ele>
        <time>2022-02-25T03:40:13.204Z</time>
      </trkpt>
      <trkpt lat="36.99028" lon="-2.72574">
        <ele>724.137525</ele>
        <time>2022-02-25T03:40:18.448Z</time>
      </trkpt>
      <trkpt lat="36.99015" lon="-2.72713">
        <ele>719.331952</ele>
        <time>2022-02-25T03:40:50.503Z</time>
      </trkpt>
      <trkpt lat="36.98959" lon="-2.72828">
        <ele>713.383658</ele>
        <time>2022-02-25T03:41:20.626Z</time>
      </trkpt>
      <trkpt lat="36.98936" lon="-2.72912">
        <ele>709.581502</ele>
        <time>2022-02-25T03:41:41.004Z</time>
      </trkpt>
      <trkpt lat="36.98917" lon="-2.72932">
        <ele>708.310539</ele>
        <time>2022-02-25T03:41:47.983Z</time>
      </trkpt>
      <trkpt lat="36.98888" lon="-2.72949">
        <ele>706.664443</ele>
        <time>2022-02-25T03:41:57.034Z</time>
      </trkpt>
      <trkpt lat="36.9878" lon="-2.7298">
        <ele>701.290687</ele>
        <time>2022-02-25T03:42:29.110Z</time>
      </trkpt>
      <trkpt lat="36.98738" lon="-2.73">
        <ele>699.522607</ele>
        <time>2022-02-25T03:42:43.028Z</time>
      </trkpt>
      <trkpt lat="36.98722" lon="-2.72999">
        <ele>698.890721</ele>
        <time>2022-02-25T03:42:48.206Z</time>
      </trkpt>
      <trkpt lat="36.98697" lon="-2.73017">
        <ele>697.765147</ele>
        <time>2022-02-25T03:42:57.175Z</time>
      </trkpt>
      <trkpt lat="36.98673" lon="-2.73021">
        <ele>696.835409</ele>
        <time>2022-02-25T03:43:04.451Z</time>
      </trkpt>
      <trkpt lat="36.98669" lon="-2.73031">
        <ele>696.481086</ele>
        <time>2022-02-25T03:43:07.116Z</time>
      </trkpt>
      <trkpt lat="36.98664" lon="-2.7308">
        <ele>694.609128</ele>
        <time>2022-02-25T03:43:18.688Z</time>
      </trkpt>
      <trkpt lat="36.98634" lon="-2.73128">
        <ele>691.032494</ele>
        <time>2022-02-25T03:43:32.587Z</time>
      </trkpt>
      <trkpt lat="36.98592" lon="-2.73156">
        <ele>687.543132</ele>
        <time>2022-02-25T03:43:45.443Z</time>
      </trkpt>
      <trkpt lat="36.98562" lon="-2.73192">
        <ele>684.52778</ele>
        <time>2022-02-25T03:43:56.159Z</time>
      </trkpt>
      <trkpt lat="36.98558" lon="-2.73233">
        <ele>682.094306</ele>
        <time>2022-02-25T03:44:04.794Z</time>
      </trkpt>
      <trkpt lat="36.98535" lon="-2.73273">
        <ele>678.900784</ele>
        <time>2022-02-25T03:44:15.104Z</time>
      </trkpt>
      <trkpt lat="36.985" lon="-2.73313">
        <ele>675.04497</ele>
        <time>2022-02-25T03:44:27.503Z</time>
      </trkpt>
      <trkpt lat="36.98466" lon="-2.73338">
        <ele>671.779241</ele>
        <time>2022-02-25T03:44:38.206Z</time>
      </trkpt>
      <trkpt lat="36.98426" lon="-2.73337">
        <ele>668.47667</ele>
        <time>2022-02-25T03:44:49.051Z</time>
      </trkpt>
      <trkpt lat="36.9842" lon="-2.73352">
        <ele>667.403829</ele>
        <time>2022-02-25T03:44:52.612Z</time>
      </trkpt>
      <trkpt lat="36.98432" lon="-2.73383">
        <ele>665.48901</ele>
        <time>2022-02-25T03:44:59.768Z</time>
      </trkpt>
      <trkpt lat="36.98453" lon="-2.73417">
        <ele>663.047987</ele>
        <time>2022-02-25T03:45:09.088Z</time>
      </trkpt>
      <trkpt lat="36.98472" lon="-2.73427">
        <ele>661.603069</ele>
        <time>2022-02-25T03:45:14.720Z</time>
      </trkpt>
      <trkpt lat="36.98555" lon="-2.73441">
        <ele>655.676754</ele>
        <time>2022-02-25T03:45:37.725Z</time>
      </trkpt>
      <trkpt lat="36.98571" lon="-2.73457">
        <ele>654.302365</ele>
        <time>2022-02-25T03:45:43.298Z</time>
      </trkpt>
      <trkpt lat="36.98574" lon="-2.73481">
        <ele>653.186439</ele>
        <time>2022-02-25T03:45:48.529Z</time>
      </trkpt>
      <trkpt lat="36.98553" lon="-2.73545">
        <ele>649.918833</ele>
        <time>2022-02-25T03:46:03.888Z</time>
      </trkpt>
      <trkpt lat="36.98564" lon="-2.73592">
        <ele>647.580937</ele>
        <time>2022-02-25T03:46:15.100Z</time>
      </trkpt>
      <trkpt lat="36.98605" lon="-2.73595">
        <ele>645.194443</ele>
        <time>2022-02-25T03:46:26.674Z</time>
      </trkpt>
      <trkpt lat="36.98635" lon="-2.73568">
        <ele>643.205912</ele>
        <time>2022-02-25T03:46:37.470Z</time>
      </trkpt>
      <trkpt lat="36.98686" lon="-2.73536">
        <ele>640.519752</ele>
        <time>2022-02-25T03:46:53.924Z</time>
      </trkpt>
      <trkpt lat="36.98751" lon="-2.73482">
        <ele>636.877109</ele>
        <time>2022-02-25T03:47:16.784Z</time>
      </trkpt>
      <trkpt lat="36.98764" lon="-2.73455">
        <ele>635.684235</ele>
        <time>2022-02-25T03:47:24.019Z</time>
      </trkpt>
      <trkpt lat="36.98784" lon="-2.73431">
        <ele>635.436793</ele>
        <time>2022-02-25T03:47:32.132Z</time>
      </trkpt>
      <trkpt lat="36.98798" lon="-2.73397">
        <ele>635.217643</ele>
        <time>2022-02-25T03:47:41.239Z</time>
      </trkpt>
      <trkpt lat="36.98798" lon="-2.73365">
        <ele>635.028205</ele>
        <time>2022-02-25T03:47:49.522Z</time>
      </trkpt>
      <trkpt lat="36.98811" lon="-2.73329">
        <ele>634.796704</ele>
        <time>2022-02-25T03:48:00.118Z</time>
      </trkpt>
      <trkpt lat="36.98813" lon="-2.73303">
        <ele>634.646036</ele>
        <time>2022-02-25T03:48:07.086Z</time>
      </trkpt>
      <trkpt lat="36.98825" lon="-2.73287">
        <ele>634.521109</ele>
        <time>2022-02-25T03:48:14.091Z</time>
      </trkpt>
      <trkpt lat="36.98853" lon="-2.73278">
        <ele>634.45928</ele>
        <time>2022-02-25T03:48:25.397Z</time>
      </trkpt>
      <trkpt lat="36.98856" lon="-2.7329">
        <ele>635.610821</ele>
        <time>2022-02-25T03:48:35.631Z</time>
      </trkpt>
      <trkpt lat="36.98833" lon="-2.73317">
        <ele>639.070727</ele>
        <time>2022-02-25T03:49:01.045Z</time>
      </trkpt>
      <trkpt lat="36.98827" lon="-2.73351">
        <ele>642.155104</ele>
        <time>2022-02-25T03:49:27.575Z</time>
      </trkpt>
      <trkpt lat="36.98863" lon="-2.73437">
        <ele>650.716127</ele>
        <time>2022-02-25T03:50:41.246Z</time>
      </trkpt>
      <trkpt lat="36.98867" lon="-2.73466">
        <ele>653.326668</ele>
        <time>2022-02-25T03:51:14.109Z</time>
      </trkpt>
      <trkpt lat="36.98853" lon="-2.7348">
        <ele>655.634382</ele>
        <time>2022-02-25T03:51:25.353Z</time>
      </trkpt>
      <trkpt lat="36.98782" lon="-2.73603">
        <ele>674.69554</ele>
        <time>2022-02-25T03:53:44.139Z</time>
      </trkpt>
      <trkpt lat="36.98722" lon="-2.73728">
        <ele>690.777632</ele>
        <time>2022-02-25T03:55:19.276Z</time>
      </trkpt>
      <trkpt lat="36.98677" lon="-2.73792">
        <ele>699.139247</ele>
        <time>2022-02-25T03:56:17.512Z</time>
      </trkpt>
      <trkpt lat="36.98674" lon="-2.73817">
        <ele>701.720986</ele>
        <time>2022-02-25T03:56:36.401Z</time>
      </trkpt>
      <trkpt lat="36.98681" lon="-2.73908">
        <ele>710.374673</ele>
        <time>2022-02-25T03:57:34.057Z</time>
      </trkpt>
      <trkpt lat="36.9868" lon="-2.73936">
        <ele>713.014723</ele>
        <time>2022-02-25T03:57:53.464Z</time>
      </trkpt>
      <trkpt lat="36.98653" lon="-2.73922">
        <ele>716.418326</ele>
        <time>2022-02-25T03:58:13.877Z</time>
      </trkpt>
      <trkpt lat="36.98642" lon="-2.73924">
        <ele>717.681291</ele>
        <time>2022-02-25T03:58:24.834Z</time>
      </trkpt>
      <trkpt lat="36.98596" lon="-2.73956">
        <ele>723.916265</ele>
        <time>2022-02-25T03:59:04.930Z</time>
      </trkpt>
      <trkpt lat="36.98589" lon="-2.73977">
        <ele>725.991729</ele>
        <time>2022-02-25T03:59:21.715Z</time>
      </trkpt>
      <trkpt lat="36.9859" lon="-2.74078">
        <ele>737.415367</ele>
        <time>2022-02-25T04:00:31.317Z</time>
      </trkpt>
      <trkpt lat="36.98591" lon="-2.74169">
        <ele>747.730751</ele>
        <time>2022-02-25T04:01:41.183Z</time>
      </trkpt>
      <trkpt lat="36.98582" lon="-2.74224">
        <ele>754.617666</ele>
        <time>2022-02-25T04:02:30.834Z</time>
      </trkpt>
      <trkpt lat="36.98551" lon="-2.74343">
        <ele>771.467754</ele>
        <time>2022-02-25T04:04:21.427Z</time>
      </trkpt>
      <trkpt lat="36.98547" lon="-2.74404">
        <ele>779.659911</ele>
        <time>2022-02-25T04:05:16.942Z</time>
      </trkpt>
      <trkpt lat="36.98523" lon="-2.74565">
        <ele>796.327264</ele>
        <time>2022-02-25T04:07:20.201Z</time>
      </trkpt>
      <trkpt lat="36.98527" lon="-2.74592">
        <ele>799.000543</ele>
        <time>2022-02-25T04:07:36.641Z</time>
      </trkpt>
      <trkpt lat="36.98543" lon="-2.74621">
        <ele>802.527585</ele>
        <time>2022-02-25T04:07:55.420Z</time>
      </trkpt>
      <trkpt lat="36.98553" lon="-2.74655">
        <ele>804.200618</ele>
        <time>2022-02-25T04:08:12.411Z</time>
      </trkpt>
      <trkpt lat="36.98549" lon="-2.74746">
        <ele>806.151587</ele>
        <time>2022-02-25T04:08:45.373Z</time>
      </trkpt>
      <trkpt lat="36.98543" lon="-2.74762">
        <ele>806.532216</ele>
        <time>2022-02-25T04:08:50.795Z</time>
      </trkpt>
      <trkpt lat="36.9852" lon="-2.74795">
        <ele>807.458256</ele>
        <time>2022-02-25T04:08:58.813Z</time>
      </trkpt>
      <trkpt lat="36.98467" lon="-2.74941">
        <ele>805.218156</ele>
        <time>2022-02-25T04:09:22.874Z</time>
      </trkpt>
      <trkpt lat="36.98443" lon="-2.74978">
        <ele>803.807482</ele>
        <time>2022-02-25T04:09:29.232Z</time>
      </trkpt>
      <trkpt lat="36.98423" lon="-2.74993">
        <ele>802.978893</ele>
        <time>2022-02-25T04:09:32.937Z</time>
      </trkpt>
      <trkpt lat="36.98419" lon="-2.75006">
        <ele>802.558491</ele>
        <time>2022-02-25T04:09:34.808Z</time>
      </trkpt>
      <trkpt lat="36.98421" lon="-2.75016">
        <ele>802.262498</ele>
        <time>2022-02-25T04:09:36.142Z</time>
      </trkpt>
      <trkpt lat="36.9844" lon="-2.75028">
        <ele>801.486075</ele>
        <time>2022-02-25T04:09:39.644Z</time>
      </trkpt>
      <trkpt lat="36.98468" lon="-2.75062">
        <ele>800.075202</ele>
        <time>2022-02-25T04:09:46.231Z</time>
      </trkpt>
      <trkpt lat="36.98476" lon="-2.75082">
        <ele>799.421215</ele>
        <time>2022-02-25T04:09:49.352Z</time>
      </trkpt>
      <trkpt lat="36.98476" lon="-2.75191">
        <ele>796.309315</ele>
        <time>2022-02-25T04:10:04.534Z</time>
      </trkpt>
      <trkpt lat="36.98361" lon="-2.75427">
        <ele>793.759013</ele>
        <time>2022-02-25T04:10:51.077Z</time>
      </trkpt>
      <trkpt lat="36.98367" lon="-2.75455">
        <ele>793.962681</ele>
        <time>2022-02-25T04:10:55.583Z</time>
      </trkpt>
      <trkpt lat="36.98369" lon="-2.75462">
        <ele>794.0132</ele>
        <time>2022-02-25T04:10:58.772Z</time>
      </trkpt>
      <trkpt lat="36.98354" lon="-2.75497">
        <ele>794.296143</ele>
        <time>2022-02-25T04:11:05.700Z</time>
      </trkpt>
      <trkpt lat="36.98335" lon="-2.75525">
        <ele>794.55574</ele>
        <time>2022-02-25T04:11:13.283Z</time>
      </trkpt>
      <trkpt lat="36.98299" lon="-2.75545">
        <ele>794.907783</ele>
        <time>2022-02-25T04:11:25.113Z</time>
      </trkpt>
      <trkpt lat="36.98288" lon="-2.75557">
        <ele>795.035701</ele>
        <time>2022-02-25T04:11:32.661Z</time>
      </trkpt>
      <trkpt lat="36.98289" lon="-2.75573">
        <ele>795.144334</ele>
        <time>2022-02-25T04:11:35.292Z</time>
      </trkpt>
      <trkpt lat="36.98322" lon="-2.75611">
        <ele>796.550693</ele>
        <time>2022-02-25T04:11:53.396Z</time>
      </trkpt>
      <trkpt lat="36.98327" lon="-2.75646">
        <ele>797.530099</ele>
        <time>2022-02-25T04:12:04.880Z</time>
      </trkpt>
      <trkpt lat="36.98302" lon="-2.75755">
        <ele>800.720826</ele>
        <time>2022-02-25T04:12:42.354Z</time>
      </trkpt>
      <trkpt lat="36.98293" lon="-2.7579">
        <ele>801.813271</ele>
        <time>2022-02-25T04:12:54.811Z</time>
      </trkpt>
      <trkpt lat="36.98227" lon="-2.75959">
        <ele>808.608704</ele>
        <time>2022-02-25T04:14:03.553Z</time>
      </trkpt>
      <trkpt lat="36.98147" lon="-2.7613">
        <ele>816.509519</ele>
        <time>2022-02-25T04:15:20.863Z</time>
      </trkpt>
      <trkpt lat="36.98099" lon="-2.76217">
        <ele>820.608112</ele>
        <time>2022-02-25T04:16:02.668Z</time>
      </trkpt>
      <trkpt lat="36.98076" lon="-2.76275">
        <ele>822.958764</ele>
        <time>2022-02-25T04:16:25.723Z</time>
      </trkpt>
      <trkpt lat="36.98051" lon="-2.76317">
        <ele>824.867551</ele>
        <time>2022-02-25T04:16:44.133Z</time>
      </trkpt>
      <trkpt lat="36.98021" lon="-2.7635">
        <ele>826.699966</ele>
        <time>2022-02-25T04:17:02.136Z</time>
      </trkpt>
      <trkpt lat="36.98014" lon="-2.7645">
        <ele>831.029588</ele>
        <time>2022-02-25T04:17:38.454Z</time>
      </trkpt>
      <trkpt lat="36.98017" lon="-2.7654">
        <ele>835.00396</ele>
        <time>2022-02-25T04:18:14.821Z</time>
      </trkpt>
      <trkpt lat="36.98046" lon="-2.76656">
        <ele>840.277518</ele>
        <time>2022-02-25T04:19:14.418Z</time>
      </trkpt>
      <trkpt lat="36.98086" lon="-2.76758">
        <ele>845.122929</ele>
        <time>2022-02-25T04:20:01.023Z</time>
      </trkpt>
      <trkpt lat="36.98087" lon="-2.7679">
        <ele>846.457743</ele>
        <time>2022-02-25T04:20:14.286Z</time>
      </trkpt>
      <trkpt lat="36.98073" lon="-2.76829">
        <ele>845.495391</ele>
        <time>2022-02-25T04:20:29.151Z</time>
      </trkpt>
      <trkpt lat="36.98061" lon="-2.76885">
        <ele>844.148091</ele>
        <time>2022-02-25T04:20:45.039Z</time>
      </trkpt>
      <trkpt lat="36.98059" lon="-2.76961">
        <ele>842.368658</ele>
        <time>2022-02-25T04:21:03.361Z</time>
      </trkpt>
      <trkpt lat="36.98045" lon="-2.77115">
        <ele>833.932461</ele>
        <time>2022-02-25T04:21:35.619Z</time>
      </trkpt>
      <trkpt lat="36.98044" lon="-2.77185">
        <ele>829.061702</ele>
        <time>2022-02-25T04:21:50.080Z</time>
      </trkpt>
      <trkpt lat="36.98024" lon="-2.77339">
        <ele>821.240965</ele>
        <time>2022-02-25T04:22:24.243Z</time>
      </trkpt>
      <trkpt lat="36.98012" lon="-2.77362">
        <ele>820.117028</ele>
        <time>2022-02-25T04:22:30.764Z</time>
      </trkpt>
      <trkpt lat="36.98004" lon="-2.77367">
        <ele>819.659278</ele>
        <time>2022-02-25T04:22:33.372Z</time>
      </trkpt>
      <trkpt lat="36.97977" lon="-2.77367">
        <ele>818.241786</ele>
        <time>2022-02-25T04:22:41.801Z</time>
      </trkpt>
      <trkpt lat="36.97911" lon="-2.77343">
        <ele>815.091408</ele>
        <time>2022-02-25T04:23:02.733Z</time>
      </trkpt>
      <trkpt lat="36.97878" lon="-2.77307">
        <ele>813.361477</ele>
        <time>2022-02-25T04:23:16.303Z</time>
      </trkpt>
      <trkpt lat="36.97867" lon="-2.7731">
        <ele>812.941531</ele>
        <time>2022-02-25T04:23:19.496Z</time>
      </trkpt>
      <trkpt lat="36.97824" lon="-2.77483">
        <ele>807.023532</ele>
        <time>2022-02-25T04:24:01.964Z</time>
      </trkpt>
      <trkpt lat="36.97805" lon="-2.77521">
        <ele>805.486572</ele>
        <time>2022-02-25T04:24:11.945Z</time>
      </trkpt>
      <trkpt lat="36.97774" lon="-2.77552">
        <ele>803.742369</ele>
        <time>2022-02-25T04:24:23.483Z</time>
      </trkpt>
      <trkpt lat="36.97788" lon="-2.77621">
        <ele>801.423876</ele>
        <time>2022-02-25T04:24:40.224Z</time>
      </trkpt>
      <trkpt lat="36.97754" lon="-2.77771">
        <ele>800.889287</ele>
        <time>2022-02-25T04:25:22.234Z</time>
      </trkpt>
      <trkpt lat="36.97764" lon="-2.77809">
        <ele>800.7536</ele>
        <time>2022-02-25T04:25:36.169Z</time>
      </trkpt>
      <trkpt lat="36.97752" lon="-2.7795">
        <ele>804.554554</ele>
        <time>2022-02-25T04:26:40.427Z</time>
      </trkpt>
      <trkpt lat="36.97765" lon="-2.7804">
        <ele>807.593737</ele>
        <time>2022-02-25T04:27:28.031Z</time>
      </trkpt>
      <trkpt lat="36.97763" lon="-2.78067">
        <ele>808.383651</ele>
        <time>2022-02-25T04:27:41.263Z</time>
      </trkpt>
      <trkpt lat="36.97752" lon="-2.78091">
        <ele>808.986329</ele>
        <time>2022-02-25T04:27:53.076Z</time>
      </trkpt>
      <trkpt lat="36.97736" lon="-2.78109">
        <ele>809.568431</ele>
        <time>2022-02-25T04:28:04.174Z</time>
      </trkpt>
      <trkpt lat="36.97718" lon="-2.78118">
        <ele>810.118715</ele>
        <time>2022-02-25T04:28:14.664Z</time>
      </trkpt>
      <trkpt lat="36.97664" lon="-2.78121">
        <ele>811.577824</ele>
        <time>2022-02-25T04:28:41.006Z</time>
      </trkpt>
      <trkpt lat="36.97654" lon="-2.78133">
        <ele>811.963482</ele>
        <time>2022-02-25T04:28:47.260Z</time>
      </trkpt>
      <trkpt lat="36.97655" lon="-2.78139">
        <ele>812.115932</ele>
        <time>2022-02-25T04:28:49.893Z</time>
      </trkpt>
      <trkpt lat="36.97697" lon="-2.78183">
        <ele>813.357248</ele>
        <time>2022-02-25T04:29:14.564Z</time>
      </trkpt>
      <trkpt lat="36.97769" lon="-2.78241">
        <ele>814.657973</ele>
        <time>2022-02-25T04:29:51.491Z</time>
      </trkpt>
      <trkpt lat="36.97779" lon="-2.78257">
        <ele>814.894582</ele>
        <time>2022-02-25T04:29:57.623Z</time>
      </trkpt>
      <trkpt lat="36.97783" lon="-2.78284">
        <ele>815.225346</ele>
        <time>2022-02-25T04:30:07.056Z</time>
      </trkpt>
      <trkpt lat="36.9778" lon="-2.783">
        <ele>815.423857</ele>
        <time>2022-02-25T04:30:12.971Z</time>
      </trkpt>
      <trkpt lat="36.97773" lon="-2.78321">
        <ele>815.702378</ele>
        <time>2022-02-25T04:30:21.904Z</time>
      </trkpt>
      <trkpt lat="36.97756" lon="-2.78348">
        <ele>816.487652</ele>
        <time>2022-02-25T04:30:36.446Z</time>
      </trkpt>
      <trkpt lat="36.97756" lon="-2.78359">
        <ele>816.751563</ele>
        <time>2022-02-25T04:30:40.484Z</time>
      </trkpt>
      <trkpt lat="36.97767" lon="-2.78363">
        <ele>817.105819</ele>
        <time>2022-02-25T04:30:46.202Z</time>
      </trkpt>
      <trkpt lat="36.97789" lon="-2.78357">
        <ele>817.798094</ele>
        <time>2022-02-25T04:30:57.567Z</time>
      </trkpt>
      <trkpt lat="36.97807" lon="-2.78362">
        <ele>818.373222</ele>
        <time>2022-02-25T04:31:06.920Z</time>
      </trkpt>
      <trkpt lat="36.97826" lon="-2.78411">
        <ele>819.72527</ele>
        <time>2022-02-25T04:31:29.343Z</time>
      </trkpt>
      <trkpt lat="36.97842" lon="-2.78424">
        <ele>820.304931</ele>
        <time>2022-02-25T04:31:38.511Z</time>
      </trkpt>
      <trkpt lat="36.97885" lon="-2.78432">
        <ele>822.044229</ele>
        <time>2022-02-25T04:32:02.411Z</time>
      </trkpt>
      <trkpt lat="36.97917" lon="-2.78421">
        <ele>824.402115</ele>
        <time>2022-02-25T04:32:24.278Z</time>
      </trkpt>
      <trkpt lat="36.97929" lon="-2.7843">
        <ele>825.377664</ele>
        <time>2022-02-25T04:32:34.573Z</time>
      </trkpt>
      <trkpt lat="36.97932" lon="-2.78489">
        <ele>828.739582</ele>
        <time>2022-02-25T04:33:12.734Z</time>
      </trkpt>
      <trkpt lat="36.97942" lon="-2.78522">
        <ele>830.747774</ele>
        <time>2022-02-25T04:33:36.141Z</time>
      </trkpt>
      <trkpt lat="36.97946" lon="-2.78568">
        <ele>833.390844</ele>
        <time>2022-02-25T04:34:06.046Z</time>
      </trkpt>
      <trkpt lat="36.97935" lon="-2.78649">
        <ele>835.712427</ele>
        <time>2022-02-25T04:34:51.922Z</time>
      </trkpt>
      <trkpt lat="36.9791" lon="-2.78725">
        <ele>837.62374</ele>
        <time>2022-02-25T04:35:27.331Z</time>
      </trkpt>
      <trkpt lat="36.97907" lon="-2.78758">
        <ele>838.394196</ele>
        <time>2022-02-25T04:35:38.136Z</time>
      </trkpt>
      <trkpt lat="36.97919" lon="-2.78794">
        <ele>839.291703</ele>
        <time>2022-02-25T04:35:48.860Z</time>
      </trkpt>
      <trkpt lat="36.97952" lon="-2.78851">
        <ele>836.178312</ele>
        <time>2022-02-25T04:36:05.752Z</time>
      </trkpt>
      <trkpt lat="36.97979" lon="-2.78871">
        <ele>834.431694</ele>
        <time>2022-02-25T04:36:14.372Z</time>
      </trkpt>
      <trkpt lat="36.98018" lon="-2.78887">
        <ele>832.076941</ele>
        <time>2022-02-25T04:36:25.543Z</time>
      </trkpt>
      <trkpt lat="36.98028" lon="-2.78898">
        <ele>831.352076</ele>
        <time>2022-02-25T04:36:28.976Z</time>
      </trkpt>
      <trkpt lat="36.98027" lon="-2.79003">
        <ele>825.636975</ele>
        <time>2022-02-25T04:36:51.968Z</time>
      </trkpt>
      <trkpt lat="36.98035" lon="-2.79028">
        <ele>824.003465</ele>
        <time>2022-02-25T04:36:57.671Z</time>
      </trkpt>
      <trkpt lat="36.98061" lon="-2.79078">
        <ele>820.339915</ele>
        <time>2022-02-25T04:37:10.374Z</time>
      </trkpt>
      <trkpt lat="36.98072" lon="-2.79138">
        <ele>816.523159</ele>
        <time>2022-02-25T04:37:23.477Z</time>
      </trkpt>
      <trkpt lat="36.98068" lon="-2.79162">
        <ele>815.026036</ele>
        <time>2022-02-25T04:37:28.647Z</time>
      </trkpt>
      <trkpt lat="36.98009" lon="-2.79242">
        <ele>808.744331</ele>
        <time>2022-02-25T04:37:52.482Z</time>
      </trkpt>
      <trkpt lat="36.97962" lon="-2.79284">
        <ele>804.594216</ele>
        <time>2022-02-25T04:38:07.745Z</time>
      </trkpt>
      <trkpt lat="36.97946" lon="-2.79282">
        <ele>803.407705</ele>
        <time>2022-02-25T04:38:12.361Z</time>
      </trkpt>
      <trkpt lat="36.97887" lon="-2.79244">
        <ele>800.176602</ele>
        <time>2022-02-25T04:38:30.862Z</time>
      </trkpt>
      <trkpt lat="36.97866" lon="-2.79225">
        <ele>799.092758</ele>
        <time>2022-02-25T04:38:38.218Z</time>
      </trkpt>
      <trkpt lat="36.97855" lon="-2.79226">
        <ele>798.605052</ele>
        <time>2022-02-25T04:38:42.168Z</time>
      </trkpt>
      <trkpt lat="36.97852" lon="-2.79236">
        <ele>798.273249</ele>
        <time>2022-02-25T04:38:44.499Z</time>
      </trkpt>
      <trkpt lat="36.97875" lon="-2.79278">
        <ele>796.544564</ele>
        <time>2022-02-25T04:38:57.302Z</time>
      </trkpt>
      <trkpt lat="36.97881" lon="-2.79304">
        <ele>795.637312</ele>
        <time>2022-02-25T04:39:04.176Z</time>
      </trkpt>
      <trkpt lat="36.97871" lon="-2.79329">
        <ele>794.760247</ele>
        <time>2022-02-25T04:39:10.696Z</time>
      </trkpt>
      <trkpt lat="36.97853" lon="-2.79353">
        <ele>794.600628</ele>
        <time>2022-02-25T04:39:19.112Z</time>
      </trkpt>
      <trkpt lat="36.9784" lon="-2.79361">
        <ele>794.517366</ele>
        <time>2022-02-25T04:39:23.342Z</time>
      </trkpt>
      <trkpt lat="36.97828" lon="-2.7936">
        <ele>794.445696</ele>
        <time>2022-02-25T04:39:27.585Z</time>
      </trkpt>
      <trkpt lat="36.978" lon="-2.79341">
        <ele>794.251867</ele>
        <time>2022-02-25T04:39:39.218Z</time>
      </trkpt>
      <trkpt lat="36.97789" lon="-2.79349">
        <ele>794.176185</ele>
        <time>2022-02-25T04:39:43.910Z</time>
      </trkpt>
      <trkpt lat="36.97785" lon="-2.79364">
        <ele>794.098711</ele>
        <time>2022-02-25T04:39:48.734Z</time>
      </trkpt>
      <trkpt lat="36.97789" lon="-2.79394">
        <ele>793.952099</ele>
        <time>2022-02-25T04:39:58.721Z</time>
      </trkpt>
      <trkpt lat="36.97797" lon="-2.79409">
        <ele>793.867636</ele>
        <time>2022-02-25T04:40:04.412Z</time>
      </trkpt>
      <trkpt lat="36.97849" lon="-2.79461">
        <ele>794.276789</ele>
        <time>2022-02-25T04:40:32.234Z</time>
      </trkpt>
      <trkpt lat="36.97868" lon="-2.79489">
        <ele>794.743809</ele>
        <time>2022-02-25T04:40:44.977Z</time>
      </trkpt>
      <trkpt lat="36.97878" lon="-2.79533">
        <ele>795.325457</ele>
        <time>2022-02-25T04:41:01.128Z</time>
      </trkpt>
      <trkpt lat="36.97888" lon="-2.79632">
        <ele>796.618873</ele>
        <time>2022-02-25T04:41:39.063Z</time>
      </trkpt>
      <trkpt lat="36.97895" lon="-2.79727">
        <ele>798.370594</ele>
        <time>2022-02-25T04:42:16.536Z</time>
      </trkpt>
      <trkpt lat="36.97885" lon="-2.79945">
        <ele>802.167202</ele>
        <time>2022-02-25T04:43:41.337Z</time>
      </trkpt>
      <trkpt lat="36.97873" lon="-2.79994">
        <ele>802.960197</ele>
        <time>2022-02-25T04:44:00.592Z</time>
      </trkpt>
      <trkpt lat="36.9784" lon="-2.80063">
        <ele>804.234595</ele>
        <time>2022-02-25T04:44:30.369Z</time>
      </trkpt>
      <trkpt lat="36.97812" lon="-2.80129">
        <ele>804.145935</ele>
        <time>2022-02-25T04:44:55.871Z</time>
      </trkpt>
      <trkpt lat="36.97807" lon="-2.80161">
        <ele>804.099395</ele>
        <time>2022-02-25T04:45:05.547Z</time>
      </trkpt>
      <trkpt lat="36.97856" lon="-2.8025">
        <ele>803.941893</ele>
        <time>2022-02-25T04:45:35.884Z</time>
      </trkpt>
      <trkpt lat="36.97929" lon="-2.80415">
        <ele>800.759998</ele>
        <time>2022-02-25T04:46:24.128Z</time>
      </trkpt>
      <trkpt lat="36.97974" lon="-2.80534">
        <ele>798.504359</ele>
        <time>2022-02-25T04:46:57.349Z</time>
      </trkpt>
      <trkpt lat="36.98006" lon="-2.80637">
        <ele>796.649869</ele>
        <time>2022-02-25T04:47:26.188Z</time>
      </trkpt>
      <trkpt lat="36.98066" lon="-2.80903">
        <ele>792.962365</ele>
        <time>2022-02-25T04:48:39.279Z</time>
      </trkpt>
      <trkpt lat="36.98093" lon="-2.80978">
        <ele>791.988427</ele>
        <time>2022-02-25T04:49:01.492Z</time>
      </trkpt>
      <trkpt lat="36.98147" lon="-2.81112">
        <ele>790.190428</ele>
        <time>2022-02-25T04:49:41.778Z</time>
      </trkpt>
      <trkpt lat="36.98162" lon="-2.81167">
        <ele>789.487358</ele>
        <time>2022-02-25T04:49:57.203Z</time>
      </trkpt>
      <trkpt lat="36.98178" lon="-2.81235">
        <ele>788.633997</ele>
        <time>2022-02-25T04:50:15.883Z</time>
      </trkpt>
      <trkpt lat="36.9818" lon="-2.81248">
        <ele>788.476769</ele>
        <time>2022-02-25T04:50:19.405Z</time>
      </trkpt>
      <trkpt lat="36.98176" lon="-2.81263">
        <ele>788.281331</ele>
        <time>2022-02-25T04:50:23.697Z</time>
      </trkpt>
      <trkpt lat="36.9815" lon="-2.81303">
        <ele>787.820821</ele>
        <time>2022-02-25T04:50:37.378Z</time>
      </trkpt>
      <trkpt lat="36.98114" lon="-2.81344">
        <ele>787.871056</ele>
        <time>2022-02-25T04:50:54.001Z</time>
      </trkpt>
      <trkpt lat="36.98094" lon="-2.81397">
        <ele>787.919228</ele>
        <time>2022-02-25T04:51:10.938Z</time>
      </trkpt>
      <trkpt lat="36.98092" lon="-2.81419">
        <ele>787.937362</ele>
        <time>2022-02-25T04:51:17.916Z</time>
      </trkpt>
      <trkpt lat="36.98104" lon="-2.81429">
        <ele>787.952716</ele>
        <time>2022-02-25T04:51:24.170Z</time>
      </trkpt>
      <trkpt lat="36.98165" lon="-2.81419">
        <ele>788.71896</ele>
        <time>2022-02-25T04:51:51.759Z</time>
      </trkpt>
      <trkpt lat="36.98201" lon="-2.81423">
        <ele>790.005393</ele>
        <time>2022-02-25T04:52:10.576Z</time>
      </trkpt>
      <trkpt lat="36.98234" lon="-2.81438">
        <ele>791.300625</ele>
        <time>2022-02-25T04:52:31.623Z</time>
      </trkpt>
      <trkpt lat="36.98304" lon="-2.81488">
        <ele>794.200489</ele>
        <time>2022-02-25T04:53:18.366Z</time>
      </trkpt>
      <trkpt lat="36.98328" lon="-2.81523">
        <ele>795.676389</ele>
        <time>2022-02-25T04:53:40.137Z</time>
      </trkpt>
      <trkpt lat="36.98336" lon="-2.8155">
        <ele>796.633922</ele>
        <time>2022-02-25T04:53:54.335Z</time>
      </trkpt>
      <trkpt lat="36.98345" lon="-2.81605">
        <ele>798.480923</ele>
        <time>2022-02-25T04:54:19.335Z</time>
      </trkpt>
      <trkpt lat="36.98344" lon="-2.81672">
        <ele>800.707875</ele>
        <time>2022-02-25T04:54:50.365Z</time>
      </trkpt>
      <trkpt lat="36.9835" lon="-2.81685">
        <ele>801.201447</ele>
        <time>2022-02-25T04:54:57.408Z</time>
      </trkpt>
      <trkpt lat="36.98361" lon="-2.81692">
        <ele>801.707575</ele>
        <time>2022-02-25T04:55:04.250Z</time>
      </trkpt>
      <trkpt lat="36.98414" lon="-2.81713">
        <ele>805.221707</ele>
        <time>2022-02-25T04:55:34.599Z</time>
      </trkpt>
      <trkpt lat="36.98423" lon="-2.81724">
        <ele>806.100552</ele>
        <time>2022-02-25T04:55:43.107Z</time>
      </trkpt>
      <trkpt lat="36.98425" lon="-2.81756">
        <ele>807.821237</ele>
        <time>2022-02-25T04:56:00.933Z</time>
      </trkpt>
      <trkpt lat="36.98444" lon="-2.81874">
        <ele>814.310883</ele>
        <time>2022-02-25T04:57:16.463Z</time>
      </trkpt>
      <trkpt lat="36.98443" lon="-2.81958">
        <ele>819.935233</ele>
        <time>2022-02-25T04:58:13.173Z</time>
      </trkpt>
      <trkpt lat="36.98422" lon="-2.82066">
        <ele>827.341729</ele>
        <time>2022-02-25T04:59:26.242Z</time>
      </trkpt>
      <trkpt lat="36.98422" lon="-2.82105">
        <ele>829.34812</ele>
        <time>2022-02-25T04:59:49.404Z</time>
      </trkpt>
      <trkpt lat="36.98449" lon="-2.82205">
        <ele>831.859222</ele>
        <time>2022-02-25T05:00:35.594Z</time>
      </trkpt>
      <trkpt lat="36.98464" lon="-2.82329">
        <ele>834.429127</ele>
        <time>2022-02-25T05:01:17.610Z</time>
      </trkpt>
      <trkpt lat="36.98475" lon="-2.82338">
        <ele>834.457705</ele>
        <time>2022-02-25T05:01:22.534Z</time>
      </trkpt>
      <trkpt lat="36.98524" lon="-2.82337">
        <ele>834.56251</ele>
        <time>2022-02-25T05:01:40.294Z</time>
      </trkpt>
      <trkpt lat="36.98536" lon="-2.82343">
        <ele>834.588692</ele>
        <time>2022-02-25T05:01:44.623Z</time>
      </trkpt>
      <trkpt lat="36.98543" lon="-2.82357">
        <ele>834.617826</ele>
        <time>2022-02-25T05:01:49.453Z</time>
      </trkpt>
      <trkpt lat="36.98558" lon="-2.8246">
        <ele>834.936738</ele>
        <time>2022-02-25T05:02:20.053Z</time>
      </trkpt>
      <trkpt lat="36.9854" lon="-2.82617">
        <ele>837.49762</ele>
        <time>2022-02-25T05:03:22.157Z</time>
      </trkpt>
      <trkpt lat="36.98516" lon="-2.82656">
        <ele>838.300579</ele>
        <time>2022-02-25T05:03:42.036Z</time>
      </trkpt>
      <trkpt lat="36.98479" lon="-2.82674">
        <ele>838.873996</ele>
        <time>2022-02-25T05:04:01.248Z</time>
      </trkpt>
      <trkpt lat="36.98466" lon="-2.82685">
        <ele>839.098699</ele>
        <time>2022-02-25T05:04:09.469Z</time>
      </trkpt>
      <trkpt lat="36.98458" lon="-2.82699">
        <ele>839.277818</ele>
        <time>2022-02-25T05:04:14.897Z</time>
      </trkpt>
      <trkpt lat="36.98446" lon="-2.82742">
        <ele>839.777809</ele>
        <time>2022-02-25T05:04:31.250Z</time>
      </trkpt>
      <trkpt lat="36.98432" lon="-2.82806">
        <ele>840.50114</ele>
        <time>2022-02-25T05:04:54.411Z</time>
      </trkpt>
      <trkpt lat="36.98422" lon="-2.82906">
        <ele>840.468354</ele>
        <time>2022-02-25T05:05:23.939Z</time>
      </trkpt>
      <trkpt lat="36.98416" lon="-2.82977">
        <ele>840.016697</ele>
        <time>2022-02-25T05:05:35.477Z</time>
      </trkpt>
      <trkpt lat="36.98406" lon="-2.83022">
        <ele>839.727829</ele>
        <time>2022-02-25T05:05:42.609Z</time>
      </trkpt>
      <trkpt lat="36.98382" lon="-2.83067">
        <ele>839.226203</ele>
        <time>2022-02-25T05:05:50.962Z</time>
      </trkpt>
      <trkpt lat="36.98338" lon="-2.83104">
        <ele>838.034966</ele>
        <time>2022-02-25T05:06:00.968Z</time>
      </trkpt>
      <trkpt lat="36.98276" lon="-2.83247">
        <ele>835.018655</ele>
        <time>2022-02-25T05:06:23.891Z</time>
      </trkpt>
      <trkpt lat="36.98235" lon="-2.83371">
        <ele>831.728723</ele>
        <time>2022-02-25T05:06:42.326Z</time>
      </trkpt>
      <trkpt lat="36.98229" lon="-2.83401">
        <ele>831.000458</ele>
        <time>2022-02-25T05:06:46.469Z</time>
      </trkpt>
      <trkpt lat="36.98215" lon="-2.83737">
        <ele>824.008513</ele>
        <time>2022-02-25T05:07:32.845Z</time>
      </trkpt>
      <trkpt lat="36.98212" lon="-2.83809">
        <ele>823.433645</ele>
        <time>2022-02-25T05:07:44.629Z</time>
      </trkpt>
      <trkpt lat="36.98208" lon="-2.83881">
        <ele>822.861585</ele>
        <time>2022-02-25T05:07:57.802Z</time>
      </trkpt>
      <trkpt lat="36.98211" lon="-2.83944">
        <ele>823.171654</ele>
        <time>2022-02-25T05:08:11.644Z</time>
      </trkpt>
      <trkpt lat="36.98225" lon="-2.84073">
        <ele>824.20051</ele>
        <time>2022-02-25T05:08:41.123Z</time>
      </trkpt>
      <trkpt lat="36.98284" lon="-2.84254">
        <ele>826.834627</ele>
        <time>2022-02-25T05:09:23.598Z</time>
      </trkpt>
      <trkpt lat="36.98304" lon="-2.84341">
        <ele>828.840801</ele>
        <time>2022-02-25T05:09:49.343Z</time>
      </trkpt>
      <trkpt lat="36.98296" lon="-2.84451">
        <ele>834.701592</ele>
        <time>2022-02-25T05:10:35.104Z</time>
      </trkpt>
      <trkpt lat="36.98271" lon="-2.84671">
        <ele>846.792391</ele>
        <time>2022-02-25T05:12:33.656Z</time>
      </trkpt>
      <trkpt lat="36.98264" lon="-2.84698">
        <ele>848.359088</ele>
        <time>2022-02-25T05:12:47.649Z</time>
      </trkpt>
      <trkpt lat="36.98211" lon="-2.84877">
        <ele>853.496818</ele>
        <time>2022-02-25T05:13:47.552Z</time>
      </trkpt>
      <trkpt lat="36.98198" lon="-2.84891">
        <ele>853.706286</ele>
        <time>2022-02-25T05:13:50.992Z</time>
      </trkpt>
      <trkpt lat="36.98195" lon="-2.84919">
        <ele>853.984115</ele>
        <time>2022-02-25T05:13:58.391Z</time>
      </trkpt>
      <trkpt lat="36.98194" lon="-2.84932">
        <ele>854.116152</ele>
        <time>2022-02-25T05:14:00.558Z</time>
      </trkpt>
      <trkpt lat="36.98186" lon="-2.84946">
        <ele>854.286129</ele>
        <time>2022-02-25T05:14:03.091Z</time>
      </trkpt>
      <trkpt lat="36.98161" lon="-2.84973">
        <ele>854.391811</ele>
        <time>2022-02-25T05:14:09.930Z</time>
      </trkpt>
      <trkpt lat="36.98156" lon="-2.84986">
        <ele>854.251313</ele>
        <time>2022-02-25T05:14:12.321Z</time>
      </trkpt>
      <trkpt lat="36.98156" lon="-2.84998">
        <ele>854.133284</ele>
        <time>2022-02-25T05:14:14.877Z</time>
      </trkpt>
      <trkpt lat="36.98163" lon="-2.85021">
        <ele>853.890645</ele>
        <time>2022-02-25T05:14:18.597Z</time>
      </trkpt>
      <trkpt lat="36.98178" lon="-2.85101">
        <ele>853.083317</ele>
        <time>2022-02-25T05:14:31.685Z</time>
      </trkpt>
      <trkpt lat="36.98184" lon="-2.85149">
        <ele>852.603383</ele>
        <time>2022-02-25T05:14:39.430Z</time>
      </trkpt>
      <trkpt lat="36.98189" lon="-2.85196">
        <ele>852.240734</ele>
        <time>2022-02-25T05:14:47.064Z</time>
      </trkpt>
      <trkpt lat="36.98193" lon="-2.85235">
        <ele>852.061235</ele>
        <time>2022-02-25T05:14:55.385Z</time>
      </trkpt>
      <trkpt lat="36.98203" lon="-2.85336">
        <ele>851.589426</ele>
        <time>2022-02-25T05:15:16.831Z</time>
      </trkpt>
      <trkpt lat="36.98165" lon="-2.85372">
        <ele>851.313272</ele>
        <time>2022-02-25T05:15:25.796Z</time>
      </trkpt>
      <trkpt lat="36.98125" lon="-2.85424">
        <ele>849.404181</ele>
        <time>2022-02-25T05:15:35.887Z</time>
      </trkpt>
      <trkpt lat="36.98149" lon="-2.85454">
        <ele>848.198358</ele>
        <time>2022-02-25T05:15:42.067Z</time>
      </trkpt>
      <trkpt lat="36.98209" lon="-2.85504">
        <ele>845.644184</ele>
        <time>2022-02-25T05:15:54.639Z</time>
      </trkpt>
      <trkpt lat="36.98207" lon="-2.85572">
        <ele>843.589487</ele>
        <time>2022-02-25T05:16:03.494Z</time>
      </trkpt>
      <trkpt lat="36.98206" lon="-2.856">
        <ele>842.714705</ele>
        <time>2022-02-25T05:16:07.095Z</time>
      </trkpt>
      <trkpt lat="36.98207" lon="-2.85611">
        <ele>842.358119</ele>
        <time>2022-02-25T05:16:08.609Z</time>
      </trkpt>
      <trkpt lat="36.98211" lon="-2.85684">
        <ele>840.067424</ele>
        <time>2022-02-25T05:16:18.448Z</time>
      </trkpt>
      <trkpt lat="36.98209" lon="-2.85697">
        <ele>839.650904</ele>
        <time>2022-02-25T05:16:20.300Z</time>
      </trkpt>
      <trkpt lat="36.98188" lon="-2.8583">
        <ele>837.924983</ele>
        <time>2022-02-25T05:16:41.525Z</time>
      </trkpt>
      <trkpt lat="36.98189" lon="-2.8588">
        <ele>837.959225</ele>
        <time>2022-02-25T05:16:52.070Z</time>
      </trkpt>
      <trkpt lat="36.98178" lon="-2.85942">
        <ele>838.002479</ele>
        <time>2022-02-25T05:17:06.645Z</time>
      </trkpt>
      <trkpt lat="36.98166" lon="-2.85956">
        <ele>838.01607</ele>
        <time>2022-02-25T05:17:11.786Z</time>
      </trkpt>
      <trkpt lat="36.98115" lon="-2.86011">
        <ele>839.300415</ele>
        <time>2022-02-25T05:17:34.314Z</time>
      </trkpt>
      <trkpt lat="36.98108" lon="-2.8603">
        <ele>839.663218</ele>
        <time>2022-02-25T05:17:39.974Z</time>
      </trkpt>
      <trkpt lat="36.98107" lon="-2.8604">
        <ele>839.851</ele>
        <time>2022-02-25T05:17:43.453Z</time>
      </trkpt>
      <trkpt lat="36.98116" lon="-2.86067">
        <ele>840.363392</ele>
        <time>2022-02-25T05:17:52.785Z</time>
      </trkpt>
      <trkpt lat="36.98146" lon="-2.86159">
        <ele>842.073683</ele>
        <time>2022-02-25T05:18:20.448Z</time>
      </trkpt>
      <trkpt lat="36.98144" lon="-2.86199">
        <ele>842.520926</ele>
        <time>2022-02-25T05:18:29.500Z</time>
      </trkpt>
      <trkpt lat="36.98131" lon="-2.86224">
        <ele>842.855586</ele>
        <time>2022-02-25T05:18:36.738Z</time>
      </trkpt>
      <trkpt lat="36.98132" lon="-2.86287">
        <ele>843.552991</ele>
        <time>2022-02-25T05:18:50.908Z</time>
      </trkpt>
      <trkpt lat="36.98171" lon="-2.86365">
        <ele>844.562319</ele>
        <time>2022-02-25T05:19:12.924Z</time>
      </trkpt>
      <trkpt lat="36.982" lon="-2.86482">
        <ele>845.505598</ele>
        <time>2022-02-25T05:19:39.252Z</time>
      </trkpt>
      <trkpt lat="36.98371" lon="-2.87175">
        <ele>850.488139</ele>
        <time>2022-02-25T05:22:12.820Z</time>
      </trkpt>
      <trkpt lat="36.98414" lon="-2.87303">
        <ele>851.469572</ele>
        <time>2022-02-25T05:22:41.849Z</time>
      </trkpt>
      <trkpt lat="36.98452" lon="-2.87416">
        <ele>852.357251</ele>
        <time>2022-02-25T05:23:07.743Z</time>
      </trkpt>
      <trkpt lat="36.98498" lon="-2.87513">
        <ele>853.426581</ele>
        <time>2022-02-25T05:23:34.378Z</time>
      </trkpt>
      <trkpt lat="36.98527" lon="-2.87601">
        <ele>854.341046</ele>
        <time>2022-02-25T05:23:55.830Z</time>
      </trkpt>
      <trkpt lat="36.9855" lon="-2.87677">
        <ele>854.876403</ele>
        <time>2022-02-25T05:24:13.104Z</time>
      </trkpt>
      <trkpt lat="36.98553" lon="-2.87685">
        <ele>854.920028</ele>
        <time>2022-02-25T05:24:14.833Z</time>
      </trkpt>
      <trkpt lat="36.98558" lon="-2.87701">
        <ele>855.007436</ele>
        <time>2022-02-25T05:24:18.471Z</time>
      </trkpt>
      <trkpt lat="36.98563" lon="-2.87718">
        <ele>855.095311</ele>
        <time>2022-02-25T05:24:22.103Z</time>
      </trkpt>
      <trkpt lat="36.9857" lon="-2.87741">
        <ele>855.22211</ele>
        <time>2022-02-25T05:24:27.083Z</time>
      </trkpt>
      <trkpt lat="36.98582" lon="-2.87777">
        <ele>855.418371</ele>
        <time>2022-02-25T05:24:34.603Z</time>
      </trkpt>
      <trkpt lat="36.98649" lon="-2.87951">
        <ele>856.994876</ele>
        <time>2022-02-25T05:25:12.656Z</time>
      </trkpt>
      <trkpt lat="36.98873" lon="-2.88197">
        <ele>863.202889</ele>
        <time>2022-02-25T05:26:52.143Z</time>
      </trkpt>
      <trkpt lat="36.98963" lon="-2.88297">
        <ele>866.642083</ele>
        <time>2022-02-25T05:27:36.205Z</time>
      </trkpt>
      <trkpt lat="36.99117" lon="-2.88463">
        <ele>874.285251</ele>
        <time>2022-02-25T05:28:58.655Z</time>
      </trkpt>
      <trkpt lat="36.99259" lon="-2.88617">
        <ele>884.718413</ele>
        <time>2022-02-25T05:30:33.193Z</time>
      </trkpt>
      <trkpt lat="36.99323" lon="-2.88693">
        <ele>890.599526</ele>
        <time>2022-02-25T05:31:24.206Z</time>
      </trkpt>
      <trkpt lat="36.99376" lon="-2.88793">
        <ele>896.699068</ele>
        <time>2022-02-25T05:32:18.318Z</time>
      </trkpt>
      <trkpt lat="36.9939" lon="-2.88828">
        <ele>898.188707</ele>
        <time>2022-02-25T05:32:35.843Z</time>
      </trkpt>
      <trkpt lat="36.99392" lon="-2.88843">
        <ele>898.745945</ele>
        <time>2022-02-25T05:32:42.106Z</time>
      </trkpt>
      <trkpt lat="36.994" lon="-2.88855">
        <ele>899.331755</ele>
        <time>2022-02-25T05:32:49.195Z</time>
      </trkpt>
      <trkpt lat="36.99392" lon="-2.88864">
        <ele>899.834596</ele>
        <time>2022-02-25T05:32:53.970Z</time>
      </trkpt>
      <trkpt lat="36.99391" lon="-2.88892">
        <ele>900.902706</ele>
        <time>2022-02-25T05:33:05.208Z</time>
      </trkpt>
      <trkpt lat="36.9939" lon="-2.88904">
        <ele>901.33424</ele>
        <time>2022-02-25T05:33:09.283Z</time>
      </trkpt>
      <trkpt lat="36.99388" lon="-2.88925">
        <ele>902.152837</ele>
        <time>2022-02-25T05:33:16.655Z</time>
      </trkpt>
      <trkpt lat="36.99388" lon="-2.88929">
        <ele>902.289186</ele>
        <time>2022-02-25T05:33:18.004Z</time>
      </trkpt>
      <trkpt lat="36.99388" lon="-2.88933">
        <ele>902.429282</ele>
        <time>2022-02-25T05:33:19.410Z</time>
      </trkpt>
      <trkpt lat="36.99384" lon="-2.88971">
        <ele>903.888426</ele>
        <time>2022-02-25T05:33:30.637Z</time>
      </trkpt>
      <trkpt lat="36.99396" lon="-2.89005">
        <ele>904.17969</ele>
        <time>2022-02-25T05:33:39.585Z</time>
      </trkpt>
      <trkpt lat="36.99393" lon="-2.89033">
        <ele>904.02401</ele>
        <time>2022-02-25T05:33:45.358Z</time>
      </trkpt>
      <trkpt lat="36.99388" lon="-2.89072">
        <ele>903.800437</ele>
        <time>2022-02-25T05:33:52.164Z</time>
      </trkpt>
      <trkpt lat="36.99387" lon="-2.89073">
        <ele>903.792479</ele>
        <time>2022-02-25T05:33:52.405Z</time>
      </trkpt>
      <trkpt lat="36.9939" lon="-2.89105">
        <ele>903.613678</ele>
        <time>2022-02-25T05:33:57.615Z</time>
      </trkpt>
      <trkpt lat="36.9939" lon="-2.8911">
        <ele>903.584505</ele>
        <time>2022-02-25T05:33:58.446Z</time>
      </trkpt>
      <trkpt lat="36.99379" lon="-2.89143">
        <ele>903.387356</ele>
        <time>2022-02-25T05:34:03.702Z</time>
      </trkpt>
      <trkpt lat="36.99361" lon="-2.89192">
        <ele>903.086432</ele>
        <time>2022-02-25T05:34:11.332Z</time>
      </trkpt>
      <trkpt lat="36.99359" lon="-2.89197">
        <ele>903.035984</ele>
        <time>2022-02-25T05:34:12.144Z</time>
      </trkpt>
      <trkpt lat="36.99331" lon="-2.89267">
        <ele>901.669351</ele>
        <time>2022-02-25T05:34:22.592Z</time>
      </trkpt>
      <trkpt lat="36.99317" lon="-2.89304">
        <ele>900.94393</ele>
        <time>2022-02-25T05:34:28.294Z</time>
      </trkpt>
      <trkpt lat="36.99303" lon="-2.89355">
        <ele>899.99461</ele>
        <time>2022-02-25T05:34:36.257Z</time>
      </trkpt>
      <trkpt lat="36.99294" lon="-2.89403">
        <ele>899.118244</ele>
        <time>2022-02-25T05:34:44.012Z</time>
      </trkpt>
      <trkpt lat="36.9929" lon="-2.89431">
        <ele>899.235869</ele>
        <time>2022-02-25T05:34:48.650Z</time>
      </trkpt>
      <trkpt lat="36.99282" lon="-2.89503">
        <ele>899.624284</ele>
        <time>2022-02-25T05:35:01.513Z</time>
      </trkpt>
      <trkpt lat="36.99279" lon="-2.89523">
        <ele>899.735263</ele>
        <time>2022-02-25T05:35:05.928Z</time>
      </trkpt>
      <trkpt lat="36.99267" lon="-2.89609">
        <ele>900.19718</ele>
        <time>2022-02-25T05:35:26.209Z</time>
      </trkpt>
      <trkpt lat="36.99264" lon="-2.89635">
        <ele>900.477271</ele>
        <time>2022-02-25T05:35:33.340Z</time>
      </trkpt>
      <trkpt lat="36.99252" lon="-2.89713">
        <ele>902.145168</ele>
        <time>2022-02-25T05:35:55.077Z</time>
      </trkpt>
      <trkpt lat="36.99241" lon="-2.89797">
        <ele>903.95035</ele>
        <time>2022-02-25T05:36:20.003Z</time>
      </trkpt>
      <trkpt lat="36.9924" lon="-2.89832">
        <ele>904.672701</ele>
        <time>2022-02-25T05:36:30.258Z</time>
      </trkpt>
      <trkpt lat="36.99246" lon="-2.89884">
        <ele>905.765974</ele>
        <time>2022-02-25T05:36:45.932Z</time>
      </trkpt>
      <trkpt lat="36.99253" lon="-2.89887">
        <ele>905.936575</ele>
        <time>2022-02-25T05:36:48.366Z</time>
      </trkpt>
      <trkpt lat="36.99256" lon="-2.89894">
        <ele>906.104972</ele>
        <time>2022-02-25T05:36:50.980Z</time>
      </trkpt>
      <trkpt lat="36.99254" lon="-2.89902">
        <ele>906.274151</ele>
        <time>2022-02-25T05:36:53.494Z</time>
      </trkpt>
      <trkpt lat="36.99246" lon="-2.89907">
        <ele>906.518005</ele>
        <time>2022-02-25T05:36:56.739Z</time>
      </trkpt>
      <trkpt lat="36.99244" lon="-2.89924">
        <ele>906.877182</ele>
        <time>2022-02-25T05:37:02.009Z</time>
      </trkpt>
      <trkpt lat="36.99243" lon="-2.89935">
        <ele>907.092548</ele>
        <time>2022-02-25T05:37:05.245Z</time>
      </trkpt>
      <trkpt lat="36.99237" lon="-2.89959">
        <ele>907.609284</ele>
        <time>2022-02-25T05:37:12.353Z</time>
      </trkpt>
      <trkpt lat="36.99196" lon="-2.90043">
        <ele>909.64614</ele>
        <time>2022-02-25T05:37:39.417Z</time>
      </trkpt>
      <trkpt lat="36.99181" lon="-2.90089">
        <ele>910.122202</ele>
        <time>2022-02-25T05:37:51.359Z</time>
      </trkpt>
      <trkpt lat="36.99147" lon="-2.90232">
        <ele>911.501589</ele>
        <time>2022-02-25T05:38:23.169Z</time>
      </trkpt>
      <trkpt lat="36.99136" lon="-2.90316">
        <ele>912.325263</ele>
        <time>2022-02-25T05:38:41.044Z</time>
      </trkpt>
      <trkpt lat="36.99101" lon="-2.90421">
        <ele>913.453728</ele>
        <time>2022-02-25T05:39:06.420Z</time>
      </trkpt>
      <trkpt lat="36.99064" lon="-2.9053">
        <ele>915.050855</ele>
        <time>2022-02-25T05:39:36.424Z</time>
      </trkpt>
      <trkpt lat="36.99057" lon="-2.90556">
        <ele>915.504399</ele>
        <time>2022-02-25T05:39:43.780Z</time>
      </trkpt>
      <trkpt lat="36.99013" lon="-2.90707">
        <ele>917.966592</ele>
        <time>2022-02-25T05:40:26.629Z</time>
      </trkpt>
      <trkpt lat="36.99008" lon="-2.90721">
        <ele>918.109337</ele>
        <time>2022-02-25T05:40:30.752Z</time>
      </trkpt>
      <trkpt lat="36.9896" lon="-2.90865">
        <ele>919.517266</ele>
        <time>2022-02-25T05:41:05.806Z</time>
      </trkpt>
      <trkpt lat="36.98956" lon="-2.90875">
        <ele>919.624725</ele>
        <time>2022-02-25T05:41:08.106Z</time>
      </trkpt>
      <trkpt lat="36.98948" lon="-2.90894">
        <ele>919.734226</ele>
        <time>2022-02-25T05:41:11.926Z</time>
      </trkpt>
      <trkpt lat="36.98675" lon="-2.91513">
        <ele>916.370541</ele>
        <time>2022-02-25T05:43:07.165Z</time>
      </trkpt>
      <trkpt lat="36.98671" lon="-2.91521">
        <ele>916.398035</ele>
        <time>2022-02-25T05:43:08.680Z</time>
      </trkpt>
      <trkpt lat="36.98521" lon="-2.91862">
        <ele>918.31193</ele>
        <time>2022-02-25T05:44:28.992Z</time>
      </trkpt>
      <trkpt lat="36.98484" lon="-2.91946">
        <ele>919.172259</ele>
        <time>2022-02-25T05:44:50.858Z</time>
      </trkpt>
      <trkpt lat="36.98473" lon="-2.91968">
        <ele>919.410918</ele>
        <time>2022-02-25T05:44:56.575Z</time>
      </trkpt>
      <trkpt lat="36.98453" lon="-2.91998">
        <ele>919.774679</ele>
        <time>2022-02-25T05:45:05.275Z</time>
      </trkpt>
      <trkpt lat="36.98419" lon="-2.92088">
        <ele>920.72164</ele>
        <time>2022-02-25T05:45:27.855Z</time>
      </trkpt>
      <trkpt lat="36.98377" lon="-2.92182">
        <ele>921.794808</ele>
        <time>2022-02-25T05:45:53.201Z</time>
      </trkpt>
      <trkpt lat="36.98302" lon="-2.92359">
        <ele>923.368614</ele>
        <time>2022-02-25T05:46:37.637Z</time>
      </trkpt>
      <trkpt lat="36.98203" lon="-2.92589">
        <ele>924.41342</ele>
        <time>2022-02-25T05:47:28.252Z</time>
      </trkpt>
      <trkpt lat="36.98178" lon="-2.92673">
        <ele>924.61418</ele>
        <time>2022-02-25T05:47:44.722Z</time>
      </trkpt>
      <trkpt lat="36.98178" lon="-2.92679">
        <ele>924.601468</ele>
        <time>2022-02-25T05:47:45.909Z</time>
      </trkpt>
      <trkpt lat="36.9817" lon="-2.92692">
        <ele>924.565814</ele>
        <time>2022-02-25T05:47:49.125Z</time>
      </trkpt>
      <trkpt lat="36.98133" lon="-2.92772">
        <ele>924.371816</ele>
        <time>2022-02-25T05:48:06.020Z</time>
      </trkpt>
      <trkpt lat="36.98072" lon="-2.9297">
        <ele>922.951296</ele>
        <time>2022-02-25T05:48:40.520Z</time>
      </trkpt>
      <trkpt lat="36.98032" lon="-2.93172">
        <ele>919.941463</ele>
        <time>2022-02-25T05:49:11.106Z</time>
      </trkpt>
      <trkpt lat="36.98004" lon="-2.93374">
        <ele>915.827667</ele>
        <time>2022-02-25T05:49:40.093Z</time>
      </trkpt>
      <trkpt lat="36.97979" lon="-2.93567">
        <ele>911.351234</ele>
        <time>2022-02-25T05:50:07.161Z</time>
      </trkpt>
      <trkpt lat="36.97954" lon="-2.93674">
        <ele>908.793634</ele>
        <time>2022-02-25T05:50:22.594Z</time>
      </trkpt>
      <trkpt lat="36.9792" lon="-2.93788">
        <ele>905.898025</ele>
        <time>2022-02-25T05:50:39.595Z</time>
      </trkpt>
      <trkpt lat="36.97907" lon="-2.93829">
        <ele>904.826946</ele>
        <time>2022-02-25T05:50:45.581Z</time>
      </trkpt>
      <trkpt lat="36.97814" lon="-2.94126">
        <ele>897.55604</ele>
        <time>2022-02-25T05:51:29.253Z</time>
      </trkpt>
      <trkpt lat="36.97785" lon="-2.94213">
        <ele>895.945379</ele>
        <time>2022-02-25T05:51:43.982Z</time>
      </trkpt>
      <trkpt lat="36.97771" lon="-2.94259">
        <ele>895.261357</ele>
        <time>2022-02-25T05:51:51.644Z</time>
      </trkpt>
      <trkpt lat="36.97751" lon="-2.94325">
        <ele>894.288127</ele>
        <time>2022-02-25T05:52:02.472Z</time>
      </trkpt>
      <trkpt lat="36.97734" lon="-2.94409">
        <ele>892.401304</ele>
        <time>2022-02-25T05:52:15.028Z</time>
      </trkpt>
      <trkpt lat="36.97729" lon="-2.94531">
        <ele>888.355307</ele>
        <time>2022-02-25T05:52:30.839Z</time>
      </trkpt>
      <trkpt lat="36.97731" lon="-2.9462">
        <ele>884.898501</ele>
        <time>2022-02-25T05:52:42.139Z</time>
      </trkpt>
      <trkpt lat="36.97733" lon="-2.94693">
        <ele>880.958503</ele>
        <time>2022-02-25T05:52:51.261Z</time>
      </trkpt>
      <trkpt lat="36.97729" lon="-2.94957">
        <ele>862.992799</ele>
        <time>2022-02-25T05:53:22.323Z</time>
      </trkpt>
      <trkpt lat="36.97726" lon="-2.94989">
        <ele>860.384642</ele>
        <time>2022-02-25T05:53:25.877Z</time>
      </trkpt>
      <trkpt lat="36.97744" lon="-2.94995">
        <ele>858.444891</ele>
        <time>2022-02-25T05:53:30.484Z</time>
      </trkpt>
      <trkpt lat="36.97758" lon="-2.94981">
        <ele>856.659553</ele>
        <time>2022-02-25T05:53:34.923Z</time>
      </trkpt>
      <trkpt lat="36.97764" lon="-2.94986">
        <ele>855.915276</ele>
        <time>2022-02-25T05:53:36.754Z</time>
      </trkpt>
      <trkpt lat="36.97755" lon="-2.95009">
        <ele>853.331493</ele>
        <time>2022-02-25T05:53:41.800Z</time>
      </trkpt>
      <trkpt lat="36.97753" lon="-2.9503">
        <ele>851.181905</ele>
        <time>2022-02-25T05:53:45.975Z</time>
      </trkpt>
      <trkpt lat="36.9776" lon="-2.95148">
        <ele>839.056164</ele>
        <time>2022-02-25T05:54:09.014Z</time>
      </trkpt>
      <trkpt lat="36.97777" lon="-2.95132">
        <ele>836.353092</ele>
        <time>2022-02-25T05:54:14.459Z</time>
      </trkpt>
      <trkpt lat="36.97758" lon="-2.95189">
        <ele>831.234456</ele>
        <time>2022-02-25T05:54:21.371Z</time>
      </trkpt>
      <trkpt lat="36.97749" lon="-2.95206">
        <ele>830.098271</ele>
        <time>2022-02-25T05:54:23.648Z</time>
      </trkpt>
      <trkpt lat="36.97706" lon="-2.9524">
        <ele>826.527025</ele>
        <time>2022-02-25T05:54:31.225Z</time>
      </trkpt>
      <trkpt lat="36.97705" lon="-2.95267">
        <ele>825.008431</ele>
        <time>2022-02-25T05:54:34.563Z</time>
      </trkpt>
      <trkpt lat="36.97715" lon="-2.95323">
        <ele>821.786145</ele>
        <time>2022-02-25T05:54:41.941Z</time>
      </trkpt>
      <trkpt lat="36.97709" lon="-2.95365">
        <ele>819.481058</ele>
        <time>2022-02-25T05:54:47.232Z</time>
      </trkpt>
      <trkpt lat="36.97693" lon="-2.95404">
        <ele>817.301206</ele>
        <time>2022-02-25T05:54:52.839Z</time>
      </trkpt>
      <trkpt lat="36.97662" lon="-2.95439">
        <ele>814.720594</ele>
        <time>2022-02-25T05:54:59.254Z</time>
      </trkpt>
      <trkpt lat="36.97652" lon="-2.95465">
        <ele>813.30367</ele>
        <time>2022-02-25T05:55:02.710Z</time>
      </trkpt>
      <trkpt lat="36.97654" lon="-2.95601">
        <ele>806.009633</ele>
        <time>2022-02-25T05:55:19.083Z</time>
      </trkpt>
      <trkpt lat="36.97666" lon="-2.95643">
        <ele>803.284486</ele>
        <time>2022-02-25T05:55:24.424Z</time>
      </trkpt>
      <trkpt lat="36.97662" lon="-2.95688">
        <ele>800.579064</ele>
        <time>2022-02-25T05:55:29.570Z</time>
      </trkpt>
      <trkpt lat="36.97654" lon="-2.95702">
        <ele>799.509622</ele>
        <time>2022-02-25T05:55:31.626Z</time>
      </trkpt>
      <trkpt lat="36.97575" lon="-2.95761">
        <ele>792.405316</ele>
        <time>2022-02-25T05:55:45.205Z</time>
      </trkpt>
      <trkpt lat="36.9756" lon="-2.95778">
        <ele>790.818039</ele>
        <time>2022-02-25T05:55:48.240Z</time>
      </trkpt>
      <trkpt lat="36.97534" lon="-2.95887">
        <ele>783.778306</ele>
        <time>2022-02-25T05:56:01.798Z</time>
      </trkpt>
      <trkpt lat="36.9751" lon="-2.95915">
        <ele>781.255676</ele>
        <time>2022-02-25T05:56:06.515Z</time>
      </trkpt>
      <trkpt lat="36.9747" lon="-2.95942">
        <ele>777.758766</ele>
        <time>2022-02-25T05:56:13.142Z</time>
      </trkpt>
      <trkpt lat="36.97443" lon="-2.95954">
        <ele>775.600373</ele>
        <time>2022-02-25T05:56:17.239Z</time>
      </trkpt>
      <trkpt lat="36.97371" lon="-2.95971">
        <ele>770.101353</ele>
        <time>2022-02-25T05:56:27.915Z</time>
      </trkpt>
      <trkpt lat="36.97346" lon="-2.95986">
        <ele>767.955573</ele>
        <time>2022-02-25T05:56:32.421Z</time>
      </trkpt>
      <trkpt lat="36.97326" lon="-2.96009">
        <ele>766.581551</ele>
        <time>2022-02-25T05:56:36.629Z</time>
      </trkpt>
      <trkpt lat="36.97313" lon="-2.96025">
        <ele>765.730357</ele>
        <time>2022-02-25T05:56:39.625Z</time>
      </trkpt>
      <trkpt lat="36.97254" lon="-2.96093">
        <ele>762.094756</ele>
        <time>2022-02-25T05:56:52.461Z</time>
      </trkpt>
      <trkpt lat="36.9722" lon="-2.9613">
        <ele>760.041162</ele>
        <time>2022-02-25T05:56:59.843Z</time>
      </trkpt>
      <trkpt lat="36.97136" lon="-2.96227">
        <ele>755.040524</ele>
        <time>2022-02-25T05:57:19.696Z</time>
      </trkpt>
      <trkpt lat="36.97111" lon="-2.96253">
        <ele>753.647316</ele>
        <time>2022-02-25T05:57:24.620Z</time>
      </trkpt>
      <trkpt lat="36.97075" lon="-2.96253">
        <ele>752.084586</ele>
        <time>2022-02-25T05:57:30.211Z</time>
      </trkpt>
      <trkpt lat="36.97022" lon="-2.96245">
        <ele>749.032686</ele>
        <time>2022-02-25T05:57:38.596Z</time>
      </trkpt>
      <trkpt lat="36.97002" lon="-2.9629">
        <ele>746.474402</ele>
        <time>2022-02-25T05:57:45.173Z</time>
      </trkpt>
      <trkpt lat="36.96952" lon="-2.96276">
        <ele>743.317616</ele>
        <time>2022-02-25T05:57:53.166Z</time>
      </trkpt>
      <trkpt lat="36.96928" lon="-2.96275">
        <ele>741.824483</ele>
        <time>2022-02-25T05:57:56.909Z</time>
      </trkpt>
      <trkpt lat="36.96865" lon="-2.96292">
        <ele>737.86999</ele>
        <time>2022-02-25T05:58:06.418Z</time>
      </trkpt>
      <trkpt lat="36.96795" lon="-2.96293">
        <ele>733.534121</ele>
        <time>2022-02-25T05:58:17.111Z</time>
      </trkpt>
      <trkpt lat="36.96768" lon="-2.96332">
        <ele>730.92943</ele>
        <time>2022-02-25T05:58:23.383Z</time>
      </trkpt>
      <trkpt lat="36.96679" lon="-2.96392">
        <ele>727.526999</ele>
        <time>2022-02-25T05:58:39.855Z</time>
      </trkpt>
      <trkpt lat="36.96635" lon="-2.96412">
        <ele>726.403584</ele>
        <time>2022-02-25T05:58:48.125Z</time>
      </trkpt>
      <trkpt lat="36.96624" lon="-2.96412">
        <ele>726.1391</ele>
        <time>2022-02-25T05:58:50.347Z</time>
      </trkpt>
      <trkpt lat="36.96614" lon="-2.96401">
        <ele>725.823945</ele>
        <time>2022-02-25T05:58:52.803Z</time>
      </trkpt>
      <trkpt lat="36.96607" lon="-2.96335">
        <ele>725.562524</ele>
        <time>2022-02-25T05:59:06.368Z</time>
      </trkpt>
      <trkpt lat="36.96582" lon="-2.96282">
        <ele>726.893049</ele>
        <time>2022-02-25T05:59:24.374Z</time>
      </trkpt>
      <trkpt lat="36.96537" lon="-2.96262">
        <ele>728.185256</ele>
        <time>2022-02-25T05:59:45.057Z</time>
      </trkpt>
      <trkpt lat="36.96524" lon="-2.96261">
        <ele>728.559316</ele>
        <time>2022-02-25T05:59:50.840Z</time>
      </trkpt>
      <trkpt lat="36.96471" lon="-2.96284">
        <ele>730.007332</ele>
        <time>2022-02-25T06:00:11.919Z</time>
      </trkpt>
      <trkpt lat="36.96399" lon="-2.96294">
        <ele>731.109574</ele>
        <time>2022-02-25T06:00:36.422Z</time>
      </trkpt>
      <trkpt lat="36.96378" lon="-2.96303">
        <ele>731.446714</ele>
        <time>2022-02-25T06:00:42.710Z</time>
      </trkpt>
      <trkpt lat="36.96353" lon="-2.96335">
        <ele>731.991508</ele>
        <time>2022-02-25T06:00:52.669Z</time>
      </trkpt>
      <trkpt lat="36.96308" lon="-2.96368">
        <ele>732.572108</ele>
        <time>2022-02-25T06:01:05.908Z</time>
      </trkpt>
      <trkpt lat="36.96299" lon="-2.96374">
        <ele>732.488118</ele>
        <time>2022-02-25T06:01:08.029Z</time>
      </trkpt>
      <trkpt lat="36.96238" lon="-2.96465">
        <ele>731.730772</ele>
        <time>2022-02-25T06:01:27.618Z</time>
      </trkpt>
      <trkpt lat="36.96206" lon="-2.96588">
        <ele>730.742963</ele>
        <time>2022-02-25T06:01:46.956Z</time>
      </trkpt>
      <trkpt lat="36.96171" lon="-2.96687">
        <ele>729.645776</ele>
        <time>2022-02-25T06:02:03.560Z</time>
      </trkpt>
      <trkpt lat="36.96043" lon="-2.96953">
        <ele>726.754533</ele>
        <time>2022-02-25T06:02:54.346Z</time>
      </trkpt>
      <trkpt lat="36.95999" lon="-2.97071">
        <ele>722.097562</ele>
        <time>2022-02-25T06:03:12.400Z</time>
      </trkpt>
      <trkpt lat="36.95992" lon="-2.97106">
        <ele>720.823083</ele>
        <time>2022-02-25T06:03:16.806Z</time>
      </trkpt>
      <trkpt lat="36.95981" lon="-2.97137">
        <ele>719.598752</ele>
        <time>2022-02-25T06:03:20.912Z</time>
      </trkpt>
      <trkpt lat="36.95891" lon="-2.97323">
        <ele>702.831437</ele>
        <time>2022-02-25T06:03:45.371Z</time>
      </trkpt>
      <trkpt lat="36.95855" lon="-2.9742">
        <ele>695.356698</ele>
        <time>2022-02-25T06:03:57.597Z</time>
      </trkpt>
      <trkpt lat="36.95846" lon="-2.97434">
        <ele>694.186542</ele>
        <time>2022-02-25T06:03:59.597Z</time>
      </trkpt>
      <trkpt lat="36.95823" lon="-2.97445">
        <ele>692.058762</ele>
        <time>2022-02-25T06:04:03.266Z</time>
      </trkpt>
      <trkpt lat="36.958" lon="-2.97425">
        <ele>689.745852</ele>
        <time>2022-02-25T06:04:07.278Z</time>
      </trkpt>
      <trkpt lat="36.9578" lon="-2.97384">
        <ele>686.497017</ele>
        <time>2022-02-25T06:04:13.005Z</time>
      </trkpt>
      <trkpt lat="36.95763" lon="-2.97374">
        <ele>685.276353</ele>
        <time>2022-02-25T06:04:15.882Z</time>
      </trkpt>
      <trkpt lat="36.95668" lon="-2.97394">
        <ele>679.516049</ele>
        <time>2022-02-25T06:04:30.621Z</time>
      </trkpt>
      <trkpt lat="36.956" lon="-2.97434">
        <ele>675.116512</ele>
        <time>2022-02-25T06:04:42.378Z</time>
      </trkpt>
      <trkpt lat="36.95576" lon="-2.97463">
        <ele>673.779821</ele>
        <time>2022-02-25T06:04:47.542Z</time>
      </trkpt>
      <trkpt lat="36.95536" lon="-2.97478">
        <ele>672.090223</ele>
        <time>2022-02-25T06:04:54.227Z</time>
      </trkpt>
      <trkpt lat="36.95475" lon="-2.97577">
        <ele>668.098976</ele>
        <time>2022-02-25T06:05:11.165Z</time>
      </trkpt>
      <trkpt lat="36.95458" lon="-2.97622">
        <ele>667.337337</ele>
        <time>2022-02-25T06:05:18.275Z</time>
      </trkpt>
      <trkpt lat="36.95426" lon="-2.97671">
        <ele>666.367382</ele>
        <time>2022-02-25T06:05:27.548Z</time>
      </trkpt>
      <trkpt lat="36.95367" lon="-2.97817">
        <ele>663.790167</ele>
        <time>2022-02-25T06:05:53.057Z</time>
      </trkpt>
      <trkpt lat="36.95335" lon="-2.97913">
        <ele>662.062898</ele>
        <time>2022-02-25T06:06:08.448Z</time>
      </trkpt>
      <trkpt lat="36.95328" lon="-2.9792">
        <ele>661.877177</ele>
        <time>2022-02-25T06:06:10.046Z</time>
      </trkpt>
      <trkpt lat="36.95315" lon="-2.97922">
        <ele>661.595924</ele>
        <time>2022-02-25T06:06:12.480Z</time>
      </trkpt>
      <trkpt lat="36.95297" lon="-2.97996">
        <ele>659.636503</ele>
        <time>2022-02-25T06:06:23.199Z</time>
      </trkpt>
      <trkpt lat="36.95212" lon="-2.98167">
        <ele>652.873428</ele>
        <time>2022-02-25T06:06:49.155Z</time>
      </trkpt>
      <trkpt lat="36.9519" lon="-2.98226">
        <ele>650.424256</ele>
        <time>2022-02-25T06:06:57.334Z</time>
      </trkpt>
      <trkpt lat="36.95183" lon="-2.98285">
        <ele>648.121767</ele>
        <time>2022-02-25T06:07:05.053Z</time>
      </trkpt>
      <trkpt lat="36.95187" lon="-2.98348">
        <ele>645.74549</ele>
        <time>2022-02-25T06:07:13.042Z</time>
      </trkpt>
      <trkpt lat="36.95198" lon="-2.98389">
        <ele>644.252626</ele>
        <time>2022-02-25T06:07:18.600Z</time>
      </trkpt>
      <trkpt lat="36.95231" lon="-2.98449">
        <ele>641.981639</ele>
        <time>2022-02-25T06:07:28.062Z</time>
      </trkpt>
      <trkpt lat="36.95289" lon="-2.985">
        <ele>639.179146</ele>
        <time>2022-02-25T06:07:39.880Z</time>
      </trkpt>
      <trkpt lat="36.95634" lon="-2.98638">
        <ele>628.871157</ele>
        <time>2022-02-25T06:08:42.347Z</time>
      </trkpt>
      <trkpt lat="36.95698" lon="-2.9868">
        <ele>628.498022</ele>
        <time>2022-02-25T06:08:57.832Z</time>
      </trkpt>
      <trkpt lat="36.95742" lon="-2.98739">
        <ele>629.048877</ele>
        <time>2022-02-25T06:09:16.412Z</time>
      </trkpt>
      <trkpt lat="36.95767" lon="-2.98798">
        <ele>629.503198</ele>
        <time>2022-02-25T06:09:32.389Z</time>
      </trkpt>
      <trkpt lat="36.95779" lon="-2.98882">
        <ele>629.950625</ele>
        <time>2022-02-25T06:09:53.775Z</time>
      </trkpt>
      <trkpt lat="36.95776" lon="-2.98934">
        <ele>630.182558</ele>
        <time>2022-02-25T06:10:05.897Z</time>
      </trkpt>
      <trkpt lat="36.95764" lon="-2.98989">
        <ele>630.439558</ele>
        <time>2022-02-25T06:10:17.785Z</time>
      </trkpt>
      <trkpt lat="36.95703" lon="-2.99136">
        <ele>627.355867</ele>
        <time>2022-02-25T06:10:43.102Z</time>
      </trkpt>
      <trkpt lat="36.95671" lon="-2.99229">
        <ele>624.297436</ele>
        <time>2022-02-25T06:10:55.913Z</time>
      </trkpt>
      <trkpt lat="36.95597" lon="-2.99542">
        <ele>602.102172</ele>
        <time>2022-02-25T06:11:33.556Z</time>
      </trkpt>
      <trkpt lat="36.95561" lon="-2.99665">
        <ele>592.567509</ele>
        <time>2022-02-25T06:11:48.536Z</time>
      </trkpt>
      <trkpt lat="36.95555" lon="-2.99697">
        <ele>590.378388</ele>
        <time>2022-02-25T06:11:52.322Z</time>
      </trkpt>
      <trkpt lat="36.95554" lon="-2.9975">
        <ele>586.816665</ele>
        <time>2022-02-25T06:11:58.614Z</time>
      </trkpt>
      <trkpt lat="36.95565" lon="-2.99808">
        <ele>582.900333</ele>
        <time>2022-02-25T06:12:05.471Z</time>
      </trkpt>
      <trkpt lat="36.95603" lon="-2.99891">
        <ele>576.704086</ele>
        <time>2022-02-25T06:12:16.637Z</time>
      </trkpt>
      <trkpt lat="36.95618" lon="-2.99943">
        <ele>574.184367</ele>
        <time>2022-02-25T06:12:23.163Z</time>
      </trkpt>
      <trkpt lat="36.95625" lon="-3.00075">
        <ele>568.157153</ele>
        <time>2022-02-25T06:12:39.683Z</time>
      </trkpt>
      <trkpt lat="36.95635" lon="-3.00131">
        <ele>565.67249</ele>
        <time>2022-02-25T06:12:47.362Z</time>
      </trkpt>
      <trkpt lat="36.95655" lon="-3.00238">
        <ele>561.195539</ele>
        <time>2022-02-25T06:13:03.299Z</time>
      </trkpt>
      <trkpt lat="36.95661" lon="-3.00363">
        <ele>555.222463</ele>
        <time>2022-02-25T06:13:17.901Z</time>
      </trkpt>
      <trkpt lat="36.95665" lon="-3.00392">
        <ele>553.312411</ele>
        <time>2022-02-25T06:13:21.193Z</time>
      </trkpt>
      <trkpt lat="36.95667" lon="-3.00403">
        <ele>552.558566</ele>
        <time>2022-02-25T06:13:22.507Z</time>
      </trkpt>
      <trkpt lat="36.95669" lon="-3.00409">
        <ele>552.14965</ele>
        <time>2022-02-25T06:13:23.240Z</time>
      </trkpt>
      <trkpt lat="36.9568" lon="-3.0044">
        <ele>549.958664</ele>
        <time>2022-02-25T06:13:27.100Z</time>
      </trkpt>
      <trkpt lat="36.95698" lon="-3.00467">
        <ele>547.664268</ele>
        <time>2022-02-25T06:13:31.242Z</time>
      </trkpt>
      <trkpt lat="36.95752" lon="-3.00506">
        <ele>543.155469</ele>
        <time>2022-02-25T06:13:40.558Z</time>
      </trkpt>
      <trkpt lat="36.95783" lon="-3.00524">
        <ele>543.269204</ele>
        <time>2022-02-25T06:13:45.967Z</time>
      </trkpt>
      <trkpt lat="36.95819" lon="-3.00558">
        <ele>543.418466</ele>
        <time>2022-02-25T06:13:53.722Z</time>
      </trkpt>
      <trkpt lat="36.95842" lon="-3.00604">
        <ele>543.562182</ele>
        <time>2022-02-25T06:14:07.043Z</time>
      </trkpt>
      <trkpt lat="36.95862" lon="-3.0065">
        <ele>543.700822</ele>
        <time>2022-02-25T06:14:29.085Z</time>
      </trkpt>
      <trkpt lat="36.95892" lon="-3.00697">
        <ele>546.294714</ele>
        <time>2022-02-25T06:15:00.901Z</time>
      </trkpt>
      <trkpt lat="36.95911" lon="-3.00717">
        <ele>547.935141</ele>
        <time>2022-02-25T06:15:17.488Z</time>
      </trkpt>
      <trkpt lat="36.95951" lon="-3.00744">
        <ele>550.903297</ele>
        <time>2022-02-25T06:15:44.497Z</time>
      </trkpt>
      <trkpt lat="36.95993" lon="-3.00758">
        <ele>553.737901</ele>
        <time>2022-02-25T06:16:06.467Z</time>
      </trkpt>
      <trkpt lat="36.96016" lon="-3.0076">
        <ele>555.274335</ele>
        <time>2022-02-25T06:16:17.081Z</time>
      </trkpt>
      <trkpt lat="36.96111" lon="-3.00751">
        <ele>556.99593</ele>
        <time>2022-02-25T06:16:56.834Z</time>
      </trkpt>
      <trkpt lat="36.96157" lon="-3.00757">
        <ele>557.708766</ele>
        <time>2022-02-25T06:17:09.272Z</time>
      </trkpt>
      <trkpt lat="36.96182" lon="-3.00766">
        <ele>558.133185</ele>
        <time>2022-02-25T06:17:14.427Z</time>
      </trkpt>
      <trkpt lat="36.96231" lon="-3.00804">
        <ele>555.700277</ele>
        <time>2022-02-25T06:17:24.198Z</time>
      </trkpt>
      <trkpt lat="36.96264" lon="-3.00849">
        <ele>552.47404</ele>
        <time>2022-02-25T06:17:31.891Z</time>
      </trkpt>
      <trkpt lat="36.96278" lon="-3.0088">
        <ele>550.57442</ele>
        <time>2022-02-25T06:17:36.120Z</time>
      </trkpt>
      <trkpt lat="36.96301" lon="-3.00919">
        <ele>548.045926</ele>
        <time>2022-02-25T06:17:41.641Z</time>
      </trkpt>
      <trkpt lat="36.96319" lon="-3.00931">
        <ele>546.722612</ele>
        <time>2022-02-25T06:17:44.488Z</time>
      </trkpt>
      <trkpt lat="36.96328" lon="-3.00956">
        <ele>544.517797</ele>
        <time>2022-02-25T06:17:47.617Z</time>
      </trkpt>
      <trkpt lat="36.96319" lon="-3.00989">
        <ele>541.666431</ele>
        <time>2022-02-25T06:17:51.395Z</time>
      </trkpt>
      <trkpt lat="36.96308" lon="-3.01">
        <ele>540.153767</ele>
        <time>2022-02-25T06:17:53.421Z</time>
      </trkpt>
      <trkpt lat="36.96298" lon="-3.01039">
        <ele>536.692579</ele>
        <time>2022-02-25T06:17:58.021Z</time>
      </trkpt>
      <trkpt lat="36.96301" lon="-3.01125">
        <ele>529.602806</ele>
        <time>2022-02-25T06:18:07.487Z</time>
      </trkpt>
      <trkpt lat="36.96306" lon="-3.01306">
        <ele>522.607802</ele>
        <time>2022-02-25T06:18:29.679Z</time>
      </trkpt>
      <trkpt lat="36.96299" lon="-3.01406">
        <ele>521.851044</ele>
        <time>2022-02-25T06:18:53.252Z</time>
      </trkpt>
      <trkpt lat="36.96282" lon="-3.01466">
        <ele>524.344352</ele>
        <time>2022-02-25T06:19:16.817Z</time>
      </trkpt>
      <trkpt lat="36.96256" lon="-3.01515">
        <ele>526.618347</ele>
        <time>2022-02-25T06:19:44.097Z</time>
      </trkpt>
      <trkpt lat="36.96223" lon="-3.01556">
        <ele>528.904104</ele>
        <time>2022-02-25T06:20:10.674Z</time>
      </trkpt>
      <trkpt lat="36.962" lon="-3.01577">
        <ele>530.190599</ele>
        <time>2022-02-25T06:20:25.352Z</time>
      </trkpt>
      <trkpt lat="36.96068" lon="-3.01651">
        <ele>536.567196</ele>
        <time>2022-02-25T06:21:29.095Z</time>
      </trkpt>
      <trkpt lat="36.9602" lon="-3.01694">
        <ele>537.646873</ele>
        <time>2022-02-25T06:21:48.980Z</time>
      </trkpt>
      <trkpt lat="36.95986" lon="-3.01741">
        <ele>538.188517</ele>
        <time>2022-02-25T06:22:04.246Z</time>
      </trkpt>
      <trkpt lat="36.95918" lon="-3.01891">
        <ele>538.897042</ele>
        <time>2022-02-25T06:22:33.535Z</time>
      </trkpt>
      <trkpt lat="36.95878" lon="-3.01959">
        <ele>538.669594</ele>
        <time>2022-02-25T06:22:47.203Z</time>
      </trkpt>
      <trkpt lat="36.95827" lon="-3.02024">
        <ele>538.590452</ele>
        <time>2022-02-25T06:23:02.819Z</time>
      </trkpt>
      <trkpt lat="36.95675" lon="-3.02157">
        <ele>540.210563</ele>
        <time>2022-02-25T06:23:53.980Z</time>
      </trkpt>
      <trkpt lat="36.95613" lon="-3.02224">
        <ele>540.759701</ele>
        <time>2022-02-25T06:24:19.240Z</time>
      </trkpt>
      <trkpt lat="36.9554" lon="-3.02334">
        <ele>540.622921</ele>
        <time>2022-02-25T06:24:44.157Z</time>
      </trkpt>
      <trkpt lat="36.95499" lon="-3.02417">
        <ele>539.15933</ele>
        <time>2022-02-25T06:24:58.272Z</time>
      </trkpt>
      <trkpt lat="36.95479" lon="-3.02469">
        <ele>538.293437</ele>
        <time>2022-02-25T06:25:06.277Z</time>
      </trkpt>
      <trkpt lat="36.9545" lon="-3.02564">
        <ele>537.678627</ele>
        <time>2022-02-25T06:25:20.745Z</time>
      </trkpt>
      <trkpt lat="36.95434" lon="-3.02658">
        <ele>537.377447</ele>
        <time>2022-02-25T06:25:37.004Z</time>
      </trkpt>
      <trkpt lat="36.95429" lon="-3.02706">
        <ele>537.227153</ele>
        <time>2022-02-25T06:25:48.178Z</time>
      </trkpt>
      <trkpt lat="36.95428" lon="-3.02851">
        <ele>541.431637</ele>
        <time>2022-02-25T06:26:34.899Z</time>
      </trkpt>
      <trkpt lat="36.95439" lon="-3.02944">
        <ele>544.250653</ele>
        <time>2022-02-25T06:27:10.642Z</time>
      </trkpt>
      <trkpt lat="36.9547" lon="-3.03112">
        <ele>549.930424</ele>
        <time>2022-02-25T06:28:09.289Z</time>
      </trkpt>
      <trkpt lat="36.95473" lon="-3.03157">
        <ele>551.423596</ele>
        <time>2022-02-25T06:28:23.953Z</time>
      </trkpt>
      <trkpt lat="36.95467" lon="-3.03247">
        <ele>554.803812</ele>
        <time>2022-02-25T06:28:53.253Z</time>
      </trkpt>
      <trkpt lat="36.95448" lon="-3.03324">
        <ele>557.827727</ele>
        <time>2022-02-25T06:29:21.465Z</time>
      </trkpt>
      <trkpt lat="36.95413" lon="-3.03402">
        <ele>562.313985</ele>
        <time>2022-02-25T06:29:59.217Z</time>
      </trkpt>
      <trkpt lat="36.95325" lon="-3.03527">
        <ele>573.409515</ele>
        <time>2022-02-25T06:31:28.925Z</time>
      </trkpt>
      <trkpt lat="36.95278" lon="-3.03604">
        <ele>579.206137</ele>
        <time>2022-02-25T06:32:22.433Z</time>
      </trkpt>
      <trkpt lat="36.95225" lon="-3.03723">
        <ele>587.160083</ele>
        <time>2022-02-25T06:33:26.770Z</time>
      </trkpt>
      <trkpt lat="36.95199" lon="-3.03809">
        <ele>587.424801</ele>
        <time>2022-02-25T06:33:53.911Z</time>
      </trkpt>
      <trkpt lat="36.95179" lon="-3.03915">
        <ele>586.77748</ele>
        <time>2022-02-25T06:34:09.992Z</time>
      </trkpt>
      <trkpt lat="36.95171" lon="-3.04005">
        <ele>583.276399</ele>
        <time>2022-02-25T06:34:20.989Z</time>
      </trkpt>
      <trkpt lat="36.95166" lon="-3.04209">
        <ele>571.029182</ele>
        <time>2022-02-25T06:34:44.693Z</time>
      </trkpt>
      <trkpt lat="36.9516" lon="-3.04265">
        <ele>568.172438</ele>
        <time>2022-02-25T06:34:51.424Z</time>
      </trkpt>
      <trkpt lat="36.95141" lon="-3.04361">
        <ele>563.148537</ele>
        <time>2022-02-25T06:35:03.811Z</time>
      </trkpt>
      <trkpt lat="36.95126" lon="-3.04407">
        <ele>560.586523</ele>
        <time>2022-02-25T06:35:10.161Z</time>
      </trkpt>
      <trkpt lat="36.95091" lon="-3.04486">
        <ele>555.679918</ele>
        <time>2022-02-25T06:35:21.458Z</time>
      </trkpt>
      <trkpt lat="36.94984" lon="-3.04661">
        <ele>540.692003</ele>
        <time>2022-02-25T06:35:47.208Z</time>
      </trkpt>
      <trkpt lat="36.9493" lon="-3.04763">
        <ele>530.303717</ele>
        <time>2022-02-25T06:36:00.840Z</time>
      </trkpt>
      <trkpt lat="36.9491" lon="-3.04816">
        <ele>524.416024</ele>
        <time>2022-02-25T06:36:07.202Z</time>
      </trkpt>
      <trkpt lat="36.94881" lon="-3.04916">
        <ele>513.646519</ele>
        <time>2022-02-25T06:36:18.634Z</time>
      </trkpt>
      <trkpt lat="36.94864" lon="-3.0504">
        <ele>506.596158</ele>
        <time>2022-02-25T06:36:32.823Z</time>
      </trkpt>
      <trkpt lat="36.94849" lon="-3.05231">
        <ele>507.089426</ele>
        <time>2022-02-25T06:37:21.722Z</time>
      </trkpt>
      <trkpt lat="36.94841" lon="-3.05331">
        <ele>514.232316</ele>
        <time>2022-02-25T06:38:24.180Z</time>
      </trkpt>
      <trkpt lat="36.94832" lon="-3.05456">
        <ele>522.63652</ele>
        <time>2022-02-25T06:39:39.626Z</time>
      </trkpt>
      <trkpt lat="36.94829" lon="-3.05561">
        <ele>528.359795</ele>
        <time>2022-02-25T06:40:29.984Z</time>
      </trkpt>
      <trkpt lat="36.94833" lon="-3.05658">
        <ele>533.283868</ele>
        <time>2022-02-25T06:41:07.867Z</time>
      </trkpt>
      <trkpt lat="36.94846" lon="-3.05746">
        <ele>533.450096</ele>
        <time>2022-02-25T06:41:29.542Z</time>
      </trkpt>
      <trkpt lat="36.94868" lon="-3.05844">
        <ele>533.639474</ele>
        <time>2022-02-25T06:41:45.197Z</time>
      </trkpt>
      <trkpt lat="36.94884" lon="-3.05904">
        <ele>533.796039</ele>
        <time>2022-02-25T06:41:53.775Z</time>
      </trkpt>
      <trkpt lat="36.94886" lon="-3.05909">
        <ele>533.811547</ele>
        <time>2022-02-25T06:41:54.483Z</time>
      </trkpt>
      <trkpt lat="36.94926" lon="-3.06054">
        <ele>534.269179</ele>
        <time>2022-02-25T06:42:20.149Z</time>
      </trkpt>
      <trkpt lat="36.94961" lon="-3.0615">
        <ele>540.434188</ele>
        <time>2022-02-25T06:43:03.577Z</time>
      </trkpt>
      <trkpt lat="36.95035" lon="-3.06296">
        <ele>554.598215</ele>
        <time>2022-02-25T06:45:05.523Z</time>
      </trkpt>
      <trkpt lat="36.95057" lon="-3.06349">
        <ele>559.953548</ele>
        <time>2022-02-25T06:45:46.280Z</time>
      </trkpt>
      <trkpt lat="36.95075" lon="-3.0642">
        <ele>566.582944</ele>
        <time>2022-02-25T06:46:32.442Z</time>
      </trkpt>
      <trkpt lat="36.95079" lon="-3.06472">
        <ele>571.219477</ele>
        <time>2022-02-25T06:47:03.028Z</time>
      </trkpt>
      <trkpt lat="36.95073" lon="-3.06555">
        <ele>576.627125</ele>
        <time>2022-02-25T06:47:46.154Z</time>
      </trkpt>
      <trkpt lat="36.95052" lon="-3.06676">
        <ele>583.965817</ele>
        <time>2022-02-25T06:48:40.044Z</time>
      </trkpt>
      <trkpt lat="36.9505" lon="-3.06732">
        <ele>587.242267</ele>
        <time>2022-02-25T06:49:05.694Z</time>
      </trkpt>
      <trkpt lat="36.95054" lon="-3.06776">
        <ele>589.845612</ele>
        <time>2022-02-25T06:49:26.396Z</time>
      </trkpt>
      <trkpt lat="36.95076" lon="-3.06852">
        <ele>594.483003</ele>
        <time>2022-02-25T06:50:04.627Z</time>
      </trkpt>
      <trkpt lat="36.95098" lon="-3.06892">
        <ele>597.284179</ele>
        <time>2022-02-25T06:50:28.104Z</time>
      </trkpt>
      <trkpt lat="36.95122" lon="-3.06925">
        <ele>599.624066</ele>
        <time>2022-02-25T06:50:49.188Z</time>
      </trkpt>
      <trkpt lat="36.95157" lon="-3.06957">
        <ele>601.928313</ele>
        <time>2022-02-25T06:51:14.191Z</time>
      </trkpt>
      <trkpt lat="36.95268" lon="-3.07024">
        <ele>608.552421</ele>
        <time>2022-02-25T06:52:12.020Z</time>
      </trkpt>
      <trkpt lat="36.9532" lon="-3.07065">
        <ele>609.362711</ele>
        <time>2022-02-25T06:52:32.766Z</time>
      </trkpt>
      <trkpt lat="36.95357" lon="-3.07107">
        <ele>609.989502</ele>
        <time>2022-02-25T06:52:46.332Z</time>
      </trkpt>
      <trkpt lat="36.95395" lon="-3.07165">
        <ele>610.73673</ele>
        <time>2022-02-25T06:52:59.089Z</time>
      </trkpt>
      <trkpt lat="36.95428" lon="-3.07242">
        <ele>611.548237</ele>
        <time>2022-02-25T06:53:13.695Z</time>
      </trkpt>
      <trkpt lat="36.95447" lon="-3.07323">
        <ele>612.329141</ele>
        <time>2022-02-25T06:53:31.689Z</time>
      </trkpt>
      <trkpt lat="36.95452" lon="-3.07415">
        <ele>613.630266</ele>
        <time>2022-02-25T06:53:59.376Z</time>
      </trkpt>
      <trkpt lat="36.95443" lon="-3.07499">
        <ele>615.79581</ele>
        <time>2022-02-25T06:54:28.163Z</time>
      </trkpt>
      <trkpt lat="36.9541" lon="-3.07609">
        <ele>618.72037</ele>
        <time>2022-02-25T06:55:06.353Z</time>
      </trkpt>
      <trkpt lat="36.95215" lon="-3.0808">
        <ele>619.863491</ele>
        <time>2022-02-25T06:56:41.124Z</time>
      </trkpt>
      <trkpt lat="36.95139" lon="-3.08269">
        <ele>621.10341</ele>
        <time>2022-02-25T06:57:21.476Z</time>
      </trkpt>
      <trkpt lat="36.95102" lon="-3.08405">
        <ele>623.025262</ele>
        <time>2022-02-25T06:57:59.760Z</time>
      </trkpt>
      <trkpt lat="36.95088" lon="-3.08496">
        <ele>624.970394</ele>
        <time>2022-02-25T06:58:26.864Z</time>
      </trkpt>
      <trkpt lat="36.95082" lon="-3.08584">
        <ele>626.924422</ele>
        <time>2022-02-25T06:58:53.351Z</time>
      </trkpt>
      <trkpt lat="36.95095" lon="-3.08891">
        <ele>633.557454</ele>
        <time>2022-02-25T07:00:18.219Z</time>
      </trkpt>
      <trkpt lat="36.95091" lon="-3.08945">
        <ele>635.248164</ele>
        <time>2022-02-25T07:00:35.369Z</time>
      </trkpt>
      <trkpt lat="36.95077" lon="-3.09019">
        <ele>637.615664</ele>
        <time>2022-02-25T07:01:01.406Z</time>
      </trkpt>
      <trkpt lat="36.94997" lon="-3.0934">
        <ele>649.352567</ele>
        <time>2022-02-25T07:03:05.596Z</time>
      </trkpt>
      <trkpt lat="36.94962" lon="-3.09529">
        <ele>654.602208</ele>
        <time>2022-02-25T07:04:03.040Z</time>
      </trkpt>
      <trkpt lat="36.9494" lon="-3.09708">
        <ele>659.075348</ele>
        <time>2022-02-25T07:04:56.396Z</time>
      </trkpt>
      <trkpt lat="36.94929" lon="-3.09857">
        <ele>663.495447</ele>
        <time>2022-02-25T07:05:45.371Z</time>
      </trkpt>
      <trkpt lat="36.94927" lon="-3.10079">
        <ele>670.768661</ele>
        <time>2022-02-25T07:07:01.282Z</time>
      </trkpt>
      <trkpt lat="36.94942" lon="-3.1031">
        <ele>678.844227</ele>
        <time>2022-02-25T07:08:23.831Z</time>
      </trkpt>
      <trkpt lat="36.9496" lon="-3.10457">
        <ele>684.031621</ele>
        <time>2022-02-25T07:09:16.590Z</time>
      </trkpt>
      <trkpt lat="36.94988" lon="-3.10622">
        <ele>689.741073</ele>
        <time>2022-02-25T07:10:15.067Z</time>
      </trkpt>
      <trkpt lat="36.95058" lon="-3.10955">
        <ele>701.037239</ele>
        <time>2022-02-25T07:12:11.520Z</time>
      </trkpt>
      <trkpt lat="36.95067" lon="-3.11049">
        <ele>704.25682</ele>
        <time>2022-02-25T07:12:45.022Z</time>
      </trkpt>
      <trkpt lat="36.95066" lon="-3.1115">
        <ele>707.557441</ele>
        <time>2022-02-25T07:13:21.688Z</time>
      </trkpt>
      <trkpt lat="36.95057" lon="-3.11258">
        <ele>711.064252</ele>
        <time>2022-02-25T07:13:59.101Z</time>
      </trkpt>
      <trkpt lat="36.95031" lon="-3.11373">
        <ele>713.478376</ele>
        <time>2022-02-25T07:14:34.471Z</time>
      </trkpt>
      <trkpt lat="36.9498" lon="-3.11534">
        <ele>715.418652</ele>
        <time>2022-02-25T07:15:13.889Z</time>
      </trkpt>
      <trkpt lat="36.94962" lon="-3.11606">
        <ele>714.969902</ele>
        <time>2022-02-25T07:15:26.466Z</time>
      </trkpt>
      <trkpt lat="36.94952" lon="-3.11687">
        <ele>714.488044</ele>
        <time>2022-02-25T07:15:38.853Z</time>
      </trkpt>
      <trkpt lat="36.94954" lon="-3.11878">
        <ele>713.084376</ele>
        <time>2022-02-25T07:16:07.810Z</time>
      </trkpt>
      <trkpt lat="36.94942" lon="-3.12055">
        <ele>714.740177</ele>
        <time>2022-02-25T07:16:40.391Z</time>
      </trkpt>
      <trkpt lat="36.94904" lon="-3.12206">
        <ele>719.440414</ele>
        <time>2022-02-25T07:17:36.971Z</time>
      </trkpt>
      <trkpt lat="36.94827" lon="-3.12468">
        <ele>733.485646</ele>
        <time>2022-02-25T07:19:54.887Z</time>
      </trkpt>
      <trkpt lat="36.94824" lon="-3.12509">
        <ele>735.056707</ele>
        <time>2022-02-25T07:20:12.055Z</time>
      </trkpt>
      <trkpt lat="36.94828" lon="-3.12548">
        <ele>736.507126</ele>
        <time>2022-02-25T07:20:24.724Z</time>
      </trkpt>
      <trkpt lat="36.94847" lon="-3.12633">
        <ele>736.976378</ele>
        <time>2022-02-25T07:20:40.824Z</time>
      </trkpt>
      <trkpt lat="36.9485" lon="-3.12666">
        <ele>735.723024</ele>
        <time>2022-02-25T07:20:45.310Z</time>
      </trkpt>
      <trkpt lat="36.94844" lon="-3.12701">
        <ele>734.3492</ele>
        <time>2022-02-25T07:20:49.915Z</time>
      </trkpt>
      <trkpt lat="36.94751" lon="-3.12883">
        <ele>724.80433</ele>
        <time>2022-02-25T07:21:15.652Z</time>
      </trkpt>
      <trkpt lat="36.94745" lon="-3.1293">
        <ele>722.366376</ele>
        <time>2022-02-25T07:21:21.223Z</time>
      </trkpt>
      <trkpt lat="36.94747" lon="-3.12981">
        <ele>719.731694</ele>
        <time>2022-02-25T07:21:27.518Z</time>
      </trkpt>
      <trkpt lat="36.9476" lon="-3.13026">
        <ele>718.196294</ele>
        <time>2022-02-25T07:21:33.738Z</time>
      </trkpt>
      <trkpt lat="36.94804" lon="-3.13087">
        <ele>717.869905</ele>
        <time>2022-02-25T07:21:45.633Z</time>
      </trkpt>
      <trkpt lat="36.94989" lon="-3.13307">
        <ele>720.960236</ele>
        <time>2022-02-25T07:23:04.153Z</time>
      </trkpt>
      <trkpt lat="36.95068" lon="-3.13378">
        <ele>725.378769</ele>
        <time>2022-02-25T07:23:48.692Z</time>
      </trkpt>
      <trkpt lat="36.95154" lon="-3.13425">
        <ele>730.321728</ele>
        <time>2022-02-25T07:24:39.078Z</time>
      </trkpt>
      <trkpt lat="36.95249" lon="-3.13459">
        <ele>734.342139</ele>
        <time>2022-02-25T07:25:27.101Z</time>
      </trkpt>
      <trkpt lat="36.95296" lon="-3.13482">
        <ele>736.290904</ele>
        <time>2022-02-25T07:25:44.894Z</time>
      </trkpt>
      <trkpt lat="36.95326" lon="-3.13505">
        <ele>737.656588</ele>
        <time>2022-02-25T07:25:55.300Z</time>
      </trkpt>
      <trkpt lat="36.95363" lon="-3.13547">
        <ele>740.427826</ele>
        <time>2022-02-25T07:26:12.687Z</time>
      </trkpt>
      <trkpt lat="36.95391" lon="-3.13597">
        <ele>743.256919</ele>
        <time>2022-02-25T07:26:33.824Z</time>
      </trkpt>
      <trkpt lat="36.95402" lon="-3.13634">
        <ele>745.123174</ele>
        <time>2022-02-25T07:26:49.782Z</time>
      </trkpt>
      <trkpt lat="36.95413" lon="-3.1368">
        <ele>747.340348</ele>
        <time>2022-02-25T07:27:12.744Z</time>
      </trkpt>
      <trkpt lat="36.95417" lon="-3.13752">
        <ele>753.215767</ele>
        <time>2022-02-25T07:27:58.123Z</time>
      </trkpt>
      <trkpt lat="36.95408" lon="-3.13813">
        <ele>759.283703</ele>
        <time>2022-02-25T07:28:44.525Z</time>
      </trkpt>
      <trkpt lat="36.95395" lon="-3.13855">
        <ele>763.777272</ele>
        <time>2022-02-25T07:29:21.284Z</time>
      </trkpt>
      <trkpt lat="36.95349" lon="-3.13956">
        <ele>772.853865</ele>
        <time>2022-02-25T07:30:34.567Z</time>
      </trkpt>
      <trkpt lat="36.95332" lon="-3.14028">
        <ele>776.529868</ele>
        <time>2022-02-25T07:31:08.783Z</time>
      </trkpt>
      <trkpt lat="36.95333" lon="-3.14078">
        <ele>778.934915</ele>
        <time>2022-02-25T07:31:26.123Z</time>
      </trkpt>
      <trkpt lat="36.95338" lon="-3.14105">
        <ele>780.275774</ele>
        <time>2022-02-25T07:31:34.389Z</time>
      </trkpt>
      <trkpt lat="36.95386" lon="-3.14234">
        <ele>782.937428</ele>
        <time>2022-02-25T07:32:02.427Z</time>
      </trkpt>
      <trkpt lat="36.95391" lon="-3.1426">
        <ele>783.262377</ele>
        <time>2022-02-25T07:32:08.715Z</time>
      </trkpt>
      <trkpt lat="36.95395" lon="-3.14324">
        <ele>784.051623</ele>
        <time>2022-02-25T07:32:25.228Z</time>
      </trkpt>
      <trkpt lat="36.95386" lon="-3.14377">
        <ele>785.452962</ele>
        <time>2022-02-25T07:32:40.679Z</time>
      </trkpt>
      <trkpt lat="36.95367" lon="-3.14424">
        <ele>787.142842</ele>
        <time>2022-02-25T07:32:56.615Z</time>
      </trkpt>
      <trkpt lat="36.95319" lon="-3.14515">
        <ele>790.65242</ele>
        <time>2022-02-25T07:33:32.770Z</time>
      </trkpt>
      <trkpt lat="36.95307" lon="-3.14555">
        <ele>792.674496</ele>
        <time>2022-02-25T07:33:51.435Z</time>
      </trkpt>
      <trkpt lat="36.95303" lon="-3.14601">
        <ele>795.854731</ele>
        <time>2022-02-25T07:34:14.063Z</time>
      </trkpt>
      <trkpt lat="36.9531" lon="-3.14651">
        <ele>799.369179</ele>
        <time>2022-02-25T07:34:42.098Z</time>
      </trkpt>
      <trkpt lat="36.95356" lon="-3.14855">
        <ele>814.488077</ele>
        <time>2022-02-25T07:36:42.798Z</time>
      </trkpt>
      <trkpt lat="36.95364" lon="-3.14909">
        <ele>818.525678</ele>
        <time>2022-02-25T07:37:12.369Z</time>
      </trkpt>
      <trkpt lat="36.95362" lon="-3.14961">
        <ele>822.328553</ele>
        <time>2022-02-25T07:37:40.366Z</time>
      </trkpt>
      <trkpt lat="36.95344" lon="-3.15043">
        <ele>828.277217</ele>
        <time>2022-02-25T07:38:21.862Z</time>
      </trkpt>
      <trkpt lat="36.95338" lon="-3.15095">
        <ele>831.961899</ele>
        <time>2022-02-25T07:38:47.843Z</time>
      </trkpt>
      <trkpt lat="36.95344" lon="-3.15134">
        <ele>834.783758</ele>
        <time>2022-02-25T07:39:10.684Z</time>
      </trkpt>
      <trkpt lat="36.95384" lon="-3.15221">
        <ele>841.904727</ele>
        <time>2022-02-25T07:40:06.494Z</time>
      </trkpt>
      <trkpt lat="36.95394" lon="-3.15263">
        <ele>845.228945</ele>
        <time>2022-02-25T07:40:31.006Z</time>
      </trkpt>
      <trkpt lat="36.9539" lon="-3.15303">
        <ele>848.172278</ele>
        <time>2022-02-25T07:40:53.043Z</time>
      </trkpt>
      <trkpt lat="36.95367" lon="-3.15368">
        <ele>853.522984</ele>
        <time>2022-02-25T07:41:33.203Z</time>
      </trkpt>
      <trkpt lat="36.9536" lon="-3.15409">
        <ele>856.591969</ele>
        <time>2022-02-25T07:41:56.699Z</time>
      </trkpt>
      <trkpt lat="36.95368" lon="-3.15448">
        <ele>859.338551</ele>
        <time>2022-02-25T07:42:17.236Z</time>
      </trkpt>
      <trkpt lat="36.95395" lon="-3.15535">
        <ele>865.677789</ele>
        <time>2022-02-25T07:42:58.677Z</time>
      </trkpt>
      <trkpt lat="36.95395" lon="-3.15555">
        <ele>867.075526</ele>
        <time>2022-02-25T07:43:09.496Z</time>
      </trkpt>
      <trkpt lat="36.95388" lon="-3.15589">
        <ele>869.484385</ele>
        <time>2022-02-25T07:43:27.909Z</time>
      </trkpt>
      <trkpt lat="36.95346" lon="-3.15663">
        <ele>877.215836</ele>
        <time>2022-02-25T07:44:24.649Z</time>
      </trkpt>
      <trkpt lat="36.95342" lon="-3.15699">
        <ele>880.525548</ele>
        <time>2022-02-25T07:44:48.108Z</time>
      </trkpt>
      <trkpt lat="36.95346" lon="-3.15718">
        <ele>882.434564</ele>
        <time>2022-02-25T07:45:02.396Z</time>
      </trkpt>
      <trkpt lat="36.95389" lon="-3.15855">
        <ele>895.199025</ele>
        <time>2022-02-25T07:46:38.031Z</time>
      </trkpt>
      <trkpt lat="36.95398" lon="-3.15871">
        <ele>896.596479</ele>
        <time>2022-02-25T07:46:50.854Z</time>
      </trkpt>
      <trkpt lat="36.95417" lon="-3.1589">
        <ele>898.83199</ele>
        <time>2022-02-25T07:47:12.605Z</time>
      </trkpt>
      <trkpt lat="36.95474" lon="-3.15893">
        <ele>903.907302</ele>
        <time>2022-02-25T07:47:51.938Z</time>
      </trkpt>
      <trkpt lat="36.95499" lon="-3.15901">
        <ele>906.240125</ele>
        <time>2022-02-25T07:48:06.558Z</time>
      </trkpt>
      <trkpt lat="36.95518" lon="-3.15923">
        <ele>908.484456</ele>
        <time>2022-02-25T07:48:19.528Z</time>
      </trkpt>
      <trkpt lat="36.95524" lon="-3.15958">
        <ele>909.550494</ele>
        <time>2022-02-25T07:48:27.808Z</time>
      </trkpt>
      <trkpt lat="36.95513" lon="-3.15988">
        <ele>910.565823</ele>
        <time>2022-02-25T07:48:35.207Z</time>
      </trkpt>
      <trkpt lat="36.95503" lon="-3.15999">
        <ele>911.058992</ele>
        <time>2022-02-25T07:48:38.088Z</time>
      </trkpt>
      <trkpt lat="36.95424" lon="-3.16035">
        <ele>914.251529</ele>
        <time>2022-02-25T07:49:09.953Z</time>
      </trkpt>
      <trkpt lat="36.95403" lon="-3.1606">
        <ele>915.444809</ele>
        <time>2022-02-25T07:49:22.972Z</time>
      </trkpt>
      <trkpt lat="36.95394" lon="-3.16096">
        <ele>918.835781</ele>
        <time>2022-02-25T07:49:41.313Z</time>
      </trkpt>
      <trkpt lat="36.95402" lon="-3.16178">
        <ele>925.980345</ele>
        <time>2022-02-25T07:50:28.750Z</time>
      </trkpt>
      <trkpt lat="36.95429" lon="-3.16305">
        <ele>938.015951</ele>
        <time>2022-02-25T07:52:06.763Z</time>
      </trkpt>
      <trkpt lat="36.95452" lon="-3.16355">
        <ele>944.087613</ele>
        <time>2022-02-25T07:52:52.145Z</time>
      </trkpt>
      <trkpt lat="36.95483" lon="-3.16392">
        <ele>949.84437</ele>
        <time>2022-02-25T07:53:32.735Z</time>
      </trkpt>
      <trkpt lat="36.95552" lon="-3.16445">
        <ele>959.976353</ele>
        <time>2022-02-25T07:54:36.210Z</time>
      </trkpt>
      <trkpt lat="36.95581" lon="-3.16484">
        <ele>964.010868</ele>
        <time>2022-02-25T07:55:09.112Z</time>
      </trkpt>
      <trkpt lat="36.95588" lon="-3.16507">
        <ele>965.844292</ele>
        <time>2022-02-25T07:55:23.129Z</time>
      </trkpt>
      <trkpt lat="36.95587" lon="-3.16532">
        <ele>967.730706</ele>
        <time>2022-02-25T07:55:37.310Z</time>
      </trkpt>
      <trkpt lat="36.95578" lon="-3.16558">
        <ele>969.8485</ele>
        <time>2022-02-25T07:55:51.529Z</time>
      </trkpt>
      <trkpt lat="36.95561" lon="-3.16577">
        <ele>971.960838</ele>
        <time>2022-02-25T07:56:07.089Z</time>
      </trkpt>
      <trkpt lat="36.95549" lon="-3.16583">
        <ele>973.142396</ele>
        <time>2022-02-25T07:56:13.786Z</time>
      </trkpt>
      <trkpt lat="36.95529" lon="-3.16588">
        <ele>975.083336</ele>
        <time>2022-02-25T07:56:27.219Z</time>
      </trkpt>
      <trkpt lat="36.95472" lon="-3.16578">
        <ele>979.560518</ele>
        <time>2022-02-25T07:57:00.286Z</time>
      </trkpt>
      <trkpt lat="36.95359" lon="-3.16561">
        <ele>988.179943</ele>
        <time>2022-02-25T07:58:15.463Z</time>
      </trkpt>
      <trkpt lat="36.95314" lon="-3.16573">
        <ele>989.87738</ele>
        <time>2022-02-25T07:58:37.092Z</time>
      </trkpt>
      <trkpt lat="36.95287" lon="-3.16588">
        <ele>990.439196</ele>
        <time>2022-02-25T07:58:47.060Z</time>
      </trkpt>
      <trkpt lat="36.95252" lon="-3.16626">
        <ele>991.342024</ele>
        <time>2022-02-25T07:59:03.767Z</time>
      </trkpt>
      <trkpt lat="36.9523" lon="-3.16679">
        <ele>992.270339</ele>
        <time>2022-02-25T07:59:17.328Z</time>
      </trkpt>
      <trkpt lat="36.9522" lon="-3.16726">
        <ele>991.81379</ele>
        <time>2022-02-25T07:59:24.829Z</time>
      </trkpt>
      <trkpt lat="36.95211" lon="-3.16837">
        <ele>986.319263</ele>
        <time>2022-02-25T07:59:38.219Z</time>
      </trkpt>
      <trkpt lat="36.95201" lon="-3.16872">
        <ele>984.455229</ele>
        <time>2022-02-25T07:59:42.564Z</time>
      </trkpt>
      <trkpt lat="36.95192" lon="-3.16889">
        <ele>983.448428</ele>
        <time>2022-02-25T07:59:44.900Z</time>
      </trkpt>
      <trkpt lat="36.95146" lon="-3.16956">
        <ele>978.18604</ele>
        <time>2022-02-25T07:59:55.557Z</time>
      </trkpt>
      <trkpt lat="36.95119" lon="-3.16985">
        <ele>975.251805</ele>
        <time>2022-02-25T08:00:00.573Z</time>
      </trkpt>
      <trkpt lat="36.95097" lon="-3.16998">
        <ele>973.231809</ele>
        <time>2022-02-25T08:00:04.033Z</time>
      </trkpt>
      <trkpt lat="36.95049" lon="-3.17005">
        <ele>969.185157</ele>
        <time>2022-02-25T08:00:10.950Z</time>
      </trkpt>
      <trkpt lat="36.95026" lon="-3.17015">
        <ele>967.109234</ele>
        <time>2022-02-25T08:00:14.614Z</time>
      </trkpt>
      <trkpt lat="36.95008" lon="-3.17038">
        <ele>965.422304</ele>
        <time>2022-02-25T08:00:18.431Z</time>
      </trkpt>
      <trkpt lat="36.94985" lon="-3.17052">
        <ele>963.909824</ele>
        <time>2022-02-25T08:00:22.292Z</time>
      </trkpt>
      <trkpt lat="36.94944" lon="-3.17054">
        <ele>961.450118</ele>
        <time>2022-02-25T08:00:28.827Z</time>
      </trkpt>
      <trkpt lat="36.94905" lon="-3.17081">
        <ele>958.809142</ele>
        <time>2022-02-25T08:00:35.793Z</time>
      </trkpt>
      <trkpt lat="36.9489" lon="-3.17088">
        <ele>957.895015</ele>
        <time>2022-02-25T08:00:38.174Z</time>
      </trkpt>
      <trkpt lat="36.94862" lon="-3.17089">
        <ele>956.199647</ele>
        <time>2022-02-25T08:00:42.655Z</time>
      </trkpt>
      <trkpt lat="36.94837" lon="-3.17103">
        <ele>954.958267</ele>
        <time>2022-02-25T08:00:46.984Z</time>
      </trkpt>
      <trkpt lat="36.94826" lon="-3.17122">
        <ele>954.15688</ele>
        <time>2022-02-25T08:00:50.059Z</time>
      </trkpt>
      <trkpt lat="36.94822" lon="-3.1714">
        <ele>953.534788</ele>
        <time>2022-02-25T08:00:52.474Z</time>
      </trkpt>
      <trkpt lat="36.94822" lon="-3.17189">
        <ele>951.868687</ele>
        <time>2022-02-25T08:00:58.896Z</time>
      </trkpt>
      <trkpt lat="36.94816" lon="-3.17206">
        <ele>951.230287</ele>
        <time>2022-02-25T08:01:01.366Z</time>
      </trkpt>
      <trkpt lat="36.94806" lon="-3.17219">
        <ele>950.620632</ele>
        <time>2022-02-25T08:01:03.828Z</time>
      </trkpt>
      <trkpt lat="36.94763" lon="-3.17251">
        <ele>948.50435</ele>
        <time>2022-02-25T08:01:12.156Z</time>
      </trkpt>
      <trkpt lat="36.9474" lon="-3.17267">
        <ele>947.18202</ele>
        <time>2022-02-25T08:01:16.476Z</time>
      </trkpt>
      <trkpt lat="36.94703" lon="-3.17294">
        <ele>944.907996</ele>
        <time>2022-02-25T08:01:23.315Z</time>
      </trkpt>
      <trkpt lat="36.94693" lon="-3.17311">
        <ele>944.035639</ele>
        <time>2022-02-25T08:01:25.894Z</time>
      </trkpt>
      <trkpt lat="36.94688" lon="-3.17329">
        <ele>943.266169</ele>
        <time>2022-02-25T08:01:28.135Z</time>
      </trkpt>
      <trkpt lat="36.94691" lon="-3.17392">
        <ele>940.605763</ele>
        <time>2022-02-25T08:01:35.967Z</time>
      </trkpt>
      <trkpt lat="36.94687" lon="-3.17427">
        <ele>939.128749</ele>
        <time>2022-02-25T08:01:40.367Z</time>
      </trkpt>
      <trkpt lat="36.94675" lon="-3.17472">
        <ele>937.256401</ele>
        <time>2022-02-25T08:01:46.360Z</time>
      </trkpt>
      <trkpt lat="36.94677" lon="-3.1749">
        <ele>936.54127</ele>
        <time>2022-02-25T08:01:48.779Z</time>
      </trkpt>
      <trkpt lat="36.94665" lon="-3.17541">
        <ele>934.464871</ele>
        <time>2022-02-25T08:01:55.735Z</time>
      </trkpt>
      <trkpt lat="36.94657" lon="-3.17578">
        <ele>933.00047</ele>
        <time>2022-02-25T08:02:00.678Z</time>
      </trkpt>
      <trkpt lat="36.94653" lon="-3.17612">
        <ele>931.642952</ele>
        <time>2022-02-25T08:02:05.352Z</time>
      </trkpt>
      <trkpt lat="36.94652" lon="-3.17633">
        <ele>930.827647</ele>
        <time>2022-02-25T08:02:08.272Z</time>
      </trkpt>
      <trkpt lat="36.94648" lon="-3.17667">
        <ele>930.03713</ele>
        <time>2022-02-25T08:02:13.178Z</time>
      </trkpt>
      <trkpt lat="36.94643" lon="-3.1767">
        <ele>930.02019</ele>
        <time>2022-02-25T08:02:14.170Z</time>
      </trkpt>
      <trkpt lat="36.94644" lon="-3.17674">
        <ele>930.009289</ele>
        <time>2022-02-25T08:02:14.853Z</time>
      </trkpt>
      <trkpt lat="36.94643" lon="-3.17678">
        <ele>929.998388</ele>
        <time>2022-02-25T08:02:15.522Z</time>
      </trkpt>
      <trkpt lat="36.94636" lon="-3.17681">
        <ele>929.977402</ele>
        <time>2022-02-25T08:02:16.747Z</time>
      </trkpt>
      <trkpt lat="36.94634" lon="-3.17678">
        <ele>929.966888</ele>
        <time>2022-02-25T08:02:17.380Z</time>
      </trkpt>
      <trkpt lat="36.94633" lon="-3.17672">
        <ele>929.953041</ele>
        <time>2022-02-25T08:02:18.263Z</time>
      </trkpt>
      <trkpt lat="36.94604" lon="-3.17668">
        <ele>929.864842</ele>
        <time>2022-02-25T08:02:24.014Z</time>
      </trkpt>
      <trkpt lat="36.94555" lon="-3.17659">
        <ele>929.712197</ele>
        <time>2022-02-25T08:02:35.268Z</time>
      </trkpt>
      <trkpt lat="36.94521" lon="-3.17659">
        <ele>929.606652</ele>
        <time>2022-02-25T08:02:45.068Z</time>
      </trkpt>
      <trkpt lat="36.94461" lon="-3.17696">
        <ele>929.789921</ele>
        <time>2022-02-25T08:03:06.835Z</time>
      </trkpt>
      <trkpt lat="36.94454" lon="-3.177">
        <ele>929.84664</ele>
        <time>2022-02-25T08:03:09.459Z</time>
      </trkpt>
      <trkpt lat="36.94442" lon="-3.17702">
        <ele>929.933928</ele>
        <time>2022-02-25T08:03:13.501Z</time>
      </trkpt>
      <trkpt lat="36.94421" lon="-3.177">
        <ele>930.082058</ele>
        <time>2022-02-25T08:03:19.884Z</time>
      </trkpt>
      <trkpt lat="36.94363" lon="-3.17675">
        <ele>930.518437</ele>
        <time>2022-02-25T08:03:36.517Z</time>
      </trkpt>
      <trkpt lat="36.94335" lon="-3.17677">
        <ele>930.72096</ele>
        <time>2022-02-25T08:03:43.019Z</time>
      </trkpt>
      <trkpt lat="36.94202" lon="-3.17772">
        <ele>928.028987</ele>
        <time>2022-02-25T08:04:09.707Z</time>
      </trkpt>
      <trkpt lat="36.9417" lon="-3.17784">
        <ele>927.37195</ele>
        <time>2022-02-25T08:04:16.228Z</time>
      </trkpt>
      <trkpt lat="36.94139" lon="-3.1778">
        <ele>927.402969</ele>
        <time>2022-02-25T08:04:23.229Z</time>
      </trkpt>
      <trkpt lat="36.94118" lon="-3.17771">
        <ele>927.498588</ele>
        <time>2022-02-25T08:04:27.866Z</time>
      </trkpt>
      <trkpt lat="36.94073" lon="-3.1776">
        <ele>927.694163</ele>
        <time>2022-02-25T08:04:37.889Z</time>
      </trkpt>
      <trkpt lat="36.9404" lon="-3.1777">
        <ele>927.838268</ele>
        <time>2022-02-25T08:04:44.774Z</time>
      </trkpt>
      <trkpt lat="36.94022" lon="-3.17784">
        <ele>927.931191</ele>
        <time>2022-02-25T08:04:51.435Z</time>
      </trkpt>
      <trkpt lat="36.93987" lon="-3.17814">
        <ele>928.264565</ele>
        <time>2022-02-25T08:05:05.073Z</time>
      </trkpt>
      <trkpt lat="36.93972" lon="-3.17826">
        <ele>928.549763</ele>
        <time>2022-02-25T08:05:13.194Z</time>
      </trkpt>
      <trkpt lat="36.93946" lon="-3.17844">
        <ele>929.033329</ele>
        <time>2022-02-25T08:05:26.822Z</time>
      </trkpt>
      <trkpt lat="36.93919" lon="-3.17847">
        <ele>929.476748</ele>
        <time>2022-02-25T08:05:37.557Z</time>
      </trkpt>
      <trkpt lat="36.93903" lon="-3.17842">
        <ele>929.741817</ele>
        <time>2022-02-25T08:05:42.833Z</time>
      </trkpt>
      <trkpt lat="36.93862" lon="-3.17816">
        <ele>930.489704</ele>
        <time>2022-02-25T08:05:54.080Z</time>
      </trkpt>
      <trkpt lat="36.93843" lon="-3.17811">
        <ele>930.814368</ele>
        <time>2022-02-25T08:05:58.320Z</time>
      </trkpt>
      <trkpt lat="36.93827" lon="-3.17812">
        <ele>930.89833</ele>
        <time>2022-02-25T08:06:01.290Z</time>
      </trkpt>
      <trkpt lat="36.938" lon="-3.17826">
        <ele>930.380633</ele>
        <time>2022-02-25T08:06:06.796Z</time>
      </trkpt>
      <trkpt lat="36.93738" lon="-3.17919">
        <ele>928.62894</ele>
        <time>2022-02-25T08:06:26.244Z</time>
      </trkpt>
      <trkpt lat="36.93716" lon="-3.17943">
        <ele>928.100956</ele>
        <time>2022-02-25T08:06:31.302Z</time>
      </trkpt>
      <trkpt lat="36.93689" lon="-3.1796">
        <ele>927.062233</ele>
        <time>2022-02-25T08:06:36.387Z</time>
      </trkpt>
      <trkpt lat="36.9367" lon="-3.17965">
        <ele>925.764484</ele>
        <time>2022-02-25T08:06:39.553Z</time>
      </trkpt>
      <trkpt lat="36.93574" lon="-3.17973">
        <ele>919.364876</ele>
        <time>2022-02-25T08:06:54.200Z</time>
      </trkpt>
      <trkpt lat="36.93554" lon="-3.17974">
        <ele>918.023725</ele>
        <time>2022-02-25T08:06:57.210Z</time>
      </trkpt>
      <trkpt lat="36.93409" lon="-3.18008">
        <ele>904.849367</ele>
        <time>2022-02-25T08:07:18.079Z</time>
      </trkpt>
      <trkpt lat="36.93381" lon="-3.18002">
        <ele>902.074521</ele>
        <time>2022-02-25T08:07:22.149Z</time>
      </trkpt>
      <trkpt lat="36.93368" lon="-3.17992">
        <ele>900.64556</ele>
        <time>2022-02-25T08:07:24.200Z</time>
      </trkpt>
      <trkpt lat="36.93349" lon="-3.17956">
        <ele>898.29789</ele>
        <time>2022-02-25T08:07:29.143Z</time>
      </trkpt>
      <trkpt lat="36.93322" lon="-3.1784">
        <ele>896.711066</ele>
        <time>2022-02-25T08:07:45.004Z</time>
      </trkpt>
      <trkpt lat="36.93312" lon="-3.17814">
        <ele>896.333445</ele>
        <time>2022-02-25T08:07:50.247Z</time>
      </trkpt>
      <trkpt lat="36.93288" lon="-3.17777">
        <ele>895.711154</ele>
        <time>2022-02-25T08:08:07.225Z</time>
      </trkpt>
      <trkpt lat="36.93268" lon="-3.1776">
        <ele>896.825907</ele>
        <time>2022-02-25T08:08:20.783Z</time>
      </trkpt>
      <trkpt lat="36.9324" lon="-3.17746">
        <ele>899.439925</ele>
        <time>2022-02-25T08:08:38.725Z</time>
      </trkpt>
      <trkpt lat="36.93026" lon="-3.17667">
        <ele>918.262783</ele>
        <time>2022-02-25T08:11:20.295Z</time>
      </trkpt>
      <trkpt lat="36.93" lon="-3.17662">
        <ele>920.33826</ele>
        <time>2022-02-25T08:11:35.953Z</time>
      </trkpt>
      <trkpt lat="36.92954" lon="-3.17666">
        <ele>923.887467</ele>
        <time>2022-02-25T08:12:02.228Z</time>
      </trkpt>
      <trkpt lat="36.92731" lon="-3.17742">
        <ele>930.676851</ele>
        <time>2022-02-25T08:13:29.184Z</time>
      </trkpt>
      <trkpt lat="36.92723" lon="-3.17745">
        <ele>930.577239</ele>
        <time>2022-02-25T08:13:30.927Z</time>
      </trkpt>
      <trkpt lat="36.92615" lon="-3.17778">
        <ele>929.219525</ele>
        <time>2022-02-25T08:13:51.111Z</time>
      </trkpt>
      <trkpt lat="36.92577" lon="-3.17768">
        <ele>928.65099</ele>
        <time>2022-02-25T08:13:57.660Z</time>
      </trkpt>
      <trkpt lat="36.92556" lon="-3.17793">
        <ele>928.004367</ele>
        <time>2022-02-25T08:14:02.514Z</time>
      </trkpt>
      <trkpt lat="36.92539" lon="-3.17817">
        <ele>927.437662</ele>
        <time>2022-02-25T08:14:06.881Z</time>
      </trkpt>
      <trkpt lat="36.92529" lon="-3.17843">
        <ele>926.924937</ele>
        <time>2022-02-25T08:14:10.913Z</time>
      </trkpt>
      <trkpt lat="36.92489" lon="-3.18003">
        <ele>924.423054</ele>
        <time>2022-02-25T08:14:36.642Z</time>
      </trkpt>
      <trkpt lat="36.92361" lon="-3.18295">
        <ele>920.18669</ele>
        <time>2022-02-25T08:15:29.736Z</time>
      </trkpt>
      <trkpt lat="36.92355" lon="-3.18308">
        <ele>919.941189</ele>
        <time>2022-02-25T08:15:31.607Z</time>
      </trkpt>
      <trkpt lat="36.92314" lon="-3.1834">
        <ele>918.728269</ele>
        <time>2022-02-25T08:15:39.420Z</time>
      </trkpt>
      <trkpt lat="36.92197" lon="-3.18344">
        <ele>913.522441</ele>
        <time>2022-02-25T08:15:57.986Z</time>
      </trkpt>
      <trkpt lat="36.92153" lon="-3.18355">
        <ele>911.536295</ele>
        <time>2022-02-25T08:16:05.266Z</time>
      </trkpt>
      <trkpt lat="36.92106" lon="-3.18372">
        <ele>910.208408</ele>
        <time>2022-02-25T08:16:13.627Z</time>
      </trkpt>
      <trkpt lat="36.92082" lon="-3.1839">
        <ele>909.569102</ele>
        <time>2022-02-25T08:16:18.573Z</time>
      </trkpt>
      <trkpt lat="36.92064" lon="-3.18412">
        <ele>909.000261</ele>
        <time>2022-02-25T08:16:23.088Z</time>
      </trkpt>
      <trkpt lat="36.92051" lon="-3.1844">
        <ele>908.407664</ele>
        <time>2022-02-25T08:16:27.990Z</time>
      </trkpt>
      <trkpt lat="36.92041" lon="-3.18481">
        <ele>907.637649</ele>
        <time>2022-02-25T08:16:34.545Z</time>
      </trkpt>
      <trkpt lat="36.92022" lon="-3.18653">
        <ele>903.99589</ele>
        <time>2022-02-25T08:17:01.673Z</time>
      </trkpt>
      <trkpt lat="36.92007" lon="-3.18729">
        <ele>902.298103</ele>
        <time>2022-02-25T08:17:11.952Z</time>
      </trkpt>
      <trkpt lat="36.91984" lon="-3.18795">
        <ele>898.590414</ele>
        <time>2022-02-25T08:17:20.631Z</time>
      </trkpt>
      <trkpt lat="36.91911" lon="-3.18948">
        <ele>888.949545</ele>
        <time>2022-02-25T08:17:41.839Z</time>
      </trkpt>
      <trkpt lat="36.91879" lon="-3.19079">
        <ele>882.052809</ele>
        <time>2022-02-25T08:17:58.416Z</time>
      </trkpt>
      <trkpt lat="36.91837" lon="-3.1918">
        <ele>876.765408</ele>
        <time>2022-02-25T08:18:12.846Z</time>
      </trkpt>
      <trkpt lat="36.91812" lon="-3.19257">
        <ele>873.258967</ele>
        <time>2022-02-25T08:18:23.365Z</time>
      </trkpt>
      <trkpt lat="36.91797" lon="-3.19345">
        <ele>869.495286</ele>
        <time>2022-02-25T08:18:34.568Z</time>
      </trkpt>
      <trkpt lat="36.91794" lon="-3.1944">
        <ele>866.127536</ele>
        <time>2022-02-25T08:18:46.539Z</time>
      </trkpt>
      <trkpt lat="36.91787" lon="-3.19494">
        <ele>864.186297</ele>
        <time>2022-02-25T08:18:53.693Z</time>
      </trkpt>
      <trkpt lat="36.91709" lon="-3.19677">
        <ele>858.523387</ele>
        <time>2022-02-25T08:19:21.951Z</time>
      </trkpt>
      <trkpt lat="36.91693" lon="-3.197">
        <ele>857.840008</ele>
        <time>2022-02-25T08:19:26.228Z</time>
      </trkpt>
      <trkpt lat="36.91663" lon="-3.1973">
        <ele>856.761655</ele>
        <time>2022-02-25T08:19:32.974Z</time>
      </trkpt>
      <trkpt lat="36.91587" lon="-3.19798">
        <ele>856.637788</ele>
        <time>2022-02-25T08:19:50.371Z</time>
      </trkpt>
      <trkpt lat="36.91552" lon="-3.19907">
        <ele>857.083792</ele>
        <time>2022-02-25T08:20:18.359Z</time>
      </trkpt>
      <trkpt lat="36.91505" lon="-3.19968">
        <ele>860.130697</ele>
        <time>2022-02-25T08:20:47.526Z</time>
      </trkpt>
      <trkpt lat="36.91409" lon="-3.20171">
        <ele>867.256852</ele>
        <time>2022-02-25T08:22:27.680Z</time>
      </trkpt>
      <trkpt lat="36.91391" lon="-3.20226">
        <ele>867.852545</ele>
        <time>2022-02-25T08:22:40.808Z</time>
      </trkpt>
      <trkpt lat="36.91362" lon="-3.20305">
        <ele>868.402954</ele>
        <time>2022-02-25T08:22:53.011Z</time>
      </trkpt>
      <trkpt lat="36.91338" lon="-3.20339">
        <ele>865.478092</ele>
        <time>2022-02-25T08:22:58.721Z</time>
      </trkpt>
      <trkpt lat="36.91319" lon="-3.20358">
        <ele>863.531045</ele>
        <time>2022-02-25T08:23:02.379Z</time>
      </trkpt>
      <trkpt lat="36.913" lon="-3.20373">
        <ele>861.673045</ele>
        <time>2022-02-25T08:23:05.703Z</time>
      </trkpt>
      <trkpt lat="36.91261" lon="-3.20387">
        <ele>858.448009</ele>
        <time>2022-02-25T08:23:11.443Z</time>
      </trkpt>
      <trkpt lat="36.91225" lon="-3.20389">
        <ele>855.523619</ele>
        <time>2022-02-25T08:23:16.568Z</time>
      </trkpt>
      <trkpt lat="36.9119" lon="-3.20381">
        <ele>852.954162</ele>
        <time>2022-02-25T08:23:21.483Z</time>
      </trkpt>
      <trkpt lat="36.91146" lon="-3.20352">
        <ele>849.628441</ele>
        <time>2022-02-25T08:23:28.535Z</time>
      </trkpt>
      <trkpt lat="36.91119" lon="-3.20318">
        <ele>847.018609</ele>
        <time>2022-02-25T08:23:34.285Z</time>
      </trkpt>
      <trkpt lat="36.91089" lon="-3.20273">
        <ele>843.880832</ele>
        <time>2022-02-25T08:23:41.588Z</time>
      </trkpt>
      <trkpt lat="36.91061" lon="-3.20192">
        <ele>843.440837</ele>
        <time>2022-02-25T08:23:55.439Z</time>
      </trkpt>
      <trkpt lat="36.91044" lon="-3.20171">
        <ele>844.124058</ele>
        <time>2022-02-25T08:24:02.612Z</time>
      </trkpt>
      <trkpt lat="36.91021" lon="-3.20163">
        <ele>844.789161</ele>
        <time>2022-02-25T08:24:12.042Z</time>
      </trkpt>
      <trkpt lat="36.91016" lon="-3.20161">
        <ele>844.942273</ele>
        <time>2022-02-25T08:24:14.196Z</time>
      </trkpt>
      <trkpt lat="36.90996" lon="-3.20162">
        <ele>845.533265</ele>
        <time>2022-02-25T08:24:23.876Z</time>
      </trkpt>
      <trkpt lat="36.90966" lon="-3.2018">
        <ele>846.487875</ele>
        <time>2022-02-25T08:24:40.175Z</time>
      </trkpt>
      <trkpt lat="36.90952" lon="-3.20209">
        <ele>847.252553</ele>
        <time>2022-02-25T08:24:53.959Z</time>
      </trkpt>
      <trkpt lat="36.90948" lon="-3.20224">
        <ele>847.933275</ele>
        <time>2022-02-25T08:25:01.936Z</time>
      </trkpt>
      <trkpt lat="36.90963" lon="-3.2037">
        <ele>854.928341</ele>
        <time>2022-02-25T08:26:11.001Z</time>
      </trkpt>
      <trkpt lat="36.90963" lon="-3.20415">
        <ele>857.067626</ele>
        <time>2022-02-25T08:26:28.530Z</time>
      </trkpt>
      <trkpt lat="36.9094" lon="-3.20541">
        <ele>858.495749</ele>
        <time>2022-02-25T08:27:02.572Z</time>
      </trkpt>
      <trkpt lat="36.90941" lon="-3.20585">
        <ele>858.714114</ele>
        <time>2022-02-25T08:27:11.058Z</time>
      </trkpt>
      <trkpt lat="36.9095" lon="-3.20627">
        <ele>858.932317</ele>
        <time>2022-02-25T08:27:18.038Z</time>
      </trkpt>
      <trkpt lat="36.91068" lon="-3.20855">
        <ele>853.436938</ele>
        <time>2022-02-25T08:27:54.576Z</time>
      </trkpt>
      <trkpt lat="36.91084" lon="-3.2087">
        <ele>853.449278</ele>
        <time>2022-02-25T08:27:58.446Z</time>
      </trkpt>
      <trkpt lat="36.91129" lon="-3.20887">
        <ele>853.478439</ele>
        <time>2022-02-25T08:28:07.582Z</time>
      </trkpt>
      <trkpt lat="36.91141" lon="-3.20897">
        <ele>853.487548</ele>
        <time>2022-02-25T08:28:11.613Z</time>
      </trkpt>
      <trkpt lat="36.91152" lon="-3.20923">
        <ele>853.502677</ele>
        <time>2022-02-25T08:28:19.084Z</time>
      </trkpt>
      <trkpt lat="36.91155" lon="-3.20946">
        <ele>853.514194</ele>
        <time>2022-02-25T08:28:25.360Z</time>
      </trkpt>
      <trkpt lat="36.91137" lon="-3.20983">
        <ele>853.535499</ele>
        <time>2022-02-25T08:28:36.319Z</time>
      </trkpt>
      <trkpt lat="36.91121" lon="-3.20992">
        <ele>853.772994</ele>
        <time>2022-02-25T08:28:42.201Z</time>
      </trkpt>
      <trkpt lat="36.91082" lon="-3.20997">
        <ele>854.621753</ele>
        <time>2022-02-25T08:28:53.810Z</time>
      </trkpt>
      <trkpt lat="36.91051" lon="-3.21002">
        <ele>855.288431</ele>
        <time>2022-02-25T08:29:05.650Z</time>
      </trkpt>
      <trkpt lat="36.90972" lon="-3.21057">
        <ele>857.243209</ele>
        <time>2022-02-25T08:29:38.919Z</time>
      </trkpt>
      <trkpt lat="36.9094" lon="-3.21076">
        <ele>856.967601</ele>
        <time>2022-02-25T08:29:48.457Z</time>
      </trkpt>
      <trkpt lat="36.90827" lon="-3.21101">
        <ele>855.140633</ele>
        <time>2022-02-25T08:30:09.807Z</time>
      </trkpt>
      <trkpt lat="36.90786" lon="-3.21153">
        <ele>853.547084</ele>
        <time>2022-02-25T08:30:19.455Z</time>
      </trkpt>
      <trkpt lat="36.90714" lon="-3.21177">
        <ele>849.915867</ele>
        <time>2022-02-25T08:30:31.380Z</time>
      </trkpt>
      <trkpt lat="36.90699" lon="-3.21202">
        <ele>848.67758</ele>
        <time>2022-02-25T08:30:35.251Z</time>
      </trkpt>
      <trkpt lat="36.90696" lon="-3.21215">
        <ele>848.134375</ele>
        <time>2022-02-25T08:30:36.880Z</time>
      </trkpt>
      <trkpt lat="36.90703" lon="-3.21251">
        <ele>846.698939</ele>
        <time>2022-02-25T08:30:41.413Z</time>
      </trkpt>
      <trkpt lat="36.90716" lon="-3.21266">
        <ele>845.852415</ele>
        <time>2022-02-25T08:30:44.005Z</time>
      </trkpt>
      <trkpt lat="36.90733" lon="-3.21275">
        <ele>845.917767</ele>
        <time>2022-02-25T08:30:47.315Z</time>
      </trkpt>
      <trkpt lat="36.90791" lon="-3.21287">
        <ele>846.373596</ele>
        <time>2022-02-25T08:30:57.906Z</time>
      </trkpt>
      <trkpt lat="36.9086" lon="-3.2131">
        <ele>846.930454</ele>
        <time>2022-02-25T08:31:17.660Z</time>
      </trkpt>
      <trkpt lat="36.90888" lon="-3.21327">
        <ele>847.173754</ele>
        <time>2022-02-25T08:31:33.262Z</time>
      </trkpt>
      <trkpt lat="36.909" lon="-3.21352">
        <ele>849.463892</ele>
        <time>2022-02-25T08:31:49.003Z</time>
      </trkpt>
      <trkpt lat="36.90903" lon="-3.21389">
        <ele>852.573378</ele>
        <time>2022-02-25T08:32:12.951Z</time>
      </trkpt>
      <trkpt lat="36.9089" lon="-3.2142">
        <ele>855.444658</ele>
        <time>2022-02-25T08:32:37.165Z</time>
      </trkpt>
      <trkpt lat="36.90866" lon="-3.21437">
        <ele>858.323502</ele>
        <time>2022-02-25T08:33:01.444Z</time>
      </trkpt>
      <trkpt lat="36.90788" lon="-3.21445">
        <ele>866.074352</ele>
        <time>2022-02-25T08:34:04.316Z</time>
      </trkpt>
      <trkpt lat="36.9077" lon="-3.21455">
        <ele>866.842572</ele>
        <time>2022-02-25T08:34:16.457Z</time>
      </trkpt>
      <trkpt lat="36.90712" lon="-3.21503">
        <ele>869.460217</ele>
        <time>2022-02-25T08:34:56.545Z</time>
      </trkpt>
      <trkpt lat="36.90689" lon="-3.21525">
        <ele>870.539626</ele>
        <time>2022-02-25T08:35:09.281Z</time>
      </trkpt>
      <trkpt lat="36.90659" lon="-3.21575">
        <ele>872.447696</ele>
        <time>2022-02-25T08:35:19.198Z</time>
      </trkpt>
      <trkpt lat="36.9065" lon="-3.21603">
        <ele>871.930254</ele>
        <time>2022-02-25T08:35:22.752Z</time>
      </trkpt>
      <trkpt lat="36.90653" lon="-3.21626">
        <ele>871.134602</ele>
        <time>2022-02-25T08:35:25.545Z</time>
      </trkpt>
      <trkpt lat="36.90668" lon="-3.21647">
        <ele>870.220311</ele>
        <time>2022-02-25T08:35:28.797Z</time>
      </trkpt>
      <trkpt lat="36.90704" lon="-3.21651">
        <ele>868.708217</ele>
        <time>2022-02-25T08:35:34.564Z</time>
      </trkpt>
      <trkpt lat="36.90728" lon="-3.21659">
        <ele>867.677439</ele>
        <time>2022-02-25T08:35:38.867Z</time>
      </trkpt>
      <trkpt lat="36.90748" lon="-3.21679">
        <ele>866.61486</ele>
        <time>2022-02-25T08:35:43.267Z</time>
      </trkpt>
      <trkpt lat="36.9076" lon="-3.2171">
        <ele>865.501425</ele>
        <time>2022-02-25T08:35:47.667Z</time>
      </trkpt>
      <trkpt lat="36.9076" lon="-3.21741">
        <ele>864.590638</ele>
        <time>2022-02-25T08:35:52.723Z</time>
      </trkpt>
      <trkpt lat="36.9075" lon="-3.2177">
        <ele>863.730161</ele>
        <time>2022-02-25T08:35:57.505Z</time>
      </trkpt>
      <trkpt lat="36.90724" lon="-3.21804">
        <ele>862.459826</ele>
        <time>2022-02-25T08:36:03.859Z</time>
      </trkpt>
      <trkpt lat="36.9069" lon="-3.21845">
        <ele>860.86731</ele>
        <time>2022-02-25T08:36:11.370Z</time>
      </trkpt>
      <trkpt lat="36.90662" lon="-3.2189">
        <ele>859.30432</ele>
        <time>2022-02-25T08:36:20.397Z</time>
      </trkpt>
      <trkpt lat="36.90656" lon="-3.21935">
        <ele>856.595288</ele>
        <time>2022-02-25T08:36:26.354Z</time>
      </trkpt>
      <trkpt lat="36.90649" lon="-3.22057">
        <ele>848.464513</ele>
        <time>2022-02-25T08:36:40.349Z</time>
      </trkpt>
      <trkpt lat="36.90643" lon="-3.22144">
        <ele>843.267897</ele>
        <time>2022-02-25T08:36:50.174Z</time>
      </trkpt>
      <trkpt lat="36.90622" lon="-3.22172">
        <ele>841.676094</ele>
        <time>2022-02-25T08:36:54.714Z</time>
      </trkpt>
      <trkpt lat="36.90596" lon="-3.22182">
        <ele>840.284681</ele>
        <time>2022-02-25T08:36:58.670Z</time>
      </trkpt>
      <trkpt lat="36.90559" lon="-3.22193">
        <ele>838.284037</ele>
        <time>2022-02-25T08:37:04.666Z</time>
      </trkpt>
      <trkpt lat="36.90538" lon="-3.22216">
        <ele>836.844147</ele>
        <time>2022-02-25T08:37:09.305Z</time>
      </trkpt>
      <trkpt lat="36.9052" lon="-3.22257">
        <ele>834.92494</ele>
        <time>2022-02-25T08:37:16.526Z</time>
      </trkpt>
      <trkpt lat="36.90518" lon="-3.2228">
        <ele>834.979394</ele>
        <time>2022-02-25T08:37:22.262Z</time>
      </trkpt>
      <trkpt lat="36.9051" lon="-3.22357">
        <ele>835.330058</ele>
        <time>2022-02-25T08:37:43.013Z</time>
      </trkpt>
      <trkpt lat="36.90503" lon="-3.22471">
        <ele>835.846516</ele>
        <time>2022-02-25T08:38:06.343Z</time>
      </trkpt>
      <trkpt lat="36.90508" lon="-3.22494">
        <ele>835.791219</ele>
        <time>2022-02-25T08:38:10.245Z</time>
      </trkpt>
      <trkpt lat="36.90526" lon="-3.22531">
        <ele>835.471063</ele>
        <time>2022-02-25T08:38:17.248Z</time>
      </trkpt>
      <trkpt lat="36.90541" lon="-3.2256">
        <ele>835.214294</ele>
        <time>2022-02-25T08:38:22.914Z</time>
      </trkpt>
      <trkpt lat="36.90544" lon="-3.22583">
        <ele>835.045242</ele>
        <time>2022-02-25T08:38:26.853Z</time>
      </trkpt>
      <trkpt lat="36.90545" lon="-3.22598">
        <ele>834.936343</ele>
        <time>2022-02-25T08:38:29.135Z</time>
      </trkpt>
      <trkpt lat="36.90536" lon="-3.22621">
        <ele>834.741092</ele>
        <time>2022-02-25T08:38:33.263Z</time>
      </trkpt>
      <trkpt lat="36.90531" lon="-3.22629">
        <ele>834.662448</ele>
        <time>2022-02-25T08:38:34.971Z</time>
      </trkpt>
      <trkpt lat="36.90513" lon="-3.2266">
        <ele>834.380376</ele>
        <time>2022-02-25T08:38:40.838Z</time>
      </trkpt>
      <trkpt lat="36.90507" lon="-3.22687">
        <ele>834.110809</ele>
        <time>2022-02-25T08:38:44.736Z</time>
      </trkpt>
      <trkpt lat="36.90496" lon="-3.228">
        <ele>832.388957</ele>
        <time>2022-02-25T08:39:02.135Z</time>
      </trkpt>
      <trkpt lat="36.90479" lon="-3.22836">
        <ele>831.757801</ele>
        <time>2022-02-25T08:39:08.389Z</time>
      </trkpt>
      <trkpt lat="36.9046" lon="-3.2287">
        <ele>831.129292</ele>
        <time>2022-02-25T08:39:14.447Z</time>
      </trkpt>
      <trkpt lat="36.90447" lon="-3.22906">
        <ele>830.129335</ele>
        <time>2022-02-25T08:39:20.064Z</time>
      </trkpt>
      <trkpt lat="36.90445" lon="-3.22946">
        <ele>828.612094</ele>
        <time>2022-02-25T08:39:25.571Z</time>
      </trkpt>
      <trkpt lat="36.9045" lon="-3.22977">
        <ele>827.446255</ele>
        <time>2022-02-25T08:39:29.644Z</time>
      </trkpt>
      <trkpt lat="36.90468" lon="-3.23029">
        <ele>825.338761</ele>
        <time>2022-02-25T08:39:36.715Z</time>
      </trkpt>
      <trkpt lat="36.90485" lon="-3.23056">
        <ele>824.101498</ele>
        <time>2022-02-25T08:39:40.900Z</time>
      </trkpt>
      <trkpt lat="36.90516" lon="-3.23084">
        <ele>822.245313</ele>
        <time>2022-02-25T08:39:46.971Z</time>
      </trkpt>
      <trkpt lat="36.9052" lon="-3.23102">
        <ele>821.322895</ele>
        <time>2022-02-25T08:39:49.264Z</time>
      </trkpt>
      <trkpt lat="36.90509" lon="-3.23142">
        <ele>819.258432</ele>
        <time>2022-02-25T08:39:54.450Z</time>
      </trkpt>
      <trkpt lat="36.90493" lon="-3.23149">
        <ele>818.233535</ele>
        <time>2022-02-25T08:39:57.049Z</time>
      </trkpt>
      <trkpt lat="36.90441" lon="-3.23151">
        <ele>815.007487</ele>
        <time>2022-02-25T08:40:05.145Z</time>
      </trkpt>
      <trkpt lat="36.90321" lon="-3.23179">
        <ele>806.431399</ele>
        <time>2022-02-25T08:40:23.623Z</time>
      </trkpt>
      <trkpt lat="36.90254" lon="-3.23163">
        <ele>801.137292</ele>
        <time>2022-02-25T08:40:33.421Z</time>
      </trkpt>
      <trkpt lat="36.90181" lon="-3.23209">
        <ele>795.630789</ele>
        <time>2022-02-25T08:40:45.306Z</time>
      </trkpt>
      <trkpt lat="36.90172" lon="-3.23225">
        <ele>794.80984</ele>
        <time>2022-02-25T08:40:47.678Z</time>
      </trkpt>
      <trkpt lat="36.90164" lon="-3.23254">
        <ele>793.517101</ele>
        <time>2022-02-25T08:40:51.349Z</time>
      </trkpt>
      <trkpt lat="36.90168" lon="-3.23291">
        <ele>791.969651</ele>
        <time>2022-02-25T08:40:55.817Z</time>
      </trkpt>
      <trkpt lat="36.90189" lon="-3.23322">
        <ele>790.278775</ele>
        <time>2022-02-25T08:41:00.983Z</time>
      </trkpt>
      <trkpt lat="36.90204" lon="-3.23327">
        <ele>789.464504</ele>
        <time>2022-02-25T08:41:03.747Z</time>
      </trkpt>
      <trkpt lat="36.90217" lon="-3.23328">
        <ele>788.819626</ele>
        <time>2022-02-25T08:41:06.035Z</time>
      </trkpt>
      <trkpt lat="36.90259" lon="-3.23313">
        <ele>789.328115</ele>
        <time>2022-02-25T08:41:16.501Z</time>
      </trkpt>
      <trkpt lat="36.90273" lon="-3.23312">
        <ele>789.975225</ele>
        <time>2022-02-25T08:41:21.510Z</time>
      </trkpt>
      <trkpt lat="36.90292" lon="-3.23322">
        <ele>790.963981</ele>
        <time>2022-02-25T08:41:29.655Z</time>
      </trkpt>
      <trkpt lat="36.90443" lon="-3.23499">
        <ele>802.189028</ele>
        <time>2022-02-25T08:43:27.734Z</time>
      </trkpt>
      <trkpt lat="36.90448" lon="-3.23521">
        <ele>803.361775</ele>
        <time>2022-02-25T08:43:39.531Z</time>
      </trkpt>
      <trkpt lat="36.90445" lon="-3.23549">
        <ele>804.817169</ele>
        <time>2022-02-25T08:43:52.786Z</time>
      </trkpt>
      <trkpt lat="36.90403" lon="-3.23637">
        <ele>808.334728</ele>
        <time>2022-02-25T08:44:32.292Z</time>
      </trkpt>
      <trkpt lat="36.90392" lon="-3.23685">
        <ele>808.753111</ele>
        <time>2022-02-25T08:44:45.994Z</time>
      </trkpt>
      <trkpt lat="36.90386" lon="-3.23709">
        <ele>808.959225</ele>
        <time>2022-02-25T08:44:50.603Z</time>
      </trkpt>
      <trkpt lat="36.90389" lon="-3.23737">
        <ele>809.19779</ele>
        <time>2022-02-25T08:44:56.663Z</time>
      </trkpt>
      <trkpt lat="36.90416" lon="-3.23819">
        <ele>809.532028</ele>
        <time>2022-02-25T08:45:10.328Z</time>
      </trkpt>
      <trkpt lat="36.90425" lon="-3.23959">
        <ele>804.390601</ele>
        <time>2022-02-25T08:45:28.712Z</time>
      </trkpt>
      <trkpt lat="36.90424" lon="-3.23985">
        <ele>803.424743</ele>
        <time>2022-02-25T08:45:32.021Z</time>
      </trkpt>
      <trkpt lat="36.90415" lon="-3.24013">
        <ele>802.313146</ele>
        <time>2022-02-25T08:45:35.673Z</time>
      </trkpt>
      <trkpt lat="36.9039" lon="-3.24048">
        <ele>799.919497</ele>
        <time>2022-02-25T08:45:41.312Z</time>
      </trkpt>
      <trkpt lat="36.90379" lon="-3.24075">
        <ele>798.163543</ele>
        <time>2022-02-25T08:45:44.700Z</time>
      </trkpt>
      <trkpt lat="36.90377" lon="-3.24098">
        <ele>796.748307</ele>
        <time>2022-02-25T08:45:47.619Z</time>
      </trkpt>
      <trkpt lat="36.90388" lon="-3.24237">
        <ele>788.391778</ele>
        <time>2022-02-25T08:46:04.104Z</time>
      </trkpt>
      <trkpt lat="36.90386" lon="-3.24249">
        <ele>787.749645</ele>
        <time>2022-02-25T08:46:05.557Z</time>
      </trkpt>
      <trkpt lat="36.90381" lon="-3.2426">
        <ele>787.148442</ele>
        <time>2022-02-25T08:46:07.096Z</time>
      </trkpt>
      <trkpt lat="36.90358" lon="-3.2428">
        <ele>785.523127</ele>
        <time>2022-02-25T08:46:11.229Z</time>
      </trkpt>
      <trkpt lat="36.9034" lon="-3.243">
        <ele>784.143463</ele>
        <time>2022-02-25T08:46:14.650Z</time>
      </trkpt>
      <trkpt lat="36.90336" lon="-3.24323">
        <ele>783.054095</ele>
        <time>2022-02-25T08:46:17.543Z</time>
      </trkpt>
      <trkpt lat="36.90342" lon="-3.24345">
        <ele>781.945522</ele>
        <time>2022-02-25T08:46:20.490Z</time>
      </trkpt>
      <trkpt lat="36.90364" lon="-3.2439">
        <ele>779.516595</ele>
        <time>2022-02-25T08:46:27.577Z</time>
      </trkpt>
      <trkpt lat="36.9037" lon="-3.24423">
        <ele>777.923888</ele>
        <time>2022-02-25T08:46:32.363Z</time>
      </trkpt>
      <trkpt lat="36.90368" lon="-3.24452">
        <ele>776.838153</ele>
        <time>2022-02-25T08:46:36.111Z</time>
      </trkpt>
      <trkpt lat="36.90361" lon="-3.24479">
        <ele>775.815348</ele>
        <time>2022-02-25T08:46:39.825Z</time>
      </trkpt>
      <trkpt lat="36.90313" lon="-3.24533">
        <ele>772.907289</ele>
        <time>2022-02-25T08:46:50.803Z</time>
      </trkpt>
      <trkpt lat="36.90301" lon="-3.24547">
        <ele>772.161598</ele>
        <time>2022-02-25T08:46:53.286Z</time>
      </trkpt>
      <trkpt lat="36.90295" lon="-3.24571">
        <ele>771.26325</ele>
        <time>2022-02-25T08:46:56.660Z</time>
      </trkpt>
      <trkpt lat="36.90284" lon="-3.24687">
        <ele>766.326814</ele>
        <time>2022-02-25T08:47:10.879Z</time>
      </trkpt>
      <trkpt lat="36.90289" lon="-3.24711">
        <ele>765.205474</ele>
        <time>2022-02-25T08:47:13.788Z</time>
      </trkpt>
      <trkpt lat="36.90304" lon="-3.24727">
        <ele>764.055345</ele>
        <time>2022-02-25T08:47:16.705Z</time>
      </trkpt>
      <trkpt lat="36.90344" lon="-3.24737">
        <ele>761.716138</ele>
        <time>2022-02-25T08:47:22.891Z</time>
      </trkpt>
      <trkpt lat="36.90356" lon="-3.2476">
        <ele>760.456558</ele>
        <time>2022-02-25T08:47:26.500Z</time>
      </trkpt>
      <trkpt lat="36.90358" lon="-3.24787">
        <ele>759.191341</ele>
        <time>2022-02-25T08:47:30.194Z</time>
      </trkpt>
      <trkpt lat="36.90353" lon="-3.24827">
        <ele>757.80327</ele>
        <time>2022-02-25T08:47:36.224Z</time>
      </trkpt>
      <trkpt lat="36.9032" lon="-3.24907">
        <ele>754.709637</ele>
        <time>2022-02-25T08:47:47.510Z</time>
      </trkpt>
      <trkpt lat="36.9032" lon="-3.24988">
        <ele>751.917333</ele>
        <time>2022-02-25T08:47:58.173Z</time>
      </trkpt>
      <trkpt lat="36.90324" lon="-3.25003">
        <ele>751.34412</ele>
        <time>2022-02-25T08:48:00.292Z</time>
      </trkpt>
      <trkpt lat="36.9037" lon="-3.25069">
        <ele>748.373472</ele>
        <time>2022-02-25T08:48:11.470Z</time>
      </trkpt>
      <trkpt lat="36.90377" lon="-3.25103">
        <ele>747.138234</ele>
        <time>2022-02-25T08:48:16.345Z</time>
      </trkpt>
      <trkpt lat="36.90376" lon="-3.25176">
        <ele>744.66101</ele>
        <time>2022-02-25T08:48:25.311Z</time>
      </trkpt>
      <trkpt lat="36.9039" lon="-3.25201">
        <ele>743.604493</ele>
        <time>2022-02-25T08:48:29.164Z</time>
      </trkpt>
      <trkpt lat="36.90405" lon="-3.25233">
        <ele>742.456552</ele>
        <time>2022-02-25T08:48:34.409Z</time>
      </trkpt>
      <trkpt lat="36.90413" lon="-3.25273">
        <ele>741.197213</ele>
        <time>2022-02-25T08:48:44.357Z</time>
      </trkpt>
      <trkpt lat="36.90415" lon="-3.25284">
        <ele>740.840902</ele>
        <time>2022-02-25T08:48:47.505Z</time>
      </trkpt>
      <trkpt lat="36.90424" lon="-3.2536">
        <ele>738.494505</ele>
        <time>2022-02-25T08:48:57.906Z</time>
      </trkpt>
      <trkpt lat="36.90415" lon="-3.25423">
        <ele>736.240003</ele>
        <time>2022-02-25T08:49:05.646Z</time>
      </trkpt>
      <trkpt lat="36.90414" lon="-3.25466">
        <ele>733.445636</ele>
        <time>2022-02-25T08:49:10.576Z</time>
      </trkpt>
      <trkpt lat="36.90424" lon="-3.25486">
        <ele>731.9376</ele>
        <time>2022-02-25T08:49:13.419Z</time>
      </trkpt>
      <trkpt lat="36.90432" lon="-3.25495">
        <ele>731.079541</ele>
        <time>2022-02-25T08:49:14.814Z</time>
      </trkpt>
      <trkpt lat="36.90451" lon="-3.25505">
        <ele>729.423465</ele>
        <time>2022-02-25T08:49:18.205Z</time>
      </trkpt>
      <trkpt lat="36.90493" lon="-3.25511">
        <ele>725.975527</ele>
        <time>2022-02-25T08:49:24.306Z</time>
      </trkpt>
      <trkpt lat="36.9053" lon="-3.25524">
        <ele>722.8844</ele>
        <time>2022-02-25T08:49:29.851Z</time>
      </trkpt>
      <trkpt lat="36.90553" lon="-3.25546">
        <ele>721.600394</ele>
        <time>2022-02-25T08:49:34.548Z</time>
      </trkpt>
      <trkpt lat="36.90557" lon="-3.25566">
        <ele>721.091231</ele>
        <time>2022-02-25T08:49:36.744Z</time>
      </trkpt>
      <trkpt lat="36.90552" lon="-3.25584">
        <ele>720.607775</ele>
        <time>2022-02-25T08:49:40.171Z</time>
      </trkpt>
      <trkpt lat="36.90524" lon="-3.25639">
        <ele>718.953563</ele>
        <time>2022-02-25T08:49:49.126Z</time>
      </trkpt>
      <trkpt lat="36.905" lon="-3.2572">
        <ele>716.776006</ele>
        <time>2022-02-25T08:50:05.290Z</time>
      </trkpt>
      <trkpt lat="36.90465" lon="-3.25933">
        <ele>712.978875</ele>
        <time>2022-02-25T08:50:38.301Z</time>
      </trkpt>
      <trkpt lat="36.90466" lon="-3.25962">
        <ele>711.982166</ele>
        <time>2022-02-25T08:50:41.783Z</time>
      </trkpt>
      <trkpt lat="36.90517" lon="-3.26115">
        <ele>703.220473</ele>
        <time>2022-02-25T08:51:01.862Z</time>
      </trkpt>
      <trkpt lat="36.90512" lon="-3.26137">
        <ele>702.032627</ele>
        <time>2022-02-25T08:51:04.581Z</time>
      </trkpt>
      <trkpt lat="36.90496" lon="-3.26151">
        <ele>700.748947</ele>
        <time>2022-02-25T08:51:07.428Z</time>
      </trkpt>
      <trkpt lat="36.90461" lon="-3.2616">
        <ele>698.726618</ele>
        <time>2022-02-25T08:51:12.563Z</time>
      </trkpt>
      <trkpt lat="36.90446" lon="-3.26172">
        <ele>697.704814</ele>
        <time>2022-02-25T08:51:15.270Z</time>
      </trkpt>
      <trkpt lat="36.90438" lon="-3.26195">
        <ele>696.539485</ele>
        <time>2022-02-25T08:51:18.255Z</time>
      </trkpt>
      <trkpt lat="36.90439" lon="-3.2623">
        <ele>694.960643</ele>
        <time>2022-02-25T08:51:22.459Z</time>
      </trkpt>
      <trkpt lat="36.90458" lon="-3.26263">
        <ele>693.111361</ele>
        <time>2022-02-25T08:51:27.603Z</time>
      </trkpt>
      <trkpt lat="36.90464" lon="-3.26284">
        <ele>692.068886</ele>
        <time>2022-02-25T08:51:30.700Z</time>
      </trkpt>
      <trkpt lat="36.90451" lon="-3.26311">
        <ele>690.627594</ele>
        <time>2022-02-25T08:51:34.894Z</time>
      </trkpt>
      <trkpt lat="36.90404" lon="-3.26348">
        <ele>690.27776</ele>
        <time>2022-02-25T08:51:44.969Z</time>
      </trkpt>
      <trkpt lat="36.90391" lon="-3.26376">
        <ele>690.122852</ele>
        <time>2022-02-25T08:51:50.496Z</time>
      </trkpt>
      <trkpt lat="36.90372" lon="-3.26525">
        <ele>689.465879</ele>
        <time>2022-02-25T08:52:22.508Z</time>
      </trkpt>
      <trkpt lat="36.90371" lon="-3.26588">
        <ele>689.324302</ele>
        <time>2022-02-25T08:52:32.778Z</time>
      </trkpt>
      <trkpt lat="36.90376" lon="-3.26622">
        <ele>689.246323</ele>
        <time>2022-02-25T08:52:38.032Z</time>
      </trkpt>
      <trkpt lat="36.90393" lon="-3.26652">
        <ele>689.162678</ele>
        <time>2022-02-25T08:52:43.722Z</time>
      </trkpt>
      <trkpt lat="36.90466" lon="-3.26713">
        <ele>689.315615</ele>
        <time>2022-02-25T08:53:02.964Z</time>
      </trkpt>
      <trkpt lat="36.90478" lon="-3.26748">
        <ele>689.571406</ele>
        <time>2022-02-25T08:53:12.795Z</time>
      </trkpt>
      <trkpt lat="36.90478" lon="-3.2677">
        <ele>689.717954</ele>
        <time>2022-02-25T08:53:19.178Z</time>
      </trkpt>
      <trkpt lat="36.90464" lon="-3.26828">
        <ele>690.112452</ele>
        <time>2022-02-25T08:53:34.841Z</time>
      </trkpt>
      <trkpt lat="36.90466" lon="-3.26889">
        <ele>690.440983</ele>
        <time>2022-02-25T08:53:47.184Z</time>
      </trkpt>
      <trkpt lat="36.90453" lon="-3.26948">
        <ele>688.918804</ele>
        <time>2022-02-25T08:53:56.652Z</time>
      </trkpt>
      <trkpt lat="36.90466" lon="-3.27008">
        <ele>687.367035</ele>
        <time>2022-02-25T08:54:04.711Z</time>
      </trkpt>
      <trkpt lat="36.9045" lon="-3.27025">
        <ele>686.721806</ele>
        <time>2022-02-25T08:54:07.999Z</time>
      </trkpt>
      <trkpt lat="36.90412" lon="-3.27041">
        <ele>685.464908</ele>
        <time>2022-02-25T08:54:14.508Z</time>
      </trkpt>
      <trkpt lat="36.90404" lon="-3.27055">
        <ele>685.045027</ele>
        <time>2022-02-25T08:54:16.650Z</time>
      </trkpt>
      <trkpt lat="36.90405" lon="-3.27078">
        <ele>685.312277</ele>
        <time>2022-02-25T08:54:19.894Z</time>
      </trkpt>
      <trkpt lat="36.90413" lon="-3.27101">
        <ele>685.850016</ele>
        <time>2022-02-25T08:54:23.008Z</time>
      </trkpt>
      <trkpt lat="36.90438" lon="-3.27125">
        <ele>686.720686</ele>
        <time>2022-02-25T08:54:29.516Z</time>
      </trkpt>
      <trkpt lat="36.90443" lon="-3.27135">
        <ele>686.978915</ele>
        <time>2022-02-25T08:54:30.982Z</time>
      </trkpt>
      <trkpt lat="36.90441" lon="-3.27165">
        <ele>687.640071</ele>
        <time>2022-02-25T08:54:40.754Z</time>
      </trkpt>
      <trkpt lat="36.90418" lon="-3.27195">
        <ele>688.561442</ele>
        <time>2022-02-25T08:54:53.688Z</time>
      </trkpt>
      <trkpt lat="36.90402" lon="-3.27225">
        <ele>689.348763</ele>
        <time>2022-02-25T08:55:10.130Z</time>
      </trkpt>
      <trkpt lat="36.90362" lon="-3.27321">
        <ele>697.471739</ele>
        <time>2022-02-25T08:56:25.324Z</time>
      </trkpt>
      <trkpt lat="36.90339" lon="-3.27351">
        <ele>701.234063</ele>
        <time>2022-02-25T08:56:55.889Z</time>
      </trkpt>
      <trkpt lat="36.90297" lon="-3.27368">
        <ele>706.191425</ele>
        <time>2022-02-25T08:57:33.181Z</time>
      </trkpt>
      <trkpt lat="36.90275" lon="-3.27369">
        <ele>708.747497</ele>
        <time>2022-02-25T08:57:49.709Z</time>
      </trkpt>
      <trkpt lat="36.9026" lon="-3.2737">
        <ele>710.183354</ele>
        <time>2022-02-25T08:58:00.168Z</time>
      </trkpt>
      <trkpt lat="36.90199" lon="-3.27403">
        <ele>712.532686</ele>
        <time>2022-02-25T08:58:35.380Z</time>
      </trkpt>
      <trkpt lat="36.90177" lon="-3.27425">
        <ele>713.534412</ele>
        <time>2022-02-25T08:58:46.519Z</time>
      </trkpt>
      <trkpt lat="36.90169" lon="-3.27447">
        <ele>714.218468</ele>
        <time>2022-02-25T08:58:53.599Z</time>
      </trkpt>
      <trkpt lat="36.90169" lon="-3.27475">
        <ele>714.985377</ele>
        <time>2022-02-25T08:58:59.442Z</time>
      </trkpt>
      <trkpt lat="36.90174" lon="-3.27507">
        <ele>715.908832</ele>
        <time>2022-02-25T08:59:05.089Z</time>
      </trkpt>
      <trkpt lat="36.90201" lon="-3.27552">
        <ele>715.797376</ele>
        <time>2022-02-25T08:59:13.542Z</time>
      </trkpt>
      <trkpt lat="36.90205" lon="-3.2757">
        <ele>715.479997</ele>
        <time>2022-02-25T08:59:16.305Z</time>
      </trkpt>
      <trkpt lat="36.90204" lon="-3.27592">
        <ele>715.109931</ele>
        <time>2022-02-25T08:59:19.343Z</time>
      </trkpt>
      <trkpt lat="36.90184" lon="-3.27646">
        <ele>714.091667</ele>
        <time>2022-02-25T08:59:27.630Z</time>
      </trkpt>
      <trkpt lat="36.90188" lon="-3.27668">
        <ele>713.697387</ele>
        <time>2022-02-25T08:59:30.807Z</time>
      </trkpt>
      <trkpt lat="36.90198" lon="-3.27686">
        <ele>713.327443</ele>
        <time>2022-02-25T08:59:33.588Z</time>
      </trkpt>
      <trkpt lat="36.90289" lon="-3.27798">
        <ele>711.468499</ele>
        <time>2022-02-25T08:59:58.308Z</time>
      </trkpt>
      <trkpt lat="36.903" lon="-3.27821">
        <ele>711.195959</ele>
        <time>2022-02-25T09:00:05.545Z</time>
      </trkpt>
      <trkpt lat="36.903" lon="-3.27846">
        <ele>710.958477</ele>
        <time>2022-02-25T09:00:10.908Z</time>
      </trkpt>
      <trkpt lat="36.90284" lon="-3.27872">
        <ele>710.637012</ele>
        <time>2022-02-25T09:00:16.340Z</time>
      </trkpt>
      <trkpt lat="36.90233" lon="-3.27935">
        <ele>706.993285</ele>
        <time>2022-02-25T09:00:28.437Z</time>
      </trkpt>
      <trkpt lat="36.90216" lon="-3.27967">
        <ele>705.035234</ele>
        <time>2022-02-25T09:00:33.134Z</time>
      </trkpt>
      <trkpt lat="36.9016" lon="-3.28158">
        <ele>694.224952</ele>
        <time>2022-02-25T09:00:56.705Z</time>
      </trkpt>
      <trkpt lat="36.90151" lon="-3.28176">
        <ele>692.983316</ele>
        <time>2022-02-25T09:00:59.204Z</time>
      </trkpt>
      <trkpt lat="36.90141" lon="-3.28187">
        <ele>692.078469</ele>
        <time>2022-02-25T09:01:01.013Z</time>
      </trkpt>
      <trkpt lat="36.90118" lon="-3.28182">
        <ele>690.436971</ele>
        <time>2022-02-25T09:01:04.441Z</time>
      </trkpt>
      <trkpt lat="36.90076" lon="-3.28128">
        <ele>686.257516</ele>
        <time>2022-02-25T09:01:13.924Z</time>
      </trkpt>
      <trkpt lat="36.90058" lon="-3.28116">
        <ele>686.363435</ele>
        <time>2022-02-25T09:01:17.626Z</time>
      </trkpt>
      <trkpt lat="36.89984" lon="-3.28113">
        <ele>686.751128</ele>
        <time>2022-02-25T09:01:37.781Z</time>
      </trkpt>
      <trkpt lat="36.89948" lon="-3.28099">
        <ele>686.948469</ele>
        <time>2022-02-25T09:01:51.661Z</time>
      </trkpt>
      <trkpt lat="36.89898" lon="-3.2805">
        <ele>686.866798</ele>
        <time>2022-02-25T09:02:14.736Z</time>
      </trkpt>
      <trkpt lat="36.89873" lon="-3.28051">
        <ele>686.355919</ele>
        <time>2022-02-25T09:02:20.808Z</time>
      </trkpt>
      <trkpt lat="36.8985" lon="-3.2806">
        <ele>685.879197</ele>
        <time>2022-02-25T09:02:25.343Z</time>
      </trkpt>
      <trkpt lat="36.89776" lon="-3.28053">
        <ele>684.42939</ele>
        <time>2022-02-25T09:02:37.479Z</time>
      </trkpt>
      <trkpt lat="36.89763" lon="-3.28063">
        <ele>684.120006</ele>
        <time>2022-02-25T09:02:40.180Z</time>
      </trkpt>
      <trkpt lat="36.89753" lon="-3.28071">
        <ele>683.888394</ele>
        <time>2022-02-25T09:02:42.107Z</time>
      </trkpt>
      <trkpt lat="36.89739" lon="-3.28099">
        <ele>683.857856</ele>
        <time>2022-02-25T09:02:46.434Z</time>
      </trkpt>
      <trkpt lat="36.89738" lon="-3.28129">
        <ele>684.226366</ele>
        <time>2022-02-25T09:02:50.513Z</time>
      </trkpt>
      <trkpt lat="36.89748" lon="-3.28167">
        <ele>684.709116</ele>
        <time>2022-02-25T09:02:56.230Z</time>
      </trkpt>
      <trkpt lat="36.89754" lon="-3.28179">
        <ele>684.877722</ele>
        <time>2022-02-25T09:02:58.845Z</time>
      </trkpt>
      <trkpt lat="36.89802" lon="-3.28204">
        <ele>685.676392</ele>
        <time>2022-02-25T09:03:11.414Z</time>
      </trkpt>
      <trkpt lat="36.89825" lon="-3.28234">
        <ele>686.18441</ele>
        <time>2022-02-25T09:03:25.662Z</time>
      </trkpt>
      <trkpt lat="36.8989" lon="-3.28453">
        <ele>707.114486</ele>
        <time>2022-02-25T09:06:10.259Z</time>
      </trkpt>
      <trkpt lat="36.8989" lon="-3.28481">
        <ele>709.245587</ele>
        <time>2022-02-25T09:06:30.013Z</time>
      </trkpt>
      <trkpt lat="36.89878" lon="-3.28505">
        <ele>711.19198</ele>
        <time>2022-02-25T09:06:48.635Z</time>
      </trkpt>
      <trkpt lat="36.89723" lon="-3.28695">
        <ele>726.837361</ele>
        <time>2022-02-25T09:08:56.437Z</time>
      </trkpt>
      <trkpt lat="36.89685" lon="-3.28723">
        <ele>728.782598</ele>
        <time>2022-02-25T09:09:14.220Z</time>
      </trkpt>
      <trkpt lat="36.89593" lon="-3.28773">
        <ele>731.654425</ele>
        <time>2022-02-25T09:09:44.068Z</time>
      </trkpt>
      <trkpt lat="36.89565" lon="-3.288">
        <ele>731.896677</ele>
        <time>2022-02-25T09:09:51.846Z</time>
      </trkpt>
      <trkpt lat="36.89547" lon="-3.28839">
        <ele>732.139325</ele>
        <time>2022-02-25T09:09:59.690Z</time>
      </trkpt>
      <trkpt lat="36.89524" lon="-3.28941">
        <ele>732.651349</ele>
        <time>2022-02-25T09:10:21.016Z</time>
      </trkpt>
      <trkpt lat="36.89508" lon="-3.28989">
        <ele>732.773709</ele>
        <time>2022-02-25T09:10:33.597Z</time>
      </trkpt>
      <trkpt lat="36.89426" lon="-3.29137">
        <ele>732.412767</ele>
        <time>2022-02-25T09:11:07.340Z</time>
      </trkpt>
      <trkpt lat="36.89419" lon="-3.29166">
        <ele>731.673928</ele>
        <time>2022-02-25T09:11:11.646Z</time>
      </trkpt>
      <trkpt lat="36.89396" lon="-3.2937">
        <ele>726.77777</ele>
        <time>2022-02-25T09:11:38.594Z</time>
      </trkpt>
      <trkpt lat="36.89385" lon="-3.29426">
        <ele>725.687555</ele>
        <time>2022-02-25T09:11:46.392Z</time>
      </trkpt>
      <trkpt lat="36.89372" lon="-3.29457">
        <ele>725.036086</ele>
        <time>2022-02-25T09:11:51.373Z</time>
      </trkpt>
      <trkpt lat="36.89341" lon="-3.29509">
        <ele>723.820807</ele>
        <time>2022-02-25T09:12:02.006Z</time>
      </trkpt>
      <trkpt lat="36.89254" lon="-3.29585">
        <ele>720.767839</ele>
        <time>2022-02-25T09:12:23.447Z</time>
      </trkpt>
      <trkpt lat="36.89225" lon="-3.29626">
        <ele>719.479668</ele>
        <time>2022-02-25T09:12:30.759Z</time>
      </trkpt>
      <trkpt lat="36.89211" lon="-3.29654">
        <ele>718.690593</ele>
        <time>2022-02-25T09:12:35.023Z</time>
      </trkpt>
      <trkpt lat="36.89197" lon="-3.29699">
        <ele>716.98985</ele>
        <time>2022-02-25T09:12:40.988Z</time>
      </trkpt>
      <trkpt lat="36.8917" lon="-3.29861">
        <ele>707.349909</ele>
        <time>2022-02-25T09:13:00.699Z</time>
      </trkpt>
      <trkpt lat="36.89155" lon="-3.29891">
        <ele>705.260536</ele>
        <time>2022-02-25T09:13:04.889Z</time>
      </trkpt>
      <trkpt lat="36.89101" lon="-3.29955">
        <ele>698.946115</ele>
        <time>2022-02-25T09:13:15.748Z</time>
      </trkpt>
      <trkpt lat="36.89077" lon="-3.29995">
        <ele>695.538644</ele>
        <time>2022-02-25T09:13:21.528Z</time>
      </trkpt>
      <trkpt lat="36.8903" lon="-3.30091">
        <ele>687.678963</ele>
        <time>2022-02-25T09:13:34.618Z</time>
      </trkpt>
      <trkpt lat="36.89015" lon="-3.3011">
        <ele>685.767957</ele>
        <time>2022-02-25T09:13:37.560Z</time>
      </trkpt>
      <trkpt lat="36.88994" lon="-3.30127">
        <ele>683.408872</ele>
        <time>2022-02-25T09:13:41.181Z</time>
      </trkpt>
      <trkpt lat="36.8884" lon="-3.30197">
        <ele>669.460086</ele>
        <time>2022-02-25T09:14:04.806Z</time>
      </trkpt>
      <trkpt lat="36.88813" lon="-3.30192">
        <ele>667.62027</ele>
        <time>2022-02-25T09:14:08.772Z</time>
      </trkpt>
      <trkpt lat="36.88757" lon="-3.30164">
        <ele>663.475514</ele>
        <time>2022-02-25T09:14:17.956Z</time>
      </trkpt>
      <trkpt lat="36.88725" lon="-3.30165">
        <ele>661.337424</ele>
        <time>2022-02-25T09:14:22.950Z</time>
      </trkpt>
      <trkpt lat="36.88698" lon="-3.30183">
        <ele>659.996532</ele>
        <time>2022-02-25T09:14:28.132Z</time>
      </trkpt>
      <trkpt lat="36.88663" lon="-3.30224">
        <ele>658.627411</ele>
        <time>2022-02-25T09:14:36.387Z</time>
      </trkpt>
      <trkpt lat="36.88638" lon="-3.30237">
        <ele>657.856332</ele>
        <time>2022-02-25T09:14:41.087Z</time>
      </trkpt>
      <trkpt lat="36.8862" lon="-3.30234">
        <ele>657.319196</ele>
        <time>2022-02-25T09:14:44.348Z</time>
      </trkpt>
      <trkpt lat="36.88573" lon="-3.30207">
        <ele>655.850907</ele>
        <time>2022-02-25T09:14:53.515Z</time>
      </trkpt>
      <trkpt lat="36.88541" lon="-3.30201">
        <ele>655.297721</ele>
        <time>2022-02-25T09:14:59.481Z</time>
      </trkpt>
      <trkpt lat="36.88421" lon="-3.30248">
        <ele>654.422945</ele>
        <time>2022-02-25T09:15:25.823Z</time>
      </trkpt>
      <trkpt lat="36.88396" lon="-3.3025">
        <ele>654.25376</ele>
        <time>2022-02-25T09:15:31.088Z</time>
      </trkpt>
      <trkpt lat="36.88365" lon="-3.30242">
        <ele>654.410126</ele>
        <time>2022-02-25T09:15:37.966Z</time>
      </trkpt>
      <trkpt lat="36.88336" lon="-3.30221">
        <ele>654.821608</ele>
        <time>2022-02-25T09:15:45.776Z</time>
      </trkpt>
      <trkpt lat="36.88285" lon="-3.30149">
        <ele>655.770352</ele>
        <time>2022-02-25T09:16:07.338Z</time>
      </trkpt>
      <trkpt lat="36.88266" lon="-3.30134">
        <ele>656.04714</ele>
        <time>2022-02-25T09:16:14.900Z</time>
      </trkpt>
      <trkpt lat="36.88244" lon="-3.30125">
        <ele>656.330203</ele>
        <time>2022-02-25T09:16:22.468Z</time>
      </trkpt>
      <trkpt lat="36.88171" lon="-3.30121">
        <ele>658.178972</ele>
        <time>2022-02-25T09:16:50.279Z</time>
      </trkpt>
      <trkpt lat="36.88142" lon="-3.30105">
        <ele>658.991506</ele>
        <time>2022-02-25T09:17:03.652Z</time>
      </trkpt>
      <trkpt lat="36.88113" lon="-3.30081">
        <ele>659.894696</ele>
        <time>2022-02-25T09:17:16.546Z</time>
      </trkpt>
      <trkpt lat="36.88075" lon="-3.30031">
        <ele>661.027528</ele>
        <time>2022-02-25T09:17:34.284Z</time>
      </trkpt>
      <trkpt lat="36.88056" lon="-3.30013">
        <ele>660.975096</ele>
        <time>2022-02-25T09:17:39.914Z</time>
      </trkpt>
      <trkpt lat="36.88041" lon="-3.30003">
        <ele>660.936092</ele>
        <time>2022-02-25T09:17:43.645Z</time>
      </trkpt>
      <trkpt lat="36.88033" lon="-3.30002">
        <ele>660.918298</ele>
        <time>2022-02-25T09:17:45.343Z</time>
      </trkpt>
      <trkpt lat="36.87999" lon="-3.30014">
        <ele>660.840963</ele>
        <time>2022-02-25T09:17:52.521Z</time>
      </trkpt>
      <trkpt lat="36.87978" lon="-3.30015">
        <ele>660.793449</ele>
        <time>2022-02-25T09:17:56.691Z</time>
      </trkpt>
      <trkpt lat="36.87929" lon="-3.30018">
        <ele>660.684868</ele>
        <time>2022-02-25T09:18:07.586Z</time>
      </trkpt>
      <trkpt lat="36.87921" lon="-3.3002">
        <ele>660.667355</ele>
        <time>2022-02-25T09:18:09.544Z</time>
      </trkpt>
      <trkpt lat="36.87915" lon="-3.30026">
        <ele>660.645195</ele>
        <time>2022-02-25T09:18:10.968Z</time>
      </trkpt>
      <trkpt lat="36.87912" lon="-3.3003">
        <ele>660.597796</ele>
        <time>2022-02-25T09:18:11.835Z</time>
      </trkpt>
      <trkpt lat="36.87907" lon="-3.30036">
        <ele>660.517241</ele>
        <time>2022-02-25T09:18:13.306Z</time>
      </trkpt>
      <trkpt lat="36.87903" lon="-3.30041">
        <ele>660.462197</ele>
        <time>2022-02-25T09:18:14.297Z</time>
      </trkpt>
      <trkpt lat="36.87852" lon="-3.30109">
        <ele>659.665745</ele>
        <time>2022-02-25T09:18:27.221Z</time>
      </trkpt>
      <trkpt lat="36.87845" lon="-3.30118">
        <ele>659.558076</ele>
        <time>2022-02-25T09:18:29.181Z</time>
      </trkpt>
      <trkpt lat="36.87837" lon="-3.30139">
        <ele>659.356192</ele>
        <time>2022-02-25T09:18:32.681Z</time>
      </trkpt>
      <trkpt lat="36.87835" lon="-3.30155">
        <ele>659.215301</ele>
        <time>2022-02-25T09:18:35.750Z</time>
      </trkpt>
      <trkpt lat="36.87844" lon="-3.30188">
        <ele>658.917799</ele>
        <time>2022-02-25T09:18:41.433Z</time>
      </trkpt>
      <trkpt lat="36.87886" lon="-3.30216">
        <ele>658.889543</ele>
        <time>2022-02-25T09:18:55.560Z</time>
      </trkpt>
      <trkpt lat="36.87895" lon="-3.30221">
        <ele>658.946153</ele>
        <time>2022-02-25T09:18:58.556Z</time>
      </trkpt>
      <trkpt lat="36.87906" lon="-3.30228">
        <ele>659.011673</ele>
        <time>2022-02-25T09:19:02.592Z</time>
      </trkpt>
      <trkpt lat="36.87919" lon="-3.3024">
        <ele>659.101993</ele>
        <time>2022-02-25T09:19:08.530Z</time>
      </trkpt>
      <trkpt lat="36.88005" lon="-3.3033">
        <ele>659.720346</ele>
        <time>2022-02-25T09:19:33.839Z</time>
      </trkpt>
      <trkpt lat="36.88018" lon="-3.30352">
        <ele>660.015931</ele>
        <time>2022-02-25T09:19:38.296Z</time>
      </trkpt>
      <trkpt lat="36.88035" lon="-3.30406">
        <ele>660.629407</ele>
        <time>2022-02-25T09:19:49.255Z</time>
      </trkpt>
      <trkpt lat="36.88041" lon="-3.30423">
        <ele>660.835981</ele>
        <time>2022-02-25T09:19:52.409Z</time>
      </trkpt>
      <trkpt lat="36.88055" lon="-3.30441">
        <ele>661.095478</ele>
        <time>2022-02-25T09:20:01.439Z</time>
      </trkpt>
      <trkpt lat="36.88074" lon="-3.30453">
        <ele>661.385492</ele>
        <time>2022-02-25T09:20:08.245Z</time>
      </trkpt>
      <trkpt lat="36.88121" lon="-3.30467">
        <ele>662.019799</ele>
        <time>2022-02-25T09:20:25.781Z</time>
      </trkpt>
      <trkpt lat="36.88142" lon="-3.30483">
        <ele>662.639383</ele>
        <time>2022-02-25T09:20:32.585Z</time>
      </trkpt>
      <trkpt lat="36.88158" lon="-3.30503">
        <ele>663.2916</ele>
        <time>2022-02-25T09:20:39.038Z</time>
      </trkpt>
      <trkpt lat="36.88176" lon="-3.30539">
        <ele>664.266186</ele>
        <time>2022-02-25T09:20:49.225Z</time>
      </trkpt>
      <trkpt lat="36.88188" lon="-3.30558">
        <ele>664.850287</ele>
        <time>2022-02-25T09:20:56.521Z</time>
      </trkpt>
      <trkpt lat="36.8821" lon="-3.30573">
        <ele>665.556064</ele>
        <time>2022-02-25T09:21:05.877Z</time>
      </trkpt>
      <trkpt lat="36.8826" lon="-3.30582">
        <ele>667.024226</ele>
        <time>2022-02-25T09:21:28.115Z</time>
      </trkpt>
      <trkpt lat="36.88314" lon="-3.30611">
        <ele>669.215651</ele>
        <time>2022-02-25T09:21:53.875Z</time>
      </trkpt>
      <trkpt lat="36.88385" lon="-3.30629">
        <ele>672.080804</ele>
        <time>2022-02-25T09:22:19.553Z</time>
      </trkpt>
      <trkpt lat="36.88403" lon="-3.30643">
        <ele>672.899011</ele>
        <time>2022-02-25T09:22:28.187Z</time>
      </trkpt>
      <trkpt lat="36.88449" lon="-3.307">
        <ele>676.376169</ele>
        <time>2022-02-25T09:22:57.250Z</time>
      </trkpt>
      <trkpt lat="36.88571" lon="-3.30768">
        <ele>686.187268</ele>
        <time>2022-02-25T09:24:21.869Z</time>
      </trkpt>
      <trkpt lat="36.88585" lon="-3.30785">
        <ele>687.6407</ele>
        <time>2022-02-25T09:24:35.233Z</time>
      </trkpt>
      <trkpt lat="36.88596" lon="-3.30812">
        <ele>688.85061</ele>
        <time>2022-02-25T09:24:49.737Z</time>
      </trkpt>
      <trkpt lat="36.88599" lon="-3.30828">
        <ele>689.524645</ele>
        <time>2022-02-25T09:24:57.733Z</time>
      </trkpt>
      <trkpt lat="36.88597" lon="-3.3086">
        <ele>690.829165</ele>
        <time>2022-02-25T09:25:13.119Z</time>
      </trkpt>
      <trkpt lat="36.88584" lon="-3.30896">
        <ele>692.42507</ele>
        <time>2022-02-25T09:25:30.985Z</time>
      </trkpt>
      <trkpt lat="36.88465" lon="-3.31149">
        <ele>699.567581</ele>
        <time>2022-02-25T09:26:50.273Z</time>
      </trkpt>
      <trkpt lat="36.88447" lon="-3.31201">
        <ele>700.136537</ele>
        <time>2022-02-25T09:27:00.647Z</time>
      </trkpt>
      <trkpt lat="36.88438" lon="-3.3127">
        <ele>700.184381</ele>
        <time>2022-02-25T09:27:15.117Z</time>
      </trkpt>
      <trkpt lat="36.88428" lon="-3.31309">
        <ele>700.213122</ele>
        <time>2022-02-25T09:27:22.377Z</time>
      </trkpt>
      <trkpt lat="36.88372" lon="-3.31431">
        <ele>699.74768</ele>
        <time>2022-02-25T09:27:46.312Z</time>
      </trkpt>
      <trkpt lat="36.88364" lon="-3.31455">
        <ele>699.430996</ele>
        <time>2022-02-25T09:27:50.298Z</time>
      </trkpt>
      <trkpt lat="36.88354" lon="-3.31529">
        <ele>698.549407</ele>
        <time>2022-02-25T09:28:01.683Z</time>
      </trkpt>
      <trkpt lat="36.88355" lon="-3.31575">
        <ele>698.013175</ele>
        <time>2022-02-25T09:28:08.341Z</time>
      </trkpt>
      <trkpt lat="36.88367" lon="-3.31642">
        <ele>696.93502</ele>
        <time>2022-02-25T09:28:18.206Z</time>
      </trkpt>
      <trkpt lat="36.88381" lon="-3.31699">
        <ele>695.821679</ele>
        <time>2022-02-25T09:28:27.025Z</time>
      </trkpt>
      <trkpt lat="36.88383" lon="-3.31738">
        <ele>695.082295</ele>
        <time>2022-02-25T09:28:32.736Z</time>
      </trkpt>
      <trkpt lat="36.88373" lon="-3.31789">
        <ele>694.09728</ele>
        <time>2022-02-25T09:28:40.161Z</time>
      </trkpt>
      <trkpt lat="36.88346" lon="-3.31889">
        <ele>691.524612</ele>
        <time>2022-02-25T09:28:54.806Z</time>
      </trkpt>
      <trkpt lat="36.88337" lon="-3.31953">
        <ele>689.726158</ele>
        <time>2022-02-25T09:29:03.613Z</time>
      </trkpt>
      <trkpt lat="36.88333" lon="-3.32023">
        <ele>687.8139</ele>
        <time>2022-02-25T09:29:12.809Z</time>
      </trkpt>
      <trkpt lat="36.88336" lon="-3.3213">
        <ele>684.308446</ele>
        <time>2022-02-25T09:29:27.111Z</time>
      </trkpt>
      <trkpt lat="36.88331" lon="-3.32168">
        <ele>682.971512</ele>
        <time>2022-02-25T09:29:32.420Z</time>
      </trkpt>
      <trkpt lat="36.88315" lon="-3.32204">
        <ele>681.557021</ele>
        <time>2022-02-25T09:29:37.825Z</time>
      </trkpt>
      <trkpt lat="36.88263" lon="-3.32273">
        <ele>678.18261</ele>
        <time>2022-02-25T09:29:49.597Z</time>
      </trkpt>
      <trkpt lat="36.88242" lon="-3.32316">
        <ele>676.222087</ele>
        <time>2022-02-25T09:29:55.867Z</time>
      </trkpt>
      <trkpt lat="36.88213" lon="-3.32415">
        <ele>672.099912</ele>
        <time>2022-02-25T09:30:09.257Z</time>
      </trkpt>
      <trkpt lat="36.88195" lon="-3.32446">
        <ele>670.720718</ele>
        <time>2022-02-25T09:30:14.341Z</time>
      </trkpt>
      <trkpt lat="36.88177" lon="-3.32462">
        <ele>670.225308</ele>
        <time>2022-02-25T09:30:18.037Z</time>
      </trkpt>
      <trkpt lat="36.88152" lon="-3.32474">
        <ele>669.598426</ele>
        <time>2022-02-25T09:30:22.791Z</time>
      </trkpt>
      <trkpt lat="36.8812" lon="-3.32476">
        <ele>668.868244</ele>
        <time>2022-02-25T09:30:28.943Z</time>
      </trkpt>
      <trkpt lat="36.88042" lon="-3.32441">
        <ele>666.980845</ele>
        <time>2022-02-25T09:30:45.537Z</time>
      </trkpt>
      <trkpt lat="36.88009" lon="-3.32438">
        <ele>666.006287</ele>
        <time>2022-02-25T09:30:51.141Z</time>
      </trkpt>
      <trkpt lat="36.87986" lon="-3.32446">
        <ele>665.215516</ele>
        <time>2022-02-25T09:30:54.979Z</time>
      </trkpt>
      <trkpt lat="36.87968" lon="-3.32462">
        <ele>664.498293</ele>
        <time>2022-02-25T09:30:58.597Z</time>
      </trkpt>
      <trkpt lat="36.87944" lon="-3.32504">
        <ele>663.128578</ele>
        <time>2022-02-25T09:31:05.770Z</time>
      </trkpt>
      <trkpt lat="36.87941" lon="-3.32556">
        <ele>661.748281</ele>
        <time>2022-02-25T09:31:12.717Z</time>
      </trkpt>
      <trkpt lat="36.87957" lon="-3.32616">
        <ele>660.391976</ele>
        <time>2022-02-25T09:31:21.242Z</time>
      </trkpt>
      <trkpt lat="36.87968" lon="-3.32653">
        <ele>659.823757</ele>
        <time>2022-02-25T09:31:26.766Z</time>
      </trkpt>
      <trkpt lat="36.87972" lon="-3.32699">
        <ele>659.161829</ele>
        <time>2022-02-25T09:31:33.310Z</time>
      </trkpt>
      <trkpt lat="36.87965" lon="-3.32738">
        <ele>658.578538</ele>
        <time>2022-02-25T09:31:39.321Z</time>
      </trkpt>
      <trkpt lat="36.87949" lon="-3.32771">
        <ele>658.036889</ele>
        <time>2022-02-25T09:31:45.972Z</time>
      </trkpt>
      <trkpt lat="36.8789" lon="-3.32835">
        <ele>656.792094</ele>
        <time>2022-02-25T09:32:04.439Z</time>
      </trkpt>
      <trkpt lat="36.87878" lon="-3.32855">
        <ele>656.509147</ele>
        <time>2022-02-25T09:32:07.809Z</time>
      </trkpt>
      <trkpt lat="36.87871" lon="-3.32878">
        <ele>656.21375</ele>
        <time>2022-02-25T09:32:11.905Z</time>
      </trkpt>
      <trkpt lat="36.87876" lon="-3.32917">
        <ele>655.762144</ele>
        <time>2022-02-25T09:32:17.636Z</time>
      </trkpt>
      <trkpt lat="36.87889" lon="-3.32939">
        <ele>655.433566</ele>
        <time>2022-02-25T09:32:21.394Z</time>
      </trkpt>
      <trkpt lat="36.87982" lon="-3.33033">
        <ele>653.691332</ele>
        <time>2022-02-25T09:32:43.395Z</time>
      </trkpt>
      <trkpt lat="36.88004" lon="-3.33086">
        <ele>652.986923</ele>
        <time>2022-02-25T09:32:53.255Z</time>
      </trkpt>
      <trkpt lat="36.88007" lon="-3.33138">
        <ele>652.377676</ele>
        <time>2022-02-25T09:33:01.465Z</time>
      </trkpt>
      <trkpt lat="36.8799" lon="-3.33228">
        <ele>651.063422</ele>
        <time>2022-02-25T09:33:15.813Z</time>
      </trkpt>
      <trkpt lat="36.87989" lon="-3.33259">
        <ele>650.599218</ele>
        <time>2022-02-25T09:33:20.571Z</time>
      </trkpt>
      <trkpt lat="36.87999" lon="-3.333">
        <ele>649.982908</ele>
        <time>2022-02-25T09:33:26.481Z</time>
      </trkpt>
      <trkpt lat="36.88045" lon="-3.33391">
        <ele>648.376625</ele>
        <time>2022-02-25T09:33:42.133Z</time>
      </trkpt>
      <trkpt lat="36.88053" lon="-3.33421">
        <ele>647.895566</ele>
        <time>2022-02-25T09:33:46.735Z</time>
      </trkpt>
      <trkpt lat="36.88055" lon="-3.33461">
        <ele>647.29666</ele>
        <time>2022-02-25T09:33:52.578Z</time>
      </trkpt>
      <trkpt lat="36.88052" lon="-3.33483">
        <ele>646.944681</ele>
        <time>2022-02-25T09:33:56.162Z</time>
      </trkpt>
      <trkpt lat="36.88026" lon="-3.33581">
        <ele>645.222813</ele>
        <time>2022-02-25T09:34:11.670Z</time>
      </trkpt>
      <trkpt lat="36.88033" lon="-3.3373">
        <ele>641.265697</ele>
        <time>2022-02-25T09:34:33.019Z</time>
      </trkpt>
      <trkpt lat="36.88031" lon="-3.3377">
        <ele>640.207542</ele>
        <time>2022-02-25T09:34:38.193Z</time>
      </trkpt>
      <trkpt lat="36.88016" lon="-3.3383">
        <ele>636.971161</ele>
        <time>2022-02-25T09:34:45.821Z</time>
      </trkpt>
      <trkpt lat="36.87988" lon="-3.33888">
        <ele>632.459379</ele>
        <time>2022-02-25T09:34:53.771Z</time>
      </trkpt>
      <trkpt lat="36.8795" lon="-3.33931">
        <ele>628.203858</ele>
        <time>2022-02-25T09:35:01.141Z</time>
      </trkpt>
      <trkpt lat="36.87888" lon="-3.33982">
        <ele>622.000772</ele>
        <time>2022-02-25T09:35:11.747Z</time>
      </trkpt>
      <trkpt lat="36.87844" lon="-3.34047">
        <ele>616.149498</ele>
        <time>2022-02-25T09:35:21.573Z</time>
      </trkpt>
      <trkpt lat="36.87826" lon="-3.34063">
        <ele>614.230108</ele>
        <time>2022-02-25T09:35:24.835Z</time>
      </trkpt>
      <trkpt lat="36.87788" lon="-3.34073">
        <ele>610.881256</ele>
        <time>2022-02-25T09:35:30.662Z</time>
      </trkpt>
      <trkpt lat="36.87632" lon="-3.34079">
        <ele>595.721409</ele>
        <time>2022-02-25T09:35:53.064Z</time>
      </trkpt>
      <trkpt lat="36.87594" lon="-3.3409">
        <ele>591.814813</ele>
        <time>2022-02-25T09:35:58.471Z</time>
      </trkpt>
      <trkpt lat="36.87563" lon="-3.34111">
        <ele>588.152024</ele>
        <time>2022-02-25T09:36:03.273Z</time>
      </trkpt>
      <trkpt lat="36.87544" lon="-3.34139">
        <ele>585.098344</ele>
        <time>2022-02-25T09:36:07.333Z</time>
      </trkpt>
      <trkpt lat="36.87534" lon="-3.34168">
        <ele>582.419596</ele>
        <time>2022-02-25T09:36:10.891Z</time>
      </trkpt>
      <trkpt lat="36.87534" lon="-3.34203">
        <ele>579.527217</ele>
        <time>2022-02-25T09:36:14.761Z</time>
      </trkpt>
      <trkpt lat="36.87544" lon="-3.34242">
        <ele>576.094948</ele>
        <time>2022-02-25T09:36:19.355Z</time>
      </trkpt>
      <trkpt lat="36.87552" lon="-3.34255">
        <ele>574.709598</ele>
        <time>2022-02-25T09:36:21.177Z</time>
      </trkpt>
      <trkpt lat="36.8756" lon="-3.34268">
        <ele>573.324249</ele>
        <time>2022-02-25T09:36:23.100Z</time>
      </trkpt>
      <trkpt lat="36.87589" lon="-3.34296">
        <ele>571.081532</ele>
        <time>2022-02-25T09:36:28.493Z</time>
      </trkpt>
      <trkpt lat="36.87624" lon="-3.34319">
        <ele>569.094918</ele>
        <time>2022-02-25T09:36:34.931Z</time>
      </trkpt>
      <trkpt lat="36.87684" lon="-3.34345">
        <ele>565.865551</ele>
        <time>2022-02-25T09:36:45.980Z</time>
      </trkpt>
      <trkpt lat="36.87742" lon="-3.34331">
        <ele>562.92147</ele>
        <time>2022-02-25T09:36:55.526Z</time>
      </trkpt>
      <trkpt lat="36.87793" lon="-3.34351">
        <ele>560.170216</ele>
        <time>2022-02-25T09:37:03.816Z</time>
      </trkpt>
      <trkpt lat="36.87836" lon="-3.34339">
        <ele>557.931431</ele>
        <time>2022-02-25T09:37:10.551Z</time>
      </trkpt>
      <trkpt lat="36.87917" lon="-3.3434">
        <ele>553.939417</ele>
        <time>2022-02-25T09:37:23.524Z</time>
      </trkpt>
      <trkpt lat="36.87931" lon="-3.34333">
        <ele>553.451914</ele>
        <time>2022-02-25T09:37:25.965Z</time>
      </trkpt>
      <trkpt lat="36.87972" lon="-3.34297">
        <ele>551.843068</ele>
        <time>2022-02-25T09:37:34.057Z</time>
      </trkpt>
      <trkpt lat="36.88031" lon="-3.34281">
        <ele>549.907665</ele>
        <time>2022-02-25T09:37:44.309Z</time>
      </trkpt>
      <trkpt lat="36.88093" lon="-3.34244">
        <ele>549.129016</ele>
        <time>2022-02-25T09:37:57.657Z</time>
      </trkpt>
      <trkpt lat="36.88139" lon="-3.34235">
        <ele>550.323862</ele>
        <time>2022-02-25T09:38:09.403Z</time>
      </trkpt>
      <trkpt lat="36.88181" lon="-3.34206">
        <ele>551.556083</ele>
        <time>2022-02-25T09:38:25.551Z</time>
      </trkpt>
      <trkpt lat="36.88277" lon="-3.34168">
        <ele>557.030994</ele>
        <time>2022-02-25T09:39:18.194Z</time>
      </trkpt>
      <trkpt lat="36.88326" lon="-3.34162">
        <ele>561.793282</ele>
        <time>2022-02-25T09:39:51.711Z</time>
      </trkpt>
      <trkpt lat="36.8838" lon="-3.34175">
        <ele>567.175073</ele>
        <time>2022-02-25T09:40:35.583Z</time>
      </trkpt>
      <trkpt lat="36.88408" lon="-3.34191">
        <ele>570.114782</ele>
        <time>2022-02-25T09:41:04.469Z</time>
      </trkpt>
      <trkpt lat="36.88434" lon="-3.34216">
        <ele>572.757083</ele>
        <time>2022-02-25T09:41:32.797Z</time>
      </trkpt>
      <trkpt lat="36.88451" lon="-3.34245">
        <ele>574.956321</ele>
        <time>2022-02-25T09:41:53.374Z</time>
      </trkpt>
      <trkpt lat="36.8846" lon="-3.34273">
        <ele>576.780301</ele>
        <time>2022-02-25T09:42:08.345Z</time>
      </trkpt>
      <trkpt lat="36.88471" lon="-3.34348">
        <ele>581.478583</ele>
        <time>2022-02-25T09:42:44.346Z</time>
      </trkpt>
      <trkpt lat="36.88485" lon="-3.344">
        <ele>584.229022</ele>
        <time>2022-02-25T09:43:01.655Z</time>
      </trkpt>
      <trkpt lat="36.88505" lon="-3.34433">
        <ele>583.252545</ele>
        <time>2022-02-25T09:43:12.402Z</time>
      </trkpt>
      <trkpt lat="36.88544" lon="-3.34498">
        <ele>581.36093</ele>
        <time>2022-02-25T09:43:24.600Z</time>
      </trkpt>
      <trkpt lat="36.88595" lon="-3.34617">
        <ele>577.716779</ele>
        <time>2022-02-25T09:43:40.513Z</time>
      </trkpt>
      <trkpt lat="36.88613" lon="-3.3464">
        <ele>576.5549</ele>
        <time>2022-02-25T09:43:44.486Z</time>
      </trkpt>
      <trkpt lat="36.8863" lon="-3.34649">
        <ele>575.741716</ele>
        <time>2022-02-25T09:43:47.262Z</time>
      </trkpt>
      <trkpt lat="36.88691" lon="-3.34653">
        <ele>573.045866</ele>
        <time>2022-02-25T09:43:57.374Z</time>
      </trkpt>
      <trkpt lat="36.8875" lon="-3.34665">
        <ele>571.918305</ele>
        <time>2022-02-25T09:44:08.601Z</time>
      </trkpt>
      <trkpt lat="36.88781" lon="-3.34681">
        <ele>573.412647</ele>
        <time>2022-02-25T09:44:16.721Z</time>
      </trkpt>
      <trkpt lat="36.88817" lon="-3.34718">
        <ele>575.524318</ele>
        <time>2022-02-25T09:44:42.152Z</time>
      </trkpt>
      <trkpt lat="36.8884" lon="-3.34761">
        <ele>577.383787</ele>
        <time>2022-02-25T09:45:05.328Z</time>
      </trkpt>
      <trkpt lat="36.88846" lon="-3.34793">
        <ele>578.553313</ele>
        <time>2022-02-25T09:45:21.448Z</time>
      </trkpt>
      <trkpt lat="36.88848" lon="-3.34848">
        <ele>580.470079</ele>
        <time>2022-02-25T09:45:48.483Z</time>
      </trkpt>
      <trkpt lat="36.88837" lon="-3.34888">
        <ele>581.881302</ele>
        <time>2022-02-25T09:46:07.352Z</time>
      </trkpt>
      <trkpt lat="36.88845" lon="-3.3489">
        <ele>582.241918</ele>
        <time>2022-02-25T09:46:11.124Z</time>
      </trkpt>
      <trkpt lat="36.88849" lon="-3.349">
        <ele>582.621593</ele>
        <time>2022-02-25T09:46:16.742Z</time>
      </trkpt>
      <trkpt lat="36.88848" lon="-3.34913">
        <ele>583.069946</ele>
        <time>2022-02-25T09:46:23.919Z</time>
      </trkpt>
      <trkpt lat="36.88801" lon="-3.35004">
        <ele>586.732023</ele>
        <time>2022-02-25T09:47:08.998Z</time>
      </trkpt>
      <trkpt lat="36.88787" lon="-3.35062">
        <ele>585.586787</ele>
        <time>2022-02-25T09:47:26.413Z</time>
      </trkpt>
      <trkpt lat="36.88778" lon="-3.35072">
        <ele>585.241041</ele>
        <time>2022-02-25T09:47:30.359Z</time>
      </trkpt>
      <trkpt lat="36.8877" lon="-3.351">
        <ele>584.584922</ele>
        <time>2022-02-25T09:47:37.812Z</time>
      </trkpt>
      <trkpt lat="36.88735" lon="-3.3528">
        <ele>578.401611</ele>
        <time>2022-02-25T09:48:20.868Z</time>
      </trkpt>
      <trkpt lat="36.88736" lon="-3.35348">
        <ele>574.643832</ele>
        <time>2022-02-25T09:48:35.647Z</time>
      </trkpt>
      <trkpt lat="36.88728" lon="-3.35464">
        <ele>567.49793</ele>
        <time>2022-02-25T09:49:00.566Z</time>
      </trkpt>
      <trkpt lat="36.88713" lon="-3.35494">
        <ele>564.547343</ele>
        <time>2022-02-25T09:49:07.877Z</time>
      </trkpt>
      <trkpt lat="36.8869" lon="-3.35567">
        <ele>557.960904</ele>
        <time>2022-02-25T09:49:24.028Z</time>
      </trkpt>
      <trkpt lat="36.88687" lon="-3.35657">
        <ele>550.45086</ele>
        <time>2022-02-25T09:49:42.033Z</time>
      </trkpt>
      <trkpt lat="36.88697" lon="-3.35698">
        <ele>546.337374</ele>
        <time>2022-02-25T09:49:50.654Z</time>
      </trkpt>
      <trkpt lat="36.88689" lon="-3.35728">
        <ele>543.307142</ele>
        <time>2022-02-25T09:49:57.023Z</time>
      </trkpt>
      <trkpt lat="36.88684" lon="-3.35772">
        <ele>539.139475</ele>
        <time>2022-02-25T09:50:05.757Z</time>
      </trkpt>
      <trkpt lat="36.88689" lon="-3.35797">
        <ele>536.68941</ele>
        <time>2022-02-25T09:50:10.877Z</time>
      </trkpt>
      <trkpt lat="36.88678" lon="-3.35885">
        <ele>528.437037</ele>
        <time>2022-02-25T09:50:28.617Z</time>
      </trkpt>
      <trkpt lat="36.88679" lon="-3.35941">
        <ele>524.019748</ele>
        <time>2022-02-25T09:50:40.061Z</time>
      </trkpt>
      <trkpt lat="36.88686" lon="-3.35986">
        <ele>520.386179</ele>
        <time>2022-02-25T09:50:49.505Z</time>
      </trkpt>
      <trkpt lat="36.8868" lon="-3.3602">
        <ele>517.709157</ele>
        <time>2022-02-25T09:50:56.581Z</time>
      </trkpt>
      <trkpt lat="36.88673" lon="-3.36149">
        <ele>508.58038</ele>
        <time>2022-02-25T09:51:24.010Z</time>
      </trkpt>
      <trkpt lat="36.88683" lon="-3.36211">
        <ele>504.874834</ele>
        <time>2022-02-25T09:51:37.680Z</time>
      </trkpt>
      <trkpt lat="36.88778" lon="-3.36442">
        <ele>491.088921</ele>
        <time>2022-02-25T09:52:35.076Z</time>
      </trkpt>
      <trkpt lat="36.888" lon="-3.36475">
        <ele>488.992453</ele>
        <time>2022-02-25T09:52:45.033Z</time>
      </trkpt>
      <trkpt lat="36.88834" lon="-3.36516">
        <ele>485.181344</ele>
        <time>2022-02-25T09:52:58.774Z</time>
      </trkpt>
      <trkpt lat="36.88898" lon="-3.36537">
        <ele>478.119613</ele>
        <time>2022-02-25T09:53:16.351Z</time>
      </trkpt>
      <trkpt lat="36.88936" lon="-3.36539">
        <ele>474.022125</ele>
        <time>2022-02-25T09:53:25.962Z</time>
      </trkpt>
      <trkpt lat="36.88955" lon="-3.36568">
        <ele>470.856571</ele>
        <time>2022-02-25T09:53:33.290Z</time>
      </trkpt>
      <trkpt lat="36.89006" lon="-3.36738">
        <ele>445.480588</ele>
        <time>2022-02-25T09:54:07.638Z</time>
      </trkpt>
      <trkpt lat="36.8901" lon="-3.36791">
        <ele>437.518939</ele>
        <time>2022-02-25T09:54:17.391Z</time>
      </trkpt>
      <trkpt lat="36.89026" lon="-3.36823">
        <ele>431.391372</ele>
        <time>2022-02-25T09:54:24.585Z</time>
      </trkpt>
      <trkpt lat="36.89034" lon="-3.3689">
        <ele>420.136371</ele>
        <time>2022-02-25T09:54:37.043Z</time>
      </trkpt>
      <trkpt lat="36.89069" lon="-3.36935">
        <ele>409.602758</ele>
        <time>2022-02-25T09:54:48.611Z</time>
      </trkpt>
      <trkpt lat="36.89092" lon="-3.3699">
        <ele>399.099122</ele>
        <time>2022-02-25T09:55:00.221Z</time>
      </trkpt>
      <trkpt lat="36.89087" lon="-3.37018">
        <ele>395.066578</ele>
        <time>2022-02-25T09:55:05.538Z</time>
      </trkpt>
      <trkpt lat="36.89052" lon="-3.37066">
        <ele>387.685798</ele>
        <time>2022-02-25T09:55:17.853Z</time>
      </trkpt>
      <trkpt lat="36.891" lon="-3.37119">
        <ele>378.691726</ele>
        <time>2022-02-25T09:55:33.257Z</time>
      </trkpt>
      <trkpt lat="36.891" lon="-3.37155">
        <ele>374.673628</ele>
        <time>2022-02-25T09:55:40.361Z</time>
      </trkpt>
      <trkpt lat="36.89057" lon="-3.37262">
        <ele>369.617239</ele>
        <time>2022-02-25T09:56:07.707Z</time>
      </trkpt>
      <trkpt lat="36.89049" lon="-3.37317">
        <ele>368.671319</ele>
        <time>2022-02-25T09:56:26.392Z</time>
      </trkpt>
      <trkpt lat="36.89018" lon="-3.37425">
        <ele>366.78926</ele>
        <time>2022-02-25T09:57:06.121Z</time>
      </trkpt>
      <trkpt lat="36.89002" lon="-3.37533">
        <ele>365.082273</ele>
        <time>2022-02-25T09:57:36.217Z</time>
      </trkpt>
      <trkpt lat="36.88971" lon="-3.37659">
        <ele>361.836562</ele>
        <time>2022-02-25T09:58:06.964Z</time>
      </trkpt>
      <trkpt lat="36.8894" lon="-3.37749">
        <ele>358.025674</ele>
        <time>2022-02-25T09:58:29.088Z</time>
      </trkpt>
      <trkpt lat="36.88926" lon="-3.37792">
        <ele>356.190745</ele>
        <time>2022-02-25T09:58:39.884Z</time>
      </trkpt>
      <trkpt lat="36.88924" lon="-3.37947">
        <ele>351.863144</ele>
        <time>2022-02-25T09:59:17.096Z</time>
      </trkpt>
      <trkpt lat="36.88919" lon="-3.38012">
        <ele>350.206252</ele>
        <time>2022-02-25T09:59:33.967Z</time>
      </trkpt>
      <trkpt lat="36.8893" lon="-3.38082">
        <ele>348.893705</ele>
        <time>2022-02-25T09:59:52.245Z</time>
      </trkpt>
      <trkpt lat="36.88933" lon="-3.38167">
        <ele>347.836395</ele>
        <time>2022-02-25T10:00:14.464Z</time>
      </trkpt>
      <trkpt lat="36.8893" lon="-3.38218">
        <ele>347.191981</ele>
        <time>2022-02-25T10:00:28.321Z</time>
      </trkpt>
      <trkpt lat="36.88911" lon="-3.38298">
        <ele>346.318224</ele>
        <time>2022-02-25T10:00:51.505Z</time>
      </trkpt>
      <trkpt lat="36.88878" lon="-3.38368">
        <ele>345.712685</ele>
        <time>2022-02-25T10:01:14.593Z</time>
      </trkpt>
      <trkpt lat="36.88864" lon="-3.38437">
        <ele>345.181474</ele>
        <time>2022-02-25T10:01:34.484Z</time>
      </trkpt>
      <trkpt lat="36.88868" lon="-3.38485">
        <ele>344.768149</ele>
        <time>2022-02-25T10:01:47.363Z</time>
      </trkpt>
      <trkpt lat="36.88895" lon="-3.38534">
        <ele>343.835228</ele>
        <time>2022-02-25T10:02:03.186Z</time>
      </trkpt>
      <trkpt lat="36.88911" lon="-3.38621">
        <ele>342.440597</ele>
        <time>2022-02-25T10:02:26.368Z</time>
      </trkpt>
      <trkpt lat="36.88916" lon="-3.3868">
        <ele>341.510697</ele>
        <time>2022-02-25T10:02:41.554Z</time>
      </trkpt>
      <trkpt lat="36.88908" lon="-3.38742">
        <ele>340.442888</ele>
        <time>2022-02-25T10:02:57.517Z</time>
      </trkpt>
      <trkpt lat="36.88913" lon="-3.388">
        <ele>339.429741</ele>
        <time>2022-02-25T10:03:12.574Z</time>
      </trkpt>
      <trkpt lat="36.88912" lon="-3.38892">
        <ele>337.851126</ele>
        <time>2022-02-25T10:03:36.372Z</time>
      </trkpt>
      <trkpt lat="36.88933" lon="-3.39021">
        <ele>336.158712</ele>
        <time>2022-02-25T10:04:11.139Z</time>
      </trkpt>
      <trkpt lat="36.88926" lon="-3.39091">
        <ele>335.298589</ele>
        <time>2022-02-25T10:04:30.193Z</time>
      </trkpt>
      <trkpt lat="36.88877" lon="-3.39257">
        <ele>333.651278</ele>
        <time>2022-02-25T10:05:18.676Z</time>
      </trkpt>
      <trkpt lat="36.88852" lon="-3.39325">
        <ele>333.017884</ele>
        <time>2022-02-25T10:05:39.443Z</time>
      </trkpt>
      <trkpt lat="36.88791" lon="-3.39459">
        <ele>331.84209</ele>
        <time>2022-02-25T10:06:21.376Z</time>
      </trkpt>
      <trkpt lat="36.88744" lon="-3.3953">
        <ele>331.253638</ele>
        <time>2022-02-25T10:06:47.149Z</time>
      </trkpt>
      <trkpt lat="36.88724" lon="-3.39561">
        <ele>331.838246</ele>
        <time>2022-02-25T10:06:58.610Z</time>
      </trkpt>
      <trkpt lat="36.88681" lon="-3.39587">
        <ele>332.721162</ele>
        <time>2022-02-25T10:07:17.443Z</time>
      </trkpt>
      <trkpt lat="36.88647" lon="-3.39648">
        <ele>333.799193</ele>
        <time>2022-02-25T10:07:46.033Z</time>
      </trkpt>
      <trkpt lat="36.88635" lon="-3.39684">
        <ele>334.368438</ele>
        <time>2022-02-25T10:08:03.686Z</time>
      </trkpt>
      <trkpt lat="36.88608" lon="-3.3973">
        <ele>337.272951</ele>
        <time>2022-02-25T10:08:32.479Z</time>
      </trkpt>
      <trkpt lat="36.88579" lon="-3.39757">
        <ele>339.856353</ele>
        <time>2022-02-25T10:08:54.876Z</time>
      </trkpt>
      <trkpt lat="36.88572" lon="-3.39793">
        <ele>341.970103</ele>
        <time>2022-02-25T10:09:13.140Z</time>
      </trkpt>
      <trkpt lat="36.88506" lon="-3.39804">
        <ele>346.653183</ele>
        <time>2022-02-25T10:09:54.958Z</time>
      </trkpt>
      <trkpt lat="36.88485" lon="-3.39833">
        <ele>349.04355</ele>
        <time>2022-02-25T10:10:15.602Z</time>
      </trkpt>
      <trkpt lat="36.88483" lon="-3.39848">
        <ele>349.949101</ele>
        <time>2022-02-25T10:10:24.469Z</time>
      </trkpt>
      <trkpt lat="36.88498" lon="-3.3989">
        <ele>352.807856</ele>
        <time>2022-02-25T10:10:49.595Z</time>
      </trkpt>
      <trkpt lat="36.88497" lon="-3.39912">
        <ele>354.160587</ele>
        <time>2022-02-25T10:11:00.261Z</time>
      </trkpt>
      <trkpt lat="36.88506" lon="-3.39942">
        <ele>356.167099</ele>
        <time>2022-02-25T10:11:16.964Z</time>
      </trkpt>
      <trkpt lat="36.88486" lon="-3.39952">
        <ele>357.82678</ele>
        <time>2022-02-25T10:11:31.243Z</time>
      </trkpt>
      <trkpt lat="36.88498" lon="-3.4">
        <ele>360.876089</ele>
        <time>2022-02-25T10:11:53.895Z</time>
      </trkpt>
      <trkpt lat="36.88465" lon="-3.40012">
        <ele>362.27649</ele>
        <time>2022-02-25T10:12:10.457Z</time>
      </trkpt>
      <trkpt lat="36.8844" lon="-3.40087">
        <ele>364.764024</ele>
        <time>2022-02-25T10:12:38.925Z</time>
      </trkpt>
      <trkpt lat="36.88442" lon="-3.40109">
        <ele>365.445253</ele>
        <time>2022-02-25T10:12:45.693Z</time>
      </trkpt>
      <trkpt lat="36.88437" lon="-3.40128">
        <ele>366.081147</ele>
        <time>2022-02-25T10:12:51.494Z</time>
      </trkpt>
      <trkpt lat="36.88392" lon="-3.40164">
        <ele>368.052142</ele>
        <time>2022-02-25T10:13:10.807Z</time>
      </trkpt>
      <trkpt lat="36.88388" lon="-3.40206">
        <ele>368.809965</ele>
        <time>2022-02-25T10:13:21.614Z</time>
      </trkpt>
      <trkpt lat="36.88407" lon="-3.40264">
        <ele>369.934244</ele>
        <time>2022-02-25T10:13:37.038Z</time>
      </trkpt>
      <trkpt lat="36.88406" lon="-3.40277">
        <ele>370.182174</ele>
        <time>2022-02-25T10:13:40.814Z</time>
      </trkpt>
      <trkpt lat="36.88374" lon="-3.40428">
        <ele>373.887729</ele>
        <time>2022-02-25T10:14:25.559Z</time>
      </trkpt>
      <trkpt lat="36.88372" lon="-3.40481">
        <ele>375.70447</ele>
        <time>2022-02-25T10:14:43.577Z</time>
      </trkpt>
      <trkpt lat="36.88402" lon="-3.40521">
        <ele>377.588715</ele>
        <time>2022-02-25T10:15:05.223Z</time>
      </trkpt>
      <trkpt lat="36.88419" lon="-3.40575">
        <ele>379.594141</ele>
        <time>2022-02-25T10:15:28.888Z</time>
      </trkpt>
      <trkpt lat="36.8846" lon="-3.40648">
        <ele>382.133678</ele>
        <time>2022-02-25T10:16:05.027Z</time>
      </trkpt>
      <trkpt lat="36.8846" lon="-3.40676">
        <ele>382.926654</ele>
        <time>2022-02-25T10:16:16.184Z</time>
      </trkpt>
      <trkpt lat="36.8848" lon="-3.40744">
        <ele>384.979781</ele>
        <time>2022-02-25T10:16:38.164Z</time>
      </trkpt>
      <trkpt lat="36.88481" lon="-3.40825">
        <ele>385.151202</ele>
        <time>2022-02-25T10:16:54.254Z</time>
      </trkpt>
      <trkpt lat="36.88468" lon="-3.40946">
        <ele>382.462365</ele>
        <time>2022-02-25T10:17:11.046Z</time>
      </trkpt>
      <trkpt lat="36.88472" lon="-3.41022">
        <ele>380.552823</ele>
        <time>2022-02-25T10:17:20.571Z</time>
      </trkpt>
      <trkpt lat="36.88485" lon="-3.41143">
        <ele>376.046234</ele>
        <time>2022-02-25T10:17:36.082Z</time>
      </trkpt>
      <trkpt lat="36.88481" lon="-3.41205">
        <ele>373.74686</ele>
        <time>2022-02-25T10:17:44.262Z</time>
      </trkpt>
      <trkpt lat="36.88466" lon="-3.41235">
        <ele>372.402071</ele>
        <time>2022-02-25T10:17:49.025Z</time>
      </trkpt>
      <trkpt lat="36.88439" lon="-3.41257">
        <ele>370.826029</ele>
        <time>2022-02-25T10:17:54.354Z</time>
      </trkpt>
      <trkpt lat="36.88403" lon="-3.41278">
        <ele>368.879607</ele>
        <time>2022-02-25T10:18:00.953Z</time>
      </trkpt>
      <trkpt lat="36.8838" lon="-3.41307">
        <ele>367.272829</ele>
        <time>2022-02-25T10:18:06.365Z</time>
      </trkpt>
      <trkpt lat="36.88335" lon="-3.41514">
        <ele>355.599057</ele>
        <time>2022-02-25T10:18:32.352Z</time>
      </trkpt>
      <trkpt lat="36.88334" lon="-3.41534">
        <ele>354.272352</ele>
        <time>2022-02-25T10:18:34.711Z</time>
      </trkpt>
      <trkpt lat="36.88336" lon="-3.41584">
        <ele>351.106258</ele>
        <time>2022-02-25T10:18:40.296Z</time>
      </trkpt>
      <trkpt lat="36.88341" lon="-3.41648">
        <ele>346.777931</ele>
        <time>2022-02-25T10:18:47.614Z</time>
      </trkpt>
      <trkpt lat="36.88356" lon="-3.41775">
        <ele>338.004743</ele>
        <time>2022-02-25T10:19:02.120Z</time>
      </trkpt>
      <trkpt lat="36.88346" lon="-3.41799">
        <ele>336.191669</ele>
        <time>2022-02-25T10:19:05.299Z</time>
      </trkpt>
      <trkpt lat="36.88325" lon="-3.41815">
        <ele>334.232251</ele>
        <time>2022-02-25T10:19:09.428Z</time>
      </trkpt>
      <trkpt lat="36.88307" lon="-3.41818">
        <ele>334.881346</ele>
        <time>2022-02-25T10:19:12.102Z</time>
      </trkpt>
      <trkpt lat="36.8829" lon="-3.41813">
        <ele>335.52121</ele>
        <time>2022-02-25T10:19:17.614Z</time>
      </trkpt>
      <trkpt lat="36.88233" lon="-3.41766">
        <ele>337.940416</ele>
        <time>2022-02-25T10:19:39.576Z</time>
      </trkpt>
      <trkpt lat="36.8819" lon="-3.41689">
        <ele>340.648882</ele>
        <time>2022-02-25T10:20:29.232Z</time>
      </trkpt>
      <trkpt lat="36.88173" lon="-3.4167">
        <ele>342.977503</ele>
        <time>2022-02-25T10:20:46.981Z</time>
      </trkpt>
      <trkpt lat="36.88157" lon="-3.41663">
        <ele>344.731309</ele>
        <time>2022-02-25T10:21:02.134Z</time>
      </trkpt>
      <trkpt lat="36.88111" lon="-3.41665">
        <ele>349.460232</ele>
        <time>2022-02-25T10:21:39.275Z</time>
      </trkpt>
      <trkpt lat="36.8807" lon="-3.41639">
        <ele>354.182953</ele>
        <time>2022-02-25T10:22:13.941Z</time>
      </trkpt>
      <trkpt lat="36.8802" lon="-3.41621">
        <ele>359.34441</ele>
        <time>2022-02-25T10:22:51.818Z</time>
      </trkpt>
      <trkpt lat="36.88" lon="-3.41624">
        <ele>360.419397</ele>
        <time>2022-02-25T10:23:04.455Z</time>
      </trkpt>
      <trkpt lat="36.87982" lon="-3.41634">
        <ele>361.497564</ele>
        <time>2022-02-25T10:23:16.025Z</time>
      </trkpt>
      <trkpt lat="36.87957" lon="-3.4166">
        <ele>363.162108</ele>
        <time>2022-02-25T10:23:31.150Z</time>
      </trkpt>
      <trkpt lat="36.87949" lon="-3.41681">
        <ele>364.16404</ele>
        <time>2022-02-25T10:23:39.389Z</time>
      </trkpt>
      <trkpt lat="36.87948" lon="-3.41808">
        <ele>369.206954</ele>
        <time>2022-02-25T10:24:20.591Z</time>
      </trkpt>
      <trkpt lat="36.87953" lon="-3.41846">
        <ele>370.220092</ele>
        <time>2022-02-25T10:24:31.682Z</time>
      </trkpt>
      <trkpt lat="36.87982" lon="-3.41915">
        <ele>372.261929</ele>
        <time>2022-02-25T10:24:54.443Z</time>
      </trkpt>
      <trkpt lat="36.87994" lon="-3.41957">
        <ele>373.446733</ele>
        <time>2022-02-25T10:25:07.733Z</time>
      </trkpt>
      <trkpt lat="36.87989" lon="-3.42031">
        <ele>376.189352</ele>
        <time>2022-02-25T10:25:31.924Z</time>
      </trkpt>
      <trkpt lat="36.87989" lon="-3.42083">
        <ele>378.863427</ele>
        <time>2022-02-25T10:25:51.180Z</time>
      </trkpt>
      <trkpt lat="36.8798" lon="-3.42119">
        <ele>380.801692</ele>
        <time>2022-02-25T10:26:06.812Z</time>
      </trkpt>
      <trkpt lat="36.87955" lon="-3.42169">
        <ele>383.867467</ele>
        <time>2022-02-25T10:26:35.703Z</time>
      </trkpt>
      <trkpt lat="36.87904" lon="-3.42235">
        <ele>388.638638</ele>
        <time>2022-02-25T10:27:26.377Z</time>
      </trkpt>
      <trkpt lat="36.8789" lon="-3.42282">
        <ele>391.268063</ele>
        <time>2022-02-25T10:27:53.041Z</time>
      </trkpt>
      <trkpt lat="36.87879" lon="-3.42407">
        <ele>397.916381</ele>
        <time>2022-02-25T10:28:41.281Z</time>
      </trkpt>
      <trkpt lat="36.87916" lon="-3.42469">
        <ele>398.541657</ele>
        <time>2022-02-25T10:29:06.275Z</time>
      </trkpt>
      <trkpt lat="36.87919" lon="-3.42492">
        <ele>398.709292</ele>
        <time>2022-02-25T10:29:12.409Z</time>
      </trkpt>
      <trkpt lat="36.87912" lon="-3.4252">
        <ele>398.916002</ele>
        <time>2022-02-25T10:29:16.903Z</time>
      </trkpt>
      <trkpt lat="36.87877" lon="-3.42559">
        <ele>399.332775</ele>
        <time>2022-02-25T10:29:26.646Z</time>
      </trkpt>
      <trkpt lat="36.8787" lon="-3.42585">
        <ele>399.531955</ele>
        <time>2022-02-25T10:29:30.378Z</time>
      </trkpt>
      <trkpt lat="36.87876" lon="-3.42603">
        <ele>399.647868</ele>
        <time>2022-02-25T10:29:33.604Z</time>
      </trkpt>
      <trkpt lat="36.8792" lon="-3.42664">
        <ele>400.052516</ele>
        <time>2022-02-25T10:29:45.797Z</time>
      </trkpt>
      <trkpt lat="36.87927" lon="-3.4269">
        <ele>400.188147</ele>
        <time>2022-02-25T10:29:54.341Z</time>
      </trkpt>
      <trkpt lat="36.87909" lon="-3.42831">
        <ele>401.566421</ele>
        <time>2022-02-25T10:30:30.968Z</time>
      </trkpt>
      <trkpt lat="36.87916" lon="-3.42917">
        <ele>403.586853</ele>
        <time>2022-02-25T10:30:52.432Z</time>
      </trkpt>
      <trkpt lat="36.87915" lon="-3.43069">
        <ele>407.594425</ele>
        <time>2022-02-25T10:31:44.681Z</time>
      </trkpt>
      <trkpt lat="36.87911" lon="-3.43082">
        <ele>408.048877</ele>
        <time>2022-02-25T10:31:49.670Z</time>
      </trkpt>
      <trkpt lat="36.87893" lon="-3.43098">
        <ele>408.950943</ele>
        <time>2022-02-25T10:32:01.256Z</time>
      </trkpt>
      <trkpt lat="36.87771" lon="-3.43104">
        <ele>413.222925</ele>
        <time>2022-02-25T10:32:53.232Z</time>
      </trkpt>
      <trkpt lat="36.87753" lon="-3.43116">
        <ele>413.077487</ele>
        <time>2022-02-25T10:33:00.501Z</time>
      </trkpt>
      <trkpt lat="36.87747" lon="-3.43134">
        <ele>412.969888</ele>
        <time>2022-02-25T10:33:05.315Z</time>
      </trkpt>
      <trkpt lat="36.87757" lon="-3.43198">
        <ele>412.607041</ele>
        <time>2022-02-25T10:33:17.168Z</time>
      </trkpt>
      <trkpt lat="36.8775" lon="-3.4323">
        <ele>412.421227</ele>
        <time>2022-02-25T10:33:22.232Z</time>
      </trkpt>
      <trkpt lat="36.87693" lon="-3.43318">
        <ele>409.634034</ele>
        <time>2022-02-25T10:33:36.689Z</time>
      </trkpt>
      <trkpt lat="36.87646" lon="-3.43373">
        <ele>405.849219</ele>
        <time>2022-02-25T10:33:46.241Z</time>
      </trkpt>
      <trkpt lat="36.87629" lon="-3.43421">
        <ele>403.373033</ele>
        <time>2022-02-25T10:33:52.589Z</time>
      </trkpt>
      <trkpt lat="36.87622" lon="-3.4343">
        <ele>402.754758</ele>
        <time>2022-02-25T10:33:54.218Z</time>
      </trkpt>
      <trkpt lat="36.87604" lon="-3.43438">
        <ele>401.617041</ele>
        <time>2022-02-25T10:33:57.225Z</time>
      </trkpt>
      <trkpt lat="36.87475" lon="-3.43399">
        <ele>395.296994</ele>
        <time>2022-02-25T10:34:19.022Z</time>
      </trkpt>
      <trkpt lat="36.87447" lon="-3.434">
        <ele>393.933654</ele>
        <time>2022-02-25T10:34:23.579Z</time>
      </trkpt>
      <trkpt lat="36.87432" lon="-3.43413">
        <ele>393.0757</ele>
        <time>2022-02-25T10:34:26.380Z</time>
      </trkpt>
      <trkpt lat="36.8743" lon="-3.4344">
        <ele>391.680571</ele>
        <time>2022-02-25T10:34:29.658Z</time>
      </trkpt>
      <trkpt lat="36.87458" lon="-3.43478">
        <ele>388.791845</ele>
        <time>2022-02-25T10:34:35.911Z</time>
      </trkpt>
      <trkpt lat="36.87472" lon="-3.43508">
        <ele>386.89119</ele>
        <time>2022-02-25T10:34:39.985Z</time>
      </trkpt>
      <trkpt lat="36.87518" lon="-3.43664">
        <ele>378.19344</ele>
        <time>2022-02-25T10:34:59.847Z</time>
      </trkpt>
      <trkpt lat="36.87519" lon="-3.43686">
        <ele>377.235134</ele>
        <time>2022-02-25T10:35:02.439Z</time>
      </trkpt>
      <trkpt lat="36.87514" lon="-3.43699">
        <ele>376.601071</ele>
        <time>2022-02-25T10:35:04.145Z</time>
      </trkpt>
      <trkpt lat="36.87487" lon="-3.4374">
        <ele>374.226922</ele>
        <time>2022-02-25T10:35:10.712Z</time>
      </trkpt>
      <trkpt lat="36.87489" lon="-3.43762">
        <ele>373.237765</ele>
        <time>2022-02-25T10:35:13.552Z</time>
      </trkpt>
      <trkpt lat="36.87512" lon="-3.43819">
        <ele>370.432823</ele>
        <time>2022-02-25T10:35:22.027Z</time>
      </trkpt>
      <trkpt lat="36.87509" lon="-3.43855">
        <ele>369.898972</ele>
        <time>2022-02-25T10:35:27.123Z</time>
      </trkpt>
      <trkpt lat="36.87493" lon="-3.43879">
        <ele>369.43336</ele>
        <time>2022-02-25T10:35:31.671Z</time>
      </trkpt>
      <trkpt lat="36.87472" lon="-3.43892">
        <ele>368.994579</ele>
        <time>2022-02-25T10:35:35.942Z</time>
      </trkpt>
      <trkpt lat="36.87338" lon="-3.43914">
        <ele>365.908156</ele>
        <time>2022-02-25T10:36:02.534Z</time>
      </trkpt>
      <trkpt lat="36.87242" lon="-3.43947">
        <ele>362.370027</ele>
        <time>2022-02-25T10:36:20.834Z</time>
      </trkpt>
      <trkpt lat="36.87231" lon="-3.43958">
        <ele>361.850829</ele>
        <time>2022-02-25T10:36:23.126Z</time>
      </trkpt>
      <trkpt lat="36.87229" lon="-3.4398">
        <ele>361.234186</ele>
        <time>2022-02-25T10:36:25.694Z</time>
      </trkpt>
      <trkpt lat="36.87245" lon="-3.44004">
        <ele>359.771252</ele>
        <time>2022-02-25T10:36:29.361Z</time>
      </trkpt>
      <trkpt lat="36.8733" lon="-3.44039">
        <ele>351.609067</ele>
        <time>2022-02-25T10:36:42.162Z</time>
      </trkpt>
      <trkpt lat="36.87362" lon="-3.44072">
        <ele>347.823057</ele>
        <time>2022-02-25T10:36:47.957Z</time>
      </trkpt>
      <trkpt lat="36.87424" lon="-3.44106">
        <ele>343.591263</ele>
        <time>2022-02-25T10:36:57.755Z</time>
      </trkpt>
      <trkpt lat="36.8746" lon="-3.4414">
        <ele>342.454004</ele>
        <time>2022-02-25T10:37:04.676Z</time>
      </trkpt>
      <trkpt lat="36.87466" lon="-3.44161">
        <ele>342.010114</ele>
        <time>2022-02-25T10:37:07.546Z</time>
      </trkpt>
      <trkpt lat="36.87456" lon="-3.44248">
        <ele>340.230237</ele>
        <time>2022-02-25T10:37:26.885Z</time>
      </trkpt>
      <trkpt lat="36.8746" lon="-3.44279">
        <ele>340.117616</ele>
        <time>2022-02-25T10:37:37.140Z</time>
      </trkpt>
      <trkpt lat="36.87483" lon="-3.4436">
        <ele>343.26568</ele>
        <time>2022-02-25T10:38:07.763Z</time>
      </trkpt>
      <trkpt lat="36.87516" lon="-3.44522">
        <ele>349.739999</ele>
        <time>2022-02-25T10:39:11.772Z</time>
      </trkpt>
      <trkpt lat="36.87539" lon="-3.44585">
        <ele>352.985612</ele>
        <time>2022-02-25T10:39:40.818Z</time>
      </trkpt>
      <trkpt lat="36.87529" lon="-3.44707">
        <ele>358.698665</ele>
        <time>2022-02-25T10:40:33.625Z</time>
      </trkpt>
      <trkpt lat="36.87506" lon="-3.4479">
        <ele>362.268021</ele>
        <time>2022-02-25T10:41:07.442Z</time>
      </trkpt>
      <trkpt lat="36.87511" lon="-3.44813">
        <ele>363.24632</ele>
        <time>2022-02-25T10:41:15.676Z</time>
      </trkpt>
      <trkpt lat="36.87533" lon="-3.44859">
        <ele>365.442349</ele>
        <time>2022-02-25T10:41:35.345Z</time>
      </trkpt>
      <trkpt lat="36.87539" lon="-3.44945">
        <ele>369.327135</ele>
        <time>2022-02-25T10:42:07.252Z</time>
      </trkpt>
      <trkpt lat="36.87538" lon="-3.44966">
        <ele>370.422979</ele>
        <time>2022-02-25T10:42:17.292Z</time>
      </trkpt>
      <trkpt lat="36.87532" lon="-3.44992">
        <ele>371.868603</ele>
        <time>2022-02-25T10:42:26.624Z</time>
      </trkpt>
      <trkpt lat="36.87496" lon="-3.45039">
        <ele>375.229804</ele>
        <time>2022-02-25T10:42:56.452Z</time>
      </trkpt>
      <trkpt lat="36.87486" lon="-3.45056">
        <ele>376.332743</ele>
        <time>2022-02-25T10:43:04.841Z</time>
      </trkpt>
      <trkpt lat="36.87481" lon="-3.45078">
        <ele>377.536429</ele>
        <time>2022-02-25T10:43:17.917Z</time>
      </trkpt>
      <trkpt lat="36.87476" lon="-3.45196">
        <ele>383.199893</ele>
        <time>2022-02-25T10:44:15.306Z</time>
      </trkpt>
      <trkpt lat="36.87462" lon="-3.45307">
        <ele>388.318948</ele>
        <time>2022-02-25T10:44:59.569Z</time>
      </trkpt>
      <trkpt lat="36.87467" lon="-3.45404">
        <ele>391.284038</ele>
        <time>2022-02-25T10:45:27.563Z</time>
      </trkpt>
      <trkpt lat="36.87456" lon="-3.45448">
        <ele>392.338976</ele>
        <time>2022-02-25T10:45:41.337Z</time>
      </trkpt>
      <trkpt lat="36.87439" lon="-3.45463">
        <ele>392.922933</ele>
        <time>2022-02-25T10:45:50.080Z</time>
      </trkpt>
      <trkpt lat="36.8743" lon="-3.45462">
        <ele>393.198109</ele>
        <time>2022-02-25T10:45:53.367Z</time>
      </trkpt>
      <trkpt lat="36.87402" lon="-3.45449">
        <ele>394.037703</ele>
        <time>2022-02-25T10:46:02.821Z</time>
      </trkpt>
      <trkpt lat="36.8735" lon="-3.45435">
        <ele>395.842057</ele>
        <time>2022-02-25T10:46:18.204Z</time>
      </trkpt>
      <trkpt lat="36.87327" lon="-3.45434">
        <ele>396.809706</ele>
        <time>2022-02-25T10:46:28.061Z</time>
      </trkpt>
      <trkpt lat="36.87316" lon="-3.4545">
        <ele>397.485694</ele>
        <time>2022-02-25T10:46:34.516Z</time>
      </trkpt>
      <trkpt lat="36.87323" lon="-3.45481">
        <ele>398.53964</ele>
        <time>2022-02-25T10:46:45.742Z</time>
      </trkpt>
      <trkpt lat="36.8733" lon="-3.45509">
        <ele>399.488065</ele>
        <time>2022-02-25T10:46:56.554Z</time>
      </trkpt>
      <trkpt lat="36.8733" lon="-3.45531">
        <ele>400.226267</ele>
        <time>2022-02-25T10:47:04.301Z</time>
      </trkpt>
      <trkpt lat="36.87314" lon="-3.45711">
        <ele>408.407141</ele>
        <time>2022-02-25T10:48:16.938Z</time>
      </trkpt>
      <trkpt lat="36.87298" lon="-3.45777">
        <ele>412.021897</ele>
        <time>2022-02-25T10:48:51.309Z</time>
      </trkpt>
      <trkpt lat="36.87272" lon="-3.45845">
        <ele>415.684956</ele>
        <time>2022-02-25T10:49:26.501Z</time>
      </trkpt>
      <trkpt lat="36.87256" lon="-3.45926">
        <ele>419.569581</ele>
        <time>2022-02-25T10:50:03.552Z</time>
      </trkpt>
      <trkpt lat="36.87246" lon="-3.45946">
        <ele>420.637552</ele>
        <time>2022-02-25T10:50:13.709Z</time>
      </trkpt>
      <trkpt lat="36.87183" lon="-3.46036">
        <ele>424.625556</ele>
        <time>2022-02-25T10:50:55.246Z</time>
      </trkpt>
      <trkpt lat="36.87177" lon="-3.46053">
        <ele>424.761516</ele>
        <time>2022-02-25T10:51:00.444Z</time>
      </trkpt>
      <trkpt lat="36.87177" lon="-3.46078">
        <ele>424.950427</ele>
        <time>2022-02-25T10:51:06.907Z</time>
      </trkpt>
      <trkpt lat="36.87191" lon="-3.46132">
        <ele>425.381386</ele>
        <time>2022-02-25T10:51:19.762Z</time>
      </trkpt>
      <trkpt lat="36.87158" lon="-3.46357">
        <ele>423.554538</ele>
        <time>2022-02-25T10:51:53.597Z</time>
      </trkpt>
      <trkpt lat="36.87167" lon="-3.46499">
        <ele>421.475671</ele>
        <time>2022-02-25T10:52:13.597Z</time>
      </trkpt>
      <trkpt lat="36.87153" lon="-3.46599">
        <ele>420.307481</ele>
        <time>2022-02-25T10:52:29.017Z</time>
      </trkpt>
      <trkpt lat="36.87151" lon="-3.46657">
        <ele>419.633458</ele>
        <time>2022-02-25T10:52:38.787Z</time>
      </trkpt>
      <trkpt lat="36.87156" lon="-3.46777">
        <ele>419.347883</ele>
        <time>2022-02-25T10:53:02.673Z</time>
      </trkpt>
      <trkpt lat="36.87147" lon="-3.46898">
        <ele>418.741521</ele>
        <time>2022-02-25T10:53:22.785Z</time>
      </trkpt>
      <trkpt lat="36.87153" lon="-3.46924">
        <ele>418.008267</ele>
        <time>2022-02-25T10:53:26.971Z</time>
      </trkpt>
      <trkpt lat="36.87175" lon="-3.46949">
        <ele>417.025891</ele>
        <time>2022-02-25T10:53:32.211Z</time>
      </trkpt>
      <trkpt lat="36.87181" lon="-3.4698">
        <ele>416.162774</ele>
        <time>2022-02-25T10:53:36.883Z</time>
      </trkpt>
      <trkpt lat="36.87167" lon="-3.47127">
        <ele>411.175894</ele>
        <time>2022-02-25T10:53:55.887Z</time>
      </trkpt>
      <trkpt lat="36.8717" lon="-3.47145">
        <ele>410.10182</ele>
        <time>2022-02-25T10:53:58.117Z</time>
      </trkpt>
      <trkpt lat="36.8718" lon="-3.47162">
        <ele>408.933347</ele>
        <time>2022-02-25T10:54:00.566Z</time>
      </trkpt>
      <trkpt lat="36.87223" lon="-3.47179">
        <ele>405.680677</ele>
        <time>2022-02-25T10:54:07.468Z</time>
      </trkpt>
      <trkpt lat="36.87233" lon="-3.47189">
        <ele>404.778057</ele>
        <time>2022-02-25T10:54:09.323Z</time>
      </trkpt>
      <trkpt lat="36.87241" lon="-3.47214">
        <ele>403.275458</ele>
        <time>2022-02-25T10:54:12.520Z</time>
      </trkpt>
      <trkpt lat="36.87213" lon="-3.47326">
        <ele>396.007933</ele>
        <time>2022-02-25T10:54:26.046Z</time>
      </trkpt>
      <trkpt lat="36.87212" lon="-3.47349">
        <ele>394.474639</ele>
        <time>2022-02-25T10:54:28.776Z</time>
      </trkpt>
      <trkpt lat="36.87215" lon="-3.47363">
        <ele>393.519588</ele>
        <time>2022-02-25T10:54:30.393Z</time>
      </trkpt>
      <trkpt lat="36.8726" lon="-3.47474">
        <ele>385.340155</ele>
        <time>2022-02-25T10:54:45.031Z</time>
      </trkpt>
      <trkpt lat="36.87265" lon="-3.47498">
        <ele>384.131169</ele>
        <time>2022-02-25T10:54:48.010Z</time>
      </trkpt>
      <trkpt lat="36.87207" lon="-3.47589">
        <ele>378.526695</ele>
        <time>2022-02-25T10:55:01.905Z</time>
      </trkpt>
      <trkpt lat="36.87189" lon="-3.47602">
        <ele>377.245095</ele>
        <time>2022-02-25T10:55:05.306Z</time>
      </trkpt>
      <trkpt lat="36.87099" lon="-3.47618">
        <ele>371.823725</ele>
        <time>2022-02-25T10:55:20.214Z</time>
      </trkpt>
      <trkpt lat="36.87077" lon="-3.47616">
        <ele>370.484435</ele>
        <time>2022-02-25T10:55:23.927Z</time>
      </trkpt>
      <trkpt lat="36.87056" lon="-3.47603">
        <ele>369.113799</ele>
        <time>2022-02-25T10:55:27.674Z</time>
      </trkpt>
      <trkpt lat="36.87047" lon="-3.47603">
        <ele>368.602622</ele>
        <time>2022-02-25T10:55:29.028Z</time>
      </trkpt>
      <trkpt lat="36.87036" lon="-3.47615">
        <ele>367.749242</ele>
        <time>2022-02-25T10:55:31.293Z</time>
      </trkpt>
      <trkpt lat="36.87034" lon="-3.47628">
        <ele>367.153495</ele>
        <time>2022-02-25T10:55:32.828Z</time>
      </trkpt>
      <trkpt lat="36.87037" lon="-3.47686">
        <ele>364.421273</ele>
        <time>2022-02-25T10:55:39.673Z</time>
      </trkpt>
      <trkpt lat="36.87027" lon="-3.47725">
        <ele>361.915234</ele>
        <time>2022-02-25T10:55:44.454Z</time>
      </trkpt>
      <trkpt lat="36.87006" lon="-3.47747">
        <ele>359.685001</ele>
        <time>2022-02-25T10:55:48.397Z</time>
      </trkpt>
      <trkpt lat="36.86952" lon="-3.47775">
        <ele>354.890615</ele>
        <time>2022-02-25T10:55:56.844Z</time>
      </trkpt>
      <trkpt lat="36.86931" lon="-3.47773">
        <ele>353.145779</ele>
        <time>2022-02-25T10:55:59.906Z</time>
      </trkpt>
      <trkpt lat="36.86871" lon="-3.47735">
        <ele>348.49654</ele>
        <time>2022-02-25T10:56:09.798Z</time>
      </trkpt>
      <trkpt lat="36.86848" lon="-3.47725">
        <ele>347.519577</ele>
        <time>2022-02-25T10:56:13.680Z</time>
      </trkpt>
      <trkpt lat="36.86796" lon="-3.47715">
        <ele>345.462512</ele>
        <time>2022-02-25T10:56:22.365Z</time>
      </trkpt>
      <trkpt lat="36.86754" lon="-3.47674">
        <ele>343.348052</ele>
        <time>2022-02-25T10:56:33.493Z</time>
      </trkpt>
      <trkpt lat="36.86735" lon="-3.47679">
        <ele>342.5967</ele>
        <time>2022-02-25T10:56:36.818Z</time>
      </trkpt>
      <trkpt lat="36.86724" lon="-3.47699">
        <ele>341.510267</ele>
        <time>2022-02-25T10:56:40.299Z</time>
      </trkpt>
      <trkpt lat="36.86721" lon="-3.47755">
        <ele>337.853476</ele>
        <time>2022-02-25T10:56:47.350Z</time>
      </trkpt>
      <trkpt lat="36.86722" lon="-3.47826">
        <ele>333.32</ele>
        <time>2022-02-25T10:56:55.676Z</time>
      </trkpt>
      <trkpt lat="36.86736" lon="-3.47869">
        <ele>330.323317</ele>
        <time>2022-02-25T10:57:01.005Z</time>
      </trkpt>
      <trkpt lat="36.86769" lon="-3.47933">
        <ele>324.571866</ele>
        <time>2022-02-25T10:57:09.373Z</time>
      </trkpt>
      <trkpt lat="36.86805" lon="-3.48048">
        <ele>313.561099</ele>
        <time>2022-02-25T10:57:22.886Z</time>
      </trkpt>
      <trkpt lat="36.86829" lon="-3.48096">
        <ele>308.589148</ele>
        <time>2022-02-25T10:57:29.279Z</time>
      </trkpt>
      <trkpt lat="36.86842" lon="-3.48142">
        <ele>306.695483</ele>
        <time>2022-02-25T10:57:35.372Z</time>
      </trkpt>
      <trkpt lat="36.8684" lon="-3.48162">
        <ele>306.179893</ele>
        <time>2022-02-25T10:57:37.987Z</time>
      </trkpt>
      <trkpt lat="36.86826" lon="-3.48192">
        <ele>305.283665</ele>
        <time>2022-02-25T10:57:42.618Z</time>
      </trkpt>
      <trkpt lat="36.86752" lon="-3.48237">
        <ele>302.65662</ele>
        <time>2022-02-25T10:57:57.961Z</time>
      </trkpt>
      <trkpt lat="36.86693" lon="-3.48283">
        <ele>302.608339</ele>
        <time>2022-02-25T10:58:14.910Z</time>
      </trkpt>
      <trkpt lat="36.86632" lon="-3.48288">
        <ele>303.411032</ele>
        <time>2022-02-25T10:58:34.961Z</time>
      </trkpt>
      <trkpt lat="36.86578" lon="-3.48309">
        <ele>304.159609</ele>
        <time>2022-02-25T10:58:53.309Z</time>
      </trkpt>
      <trkpt lat="36.86564" lon="-3.4832">
        <ele>304.354413</ele>
        <time>2022-02-25T10:58:58.374Z</time>
      </trkpt>
      <trkpt lat="36.86505" lon="-3.48412">
        <ele>304.210398</ele>
        <time>2022-02-25T10:59:24.622Z</time>
      </trkpt>
      <trkpt lat="36.86467" lon="-3.48448">
        <ele>304.137382</ele>
        <time>2022-02-25T10:59:35.769Z</time>
      </trkpt>
      <trkpt lat="36.86398" lon="-3.48476">
        <ele>301.380821</ele>
        <time>2022-02-25T10:59:48.398Z</time>
      </trkpt>
      <trkpt lat="36.86369" lon="-3.48496">
        <ele>298.96749</ele>
        <time>2022-02-25T10:59:53.282Z</time>
      </trkpt>
      <trkpt lat="36.86362" lon="-3.48505">
        <ele>298.185627</ele>
        <time>2022-02-25T10:59:54.803Z</time>
      </trkpt>
      <trkpt lat="36.86349" lon="-3.48548">
        <ele>295.499749</ele>
        <time>2022-02-25T11:00:00.005Z</time>
      </trkpt>
      <trkpt lat="36.86335" lon="-3.48575">
        <ele>293.617414</ele>
        <time>2022-02-25T11:00:03.664Z</time>
      </trkpt>
      <trkpt lat="36.86299" lon="-3.48618">
        <ele>289.976472</ele>
        <time>2022-02-25T11:00:10.782Z</time>
      </trkpt>
      <trkpt lat="36.86249" lon="-3.48657">
        <ele>285.862401</ele>
        <time>2022-02-25T11:00:19.234Z</time>
      </trkpt>
      <trkpt lat="36.86227" lon="-3.4866">
        <ele>284.305357</ele>
        <time>2022-02-25T11:00:22.494Z</time>
      </trkpt>
      <trkpt lat="36.86217" lon="-3.48656">
        <ele>283.581925</ele>
        <time>2022-02-25T11:00:24.027Z</time>
      </trkpt>
      <trkpt lat="36.86201" lon="-3.48636">
        <ele>281.963539</ele>
        <time>2022-02-25T11:00:27.455Z</time>
      </trkpt>
      <trkpt lat="36.86184" lon="-3.48574">
        <ele>278.339078</ele>
        <time>2022-02-25T11:00:35.677Z</time>
      </trkpt>
      <trkpt lat="36.86168" lon="-3.48542">
        <ele>278.322172</ele>
        <time>2022-02-25T11:00:41.507Z</time>
      </trkpt>
      <trkpt lat="36.86151" lon="-3.48531">
        <ele>278.371035</ele>
        <time>2022-02-25T11:00:46.482Z</time>
      </trkpt>
      <trkpt lat="36.86135" lon="-3.48538">
        <ele>278.415948</ele>
        <time>2022-02-25T11:00:51.608Z</time>
      </trkpt>
      <trkpt lat="36.86126" lon="-3.48561">
        <ele>278.468866</ele>
        <time>2022-02-25T11:00:57.654Z</time>
      </trkpt>
      <trkpt lat="36.86126" lon="-3.48594">
        <ele>278.538481</ele>
        <time>2022-02-25T11:01:05.043Z</time>
      </trkpt>
      <trkpt lat="36.86101" lon="-3.48662">
        <ele>278.69181</ele>
        <time>2022-02-25T11:01:21.624Z</time>
      </trkpt>
      <trkpt lat="36.86098" lon="-3.4872">
        <ele>279.584564</ele>
        <time>2022-02-25T11:01:37.101Z</time>
      </trkpt>
      <trkpt lat="36.86089" lon="-3.4875">
        <ele>280.139083</ele>
        <time>2022-02-25T11:01:44.361Z</time>
      </trkpt>
      <trkpt lat="36.86068" lon="-3.48767">
        <ele>280.698049</ele>
        <time>2022-02-25T11:01:53.355Z</time>
      </trkpt>
      <trkpt lat="36.86056" lon="-3.48769">
        <ele>280.978505</ele>
        <time>2022-02-25T11:01:57.627Z</time>
      </trkpt>
      <trkpt lat="36.85941" lon="-3.48766">
        <ele>283.523479</ele>
        <time>2022-02-25T11:02:37.433Z</time>
      </trkpt>
      <trkpt lat="36.85921" lon="-3.48772">
        <ele>283.979643</ele>
        <time>2022-02-25T11:02:45.790Z</time>
      </trkpt>
      <trkpt lat="36.85884" lon="-3.48801">
        <ele>284.902377</ele>
        <time>2022-02-25T11:03:01.831Z</time>
      </trkpt>
      <trkpt lat="36.85856" lon="-3.48849">
        <ele>285.948324</ele>
        <time>2022-02-25T11:03:17.956Z</time>
      </trkpt>
      <trkpt lat="36.85832" lon="-3.48914">
        <ele>286.238353</ele>
        <time>2022-02-25T11:03:33.762Z</time>
      </trkpt>
      <trkpt lat="36.85818" lon="-3.49024">
        <ele>284.893421</ele>
        <time>2022-02-25T11:03:50.709Z</time>
      </trkpt>
      <trkpt lat="36.85806" lon="-3.49068">
        <ele>284.327715</ele>
        <time>2022-02-25T11:03:57.286Z</time>
      </trkpt>
      <trkpt lat="36.85786" lon="-3.49101">
        <ele>283.669336</ele>
        <time>2022-02-25T11:04:02.922Z</time>
      </trkpt>
      <trkpt lat="36.85744" lon="-3.49137">
        <ele>281.391176</ele>
        <time>2022-02-25T11:04:11.521Z</time>
      </trkpt>
      <trkpt lat="36.85716" lon="-3.49167">
        <ele>279.745203</ele>
        <time>2022-02-25T11:04:17.758Z</time>
      </trkpt>
      <trkpt lat="36.85707" lon="-3.49178">
        <ele>279.171266</ele>
        <time>2022-02-25T11:04:19.790Z</time>
      </trkpt>
      <trkpt lat="36.85684" lon="-3.49216">
        <ele>277.483388</ele>
        <time>2022-02-25T11:04:25.699Z</time>
      </trkpt>
      <trkpt lat="36.85661" lon="-3.49243">
        <ele>276.057796</ele>
        <time>2022-02-25T11:04:30.598Z</time>
      </trkpt>
      <trkpt lat="36.85646" lon="-3.49265">
        <ele>274.43047</ele>
        <time>2022-02-25T11:04:34.122Z</time>
      </trkpt>
      <trkpt lat="36.8564" lon="-3.49285">
        <ele>273.069294</ele>
        <time>2022-02-25T11:04:36.782Z</time>
      </trkpt>
      <trkpt lat="36.85642" lon="-3.49307">
        <ele>271.704174</ele>
        <time>2022-02-25T11:04:39.480Z</time>
      </trkpt>
      <trkpt lat="36.85655" lon="-3.49343">
        <ele>269.244974</ele>
        <time>2022-02-25T11:04:44.246Z</time>
      </trkpt>
      <trkpt lat="36.85677" lon="-3.49415">
        <ele>264.505363</ele>
        <time>2022-02-25T11:04:53.230Z</time>
      </trkpt>
      <trkpt lat="36.85686" lon="-3.49496">
        <ele>259.241992</ele>
        <time>2022-02-25T11:05:02.484Z</time>
      </trkpt>
      <trkpt lat="36.85694" lon="-3.49535">
        <ele>256.476769</ele>
        <time>2022-02-25T11:05:07.157Z</time>
      </trkpt>
      <trkpt lat="36.85702" lon="-3.49554">
        <ele>255.053415</ele>
        <time>2022-02-25T11:05:09.622Z</time>
      </trkpt>
      <trkpt lat="36.85717" lon="-3.49615">
        <ele>250.749739</ele>
        <time>2022-02-25T11:05:17.076Z</time>
      </trkpt>
      <trkpt lat="36.85716" lon="-3.4964">
        <ele>249.063718</ele>
        <time>2022-02-25T11:05:20.073Z</time>
      </trkpt>
      <trkpt lat="36.85701" lon="-3.49676">
        <ele>246.349517</ele>
        <time>2022-02-25T11:05:24.937Z</time>
      </trkpt>
      <trkpt lat="36.85682" lon="-3.49695">
        <ele>244.511721</ele>
        <time>2022-02-25T11:05:28.488Z</time>
      </trkpt>
      <trkpt lat="36.85636" lon="-3.49715">
        <ele>240.751398</ele>
        <time>2022-02-25T11:05:35.736Z</time>
      </trkpt>
      <trkpt lat="36.85616" lon="-3.49741">
        <ele>238.631981</ele>
        <time>2022-02-25T11:05:39.891Z</time>
      </trkpt>
      <trkpt lat="36.85592" lon="-3.49795">
        <ele>234.873407</ele>
        <time>2022-02-25T11:05:47.385Z</time>
      </trkpt>
      <trkpt lat="36.85544" lon="-3.49827">
        <ele>231.123927</ele>
        <time>2022-02-25T11:05:55.383Z</time>
      </trkpt>
      <trkpt lat="36.85523" lon="-3.49839">
        <ele>229.652056</ele>
        <time>2022-02-25T11:05:58.852Z</time>
      </trkpt>
      <trkpt lat="36.855" lon="-3.49852">
        <ele>228.007453</ele>
        <time>2022-02-25T11:06:02.685Z</time>
      </trkpt>
      <trkpt lat="36.85444" lon="-3.49886">
        <ele>224.056997</ele>
        <time>2022-02-25T11:06:11.923Z</time>
      </trkpt>
      <trkpt lat="36.85374" lon="-3.49952">
        <ele>219.12064</ele>
        <time>2022-02-25T11:06:26.410Z</time>
      </trkpt>
      <trkpt lat="36.85359" lon="-3.49959">
        <ele>218.335739</ele>
        <time>2022-02-25T11:06:29.023Z</time>
      </trkpt>
      <trkpt lat="36.85337" lon="-3.49955">
        <ele>217.192039</ele>
        <time>2022-02-25T11:06:32.670Z</time>
      </trkpt>
      <trkpt lat="36.85305" lon="-3.49939">
        <ele>215.514847</ele>
        <time>2022-02-25T11:06:38.034Z</time>
      </trkpt>
      <trkpt lat="36.85292" lon="-3.49941">
        <ele>214.863208</ele>
        <time>2022-02-25T11:06:40.138Z</time>
      </trkpt>
      <trkpt lat="36.8528" lon="-3.4995">
        <ele>214.142747</ele>
        <time>2022-02-25T11:06:42.352Z</time>
      </trkpt>
      <trkpt lat="36.85265" lon="-3.49977">
        <ele>212.835116</ele>
        <time>2022-02-25T11:06:46.384Z</time>
      </trkpt>
      <trkpt lat="36.85229" lon="-3.50165">
        <ele>203.871851</ele>
        <time>2022-02-25T11:07:10.153Z</time>
      </trkpt>
      <trkpt lat="36.85226" lon="-3.50224">
        <ele>201.681588</ele>
        <time>2022-02-25T11:07:17.486Z</time>
      </trkpt>
      <trkpt lat="36.85214" lon="-3.50253">
        <ele>200.943631</ele>
        <time>2022-02-25T11:07:21.961Z</time>
      </trkpt>
      <trkpt lat="36.85169" lon="-3.50309">
        <ele>199.166078</ele>
        <time>2022-02-25T11:07:33.662Z</time>
      </trkpt>
      <trkpt lat="36.85127" lon="-3.50321">
        <ele>197.922429</ele>
        <time>2022-02-25T11:07:42.628Z</time>
      </trkpt>
      <trkpt lat="36.85104" lon="-3.50338">
        <ele>197.170461</ele>
        <time>2022-02-25T11:07:47.098Z</time>
      </trkpt>
      <trkpt lat="36.85091" lon="-3.50355">
        <ele>196.460639</ele>
        <time>2022-02-25T11:07:50.317Z</time>
      </trkpt>
      <trkpt lat="36.85032" lon="-3.50471">
        <ele>192.229884</ele>
        <time>2022-02-25T11:08:08.489Z</time>
      </trkpt>
      <trkpt lat="36.85028" lon="-3.50513">
        <ele>190.92366</ele>
        <time>2022-02-25T11:08:14.135Z</time>
      </trkpt>
      <trkpt lat="36.85029" lon="-3.50519">
        <ele>190.702739</ele>
        <time>2022-02-25T11:08:14.943Z</time>
      </trkpt>
      <trkpt lat="36.85003" lon="-3.5053">
        <ele>189.790053</ele>
        <time>2022-02-25T11:08:19.365Z</time>
      </trkpt>
      <trkpt lat="36.84961" lon="-3.50579">
        <ele>188.213743</ele>
        <time>2022-02-25T11:08:28.524Z</time>
      </trkpt>
      <trkpt lat="36.84788" lon="-3.50658">
        <ele>184.528747</ele>
        <time>2022-02-25T11:09:03.798Z</time>
      </trkpt>
      <trkpt lat="36.84716" lon="-3.50714">
        <ele>183.741832</ele>
        <time>2022-02-25T11:09:20.932Z</time>
      </trkpt>
      <trkpt lat="36.84698" lon="-3.50717">
        <ele>183.570388</ele>
        <time>2022-02-25T11:09:24.979Z</time>
      </trkpt>
      <trkpt lat="36.84619" lon="-3.50701">
        <ele>184.177159</ele>
        <time>2022-02-25T11:09:43.164Z</time>
      </trkpt>
      <trkpt lat="36.84604" lon="-3.50703">
        <ele>184.294059</ele>
        <time>2022-02-25T11:09:47.103Z</time>
      </trkpt>
      <trkpt lat="36.84591" lon="-3.50718">
        <ele>184.432512</ele>
        <time>2022-02-25T11:09:51.750Z</time>
      </trkpt>
      <trkpt lat="36.8457" lon="-3.50768">
        <ele>184.788305</ele>
        <time>2022-02-25T11:10:05.015Z</time>
      </trkpt>
      <trkpt lat="36.84405" lon="-3.50975">
        <ele>189.080989</ele>
        <time>2022-02-25T11:11:21.499Z</time>
      </trkpt>
      <trkpt lat="36.84385" lon="-3.5101">
        <ele>189.599999</ele>
        <time>2022-02-25T11:11:32.225Z</time>
      </trkpt>
      <trkpt lat="36.84362" lon="-3.51033">
        <ele>190.035277</ele>
        <time>2022-02-25T11:11:41.219Z</time>
      </trkpt>
      <trkpt lat="36.84264" lon="-3.51112">
        <ele>191.464569</ele>
        <time>2022-02-25T11:12:13.636Z</time>
      </trkpt>
      <trkpt lat="36.84236" lon="-3.51148">
        <ele>191.66022</ele>
        <time>2022-02-25T11:12:24.053Z</time>
      </trkpt>
      <trkpt lat="36.84199" lon="-3.51208">
        <ele>191.947704</ele>
        <time>2022-02-25T11:12:39.149Z</time>
      </trkpt>
      <trkpt lat="36.84159" lon="-3.51227">
        <ele>192.150927</ele>
        <time>2022-02-25T11:12:50.405Z</time>
      </trkpt>
      <trkpt lat="36.84096" lon="-3.51217">
        <ele>191.085567</ele>
        <time>2022-02-25T11:13:02.836Z</time>
      </trkpt>
      <trkpt lat="36.84062" lon="-3.51218">
        <ele>190.436651</ele>
        <time>2022-02-25T11:13:08.868Z</time>
      </trkpt>
      <trkpt lat="36.84043" lon="-3.51236">
        <ele>189.989025</ele>
        <time>2022-02-25T11:13:13.179Z</time>
      </trkpt>
      <trkpt lat="36.8401" lon="-3.51297">
        <ele>188.88313</ele>
        <time>2022-02-25T11:13:23.583Z</time>
      </trkpt>
      <trkpt lat="36.83982" lon="-3.51312">
        <ele>188.325913</ele>
        <time>2022-02-25T11:13:28.860Z</time>
      </trkpt>
      <trkpt lat="36.8394" lon="-3.51328">
        <ele>187.546803</ele>
        <time>2022-02-25T11:13:36.654Z</time>
      </trkpt>
      <trkpt lat="36.83687" lon="-3.51427">
        <ele>184.62141</ele>
        <time>2022-02-25T11:14:28.424Z</time>
      </trkpt>
      <trkpt lat="36.83685" lon="-3.51428">
        <ele>184.608429</ele>
        <time>2022-02-25T11:14:29.104Z</time>
      </trkpt>
      <trkpt lat="36.8359" lon="-3.51468">
        <ele>184.973402</ele>
        <time>2022-02-25T11:14:59.911Z</time>
      </trkpt>
      <trkpt lat="36.83583" lon="-3.5147">
        <ele>185.019258</ele>
        <time>2022-02-25T11:15:02.028Z</time>
      </trkpt>
      <trkpt lat="36.83521" lon="-3.51497">
        <ele>185.444535</ele>
        <time>2022-02-25T11:15:19.684Z</time>
      </trkpt>
      <trkpt lat="36.83484" lon="-3.51513">
        <ele>185.380195</ele>
        <time>2022-02-25T11:15:27.833Z</time>
      </trkpt>
      <trkpt lat="36.83454" lon="-3.51526">
        <ele>184.528557</ele>
        <time>2022-02-25T11:15:33.831Z</time>
      </trkpt>
      <trkpt lat="36.83389" lon="-3.51552">
        <ele>182.699717</ele>
        <time>2022-02-25T11:15:45.816Z</time>
      </trkpt>
      <trkpt lat="36.83371" lon="-3.51559">
        <ele>182.198609</ele>
        <time>2022-02-25T11:15:48.921Z</time>
      </trkpt>
      <trkpt lat="36.83353" lon="-3.51567">
        <ele>181.694291</ele>
        <time>2022-02-25T11:15:52.076Z</time>
      </trkpt>
      <trkpt lat="36.83335" lon="-3.51574">
        <ele>181.170891</ele>
        <time>2022-02-25T11:15:55.288Z</time>
      </trkpt>
      <trkpt lat="36.83332" lon="-3.51575">
        <ele>181.106424</ele>
        <time>2022-02-25T11:15:55.696Z</time>
      </trkpt>
      <trkpt lat="36.83308" lon="-3.51585">
        <ele>180.286373</ele>
        <time>2022-02-25T11:15:59.839Z</time>
      </trkpt>
      <trkpt lat="36.83271" lon="-3.51582">
        <ele>178.951012</ele>
        <time>2022-02-25T11:16:05.913Z</time>
      </trkpt>
      <trkpt lat="36.83253" lon="-3.51578">
        <ele>178.272683</ele>
        <time>2022-02-25T11:16:09.076Z</time>
      </trkpt>
      <trkpt lat="36.83243" lon="-3.51578">
        <ele>177.944057</ele>
        <time>2022-02-25T11:16:10.583Z</time>
      </trkpt>
      <trkpt lat="36.83237" lon="-3.51583">
        <ele>177.682208</ele>
        <time>2022-02-25T11:16:11.770Z</time>
      </trkpt>
      <trkpt lat="36.83231" lon="-3.5158">
        <ele>177.45555</ele>
        <time>2022-02-25T11:16:12.855Z</time>
      </trkpt>
      <trkpt lat="36.83231" lon="-3.51577">
        <ele>177.370775</ele>
        <time>2022-02-25T11:16:13.277Z</time>
      </trkpt>
      <trkpt lat="36.83218" lon="-3.51576">
        <ele>176.915376</ele>
        <time>2022-02-25T11:16:15.394Z</time>
      </trkpt>
      <trkpt lat="36.83154" lon="-3.51573">
        <ele>174.613609</ele>
        <time>2022-02-25T11:16:26.308Z</time>
      </trkpt>
      <trkpt lat="36.83147" lon="-3.51573">
        <ele>174.342559</ele>
        <time>2022-02-25T11:16:27.596Z</time>
      </trkpt>
      <trkpt lat="36.83126" lon="-3.51572">
        <ele>173.619492</ele>
        <time>2022-02-25T11:16:31.149Z</time>
      </trkpt>
      <trkpt lat="36.831" lon="-3.51571">
        <ele>172.739741</ele>
        <time>2022-02-25T11:16:35.470Z</time>
      </trkpt>
      <trkpt lat="36.83033" lon="-3.51567">
        <ele>170.428957</ele>
        <time>2022-02-25T11:16:46.613Z</time>
      </trkpt>
      <trkpt lat="36.83011" lon="-3.51566">
        <ele>169.703129</ele>
        <time>2022-02-25T11:16:50.302Z</time>
      </trkpt>
      <trkpt lat="36.83007" lon="-3.51566">
        <ele>169.54226</ele>
        <time>2022-02-25T11:16:51.120Z</time>
      </trkpt>
      <trkpt lat="36.82968" lon="-3.51566">
        <ele>168.21157</ele>
        <time>2022-02-25T11:16:57.847Z</time>
      </trkpt>
      <trkpt lat="36.82964" lon="-3.51566">
        <ele>168.12142</ele>
        <time>2022-02-25T11:16:58.474Z</time>
      </trkpt>
      <trkpt lat="36.8295" lon="-3.51564">
        <ele>167.815088</ele>
        <time>2022-02-25T11:17:00.934Z</time>
      </trkpt>
      <trkpt lat="36.82931" lon="-3.51562">
        <ele>167.416005</ele>
        <time>2022-02-25T11:17:04.260Z</time>
      </trkpt>
      <trkpt lat="36.8292" lon="-3.51562">
        <ele>167.174419</ele>
        <time>2022-02-25T11:17:06.189Z</time>
      </trkpt>
      <trkpt lat="36.82884" lon="-3.51561">
        <ele>166.4098</ele>
        <time>2022-02-25T11:17:12.585Z</time>
      </trkpt>
      <trkpt lat="36.82864" lon="-3.51569">
        <ele>165.981187</ele>
        <time>2022-02-25T11:17:16.372Z</time>
      </trkpt>
      <trkpt lat="36.8282" lon="-3.51602">
        <ele>164.885292</ele>
        <time>2022-02-25T11:17:26.010Z</time>
      </trkpt>
      <trkpt lat="36.828" lon="-3.51633">
        <ele>164.220349</ele>
        <time>2022-02-25T11:17:32.432Z</time>
      </trkpt>
      <trkpt lat="36.82794" lon="-3.5174">
        <ele>162.53149</ele>
        <time>2022-02-25T11:17:49.365Z</time>
      </trkpt>
      <trkpt lat="36.82743" lon="-3.51821">
        <ele>160.879393</ele>
        <time>2022-02-25T11:18:04.026Z</time>
      </trkpt>
      <trkpt lat="36.82734" lon="-3.51901">
        <ele>157.216902</ele>
        <time>2022-02-25T11:18:14.848Z</time>
      </trkpt>
      <trkpt lat="36.82706" lon="-3.51969">
        <ele>153.557676</ele>
        <time>2022-02-25T11:18:24.256Z</time>
      </trkpt>
      <trkpt lat="36.82694" lon="-3.52087">
        <ele>147.212314</ele>
        <time>2022-02-25T11:18:38.103Z</time>
      </trkpt>
      <trkpt lat="36.82702" lon="-3.5214">
        <ele>143.881992</ele>
        <time>2022-02-25T11:18:44.334Z</time>
      </trkpt>
      <trkpt lat="36.82722" lon="-3.52188">
        <ele>140.469247</ele>
        <time>2022-02-25T11:18:50.718Z</time>
      </trkpt>
      <trkpt lat="36.82692" lon="-3.52234">
        <ele>136.818921</ele>
        <time>2022-02-25T11:18:57.642Z</time>
      </trkpt>
      <trkpt lat="36.82495" lon="-3.52505">
        <ele>122.404545</ele>
        <time>2022-02-25T11:19:44.379Z</time>
      </trkpt>
      <trkpt lat="36.82468" lon="-3.52529">
        <ele>121.056505</ele>
        <time>2022-02-25T11:19:49.825Z</time>
      </trkpt>
      <trkpt lat="36.82421" lon="-3.52553">
        <ele>119.161381</ele>
        <time>2022-02-25T11:19:58.582Z</time>
      </trkpt>
      <trkpt lat="36.8231" lon="-3.52567">
        <ele>117.447896</ele>
        <time>2022-02-25T11:20:19.111Z</time>
      </trkpt>
      <trkpt lat="36.8201" lon="-3.52598">
        <ele>115.035545</ele>
        <time>2022-02-25T11:21:23.120Z</time>
      </trkpt>
      <trkpt lat="36.81912" lon="-3.52632">
        <ele>113.76659</ele>
        <time>2022-02-25T11:21:42.236Z</time>
      </trkpt>
      <trkpt lat="36.8186" lon="-3.52664">
        <ele>112.879588</ele>
        <time>2022-02-25T11:21:52.916Z</time>
      </trkpt>
      <trkpt lat="36.81782" lon="-3.52744">
        <ele>111.202986</ele>
        <time>2022-02-25T11:22:11.877Z</time>
      </trkpt>
      <trkpt lat="36.81737" lon="-3.52803">
        <ele>110.129473</ele>
        <time>2022-02-25T11:22:24.546Z</time>
      </trkpt>
      <trkpt lat="36.81527" lon="-3.53117">
        <ele>105.20337</ele>
        <time>2022-02-25T11:23:26.098Z</time>
      </trkpt>
      <trkpt lat="36.81509" lon="-3.53161">
        <ele>105.257045</ele>
        <time>2022-02-25T11:23:34.819Z</time>
      </trkpt>
      <trkpt lat="36.815" lon="-3.53212">
        <ele>105.406713</ele>
        <time>2022-02-25T11:23:44.274Z</time>
      </trkpt>
      <trkpt lat="36.81504" lon="-3.53279">
        <ele>105.602545</ele>
        <time>2022-02-25T11:23:57.533Z</time>
      </trkpt>
      <trkpt lat="36.81504" lon="-3.53299">
        <ele>105.658801</ele>
        <time>2022-02-25T11:24:01.553Z</time>
      </trkpt>
      <trkpt lat="36.81493" lon="-3.53395">
        <ele>106.952793</ele>
        <time>2022-02-25T11:24:25.140Z</time>
      </trkpt>
      <trkpt lat="36.81493" lon="-3.53435">
        <ele>107.81029</ele>
        <time>2022-02-25T11:24:35.359Z</time>
      </trkpt>
      <trkpt lat="36.81502" lon="-3.53474">
        <ele>108.666258</ele>
        <time>2022-02-25T11:24:46.112Z</time>
      </trkpt>
      <trkpt lat="36.81523" lon="-3.53579">
        <ele>111.287438</ele>
        <time>2022-02-25T11:25:21.195Z</time>
      </trkpt>
      <trkpt lat="36.81521" lon="-3.53624">
        <ele>112.96476</ele>
        <time>2022-02-25T11:25:38.533Z</time>
      </trkpt>
      <trkpt lat="36.81506" lon="-3.53685">
        <ele>115.344051</ele>
        <time>2022-02-25T11:26:03.753Z</time>
      </trkpt>
      <trkpt lat="36.81465" lon="-3.53792">
        <ele>119.672327</ele>
        <time>2022-02-25T11:26:46.496Z</time>
      </trkpt>
      <trkpt lat="36.81426" lon="-3.5386">
        <ele>122.418541</ele>
        <time>2022-02-25T11:27:15.288Z</time>
      </trkpt>
      <trkpt lat="36.8139" lon="-3.53904">
        <ele>124.481845</ele>
        <time>2022-02-25T11:27:36.116Z</time>
      </trkpt>
      <trkpt lat="36.81304" lon="-3.53979">
        <ele>127.767778</ele>
        <time>2022-02-25T11:28:20.254Z</time>
      </trkpt>
      <trkpt lat="36.81254" lon="-3.54028">
        <ele>129.271069</ele>
        <time>2022-02-25T11:28:44.293Z</time>
      </trkpt>
      <trkpt lat="36.8123" lon="-3.54064">
        <ele>130.171755</ele>
        <time>2022-02-25T11:28:55.230Z</time>
      </trkpt>
      <trkpt lat="36.81203" lon="-3.54123">
        <ele>128.919903</ele>
        <time>2022-02-25T11:29:06.863Z</time>
      </trkpt>
      <trkpt lat="36.8117" lon="-3.54198">
        <ele>125.582612</ele>
        <time>2022-02-25T11:29:18.460Z</time>
      </trkpt>
      <trkpt lat="36.81142" lon="-3.54248">
        <ele>123.183565</ele>
        <time>2022-02-25T11:29:25.826Z</time>
      </trkpt>
      <trkpt lat="36.81105" lon="-3.54292">
        <ele>119.563143</ele>
        <time>2022-02-25T11:29:32.978Z</time>
      </trkpt>
      <trkpt lat="36.8107" lon="-3.5432">
        <ele>115.59116</ele>
        <time>2022-02-25T11:29:38.735Z</time>
      </trkpt>
      <trkpt lat="36.81019" lon="-3.5435">
        <ele>110.056704</ele>
        <time>2022-02-25T11:29:46.836Z</time>
      </trkpt>
      <trkpt lat="36.80963" lon="-3.54369">
        <ele>104.420217</ele>
        <time>2022-02-25T11:29:55.129Z</time>
      </trkpt>
      <trkpt lat="36.80901" lon="-3.54372">
        <ele>100.643136</ele>
        <time>2022-02-25T11:30:04.183Z</time>
      </trkpt>
      <trkpt lat="36.80823" lon="-3.54368">
        <ele>95.892751</ele>
        <time>2022-02-25T11:30:16.261Z</time>
      </trkpt>
      <trkpt lat="36.80764" lon="-3.54356">
        <ele>93.05978</ele>
        <time>2022-02-25T11:30:26.327Z</time>
      </trkpt>
      <trkpt lat="36.80491" lon="-3.54209">
        <ele>89.690512</ele>
        <time>2022-02-25T11:31:22.717Z</time>
      </trkpt>
      <trkpt lat="36.8011" lon="-3.53997">
        <ele>101.797659</ele>
        <time>2022-02-25T11:34:14.850Z</time>
      </trkpt>
      <trkpt lat="36.80063" lon="-3.53983">
        <ele>100.450606</ele>
        <time>2022-02-25T11:34:24.555Z</time>
      </trkpt>
      <trkpt lat="36.80004" lon="-3.5398">
        <ele>98.812206</ele>
        <time>2022-02-25T11:34:34.469Z</time>
      </trkpt>
      <trkpt lat="36.79932" lon="-3.53997">
        <ele>96.778024</ele>
        <time>2022-02-25T11:34:45.544Z</time>
      </trkpt>
      <trkpt lat="36.79873" lon="-3.54002">
        <ele>95.108681</ele>
        <time>2022-02-25T11:34:54.444Z</time>
      </trkpt>
      <trkpt lat="36.79822" lon="-3.53993">
        <ele>93.616508</ele>
        <time>2022-02-25T11:35:03.279Z</time>
      </trkpt>
      <trkpt lat="36.79772" lon="-3.53971">
        <ele>92.121322</ele>
        <time>2022-02-25T11:35:14.158Z</time>
      </trkpt>
      <trkpt lat="36.79589" lon="-3.53837">
        <ele>103.51186</ele>
        <time>2022-02-25T11:37:14.508Z</time>
      </trkpt>
      <trkpt lat="36.79544" lon="-3.53828">
        <ele>104.648766</ele>
        <time>2022-02-25T11:37:39.039Z</time>
      </trkpt>
      <trkpt lat="36.79507" lon="-3.53838">
        <ele>105.60413</ele>
        <time>2022-02-25T11:37:54.648Z</time>
      </trkpt>
      <trkpt lat="36.79479" lon="-3.53861">
        <ele>106.451198</ele>
        <time>2022-02-25T11:38:05.267Z</time>
      </trkpt>
      <trkpt lat="36.79268" lon="-3.54144">
        <ele>90.396857</ele>
        <time>2022-02-25T11:38:52.837Z</time>
      </trkpt>
      <trkpt lat="36.79244" lon="-3.54159">
        <ele>88.584059</ele>
        <time>2022-02-25T11:38:56.751Z</time>
      </trkpt>
      <trkpt lat="36.79207" lon="-3.54168">
        <ele>86.04716</ele>
        <time>2022-02-25T11:39:02.279Z</time>
      </trkpt>
      <trkpt lat="36.7917" lon="-3.54162">
        <ele>84.888296</ele>
        <time>2022-02-25T11:39:07.835Z</time>
      </trkpt>
      <trkpt lat="36.79146" lon="-3.5415">
        <ele>84.772072</ele>
        <time>2022-02-25T11:39:11.857Z</time>
      </trkpt>
      <trkpt lat="36.79128" lon="-3.54131">
        <ele>84.668285</ele>
        <time>2022-02-25T11:39:15.596Z</time>
      </trkpt>
      <trkpt lat="36.79108" lon="-3.54099">
        <ele>84.518853</ele>
        <time>2022-02-25T11:39:21.384Z</time>
      </trkpt>
      <trkpt lat="36.79097" lon="-3.54055">
        <ele>84.355634</ele>
        <time>2022-02-25T11:39:31.072Z</time>
      </trkpt>
      <trkpt lat="36.79092" lon="-3.53894">
        <ele>93.008924</ele>
        <time>2022-02-25T11:40:57.283Z</time>
      </trkpt>
      <trkpt lat="36.79083" lon="-3.53844">
        <ele>97.10041</ele>
        <time>2022-02-25T11:41:33.065Z</time>
      </trkpt>
      <trkpt lat="36.79066" lon="-3.53809">
        <ele>100.344552</ele>
        <time>2022-02-25T11:42:00.140Z</time>
      </trkpt>
      <trkpt lat="36.79048" lon="-3.53789">
        <ele>102.279629</ele>
        <time>2022-02-25T11:42:19.072Z</time>
      </trkpt>
      <trkpt lat="36.79019" lon="-3.53768">
        <ele>103.256829</ele>
        <time>2022-02-25T11:42:42.897Z</time>
      </trkpt>
      <trkpt lat="36.78987" lon="-3.53761">
        <ele>104.166663</ele>
        <time>2022-02-25T11:43:02.357Z</time>
      </trkpt>
      <trkpt lat="36.78956" lon="-3.53764">
        <ele>105.055929</ele>
        <time>2022-02-25T11:43:16.422Z</time>
      </trkpt>
      <trkpt lat="36.78927" lon="-3.53778">
        <ele>105.933056</ele>
        <time>2022-02-25T11:43:24.225Z</time>
      </trkpt>
      <trkpt lat="36.78683" lon="-3.53985">
        <ele>92.418057</ele>
        <time>2022-02-25T11:44:08.350Z</time>
      </trkpt>
      <trkpt lat="36.78529" lon="-3.54121">
        <ele>87.372299</ele>
        <time>2022-02-25T11:44:43.798Z</time>
      </trkpt>
      <trkpt lat="36.78509" lon="-3.54143">
        <ele>87.071261</ele>
        <time>2022-02-25T11:44:50.268Z</time>
      </trkpt>
      <trkpt lat="36.78506" lon="-3.54146">
        <ele>87.027065</ele>
        <time>2022-02-25T11:44:51.149Z</time>
      </trkpt>
      <trkpt lat="36.78479" lon="-3.5418">
        <ele>86.605501</ele>
        <time>2022-02-25T11:44:59.295Z</time>
      </trkpt>
      <trkpt lat="36.78451" lon="-3.54229">
        <ele>85.578216</ele>
        <time>2022-02-25T11:45:08.921Z</time>
      </trkpt>
      <trkpt lat="36.78429" lon="-3.54282">
        <ele>83.535125</ele>
        <time>2022-02-25T11:45:17.464Z</time>
      </trkpt>
      <trkpt lat="36.78395" lon="-3.54392">
        <ele>79.559487</ele>
        <time>2022-02-25T11:45:32.425Z</time>
      </trkpt>
      <trkpt lat="36.78367" lon="-3.54447">
        <ele>76.72733</ele>
        <time>2022-02-25T11:45:40.138Z</time>
      </trkpt>
      <trkpt lat="36.78326" lon="-3.54489">
        <ele>73.4339</ele>
        <time>2022-02-25T11:45:48.158Z</time>
      </trkpt>
      <trkpt lat="36.78293" lon="-3.54503">
        <ele>71.285187</ele>
        <time>2022-02-25T11:45:53.411Z</time>
      </trkpt>
      <trkpt lat="36.7826" lon="-3.54507">
        <ele>69.215002</ele>
        <time>2022-02-25T11:45:58.483Z</time>
      </trkpt>
      <trkpt lat="36.78145" lon="-3.54498">
        <ele>63.68604</ele>
        <time>2022-02-25T11:46:16.827Z</time>
      </trkpt>
      <trkpt lat="36.78094" lon="-3.54493">
        <ele>61.461408</ele>
        <time>2022-02-25T11:46:25.131Z</time>
      </trkpt>
      <trkpt lat="36.77915" lon="-3.54481">
        <ele>56.665023</ele>
        <time>2022-02-25T11:46:56.844Z</time>
      </trkpt>
      <trkpt lat="36.77885" lon="-3.54482">
        <ele>56.011943</ele>
        <time>2022-02-25T11:47:02.762Z</time>
      </trkpt>
      <trkpt lat="36.77834" lon="-3.54492">
        <ele>55.485568</ele>
        <time>2022-02-25T11:47:13.072Z</time>
      </trkpt>
      <trkpt lat="36.77783" lon="-3.54515">
        <ele>55.122244</ele>
        <time>2022-02-25T11:47:24.275Z</time>
      </trkpt>
      <trkpt lat="36.77732" lon="-3.54555">
        <ele>54.720478</ele>
        <time>2022-02-25T11:47:37.061Z</time>
      </trkpt>
      <trkpt lat="36.77661" lon="-3.54651">
        <ele>54.182618</ele>
        <time>2022-02-25T11:47:59.430Z</time>
      </trkpt>
      <trkpt lat="36.77648" lon="-3.54672">
        <ele>54.087455</ele>
        <time>2022-02-25T11:48:03.746Z</time>
      </trkpt>
      <trkpt lat="36.77633" lon="-3.54695">
        <ele>53.974884</ele>
        <time>2022-02-25T11:48:08.781Z</time>
      </trkpt>
      <trkpt lat="36.77619" lon="-3.54716">
        <ele>53.875082</ele>
        <time>2022-02-25T11:48:13.255Z</time>
      </trkpt>
      <trkpt lat="36.77597" lon="-3.54752">
        <ele>53.704538</ele>
        <time>2022-02-25T11:48:20.723Z</time>
      </trkpt>
      <trkpt lat="36.77495" lon="-3.54916">
        <ele>52.701236</ele>
        <time>2022-02-25T11:48:55.187Z</time>
      </trkpt>
      <trkpt lat="36.77447" lon="-3.55001">
        <ele>52.212291</ele>
        <time>2022-02-25T11:49:12.394Z</time>
      </trkpt>
      <trkpt lat="36.77343" lon="-3.55229">
        <ele>50.70057</ele>
        <time>2022-02-25T11:49:56.066Z</time>
      </trkpt>
      <trkpt lat="36.77116" lon="-3.55748">
        <ele>45.022666</ele>
        <time>2022-02-25T11:51:28.195Z</time>
      </trkpt>
      <trkpt lat="36.77099" lon="-3.55799">
        <ele>44.412448</ele>
        <time>2022-02-25T11:51:36.499Z</time>
      </trkpt>
      <trkpt lat="36.77095" lon="-3.55827">
        <ele>44.103456</ele>
        <time>2022-02-25T11:51:40.717Z</time>
      </trkpt>
      <trkpt lat="36.77077" lon="-3.55849">
        <ele>43.751448</ele>
        <time>2022-02-25T11:51:45.565Z</time>
      </trkpt>
      <trkpt lat="36.77054" lon="-3.55883">
        <ele>43.255036</ele>
        <time>2022-02-25T11:51:52.433Z</time>
      </trkpt>
      <trkpt lat="36.77012" lon="-3.55942">
        <ele>42.58335</ele>
        <time>2022-02-25T11:52:04.672Z</time>
      </trkpt>
      <trkpt lat="36.76966" lon="-3.55984">
        <ele>42.039081</ele>
        <time>2022-02-25T11:52:16.013Z</time>
      </trkpt>
      <trkpt lat="36.76838" lon="-3.56056">
        <ele>40.857853</ele>
        <time>2022-02-25T11:52:44.810Z</time>
      </trkpt>
      <trkpt lat="36.76514" lon="-3.56217">
        <ele>38.255043</ele>
        <time>2022-02-25T11:53:56.100Z</time>
      </trkpt>
      <trkpt lat="36.76226" lon="-3.56339">
        <ele>35.536237</ele>
        <time>2022-02-25T11:54:57.291Z</time>
      </trkpt>
      <trkpt lat="36.76206" lon="-3.56361">
        <ele>35.153485</ele>
        <time>2022-02-25T11:55:02.328Z</time>
      </trkpt>
      <trkpt lat="36.76205" lon="-3.56369">
        <ele>35.060208</ele>
        <time>2022-02-25T11:55:03.519Z</time>
      </trkpt>
      <trkpt lat="36.76216" lon="-3.56404">
        <ele>34.608507</ele>
        <time>2022-02-25T11:55:09.278Z</time>
      </trkpt>
      <trkpt lat="36.76236" lon="-3.56454">
        <ele>33.950155</ele>
        <time>2022-02-25T11:55:17.669Z</time>
      </trkpt>
      <trkpt lat="36.76251" lon="-3.56491">
        <ele>33.45357</ele>
        <time>2022-02-25T11:55:24.031Z</time>
      </trkpt>
      <trkpt lat="36.76287" lon="-3.56586">
        <ele>32.419745</ele>
        <time>2022-02-25T11:55:39.881Z</time>
      </trkpt>
      <trkpt lat="36.76289" lon="-3.56591">
        <ele>32.372014</ele>
        <time>2022-02-25T11:55:40.817Z</time>
      </trkpt>
      <trkpt lat="36.75952" lon="-3.56799">
        <ele>29.153185</ele>
        <time>2022-02-25T11:56:57.595Z</time>
      </trkpt>
      <trkpt lat="36.75755" lon="-3.56878">
        <ele>27.117888</ele>
        <time>2022-02-25T11:57:38.540Z</time>
      </trkpt>
      <trkpt lat="36.75621" lon="-3.56911">
        <ele>25.705593</ele>
        <time>2022-02-25T11:58:05.687Z</time>
      </trkpt>
      <trkpt lat="36.75458" lon="-3.56932">
        <ele>24.178927</ele>
        <time>2022-02-25T11:58:37.973Z</time>
      </trkpt>
      <trkpt lat="36.75292" lon="-3.57048">
        <ele>23.070535</ele>
        <time>2022-02-25T11:59:17.756Z</time>
      </trkpt>
      <trkpt lat="36.75201" lon="-3.57104">
        <ele>22.671303</ele>
        <time>2022-02-25T11:59:39.576Z</time>
      </trkpt>
      <trkpt lat="36.75145" lon="-3.57119">
        <ele>22.383494</ele>
        <time>2022-02-25T11:59:51.549Z</time>
      </trkpt>
      <trkpt lat="36.75117" lon="-3.57118">
        <ele>22.190657</ele>
        <time>2022-02-25T11:59:57.405Z</time>
      </trkpt>
      <trkpt lat="36.75097" lon="-3.57108">
        <ele>22.039575</ele>
        <time>2022-02-25T12:00:01.911Z</time>
      </trkpt>
      <trkpt lat="36.74976" lon="-3.57034">
        <ele>21.059687</ele>
        <time>2022-02-25T12:00:29.032Z</time>
      </trkpt>
      <trkpt lat="36.74952" lon="-3.57025">
        <ele>20.834446</ele>
        <time>2022-02-25T12:00:34.049Z</time>
      </trkpt>
      <trkpt lat="36.74922" lon="-3.57019">
        <ele>20.560953</ele>
        <time>2022-02-25T12:00:40.240Z</time>
      </trkpt>
      <trkpt lat="36.749" lon="-3.5702">
        <ele>20.368531</ele>
        <time>2022-02-25T12:00:44.584Z</time>
      </trkpt>
      <trkpt lat="36.74818" lon="-3.57044">
        <ele>19.626161</ele>
        <time>2022-02-25T12:01:01.392Z</time>
      </trkpt>
      <trkpt lat="36.74778" lon="-3.56997">
        <ele>19.197138</ele>
        <time>2022-02-25T12:01:12.638Z</time>
      </trkpt>
      <trkpt lat="36.74765" lon="-3.56995">
        <ele>19.100815</ele>
        <time>2022-02-25T12:01:15.146Z</time>
      </trkpt>
      <trkpt lat="36.74704" lon="-3.57077">
        <ele>18.407009</ele>
        <time>2022-02-25T12:01:33.578Z</time>
      </trkpt>
      <trkpt lat="36.7475" lon="-3.57111">
        <ele>18.096877</ele>
        <time>2022-02-25T12:01:44.907Z</time>
      </trkpt>
      <trkpt lat="36.74785" lon="-3.57133">
        <ele>17.891352</ele>
        <time>2022-02-25T12:01:53.494Z</time>
      </trkpt>
      <trkpt lat="36.7477" lon="-3.57248">
        <ele>17.406523</ele>
        <time>2022-02-25T12:02:13.205Z</time>
      </trkpt>
      <trkpt lat="36.74737" lon="-3.57388">
        <ele>16.900322</ele>
        <time>2022-02-25T12:02:37.837Z</time>
      </trkpt>
      <trkpt lat="36.7466" lon="-3.57601">
        <ele>16.039897</ele>
        <time>2022-02-25T12:03:17.197Z</time>
      </trkpt>
      <trkpt lat="36.74616" lon="-3.57742">
        <ele>15.458285</ele>
        <time>2022-02-25T12:03:42.402Z</time>
      </trkpt>
      <trkpt lat="36.74609" lon="-3.57775">
        <ele>15.324955</ele>
        <time>2022-02-25T12:03:48.169Z</time>
      </trkpt>
      <trkpt lat="36.74607" lon="-3.57807">
        <ele>15.199001</ele>
        <time>2022-02-25T12:03:53.600Z</time>
      </trkpt>
      <trkpt lat="36.74627" lon="-3.58058">
        <ele>14.604416</ele>
        <time>2022-02-25T12:04:38.386Z</time>
      </trkpt>
      <trkpt lat="36.74663" lon="-3.58258">
        <ele>14.837974</ele>
        <time>2022-02-25T12:05:17.958Z</time>
      </trkpt>
      <trkpt lat="36.74662" lon="-3.58287">
        <ele>14.902838</ele>
        <time>2022-02-25T12:05:23.814Z</time>
      </trkpt>
      <trkpt lat="36.7467" lon="-3.58292">
        <ele>14.926253</ele>
        <time>2022-02-25T12:05:25.715Z</time>
      </trkpt>
      <trkpt lat="36.74673" lon="-3.583">
        <ele>14.947086</ele>
        <time>2022-02-25T12:05:27.428Z</time>
      </trkpt>
      <trkpt lat="36.74671" lon="-3.58312">
        <ele>14.974528</ele>
        <time>2022-02-25T12:05:29.920Z</time>
      </trkpt>
      <trkpt lat="36.74662" lon="-3.58319">
        <ele>15.004282</ele>
        <time>2022-02-25T12:05:32.615Z</time>
      </trkpt>
      <trkpt lat="36.74649" lon="-3.58309">
        <ele>15.207158</ele>
        <time>2022-02-25T12:05:36.340Z</time>
      </trkpt>
      <trkpt lat="36.74636" lon="-3.58314">
        <ele>15.412002</ele>
        <time>2022-02-25T12:05:39.931Z</time>
      </trkpt>
      <trkpt lat="36.74625" lon="-3.58318">
        <ele>15.589179</ele>
        <time>2022-02-25T12:05:42.931Z</time>
      </trkpt>
      <trkpt lat="36.74605" lon="-3.58327">
        <ele>15.907909</ele>
        <time>2022-02-25T12:05:48.286Z</time>
      </trkpt>
      <trkpt lat="36.7459" lon="-3.58334">
        <ele>16.149088</ele>
        <time>2022-02-25T12:05:52.733Z</time>
      </trkpt>
      <trkpt lat="36.7457" lon="-3.58341">
        <ele>16.461026</ele>
        <time>2022-02-25T12:05:59.165Z</time>
      </trkpt>
      <trkpt lat="36.74552" lon="-3.58363">
        <ele>16.837889</ele>
        <time>2022-02-25T12:06:07.431Z</time>
      </trkpt>
      <trkpt lat="36.74552" lon="-3.58372">
        <ele>16.952528</ele>
        <time>2022-02-25T12:06:10.075Z</time>
      </trkpt>
      <trkpt lat="36.74558" lon="-3.58435">
        <ele>17.713806</ele>
        <time>2022-02-25T12:06:27.596Z</time>
      </trkpt>
      <trkpt lat="36.74529" lon="-3.58456">
        <ele>18.428173</ele>
        <time>2022-02-25T12:06:38.531Z</time>
      </trkpt>
      <trkpt lat="36.74543" lon="-3.58502">
        <ele>19.251662</ele>
        <time>2022-02-25T12:06:50.431Z</time>
      </trkpt>
      <trkpt lat="36.74553" lon="-3.58556">
        <ele>20.207137</ele>
        <time>2022-02-25T12:07:03.734Z</time>
      </trkpt>
      <trkpt lat="36.74563" lon="-3.58581">
        <ele>20.675909</ele>
        <time>2022-02-25T12:07:10.652Z</time>
      </trkpt>
      <trkpt lat="36.74572" lon="-3.58595">
        <ele>20.981169</ele>
        <time>2022-02-25T12:07:16.127Z</time>
      </trkpt>
      <trkpt lat="36.74584" lon="-3.58616">
        <ele>21.428559</ele>
        <time>2022-02-25T12:07:23.919Z</time>
      </trkpt>
      <trkpt lat="36.74599" lon="-3.58641">
        <ele>21.986932</ele>
        <time>2022-02-25T12:07:33.487Z</time>
      </trkpt>
      <trkpt lat="36.74603" lon="-3.58648">
        <ele>22.170766</ele>
        <time>2022-02-25T12:07:36.538Z</time>
      </trkpt>
      <trkpt lat="36.74613" lon="-3.58665">
        <ele>22.553508</ele>
        <time>2022-02-25T12:07:42.546Z</time>
      </trkpt>
      <trkpt lat="36.74621" lon="-3.58684">
        <ele>22.962599</ele>
        <time>2022-02-25T12:07:48.068Z</time>
      </trkpt>
      <trkpt lat="36.74625" lon="-3.58694">
        <ele>23.179002</ele>
        <time>2022-02-25T12:07:51.132Z</time>
      </trkpt>
      <trkpt lat="36.74623" lon="-3.58706">
        <ele>23.429027</ele>
        <time>2022-02-25T12:07:54.287Z</time>
      </trkpt>
      <trkpt lat="36.74613" lon="-3.58712">
        <ele>23.678472</ele>
        <time>2022-02-25T12:07:57.215Z</time>
      </trkpt>
      <trkpt lat="36.74609" lon="-3.58711">
        <ele>23.76478</ele>
        <time>2022-02-25T12:07:58.179Z</time>
      </trkpt>
      <trkpt lat="36.74588" lon="-3.58766">
        <ele>24.915077</ele>
        <time>2022-02-25T12:08:12.681Z</time>
      </trkpt>
      <trkpt lat="36.74604" lon="-3.58803">
        <ele>25.70869</ele>
        <time>2022-02-25T12:08:24.311Z</time>
      </trkpt>
      <trkpt lat="36.74628" lon="-3.58855">
        <ele>27.439919</ele>
        <time>2022-02-25T12:08:44.400Z</time>
      </trkpt>
      <trkpt lat="36.74655" lon="-3.58914">
        <ele>29.472981</ele>
        <time>2022-02-25T12:09:12.296Z</time>
      </trkpt>
      <trkpt lat="36.74651" lon="-3.58967">
        <ele>31.059947</ele>
        <time>2022-02-25T12:09:32.935Z</time>
      </trkpt>
      <trkpt lat="36.74634" lon="-3.59022">
        <ele>32.229779</ele>
        <time>2022-02-25T12:09:49.303Z</time>
      </trkpt>
      <trkpt lat="36.74625" lon="-3.59048">
        <ele>31.555145</ele>
        <time>2022-02-25T12:09:54.765Z</time>
      </trkpt>
      <trkpt lat="36.74589" lon="-3.59032">
        <ele>30.423317</ele>
        <time>2022-02-25T12:10:02.882Z</time>
      </trkpt>
      <trkpt lat="36.74583" lon="-3.59087">
        <ele>29.122655</ele>
        <time>2022-02-25T12:10:10.754Z</time>
      </trkpt>
      <trkpt lat="36.74585" lon="-3.591">
        <ele>28.808077</ele>
        <time>2022-02-25T12:10:12.475Z</time>
      </trkpt>
      <trkpt lat="36.74599" lon="-3.59135">
        <ele>27.886819</ele>
        <time>2022-02-25T12:10:17.377Z</time>
      </trkpt>
      <trkpt lat="36.74626" lon="-3.5924">
        <ele>21.391236</ele>
        <time>2022-02-25T12:10:30.079Z</time>
      </trkpt>
      <trkpt lat="36.74626" lon="-3.59272">
        <ele>19.142671</ele>
        <time>2022-02-25T12:10:33.589Z</time>
      </trkpt>
      <trkpt lat="36.74609" lon="-3.59304">
        <ele>16.414668</ele>
        <time>2022-02-25T12:10:37.869Z</time>
      </trkpt>
      <trkpt lat="36.74515" lon="-3.59381">
        <ele>8.958005</ele>
        <time>2022-02-25T12:10:54.498Z</time>
      </trkpt>
      <trkpt lat="36.74565" lon="-3.59505">
        <ele>4.21282</ele>
        <time>2022-02-25T12:11:13.421Z</time>
      </trkpt>
      <trkpt lat="36.74568" lon="-3.59527">
        <ele>3.615402</ele>
        <time>2022-02-25T12:11:17.038Z</time>
      </trkpt>
      <trkpt lat="36.74564" lon="-3.59589">
        <ele>3.723334</ele>
        <time>2022-02-25T12:11:27.690Z</time>
      </trkpt>
      <trkpt lat="36.74553" lon="-3.5964">
        <ele>3.816724</ele>
        <time>2022-02-25T12:11:37.977Z</time>
      </trkpt>
      <trkpt lat="36.74563" lon="-3.59704">
        <ele>3.931199</ele>
        <time>2022-02-25T12:11:51.881Z</time>
      </trkpt>
      <trkpt lat="36.74585" lon="-3.59927">
        <ele>5.872445</ele>
        <time>2022-02-25T12:12:44.474Z</time>
      </trkpt>
      <trkpt lat="36.74587" lon="-3.59989">
        <ele>6.629311</ele>
        <time>2022-02-25T12:12:58.020Z</time>
      </trkpt>
      <trkpt lat="36.74583" lon="-3.60042">
        <ele>7.488458</ele>
        <time>2022-02-25T12:13:09.280Z</time>
      </trkpt>
      <trkpt lat="36.74576" lon="-3.60101">
        <ele>8.442298</ele>
        <time>2022-02-25T12:13:22.630Z</time>
      </trkpt>
      <trkpt lat="36.74583" lon="-3.60118">
        <ele>8.746232</ele>
        <time>2022-02-25T12:13:27.507Z</time>
      </trkpt>
      <trkpt lat="36.74589" lon="-3.60137">
        <ele>9.058661</ele>
        <time>2022-02-25T12:13:32.998Z</time>
      </trkpt>
      <trkpt lat="36.74573" lon="-3.60151">
        <ele>9.445977</ele>
        <time>2022-02-25T12:13:38.476Z</time>
      </trkpt>
      <trkpt lat="36.74567" lon="-3.60164">
        <ele>9.688945</ele>
        <time>2022-02-25T12:13:44.267Z</time>
      </trkpt>
      <trkpt lat="36.74564" lon="-3.60185">
        <ele>10.562888</ele>
        <time>2022-02-25T12:13:50.758Z</time>
      </trkpt>
      <trkpt lat="36.74548" lon="-3.60214">
        <ele>13.000255</ele>
        <time>2022-02-25T12:14:06.432Z</time>
      </trkpt>
      <trkpt lat="36.74545" lon="-3.60228">
        <ele>14.024547</ele>
        <time>2022-02-25T12:14:11.655Z</time>
      </trkpt>
      <trkpt lat="36.74542" lon="-3.60269">
        <ele>16.857389</ele>
        <time>2022-02-25T12:14:31.930Z</time>
      </trkpt>
      <trkpt lat="36.74532" lon="-3.60291">
        <ele>18.571324</ele>
        <time>2022-02-25T12:14:46.103Z</time>
      </trkpt>
      <trkpt lat="36.74522" lon="-3.60296">
        <ele>19.47554</ele>
        <time>2022-02-25T12:14:54.189Z</time>
      </trkpt>
      <trkpt lat="36.74513" lon="-3.60296">
        <ele>20.249866</ele>
        <time>2022-02-25T12:14:59.733Z</time>
      </trkpt>
      <trkpt lat="36.74511" lon="-3.60311">
        <ele>21.35867</ele>
        <time>2022-02-25T12:15:10.474Z</time>
      </trkpt>
      <trkpt lat="36.74506" lon="-3.60323">
        <ele>22.275127</ele>
        <time>2022-02-25T12:15:19.660Z</time>
      </trkpt>
      <trkpt lat="36.74535" lon="-3.60339">
        <ele>25.006261</ele>
        <time>2022-02-25T12:15:46.431Z</time>
      </trkpt>
      <trkpt lat="36.74533" lon="-3.60349">
        <ele>25.8108</ele>
        <time>2022-02-25T12:15:54.034Z</time>
      </trkpt>
      <trkpt lat="36.74511" lon="-3.60354">
        <ele>28.341282</ele>
        <time>2022-02-25T12:16:12.880Z</time>
      </trkpt>
      <trkpt lat="36.74527" lon="-3.60381">
        <ele>31.352072</ele>
        <time>2022-02-25T12:16:35.758Z</time>
      </trkpt>
      <trkpt lat="36.74588" lon="-3.60391">
        <ele>38.283602</ele>
        <time>2022-02-25T12:17:27.524Z</time>
      </trkpt>
      <trkpt lat="36.74616" lon="-3.60381">
        <ele>41.579301</ele>
        <time>2022-02-25T12:17:49.622Z</time>
      </trkpt>
      <trkpt lat="36.74627" lon="-3.60384">
        <ele>42.847136</ele>
        <time>2022-02-25T12:17:58.129Z</time>
      </trkpt>
      <trkpt lat="36.74592" lon="-3.60413">
        <ele>46.66808</ele>
        <time>2022-02-25T12:18:25.980Z</time>
      </trkpt>
      <trkpt lat="36.74576" lon="-3.6044">
        <ele>48.456184</ele>
        <time>2022-02-25T12:18:44.309Z</time>
      </trkpt>
      <trkpt lat="36.74565" lon="-3.6049">
        <ele>51.221817</ele>
        <time>2022-02-25T12:19:08.874Z</time>
      </trkpt>
      <trkpt lat="36.74588" lon="-3.60628">
        <ele>58.068051</ele>
        <time>2022-02-25T12:20:00.760Z</time>
      </trkpt>
      <trkpt lat="36.74599" lon="-3.60706">
        <ele>60.455235</ele>
        <time>2022-02-25T12:20:29.321Z</time>
      </trkpt>
      <trkpt lat="36.746" lon="-3.60809">
        <ele>63.588644</ele>
        <time>2022-02-25T12:21:01.535Z</time>
      </trkpt>
      <trkpt lat="36.74593" lon="-3.60878">
        <ele>65.420166</ele>
        <time>2022-02-25T12:21:20.189Z</time>
      </trkpt>
      <trkpt lat="36.74576" lon="-3.6101">
        <ele>68.782034</ele>
        <time>2022-02-25T12:21:59.399Z</time>
      </trkpt>
      <trkpt lat="36.74566" lon="-3.61137">
        <ele>71.598464</ele>
        <time>2022-02-25T12:22:44.391Z</time>
      </trkpt>
      <trkpt lat="36.74564" lon="-3.61263">
        <ele>74.213124</ele>
        <time>2022-02-25T12:23:18.842Z</time>
      </trkpt>
      <trkpt lat="36.74566" lon="-3.61299">
        <ele>74.168218</ele>
        <time>2022-02-25T12:23:25.167Z</time>
      </trkpt>
      <trkpt lat="36.74552" lon="-3.61355">
        <ele>73.574884</ele>
        <time>2022-02-25T12:23:34.639Z</time>
      </trkpt>
      <trkpt lat="36.74559" lon="-3.61373">
        <ele>73.380249</ele>
        <time>2022-02-25T12:23:37.956Z</time>
      </trkpt>
      <trkpt lat="36.74543" lon="-3.61371">
        <ele>73.175607</ele>
        <time>2022-02-25T12:23:40.939Z</time>
      </trkpt>
      <trkpt lat="36.74521" lon="-3.61403">
        <ele>72.752183</ele>
        <time>2022-02-25T12:23:47.438Z</time>
      </trkpt>
      <trkpt lat="36.74505" lon="-3.61417">
        <ele>72.50984</ele>
        <time>2022-02-25T12:23:51.076Z</time>
      </trkpt>
      <trkpt lat="36.74485" lon="-3.61445">
        <ele>72.208004</ele>
        <time>2022-02-25T12:23:56.332Z</time>
      </trkpt>
      <trkpt lat="36.74448" lon="-3.61525">
        <ele>72.8306</ele>
        <time>2022-02-25T12:24:11.218Z</time>
      </trkpt>
      <trkpt lat="36.7443" lon="-3.6159">
        <ele>73.288835</ele>
        <time>2022-02-25T12:24:27.239Z</time>
      </trkpt>
      <trkpt lat="36.7441" lon="-3.61718">
        <ele>76.426805</ele>
        <time>2022-02-25T12:25:08.319Z</time>
      </trkpt>
      <trkpt lat="36.74402" lon="-3.61781">
        <ele>78.893194</ele>
        <time>2022-02-25T12:25:32.390Z</time>
      </trkpt>
      <trkpt lat="36.74388" lon="-3.61885">
        <ele>83.119664</ele>
        <time>2022-02-25T12:26:16.631Z</time>
      </trkpt>
      <trkpt lat="36.74393" lon="-3.61937">
        <ele>85.655196</ele>
        <time>2022-02-25T12:26:38.727Z</time>
      </trkpt>
      <trkpt lat="36.74408" lon="-3.6198">
        <ele>87.904619</ele>
        <time>2022-02-25T12:26:59.777Z</time>
      </trkpt>
      <trkpt lat="36.74424" lon="-3.62008">
        <ele>89.536609</ele>
        <time>2022-02-25T12:27:15.605Z</time>
      </trkpt>
      <trkpt lat="36.74529" lon="-3.62118">
        <ele>93.488071</ele>
        <time>2022-02-25T12:28:21.361Z</time>
      </trkpt>
      <trkpt lat="36.74582" lon="-3.6217">
        <ele>93.786699</ele>
        <time>2022-02-25T12:28:34.341Z</time>
      </trkpt>
      <trkpt lat="36.74604" lon="-3.62191">
        <ele>93.908719</ele>
        <time>2022-02-25T12:28:38.839Z</time>
      </trkpt>
      <trkpt lat="36.74637" lon="-3.62223">
        <ele>91.641836</ele>
        <time>2022-02-25T12:28:45.359Z</time>
      </trkpt>
      <trkpt lat="36.74644" lon="-3.6223">
        <ele>91.023082</ele>
        <time>2022-02-25T12:28:46.726Z</time>
      </trkpt>
      <trkpt lat="36.74665" lon="-3.62254">
        <ele>89.070019</ele>
        <time>2022-02-25T12:28:50.944Z</time>
      </trkpt>
      <trkpt lat="36.74677" lon="-3.62268">
        <ele>87.930482</ele>
        <time>2022-02-25T12:28:53.398Z</time>
      </trkpt>
      <trkpt lat="36.74697" lon="-3.62304">
        <ele>85.561769</ele>
        <time>2022-02-25T12:28:58.492Z</time>
      </trkpt>
      <trkpt lat="36.74705" lon="-3.62338">
        <ele>83.620876</ele>
        <time>2022-02-25T12:29:02.688Z</time>
      </trkpt>
      <trkpt lat="36.74706" lon="-3.62375">
        <ele>81.656666</ele>
        <time>2022-02-25T12:29:07.092Z</time>
      </trkpt>
      <trkpt lat="36.74696" lon="-3.62414">
        <ele>80.475367</ele>
        <time>2022-02-25T12:29:12.147Z</time>
      </trkpt>
      <trkpt lat="36.74668" lon="-3.62451">
        <ele>79.022243</ele>
        <time>2022-02-25T12:29:18.577Z</time>
      </trkpt>
      <trkpt lat="36.74637" lon="-3.62471">
        <ele>77.780337</ele>
        <time>2022-02-25T12:29:24.556Z</time>
      </trkpt>
      <trkpt lat="36.74579" lon="-3.625">
        <ele>75.544359</ele>
        <time>2022-02-25T12:29:36.089Z</time>
      </trkpt>
      <trkpt lat="36.7449" lon="-3.62543">
        <ele>75.487445</ele>
        <time>2022-02-25T12:29:59.432Z</time>
      </trkpt>
      <trkpt lat="36.74449" lon="-3.62571">
        <ele>75.595273</ele>
        <time>2022-02-25T12:30:12.149Z</time>
      </trkpt>
      <trkpt lat="36.74422" lon="-3.62603">
        <ele>75.682219</ele>
        <time>2022-02-25T12:30:21.772Z</time>
      </trkpt>
      <trkpt lat="36.74396" lon="-3.62655">
        <ele>76.03392</ele>
        <time>2022-02-25T12:30:32.448Z</time>
      </trkpt>
      <trkpt lat="36.74389" lon="-3.62689">
        <ele>76.264321</ele>
        <time>2022-02-25T12:30:38.234Z</time>
      </trkpt>
      <trkpt lat="36.74386" lon="-3.62733">
        <ele>76.552656</ele>
        <time>2022-02-25T12:30:45.056Z</time>
      </trkpt>
      <trkpt lat="36.74392" lon="-3.62921">
        <ele>79.139482</ele>
        <time>2022-02-25T12:31:38.281Z</time>
      </trkpt>
      <trkpt lat="36.74402" lon="-3.62968">
        <ele>80.166791</ele>
        <time>2022-02-25T12:31:49.984Z</time>
      </trkpt>
      <trkpt lat="36.74433" lon="-3.63023">
        <ele>81.584948</ele>
        <time>2022-02-25T12:32:10.227Z</time>
      </trkpt>
      <trkpt lat="36.74448" lon="-3.63054">
        <ele>82.253141</ele>
        <time>2022-02-25T12:32:20.958Z</time>
      </trkpt>
      <trkpt lat="36.74452" lon="-3.63072">
        <ele>82.563415</ele>
        <time>2022-02-25T12:32:26.959Z</time>
      </trkpt>
      <trkpt lat="36.7445" lon="-3.6311">
        <ele>83.194315</ele>
        <time>2022-02-25T12:32:41.098Z</time>
      </trkpt>
      <trkpt lat="36.74445" lon="-3.63132">
        <ele>83.591076</ele>
        <time>2022-02-25T12:32:47.780Z</time>
      </trkpt>
      <trkpt lat="36.74393" lon="-3.6327">
        <ele>86.379914</ele>
        <time>2022-02-25T12:33:19.076Z</time>
      </trkpt>
      <trkpt lat="36.74376" lon="-3.63331">
        <ele>87.978659</ele>
        <time>2022-02-25T12:33:37.218Z</time>
      </trkpt>
      <trkpt lat="36.7437" lon="-3.63391">
        <ele>89.473146</ele>
        <time>2022-02-25T12:33:57.045Z</time>
      </trkpt>
      <trkpt lat="36.74365" lon="-3.63611">
        <ele>97.521638</ele>
        <time>2022-02-25T12:35:15.035Z</time>
      </trkpt>
      <trkpt lat="36.74367" lon="-3.63642">
        <ele>98.815244</ele>
        <time>2022-02-25T12:35:29.302Z</time>
      </trkpt>
      <trkpt lat="36.74371" lon="-3.63666">
        <ele>99.86323</ele>
        <time>2022-02-25T12:35:40.939Z</time>
      </trkpt>
      <trkpt lat="36.7438" lon="-3.63698">
        <ele>101.326202</ele>
        <time>2022-02-25T12:35:56.563Z</time>
      </trkpt>
      <trkpt lat="36.74402" lon="-3.63749">
        <ele>103.905427</ele>
        <time>2022-02-25T12:36:21.532Z</time>
      </trkpt>
      <trkpt lat="36.74428" lon="-3.63791">
        <ele>106.304468</ele>
        <time>2022-02-25T12:36:43.617Z</time>
      </trkpt>
      <trkpt lat="36.74443" lon="-3.63812">
        <ele>107.548247</ele>
        <time>2022-02-25T12:36:54.884Z</time>
      </trkpt>
      <trkpt lat="36.74525" lon="-3.63884">
        <ele>111.62935</ele>
        <time>2022-02-25T12:37:40.383Z</time>
      </trkpt>
      <trkpt lat="36.74543" lon="-3.63915">
        <ele>112.284211</ele>
        <time>2022-02-25T12:37:50.535Z</time>
      </trkpt>
      <trkpt lat="36.74568" lon="-3.63988">
        <ele>113.627379</ele>
        <time>2022-02-25T12:38:07.118Z</time>
      </trkpt>
      <trkpt lat="36.74588" lon="-3.64015">
        <ele>114.242757</ele>
        <time>2022-02-25T12:38:14.907Z</time>
      </trkpt>
      <trkpt lat="36.74611" lon="-3.64033">
        <ele>114.471534</ele>
        <time>2022-02-25T12:38:22.833Z</time>
      </trkpt>
      <trkpt lat="36.74648" lon="-3.64043">
        <ele>114.383926</ele>
        <time>2022-02-25T12:38:33.495Z</time>
      </trkpt>
      <trkpt lat="36.74711" lon="-3.64017">
        <ele>114.231745</ele>
        <time>2022-02-25T12:38:48.452Z</time>
      </trkpt>
      <trkpt lat="36.74737" lon="-3.64013">
        <ele>114.17064</ele>
        <time>2022-02-25T12:38:53.511Z</time>
      </trkpt>
      <trkpt lat="36.7476" lon="-3.64022">
        <ele>114.116313</ele>
        <time>2022-02-25T12:38:59.639Z</time>
      </trkpt>
      <trkpt lat="36.74799" lon="-3.64062">
        <ele>111.322849</ele>
        <time>2022-02-25T12:39:08.491Z</time>
      </trkpt>
      <trkpt lat="36.74819" lon="-3.64073">
        <ele>109.763376</ele>
        <time>2022-02-25T12:39:12.166Z</time>
      </trkpt>
      <trkpt lat="36.74842" lon="-3.64075">
        <ele>108.188693</ele>
        <time>2022-02-25T12:39:15.598Z</time>
      </trkpt>
      <trkpt lat="36.74864" lon="-3.64065">
        <ele>106.503802</ele>
        <time>2022-02-25T12:39:19.078Z</time>
      </trkpt>
      <trkpt lat="36.74881" lon="-3.64056">
        <ele>105.242542</ele>
        <time>2022-02-25T12:39:21.718Z</time>
      </trkpt>
      <trkpt lat="36.74893" lon="-3.64049">
        <ele>104.356116</ele>
        <time>2022-02-25T12:39:23.493Z</time>
      </trkpt>
      <trkpt lat="36.74922" lon="-3.6404">
        <ele>102.277138</ele>
        <time>2022-02-25T12:39:27.676Z</time>
      </trkpt>
      <trkpt lat="36.74949" lon="-3.64042">
        <ele>99.830142</ele>
        <time>2022-02-25T12:39:31.540Z</time>
      </trkpt>
      <trkpt lat="36.74983" lon="-3.64064">
        <ele>96.037065</ele>
        <time>2022-02-25T12:39:36.892Z</time>
      </trkpt>
      <trkpt lat="36.75" lon="-3.6409">
        <ele>93.373681</ele>
        <time>2022-02-25T12:39:40.637Z</time>
      </trkpt>
      <trkpt lat="36.75005" lon="-3.64103">
        <ele>92.201174</ele>
        <time>2022-02-25T12:39:42.369Z</time>
      </trkpt>
      <trkpt lat="36.7501" lon="-3.6413">
        <ele>89.989752</ele>
        <time>2022-02-25T12:39:45.460Z</time>
      </trkpt>
      <trkpt lat="36.75008" lon="-3.64168">
        <ele>86.978932</ele>
        <time>2022-02-25T12:39:49.709Z</time>
      </trkpt>
      <trkpt lat="36.74991" lon="-3.64206">
        <ele>83.556405</ele>
        <time>2022-02-25T12:39:54.781Z</time>
      </trkpt>
      <trkpt lat="36.74962" lon="-3.64234">
        <ele>81.935085</ele>
        <time>2022-02-25T12:40:00.077Z</time>
      </trkpt>
      <trkpt lat="36.7484" lon="-3.64305">
        <ele>75.900068</ele>
        <time>2022-02-25T12:40:22.481Z</time>
      </trkpt>
      <trkpt lat="36.74803" lon="-3.64337">
        <ele>76.861622</ele>
        <time>2022-02-25T12:40:32.323Z</time>
      </trkpt>
      <trkpt lat="36.7477" lon="-3.64388">
        <ele>78.603111</ele>
        <time>2022-02-25T12:40:50.904Z</time>
      </trkpt>
      <trkpt lat="36.74709" lon="-3.64511">
        <ele>84.077437</ele>
        <time>2022-02-25T12:41:50.439Z</time>
      </trkpt>
      <trkpt lat="36.74698" lon="-3.64547">
        <ele>86.928186</ele>
        <time>2022-02-25T12:42:11.746Z</time>
      </trkpt>
      <trkpt lat="36.74698" lon="-3.6459">
        <ele>90.104962</ele>
        <time>2022-02-25T12:42:37.603Z</time>
      </trkpt>
      <trkpt lat="36.74703" lon="-3.64611">
        <ele>91.684626</ele>
        <time>2022-02-25T12:42:50.904Z</time>
      </trkpt>
      <trkpt lat="36.74719" lon="-3.64643">
        <ele>94.469371</ele>
        <time>2022-02-25T12:43:15.455Z</time>
      </trkpt>
      <trkpt lat="36.74743" lon="-3.64668">
        <ele>97.344109</ele>
        <time>2022-02-25T12:43:38.887Z</time>
      </trkpt>
      <trkpt lat="36.74843" lon="-3.64709">
        <ele>103.908416</ele>
        <time>2022-02-25T12:44:44.188Z</time>
      </trkpt>
      <trkpt lat="36.74922" lon="-3.64749">
        <ele>108.841158</ele>
        <time>2022-02-25T12:45:21.952Z</time>
      </trkpt>
      <trkpt lat="36.74938" lon="-3.64759">
        <ele>108.191168</ele>
        <time>2022-02-25T12:45:27.070Z</time>
      </trkpt>
      <trkpt lat="36.74948" lon="-3.64766">
        <ele>107.781735</ele>
        <time>2022-02-25T12:45:29.346Z</time>
      </trkpt>
      <trkpt lat="36.74959" lon="-3.64772">
        <ele>107.341029</ele>
        <time>2022-02-25T12:45:31.633Z</time>
      </trkpt>
      <trkpt lat="36.74994" lon="-3.64798">
        <ele>105.852489</ele>
        <time>2022-02-25T12:45:38.472Z</time>
      </trkpt>
      <trkpt lat="36.74977" lon="-3.64796">
        <ele>105.216932</ele>
        <time>2022-02-25T12:45:41.190Z</time>
      </trkpt>
      <trkpt lat="36.74955" lon="-3.64783">
        <ele>104.347039</ele>
        <time>2022-02-25T12:45:44.963Z</time>
      </trkpt>
      <trkpt lat="36.7493" lon="-3.64833">
        <ele>102.624653</ele>
        <time>2022-02-25T12:45:52.369Z</time>
      </trkpt>
      <trkpt lat="36.74915" lon="-3.64844">
        <ele>101.21627</ele>
        <time>2022-02-25T12:45:54.980Z</time>
      </trkpt>
      <trkpt lat="36.74878" lon="-3.6492">
        <ele>93.038257</ele>
        <time>2022-02-25T12:46:05.032Z</time>
      </trkpt>
      <trkpt lat="36.74865" lon="-3.64939">
        <ele>90.709839</ele>
        <time>2022-02-25T12:46:07.859Z</time>
      </trkpt>
      <trkpt lat="36.74851" lon="-3.64991">
        <ele>85.633547</ele>
        <time>2022-02-25T12:46:13.861Z</time>
      </trkpt>
      <trkpt lat="36.74824" lon="-3.64998">
        <ele>82.500928</ele>
        <time>2022-02-25T12:46:17.485Z</time>
      </trkpt>
      <trkpt lat="36.74798" lon="-3.65021">
        <ele>78.179228</ele>
        <time>2022-02-25T12:46:21.768Z</time>
      </trkpt>
      <trkpt lat="36.74772" lon="-3.65056">
        <ele>72.657586</ele>
        <time>2022-02-25T12:46:27.075Z</time>
      </trkpt>
      <trkpt lat="36.74749" lon="-3.65057">
        <ele>69.438155</ele>
        <time>2022-02-25T12:46:30.257Z</time>
      </trkpt>
      <trkpt lat="36.74746" lon="-3.65063">
        <ele>68.660556</ele>
        <time>2022-02-25T12:46:30.985Z</time>
      </trkpt>
      <trkpt lat="36.74781" lon="-3.65079">
        <ele>63.402532</ele>
        <time>2022-02-25T12:46:35.976Z</time>
      </trkpt>
      <trkpt lat="36.74822" lon="-3.65074">
        <ele>57.52018</ele>
        <time>2022-02-25T12:46:41.616Z</time>
      </trkpt>
      <trkpt lat="36.74836" lon="-3.65109">
        <ele>53.50325</ele>
        <time>2022-02-25T12:46:45.857Z</time>
      </trkpt>
      <trkpt lat="36.74847" lon="-3.6517">
        <ele>47.35092</ele>
        <time>2022-02-25T12:46:52.568Z</time>
      </trkpt>
      <trkpt lat="36.74854" lon="-3.65178">
        <ele>46.11275</ele>
        <time>2022-02-25T12:46:53.926Z</time>
      </trkpt>
      <trkpt lat="36.74887" lon="-3.65186">
        <ele>41.955474</ele>
        <time>2022-02-25T12:46:58.609Z</time>
      </trkpt>
      <trkpt lat="36.74894" lon="-3.65195">
        <ele>40.821137</ele>
        <time>2022-02-25T12:46:59.870Z</time>
      </trkpt>
      <trkpt lat="36.7491" lon="-3.65259">
        <ele>34.141657</ele>
        <time>2022-02-25T12:47:07.492Z</time>
      </trkpt>
      <trkpt lat="36.74903" lon="-3.65291">
        <ele>32.574692</ele>
        <time>2022-02-25T12:47:11.200Z</time>
      </trkpt>
      <trkpt lat="36.74934" lon="-3.65327">
        <ele>30.252731</ele>
        <time>2022-02-25T12:47:22.806Z</time>
      </trkpt>
      <trkpt lat="36.74937" lon="-3.65338">
        <ele>29.736923</ele>
        <time>2022-02-25T12:47:25.587Z</time>
      </trkpt>
      <trkpt lat="36.7493" lon="-3.65353">
        <ele>29.004607</ele>
        <time>2022-02-25T12:47:27.567Z</time>
      </trkpt>
      <trkpt lat="36.74919" lon="-3.65359">
        <ele>28.346574</ele>
        <time>2022-02-25T12:47:29.430Z</time>
      </trkpt>
      <trkpt lat="36.74949" lon="-3.6542">
        <ele>25.258535</ele>
        <time>2022-02-25T12:47:38.969Z</time>
      </trkpt>
      <trkpt lat="36.74975" lon="-3.65446">
        <ele>24.230251</ele>
        <time>2022-02-25T12:47:48.258Z</time>
      </trkpt>
      <trkpt lat="36.74999" lon="-3.65484">
        <ele>24.37575</ele>
        <time>2022-02-25T12:48:01.526Z</time>
      </trkpt>
      <trkpt lat="36.75024" lon="-3.65574">
        <ele>24.656419</ele>
        <time>2022-02-25T12:48:21.116Z</time>
      </trkpt>
      <trkpt lat="36.7503" lon="-3.65619">
        <ele>24.791408</ele>
        <time>2022-02-25T12:48:29.207Z</time>
      </trkpt>
      <trkpt lat="36.75023" lon="-3.65656">
        <ele>25.016888</ele>
        <time>2022-02-25T12:48:35.746Z</time>
      </trkpt>
      <trkpt lat="36.75015" lon="-3.65674">
        <ele>25.195455</ele>
        <time>2022-02-25T12:48:38.878Z</time>
      </trkpt>
      <trkpt lat="36.75011" lon="-3.65691">
        <ele>25.34911</ele>
        <time>2022-02-25T12:48:42.146Z</time>
      </trkpt>
      <trkpt lat="36.74998" lon="-3.65698">
        <ele>25.502313</ele>
        <time>2022-02-25T12:48:45.043Z</time>
      </trkpt>
      <trkpt lat="36.74993" lon="-3.65715">
        <ele>25.659401</ele>
        <time>2022-02-25T12:48:49.788Z</time>
      </trkpt>
      <trkpt lat="36.74961" lon="-3.65737">
        <ele>26.05941</ele>
        <time>2022-02-25T12:49:01.407Z</time>
      </trkpt>
      <trkpt lat="36.74894" lon="-3.65806">
        <ele>26.858028</ele>
        <time>2022-02-25T12:49:28.355Z</time>
      </trkpt>
      <trkpt lat="36.7488" lon="-3.65836">
        <ele>26.944247</ele>
        <time>2022-02-25T12:49:37.994Z</time>
      </trkpt>
      <trkpt lat="36.74882" lon="-3.65871">
        <ele>27.035162</ele>
        <time>2022-02-25T12:49:47.451Z</time>
      </trkpt>
      <trkpt lat="36.74913" lon="-3.6593">
        <ele>27.212874</ele>
        <time>2022-02-25T12:50:04.746Z</time>
      </trkpt>
      <trkpt lat="36.74914" lon="-3.65956">
        <ele>27.281025</ele>
        <time>2022-02-25T12:50:08.548Z</time>
      </trkpt>
      <trkpt lat="36.74906" lon="-3.65971">
        <ele>27.326483</ele>
        <time>2022-02-25T12:50:11.312Z</time>
      </trkpt>
      <trkpt lat="36.74872" lon="-3.65983">
        <ele>25.88096</ele>
        <time>2022-02-25T12:50:17.306Z</time>
      </trkpt>
      <trkpt lat="36.74835" lon="-3.66005">
        <ele>23.164508</ele>
        <time>2022-02-25T12:50:23.520Z</time>
      </trkpt>
      <trkpt lat="36.7481" lon="-3.66035">
        <ele>20.781583</ele>
        <time>2022-02-25T12:50:28.740Z</time>
      </trkpt>
      <trkpt lat="36.74796" lon="-3.66064">
        <ele>18.979301</ele>
        <time>2022-02-25T12:50:32.557Z</time>
      </trkpt>
      <trkpt lat="36.74759" lon="-3.66114">
        <ele>15.319327</ele>
        <time>2022-02-25T12:50:40.697Z</time>
      </trkpt>
      <trkpt lat="36.74714" lon="-3.66151">
        <ele>12.763327</ele>
        <time>2022-02-25T12:50:48.646Z</time>
      </trkpt>
      <trkpt lat="36.74674" lon="-3.66206">
        <ele>9.966149</ele>
        <time>2022-02-25T12:50:57.744Z</time>
      </trkpt>
      <trkpt lat="36.74648" lon="-3.66223">
        <ele>8.562527</ele>
        <time>2022-02-25T12:51:03.036Z</time>
      </trkpt>
      <trkpt lat="36.74635" lon="-3.66217">
        <ele>7.918344</ele>
        <time>2022-02-25T12:51:05.464Z</time>
      </trkpt>
      <trkpt lat="36.74599" lon="-3.66197">
        <ele>6.878891</ele>
        <time>2022-02-25T12:51:13.636Z</time>
      </trkpt>
      <trkpt lat="36.74583" lon="-3.66188">
        <ele>6.963186</ele>
        <time>2022-02-25T12:51:18.406Z</time>
      </trkpt>
      <trkpt lat="36.74575" lon="-3.66203">
        <ele>7.030781</ele>
        <time>2022-02-25T12:51:21.572Z</time>
      </trkpt>
      <trkpt lat="36.74566" lon="-3.66236">
        <ele>7.162104</ele>
        <time>2022-02-25T12:51:29.970Z</time>
      </trkpt>
      <trkpt lat="36.74559" lon="-3.66244">
        <ele>7.207445</ele>
        <time>2022-02-25T12:51:32.453Z</time>
      </trkpt>
      <trkpt lat="36.74494" lon="-3.66281">
        <ele>7.541082</ele>
        <time>2022-02-25T12:51:52.288Z</time>
      </trkpt>
      <trkpt lat="36.7447" lon="-3.66302">
        <ele>7.594982</ele>
        <time>2022-02-25T12:51:59.679Z</time>
      </trkpt>
      <trkpt lat="36.74461" lon="-3.66317">
        <ele>7.446286</ele>
        <time>2022-02-25T12:52:03.398Z</time>
      </trkpt>
      <trkpt lat="36.74447" lon="-3.66339">
        <ele>7.241517</ele>
        <time>2022-02-25T12:52:08.831Z</time>
      </trkpt>
      <trkpt lat="36.74434" lon="-3.66352">
        <ele>7.086548</ele>
        <time>2022-02-25T12:52:12.145Z</time>
      </trkpt>
      <trkpt lat="36.74414" lon="-3.66369">
        <ele>6.864888</ele>
        <time>2022-02-25T12:52:16.812Z</time>
      </trkpt>
      <trkpt lat="36.74391" lon="-3.66372">
        <ele>6.642751</ele>
        <time>2022-02-25T12:52:21.533Z</time>
      </trkpt>
      <trkpt lat="36.74384" lon="-3.66372">
        <ele>6.575573</ele>
        <time>2022-02-25T12:52:22.965Z</time>
      </trkpt>
      <trkpt lat="36.74373" lon="-3.66372">
        <ele>6.479514</ele>
        <time>2022-02-25T12:52:25.026Z</time>
      </trkpt>
      <trkpt lat="36.74357" lon="-3.66376">
        <ele>6.324886</ele>
        <time>2022-02-25T12:52:28.276Z</time>
      </trkpt>
      <trkpt lat="36.74346" lon="-3.66384">
        <ele>6.206607</ele>
        <time>2022-02-25T12:52:30.552Z</time>
      </trkpt>
      <trkpt lat="36.74328" lon="-3.66415">
        <ele>5.883955</ele>
        <time>2022-02-25T12:52:36.087Z</time>
      </trkpt>
      <trkpt lat="36.74306" lon="-3.66454">
        <ele>5.263154</ele>
        <time>2022-02-25T12:52:42.719Z</time>
      </trkpt>
      <trkpt lat="36.74296" lon="-3.66474">
        <ele>4.944123</ele>
        <time>2022-02-25T12:52:46.200Z</time>
      </trkpt>
      <trkpt lat="36.74281" lon="-3.66494">
        <ele>4.587352</ele>
        <time>2022-02-25T12:52:50.097Z</time>
      </trkpt>
      <trkpt lat="36.74266" lon="-3.66512">
        <ele>4.241355</ele>
        <time>2022-02-25T12:52:54.059Z</time>
      </trkpt>
      <trkpt lat="36.74263" lon="-3.66509">
        <ele>4.186846</ele>
        <time>2022-02-25T12:52:56.347Z</time>
      </trkpt>
      <trkpt lat="36.74262" lon="-3.66507">
        <ele>4.151829</ele>
        <time>2022-02-25T12:52:57.871Z</time>
      </trkpt>
      <trkpt lat="36.74211" lon="-3.66566">
        <ele>3.023416</ele>
        <time>2022-02-25T12:53:12.392Z</time>
      </trkpt>
      <trkpt lat="36.7417" lon="-3.66614">
        <ele>2.802797</ele>
        <time>2022-02-25T12:53:25.220Z</time>
      </trkpt>
      <trkpt lat="36.74092" lon="-3.66703">
        <ele>2.390562</ele>
        <time>2022-02-25T12:53:48.325Z</time>
      </trkpt>
      <trkpt lat="36.74048" lon="-3.66755">
        <ele>2.187731</ele>
        <time>2022-02-25T12:54:02.307Z</time>
      </trkpt>
      <trkpt lat="36.74025" lon="-3.66776">
        <ele>2.099575</ele>
        <time>2022-02-25T12:54:08.684Z</time>
      </trkpt>
      <trkpt lat="36.73956" lon="-3.66827">
        <ele>1.85173</ele>
        <time>2022-02-25T12:54:26.302Z</time>
      </trkpt>
      <trkpt lat="36.73909" lon="-3.66859">
        <ele>1.82408</ele>
        <time>2022-02-25T12:54:38.069Z</time>
      </trkpt>
      <trkpt lat="36.73837" lon="-3.66917">
        <ele>2.01824</ele>
        <time>2022-02-25T12:54:58.719Z</time>
      </trkpt>
      <trkpt lat="36.73793" lon="-3.66957">
        <ele>2.140691</ele>
        <time>2022-02-25T12:55:12.688Z</time>
      </trkpt>
      <trkpt lat="36.73742" lon="-3.67016">
        <ele>2.444159</ele>
        <time>2022-02-25T12:55:32.064Z</time>
      </trkpt>
      <trkpt lat="36.73692" lon="-3.67071">
        <ele>2.76892</ele>
        <time>2022-02-25T12:55:49.605Z</time>
      </trkpt>
      <trkpt lat="36.73634" lon="-3.67115">
        <ele>3.034072</ele>
        <time>2022-02-25T12:56:05.671Z</time>
      </trkpt>
      <trkpt lat="36.73608" lon="-3.67139">
        <ele>2.989546</ele>
        <time>2022-02-25T12:56:13.095Z</time>
      </trkpt>
      <trkpt lat="36.73576" lon="-3.67173">
        <ele>2.932038</ele>
        <time>2022-02-25T12:56:22.250Z</time>
      </trkpt>
      <trkpt lat="36.73545" lon="-3.67203">
        <ele>2.877954</ele>
        <time>2022-02-25T12:56:30.891Z</time>
      </trkpt>
      <trkpt lat="36.73526" lon="-3.67214">
        <ele>2.848967</ele>
        <time>2022-02-25T12:56:35.503Z</time>
      </trkpt>
      <trkpt lat="36.73481" lon="-3.67248">
        <ele>2.899396</ele>
        <time>2022-02-25T12:56:48.280Z</time>
      </trkpt>
      <trkpt lat="36.73451" lon="-3.67261">
        <ele>3.079323</ele>
        <time>2022-02-25T12:56:55.804Z</time>
      </trkpt>
      <trkpt lat="36.73419" lon="-3.67283">
        <ele>3.281637</ele>
        <time>2022-02-25T12:57:04.479Z</time>
      </trkpt>
      <trkpt lat="36.73405" lon="-3.67303">
        <ele>3.403814</ele>
        <time>2022-02-25T12:57:10.142Z</time>
      </trkpt>
      <trkpt lat="36.73368" lon="-3.6733">
        <ele>3.645002</ele>
        <time>2022-02-25T12:57:22.370Z</time>
      </trkpt>
      <trkpt lat="36.73342" lon="-3.67339">
        <ele>3.798002</ele>
        <time>2022-02-25T12:57:30.152Z</time>
      </trkpt>
      <trkpt lat="36.73316" lon="-3.67333">
        <ele>4.029878</ele>
        <time>2022-02-25T12:57:37.629Z</time>
      </trkpt>
      <trkpt lat="36.73312" lon="-3.67331">
        <ele>4.065249</ele>
        <time>2022-02-25T12:57:38.782Z</time>
      </trkpt>
      <trkpt lat="36.73286" lon="-3.67332">
        <ele>4.301962</ele>
        <time>2022-02-25T12:57:46.487Z</time>
      </trkpt>
      <trkpt lat="36.7326" lon="-3.67343">
        <ele>4.550897</ele>
        <time>2022-02-25T12:57:54.555Z</time>
      </trkpt>
      <trkpt lat="36.73262" lon="-3.67348">
        <ele>4.594271</ele>
        <time>2022-02-25T12:57:55.860Z</time>
      </trkpt>
      <trkpt lat="36.73249" lon="-3.67361">
        <ele>4.743716</ele>
        <time>2022-02-25T12:58:00.462Z</time>
      </trkpt>
      <trkpt lat="36.73216" lon="-3.67409">
        <ele>5.198685</ele>
        <time>2022-02-25T12:58:13.055Z</time>
      </trkpt>
      <trkpt lat="36.73209" lon="-3.6742">
        <ele>5.30647</ele>
        <time>2022-02-25T12:58:15.798Z</time>
      </trkpt>
      <trkpt lat="36.73135" lon="-3.67531">
        <ele>5.743086</ele>
        <time>2022-02-25T12:58:45.376Z</time>
      </trkpt>
      <trkpt lat="36.73099" lon="-3.67595">
        <ele>5.928371</ele>
        <time>2022-02-25T12:58:59.033Z</time>
      </trkpt>
      <trkpt lat="36.7306" lon="-3.67665">
        <ele>6.104441</ele>
        <time>2022-02-25T12:59:14.214Z</time>
      </trkpt>
      <trkpt lat="36.73042" lon="-3.67694">
        <ele>6.174512</ele>
        <time>2022-02-25T12:59:20.486Z</time>
      </trkpt>
      <trkpt lat="36.73018" lon="-3.67743">
        <ele>6.285289</ele>
        <time>2022-02-25T12:59:30.750Z</time>
      </trkpt>
      <trkpt lat="36.73004" lon="-3.67793">
        <ele>6.388812</ele>
        <time>2022-02-25T12:59:40.982Z</time>
      </trkpt>
      <trkpt lat="36.73006" lon="-3.67883">
        <ele>7.258895</ele>
        <time>2022-02-25T13:00:02.245Z</time>
      </trkpt>
      <trkpt lat="36.73007" lon="-3.67887">
        <ele>7.306517</ele>
        <time>2022-02-25T13:00:03.410Z</time>
      </trkpt>
      <trkpt lat="36.73011" lon="-3.67948">
        <ele>7.978055</ele>
        <time>2022-02-25T13:00:19.239Z</time>
      </trkpt>
      <trkpt lat="36.73017" lon="-3.67974">
        <ele>8.278372</ele>
        <time>2022-02-25T13:00:25.959Z</time>
      </trkpt>
      <trkpt lat="36.73029" lon="-3.68019">
        <ele>8.801227</ele>
        <time>2022-02-25T13:00:36.843Z</time>
      </trkpt>
      <trkpt lat="36.73046" lon="-3.68083">
        <ele>8.789294</ele>
        <time>2022-02-25T13:00:50.821Z</time>
      </trkpt>
      <trkpt lat="36.7307" lon="-3.68155">
        <ele>8.649721</ele>
        <time>2022-02-25T13:01:05.282Z</time>
      </trkpt>
      <trkpt lat="36.73096" lon="-3.68245">
        <ele>8.358096</ele>
        <time>2022-02-25T13:01:20.321Z</time>
      </trkpt>
      <trkpt lat="36.731" lon="-3.6827">
        <ele>7.941727</ele>
        <time>2022-02-25T13:01:24.098Z</time>
      </trkpt>
      <trkpt lat="36.73102" lon="-3.6829">
        <ele>7.617538</ele>
        <time>2022-02-25T13:01:26.926Z</time>
      </trkpt>
      <trkpt lat="36.73103" lon="-3.6836">
        <ele>6.489515</ele>
        <time>2022-02-25T13:01:36.865Z</time>
      </trkpt>
      <trkpt lat="36.73103" lon="-3.68372">
        <ele>6.296751</ele>
        <time>2022-02-25T13:01:38.539Z</time>
      </trkpt>
      <trkpt lat="36.73102" lon="-3.68393">
        <ele>5.953519</ele>
        <time>2022-02-25T13:01:41.598Z</time>
      </trkpt>
      <trkpt lat="36.73101" lon="-3.68447">
        <ele>5.084314</ele>
        <time>2022-02-25T13:01:49.515Z</time>
      </trkpt>
      <trkpt lat="36.731" lon="-3.68487">
        <ele>4.734504</ele>
        <time>2022-02-25T13:01:55.563Z</time>
      </trkpt>
      <trkpt lat="36.73099" lon="-3.68516">
        <ele>4.591749</ele>
        <time>2022-02-25T13:02:00.011Z</time>
      </trkpt>
      <trkpt lat="36.731" lon="-3.68558">
        <ele>4.386664</ele>
        <time>2022-02-25T13:02:06.545Z</time>
      </trkpt>
      <trkpt lat="36.73101" lon="-3.68601">
        <ele>4.178974</ele>
        <time>2022-02-25T13:02:13.508Z</time>
      </trkpt>
      <trkpt lat="36.73102" lon="-3.68609">
        <ele>4.138998</ele>
        <time>2022-02-25T13:02:14.919Z</time>
      </trkpt>
      <trkpt lat="36.73102" lon="-3.68616">
        <ele>4.106346</ele>
        <time>2022-02-25T13:02:16.105Z</time>
      </trkpt>
      <trkpt lat="36.73103" lon="-3.68649">
        <ele>3.942622</ele>
        <time>2022-02-25T13:02:22.207Z</time>
      </trkpt>
      <trkpt lat="36.73103" lon="-3.6866">
        <ele>3.891455</ele>
        <time>2022-02-25T13:02:24.336Z</time>
      </trkpt>
      <trkpt lat="36.73108" lon="-3.68719">
        <ele>4.278393</ele>
        <time>2022-02-25T13:02:37.275Z</time>
      </trkpt>
      <trkpt lat="36.73116" lon="-3.68726">
        <ele>4.459331</ele>
        <time>2022-02-25T13:02:40.196Z</time>
      </trkpt>
      <trkpt lat="36.73206" lon="-3.6873">
        <ele>6.078792</ele>
        <time>2022-02-25T13:03:08.831Z</time>
      </trkpt>
      <trkpt lat="36.73233" lon="-3.68731">
        <ele>6.56471</ele>
        <time>2022-02-25T13:03:18.470Z</time>
      </trkpt>
      <trkpt lat="36.73256" lon="-3.68739">
        <ele>6.987452</ele>
        <time>2022-02-25T13:03:26.749Z</time>
      </trkpt>
      <trkpt lat="36.73256" lon="-3.68736">
        <ele>7.021438</ele>
        <time>2022-02-25T13:03:27.307Z</time>
      </trkpt>
      <trkpt lat="36.73266" lon="-3.68731">
        <ele>7.118047</ele>
        <time>2022-02-25T13:03:30.701Z</time>
      </trkpt>
      <trkpt lat="36.73277" lon="-3.68738">
        <ele>7.235633</ele>
        <time>2022-02-25T13:03:35.189Z</time>
      </trkpt>
      <trkpt lat="36.73279" lon="-3.68749">
        <ele>7.320287</ele>
        <time>2022-02-25T13:03:38.367Z</time>
      </trkpt>
      <trkpt lat="36.73273" lon="-3.6876">
        <ele>7.418717</ele>
        <time>2022-02-25T13:03:41.721Z</time>
      </trkpt>
      <trkpt lat="36.7326" lon="-3.6876">
        <ele>7.537032</ele>
        <time>2022-02-25T13:03:45.507Z</time>
      </trkpt>
      <trkpt lat="36.73255" lon="-3.68785">
        <ele>7.726994</ele>
        <time>2022-02-25T13:03:51.584Z</time>
      </trkpt>
      <trkpt lat="36.7324" lon="-3.68815">
        <ele>7.999753</ele>
        <time>2022-02-25T13:03:59.394Z</time>
      </trkpt>
      <trkpt lat="36.73225" lon="-3.68846">
        <ele>8.268967</ele>
        <time>2022-02-25T13:04:05.785Z</time>
      </trkpt>
      <trkpt lat="36.73196" lon="-3.68845">
        <ele>8.541394</ele>
        <time>2022-02-25T13:04:13.692Z</time>
      </trkpt>
      <trkpt lat="36.73186" lon="-3.68877">
        <ele>8.638886</ele>
        <time>2022-02-25T13:04:21.411Z</time>
      </trkpt>
      <trkpt lat="36.73176" lon="-3.68921">
        <ele>8.387064</ele>
        <time>2022-02-25T13:04:32.304Z</time>
      </trkpt>
      <trkpt lat="36.73175" lon="-3.68925">
        <ele>8.365846</ele>
        <time>2022-02-25T13:04:32.974Z</time>
      </trkpt>
      <trkpt lat="36.73178" lon="-3.68929">
        <ele>8.333376</ele>
        <time>2022-02-25T13:04:34.512Z</time>
      </trkpt>
      <trkpt lat="36.73172" lon="-3.68956">
        <ele>8.18306</ele>
        <time>2022-02-25T13:04:42.450Z</time>
      </trkpt>
      <trkpt lat="36.73167" lon="-3.68972">
        <ele>8.085631</ele>
        <time>2022-02-25T13:04:45.941Z</time>
      </trkpt>
      <trkpt lat="36.73144" lon="-3.6905">
        <ele>7.62573</ele>
        <time>2022-02-25T13:04:58.819Z</time>
      </trkpt>
      <trkpt lat="36.73132" lon="-3.69078">
        <ele>7.449219</ele>
        <time>2022-02-25T13:05:05.723Z</time>
      </trkpt>
      <trkpt lat="36.73115" lon="-3.69123">
        <ele>7.163627</ele>
        <time>2022-02-25T13:05:13.696Z</time>
      </trkpt>
      <trkpt lat="36.73103" lon="-3.69138">
        <ele>7.04251</ele>
        <time>2022-02-25T13:05:17.337Z</time>
      </trkpt>
      <trkpt lat="36.73096" lon="-3.69145">
        <ele>6.982079</ele>
        <time>2022-02-25T13:05:19.554Z</time>
      </trkpt>
      <trkpt lat="36.7308" lon="-3.69161">
        <ele>6.835639</ele>
        <time>2022-02-25T13:05:23.314Z</time>
      </trkpt>
      <trkpt lat="36.73035" lon="-3.69189">
        <ele>6.474703</ele>
        <time>2022-02-25T13:05:36.081Z</time>
      </trkpt>
      <trkpt lat="36.7302" lon="-3.69206">
        <ele>6.333208</ele>
        <time>2022-02-25T13:05:39.864Z</time>
      </trkpt>
      <trkpt lat="36.7298" lon="-3.69302">
        <ele>6.246255</ele>
        <time>2022-02-25T13:05:57.778Z</time>
      </trkpt>
      <trkpt lat="36.72939" lon="-3.69358">
        <ele>6.302601</ele>
        <time>2022-02-25T13:06:13.687Z</time>
      </trkpt>
      <trkpt lat="36.72931" lon="-3.69391">
        <ele>6.328279</ele>
        <time>2022-02-25T13:06:20.361Z</time>
      </trkpt>
      <trkpt lat="36.72931" lon="-3.69406">
        <ele>6.339774</ele>
        <time>2022-02-25T13:06:23.039Z</time>
      </trkpt>
      <trkpt lat="36.72929" lon="-3.69432">
        <ele>6.322641</ele>
        <time>2022-02-25T13:06:28.073Z</time>
      </trkpt>
      <trkpt lat="36.72925" lon="-3.69453">
        <ele>6.256485</ele>
        <time>2022-02-25T13:06:31.744Z</time>
      </trkpt>
      <trkpt lat="36.72928" lon="-3.6947">
        <ele>6.20297</ele>
        <time>2022-02-25T13:06:35.130Z</time>
      </trkpt>
      <trkpt lat="36.72972" lon="-3.69538">
        <ele>5.933428</ele>
        <time>2022-02-25T13:06:50.233Z</time>
      </trkpt>
      <trkpt lat="36.73007" lon="-3.69593">
        <ele>5.713866</ele>
        <time>2022-02-25T13:07:01.639Z</time>
      </trkpt>
      <trkpt lat="36.73046" lon="-3.69652">
        <ele>5.363506</ele>
        <time>2022-02-25T13:07:13.789Z</time>
      </trkpt>
      <trkpt lat="36.7306" lon="-3.69674">
        <ele>5.225084</ele>
        <time>2022-02-25T13:07:18.087Z</time>
      </trkpt>
      <trkpt lat="36.73073" lon="-3.69694">
        <ele>5.090601</ele>
        <time>2022-02-25T13:07:22.553Z</time>
      </trkpt>
      <trkpt lat="36.73078" lon="-3.69703">
        <ele>5.036533</ele>
        <time>2022-02-25T13:07:24.284Z</time>
      </trkpt>
      <trkpt lat="36.73086" lon="-3.69715">
        <ele>4.957266</ele>
        <time>2022-02-25T13:07:27.005Z</time>
      </trkpt>
      <trkpt lat="36.73087" lon="-3.69716">
        <ele>4.947358</ele>
        <time>2022-02-25T13:07:27.368Z</time>
      </trkpt>
      <trkpt lat="36.73144" lon="-3.69803">
        <ele>4.548158</ele>
        <time>2022-02-25T13:07:46.443Z</time>
      </trkpt>
      <trkpt lat="36.73141" lon="-3.69808">
        <ele>4.554338</ele>
        <time>2022-02-25T13:07:47.480Z</time>
      </trkpt>
      <trkpt lat="36.73146" lon="-3.69837">
        <ele>4.584774</ele>
        <time>2022-02-25T13:07:53.079Z</time>
      </trkpt>
      <trkpt lat="36.73159" lon="-3.69847">
        <ele>4.60453</ele>
        <time>2022-02-25T13:07:56.708Z</time>
      </trkpt>
      <trkpt lat="36.73177" lon="-3.69877">
        <ele>4.642091</ele>
        <time>2022-02-25T13:08:03.918Z</time>
      </trkpt>
      <trkpt lat="36.73193" lon="-3.69892">
        <ele>4.667647</ele>
        <time>2022-02-25T13:08:08.806Z</time>
      </trkpt>
      <trkpt lat="36.73322" lon="-3.70088">
        <ele>5.458582</ele>
        <time>2022-02-25T13:09:00.103Z</time>
      </trkpt>
      <trkpt lat="36.73358" lon="-3.70156">
        <ele>5.677027</ele>
        <time>2022-02-25T13:09:18.701Z</time>
      </trkpt>
      <trkpt lat="36.73362" lon="-3.70177">
        <ele>5.686025</ele>
        <time>2022-02-25T13:09:22.558Z</time>
      </trkpt>
      <trkpt lat="36.73377" lon="-3.70185">
        <ele>5.694689</ele>
        <time>2022-02-25T13:09:27.142Z</time>
      </trkpt>
      <trkpt lat="36.73393" lon="-3.70213">
        <ele>5.709271</ele>
        <time>2022-02-25T13:09:33.226Z</time>
      </trkpt>
      <trkpt lat="36.73401" lon="-3.70215">
        <ele>5.713259</ele>
        <time>2022-02-25T13:09:35.734Z</time>
      </trkpt>
      <trkpt lat="36.73403" lon="-3.70226">
        <ele>5.718016</ele>
        <time>2022-02-25T13:09:37.613Z</time>
      </trkpt>
      <trkpt lat="36.73403" lon="-3.70229">
        <ele>5.719561</ele>
        <time>2022-02-25T13:09:38.214Z</time>
      </trkpt>
      <trkpt lat="36.73408" lon="-3.7026">
        <ele>5.732885</ele>
        <time>2022-02-25T13:09:43.869Z</time>
      </trkpt>
      <trkpt lat="36.73408" lon="-3.70293">
        <ele>5.746457</ele>
        <time>2022-02-25T13:09:49.053Z</time>
      </trkpt>
      <trkpt lat="36.73415" lon="-3.70305">
        <ele>5.753079</ele>
        <time>2022-02-25T13:09:52.853Z</time>
      </trkpt>
      <trkpt lat="36.7341" lon="-3.70314">
        <ele>5.755714</ele>
        <time>2022-02-25T13:09:54.760Z</time>
      </trkpt>
      <trkpt lat="36.73404" lon="-3.70315">
        <ele>5.679339</ele>
        <time>2022-02-25T13:09:56.002Z</time>
      </trkpt>
      <trkpt lat="36.73396" lon="-3.70347">
        <ele>5.35979</ele>
        <time>2022-02-25T13:10:02.120Z</time>
      </trkpt>
      <trkpt lat="36.73388" lon="-3.70455">
        <ele>4.303435</ele>
        <time>2022-02-25T13:10:18.151Z</time>
      </trkpt>
      <trkpt lat="36.73398" lon="-3.70485">
        <ele>3.987065</ele>
        <time>2022-02-25T13:10:23.098Z</time>
      </trkpt>
      <trkpt lat="36.73398" lon="-3.70518">
        <ele>3.666043</ele>
        <time>2022-02-25T13:10:28.205Z</time>
      </trkpt>
      <trkpt lat="36.73366" lon="-3.70565">
        <ele>3.385162</ele>
        <time>2022-02-25T13:10:38.438Z</time>
      </trkpt>
      <trkpt lat="36.73344" lon="-3.70593">
        <ele>3.235593</ele>
        <time>2022-02-25T13:10:45.146Z</time>
      </trkpt>
      <trkpt lat="36.73333" lon="-3.70621">
        <ele>3.117779</ele>
        <time>2022-02-25T13:10:50.320Z</time>
      </trkpt>
      <trkpt lat="36.73328" lon="-3.70653">
        <ele>2.996125</ele>
        <time>2022-02-25T13:10:55.619Z</time>
      </trkpt>
      <trkpt lat="36.73316" lon="-3.70737">
        <ele>2.775537</ele>
        <time>2022-02-25T13:11:10.188Z</time>
      </trkpt>
      <trkpt lat="36.73304" lon="-3.70777">
        <ele>2.872356</ele>
        <time>2022-02-25T13:11:19.521Z</time>
      </trkpt>
      <trkpt lat="36.73287" lon="-3.70822">
        <ele>2.987124</ele>
        <time>2022-02-25T13:11:30.641Z</time>
      </trkpt>
      <trkpt lat="36.73246" lon="-3.70914">
        <ele>3.232</ele>
        <time>2022-02-25T13:11:49.365Z</time>
      </trkpt>
      <trkpt lat="36.73193" lon="-3.70963">
        <ele>3.628232</ele>
        <time>2022-02-25T13:12:03.865Z</time>
      </trkpt>
      <trkpt lat="36.73186" lon="-3.70984">
        <ele>3.748982</ele>
        <time>2022-02-25T13:12:09.097Z</time>
      </trkpt>
      <trkpt lat="36.7319" lon="-3.71023">
        <ele>3.954356</ele>
        <time>2022-02-25T13:12:17.941Z</time>
      </trkpt>
      <trkpt lat="36.73234" lon="-3.71118">
        <ele>4.893811</ele>
        <time>2022-02-25T13:12:40.621Z</time>
      </trkpt>
      <trkpt lat="36.73236" lon="-3.71144">
        <ele>5.513156</ele>
        <time>2022-02-25T13:12:46.784Z</time>
      </trkpt>
      <trkpt lat="36.73227" lon="-3.71177">
        <ele>6.335824</ele>
        <time>2022-02-25T13:12:55.004Z</time>
      </trkpt>
      <trkpt lat="36.73223" lon="-3.71198">
        <ele>6.84791</ele>
        <time>2022-02-25T13:13:00.605Z</time>
      </trkpt>
      <trkpt lat="36.73252" lon="-3.71292">
        <ele>9.265703</ele>
        <time>2022-02-25T13:13:35.825Z</time>
      </trkpt>
      <trkpt lat="36.73256" lon="-3.71302">
        <ele>9.542841</ele>
        <time>2022-02-25T13:13:39.424Z</time>
      </trkpt>
      <trkpt lat="36.73287" lon="-3.71326">
        <ele>11.194323</ele>
        <time>2022-02-25T13:13:56.328Z</time>
      </trkpt>
      <trkpt lat="36.73319" lon="-3.71344">
        <ele>12.928237</ele>
        <time>2022-02-25T13:14:12.663Z</time>
      </trkpt>
      <trkpt lat="36.73322" lon="-3.7135">
        <ele>13.202753</ele>
        <time>2022-02-25T13:14:14.232Z</time>
      </trkpt>
      <trkpt lat="36.73342" lon="-3.71349">
        <ele>14.215684</ele>
        <time>2022-02-25T13:14:26.177Z</time>
      </trkpt>
      <trkpt lat="36.73385" lon="-3.71358">
        <ele>16.386857</ele>
        <time>2022-02-25T13:14:47.187Z</time>
      </trkpt>
      <trkpt lat="36.73446" lon="-3.71353">
        <ele>19.281223</ele>
        <time>2022-02-25T13:15:18.300Z</time>
      </trkpt>
      <trkpt lat="36.73466" lon="-3.71377">
        <ele>20.332318</ele>
        <time>2022-02-25T13:15:30.613Z</time>
      </trkpt>
      <trkpt lat="36.73502" lon="-3.71372">
        <ele>21.676662</ele>
        <time>2022-02-25T13:15:44.524Z</time>
      </trkpt>
      <trkpt lat="36.73531" lon="-3.71376">
        <ele>22.751405</ele>
        <time>2022-02-25T13:15:52.544Z</time>
      </trkpt>
      <trkpt lat="36.73529" lon="-3.71384">
        <ele>22.998611</ele>
        <time>2022-02-25T13:15:55.124Z</time>
      </trkpt>
      <trkpt lat="36.73507" lon="-3.71389">
        <ele>23.824869</ele>
        <time>2022-02-25T13:16:04.622Z</time>
      </trkpt>
      <trkpt lat="36.73477" lon="-3.7142">
        <ele>25.306198</ele>
        <time>2022-02-25T13:16:19.986Z</time>
      </trkpt>
      <trkpt lat="36.73454" lon="-3.71414">
        <ele>27.055259</ele>
        <time>2022-02-25T13:16:31.163Z</time>
      </trkpt>
      <trkpt lat="36.73444" lon="-3.71418">
        <ele>28.067415</ele>
        <time>2022-02-25T13:16:35.891Z</time>
      </trkpt>
      <trkpt lat="36.73418" lon="-3.71443">
        <ele>31.025626</ele>
        <time>2022-02-25T13:16:55.722Z</time>
      </trkpt>
      <trkpt lat="36.73417" lon="-3.71458">
        <ele>32.067215</ele>
        <time>2022-02-25T13:17:00.772Z</time>
      </trkpt>
      <trkpt lat="36.73426" lon="-3.71476">
        <ele>33.626044</ele>
        <time>2022-02-25T13:17:13.095Z</time>
      </trkpt>
      <trkpt lat="36.73427" lon="-3.71504">
        <ele>35.677345</ele>
        <time>2022-02-25T13:17:33.313Z</time>
      </trkpt>
      <trkpt lat="36.73414" lon="-3.71542">
        <ele>38.602784</ele>
        <time>2022-02-25T13:17:58.789Z</time>
      </trkpt>
      <trkpt lat="36.73421" lon="-3.71569">
        <ele>40.668698</ele>
        <time>2022-02-25T13:18:16.586Z</time>
      </trkpt>
      <trkpt lat="36.73447" lon="-3.71603">
        <ele>44.361916</ele>
        <time>2022-02-25T13:18:49.368Z</time>
      </trkpt>
      <trkpt lat="36.7348" lon="-3.71616">
        <ele>47.876387</ele>
        <time>2022-02-25T13:19:18.894Z</time>
      </trkpt>
      <trkpt lat="36.73493" lon="-3.71629">
        <ele>49.595431</ele>
        <time>2022-02-25T13:19:37.026Z</time>
      </trkpt>
      <trkpt lat="36.73527" lon="-3.71727">
        <ele>58.346298</ele>
        <time>2022-02-25T13:20:35.680Z</time>
      </trkpt>
      <trkpt lat="36.7354" lon="-3.71737">
        <ele>59.925762</ele>
        <time>2022-02-25T13:20:45.541Z</time>
      </trkpt>
      <trkpt lat="36.736" lon="-3.71748">
        <ele>63.013866</ele>
        <time>2022-02-25T13:21:15.430Z</time>
      </trkpt>
      <trkpt lat="36.7361" lon="-3.71761">
        <ele>63.759122</ele>
        <time>2022-02-25T13:21:19.930Z</time>
      </trkpt>
      <trkpt lat="36.73619" lon="-3.71787">
        <ele>64.842393</ele>
        <time>2022-02-25T13:21:28.123Z</time>
      </trkpt>
      <trkpt lat="36.73618" lon="-3.71807">
        <ele>65.664424</ele>
        <time>2022-02-25T13:21:34.060Z</time>
      </trkpt>
      <trkpt lat="36.73605" lon="-3.71816">
        <ele>66.370132</ele>
        <time>2022-02-25T13:21:40.347Z</time>
      </trkpt>
      <trkpt lat="36.73585" lon="-3.71816">
        <ele>67.390839</ele>
        <time>2022-02-25T13:21:49.048Z</time>
      </trkpt>
      <trkpt lat="36.73572" lon="-3.71823">
        <ele>68.051023</ele>
        <time>2022-02-25T13:21:55.736Z</time>
      </trkpt>
      <trkpt lat="36.73562" lon="-3.7184">
        <ele>68.900135</ele>
        <time>2022-02-25T13:22:04.621Z</time>
      </trkpt>
      <trkpt lat="36.73556" lon="-3.71896">
        <ele>72.433347</ele>
        <time>2022-02-25T13:22:30.443Z</time>
      </trkpt>
      <trkpt lat="36.73586" lon="-3.71982">
        <ele>78.406644</ele>
        <time>2022-02-25T13:23:18.005Z</time>
      </trkpt>
      <trkpt lat="36.73597" lon="-3.72037">
        <ele>82.011773</ele>
        <time>2022-02-25T13:23:47.068Z</time>
      </trkpt>
      <trkpt lat="36.73617" lon="-3.72058">
        <ele>84.321507</ele>
        <time>2022-02-25T13:24:04.921Z</time>
      </trkpt>
      <trkpt lat="36.73655" lon="-3.72065">
        <ele>88.280425</ele>
        <time>2022-02-25T13:24:36.883Z</time>
      </trkpt>
      <trkpt lat="36.73675" lon="-3.72089">
        <ele>91.13354</ele>
        <time>2022-02-25T13:25:01.287Z</time>
      </trkpt>
      <trkpt lat="36.73678" lon="-3.72101">
        <ele>92.200942</ele>
        <time>2022-02-25T13:25:10.024Z</time>
      </trkpt>
      <trkpt lat="36.73663" lon="-3.72168">
        <ele>97.960247</ele>
        <time>2022-02-25T13:25:52.695Z</time>
      </trkpt>
      <trkpt lat="36.7367" lon="-3.72213">
        <ele>101.743025</ele>
        <time>2022-02-25T13:26:16.817Z</time>
      </trkpt>
      <trkpt lat="36.73683" lon="-3.72255">
        <ele>105.198373</ele>
        <time>2022-02-25T13:26:38.730Z</time>
      </trkpt>
      <trkpt lat="36.73711" lon="-3.72289">
        <ele>108.975668</ele>
        <time>2022-02-25T13:27:05.130Z</time>
      </trkpt>
      <trkpt lat="36.73709" lon="-3.72299">
        <ele>109.837634</ele>
        <time>2022-02-25T13:27:12.160Z</time>
      </trkpt>
      <trkpt lat="36.73699" lon="-3.72302">
        <ele>110.801422</ele>
        <time>2022-02-25T13:27:19.078Z</time>
      </trkpt>
      <trkpt lat="36.73656" lon="-3.72271">
        <ele>115.549533</ele>
        <time>2022-02-25T13:28:00.354Z</time>
      </trkpt>
      <trkpt lat="36.73614" lon="-3.72218">
        <ele>120.853612</ele>
        <time>2022-02-25T13:28:42.162Z</time>
      </trkpt>
      <trkpt lat="36.7359" lon="-3.72241">
        <ele>123.116065</ele>
        <time>2022-02-25T13:29:01.610Z</time>
      </trkpt>
      <trkpt lat="36.73576" lon="-3.72243">
        <ele>124.163271</ele>
        <time>2022-02-25T13:29:09.266Z</time>
      </trkpt>
      <trkpt lat="36.73567" lon="-3.7224">
        <ele>124.869716</ele>
        <time>2022-02-25T13:29:15.356Z</time>
      </trkpt>
      <trkpt lat="36.73505" lon="-3.7219">
        <ele>130.315426</ele>
        <time>2022-02-25T13:29:58.809Z</time>
      </trkpt>
      <trkpt lat="36.73496" lon="-3.72199">
        <ele>131.202707</ele>
        <time>2022-02-25T13:30:05.866Z</time>
      </trkpt>
      <trkpt lat="36.73502" lon="-3.72211">
        <ele>132.026065</ele>
        <time>2022-02-25T13:30:11.443Z</time>
      </trkpt>
      <trkpt lat="36.73535" lon="-3.72251">
        <ele>133.067182</ele>
        <time>2022-02-25T13:30:32.761Z</time>
      </trkpt>
      <trkpt lat="36.73512" lon="-3.72254">
        <ele>133.351758</ele>
        <time>2022-02-25T13:30:40.819Z</time>
      </trkpt>
      <trkpt lat="36.73506" lon="-3.72265">
        <ele>133.484422</ele>
        <time>2022-02-25T13:30:44.685Z</time>
      </trkpt>
      <trkpt lat="36.73506" lon="-3.72291">
        <ele>133.751599</ele>
        <time>2022-02-25T13:30:50.410Z</time>
      </trkpt>
      <trkpt lat="36.73525" lon="-3.72334">
        <ele>134.24965</ele>
        <time>2022-02-25T13:30:59.032Z</time>
      </trkpt>
      <trkpt lat="36.7353" lon="-3.72376">
        <ele>134.677321</ele>
        <time>2022-02-25T13:31:05.098Z</time>
      </trkpt>
      <trkpt lat="36.73538" lon="-3.72404">
        <ele>134.896905</ele>
        <time>2022-02-25T13:31:09.438Z</time>
      </trkpt>
      <trkpt lat="36.73561" lon="-3.72443">
        <ele>135.07249</ele>
        <time>2022-02-25T13:31:16.138Z</time>
      </trkpt>
      <trkpt lat="36.73563" lon="-3.72457">
        <ele>135.126307</ele>
        <time>2022-02-25T13:31:18.263Z</time>
      </trkpt>
      <trkpt lat="36.73557" lon="-3.72474">
        <ele>135.19282</ele>
        <time>2022-02-25T13:31:21.076Z</time>
      </trkpt>
      <trkpt lat="36.73531" lon="-3.7251">
        <ele>135.3699</ele>
        <time>2022-02-25T13:31:29.182Z</time>
      </trkpt>
      <trkpt lat="36.73462" lon="-3.72552">
        <ele>135.997085</ele>
        <time>2022-02-25T13:32:02.082Z</time>
      </trkpt>
      <trkpt lat="36.73423" lon="-3.72607">
        <ele>137.87378</ele>
        <time>2022-02-25T13:32:25.068Z</time>
      </trkpt>
      <trkpt lat="36.73406" lon="-3.72652">
        <ele>139.109612</ele>
        <time>2022-02-25T13:32:41.098Z</time>
      </trkpt>
      <trkpt lat="36.73405" lon="-3.72679">
        <ele>139.804142</ele>
        <time>2022-02-25T13:32:50.245Z</time>
      </trkpt>
      <trkpt lat="36.7341" lon="-3.72692">
        <ele>140.161058</ele>
        <time>2022-02-25T13:32:53.602Z</time>
      </trkpt>
      <trkpt lat="36.73429" lon="-3.72708">
        <ele>140.89578</ele>
        <time>2022-02-25T13:33:03.549Z</time>
      </trkpt>
      <trkpt lat="36.73407" lon="-3.7273">
        <ele>140.728085</ele>
        <time>2022-02-25T13:33:12.846Z</time>
      </trkpt>
      <trkpt lat="36.73395" lon="-3.72804">
        <ele>138.292511</ele>
        <time>2022-02-25T13:33:28.292Z</time>
      </trkpt>
      <trkpt lat="36.73402" lon="-3.72809">
        <ele>137.975362</ele>
        <time>2022-02-25T13:33:29.550Z</time>
      </trkpt>
      <trkpt lat="36.7345" lon="-3.72806">
        <ele>136.016876</ele>
        <time>2022-02-25T13:33:37.072Z</time>
      </trkpt>
      <trkpt lat="36.73468" lon="-3.72811">
        <ele>135.264878</ele>
        <time>2022-02-25T13:33:39.743Z</time>
      </trkpt>
      <trkpt lat="36.73483" lon="-3.72826">
        <ele>134.516045</ele>
        <time>2022-02-25T13:33:42.388Z</time>
      </trkpt>
      <trkpt lat="36.73493" lon="-3.72844">
        <ele>133.276754</ele>
        <time>2022-02-25T13:33:44.870Z</time>
      </trkpt>
      <trkpt lat="36.73518" lon="-3.72925">
        <ele>124.407162</ele>
        <time>2022-02-25T13:33:54.493Z</time>
      </trkpt>
      <trkpt lat="36.73522" lon="-3.72965">
        <ele>120.248814</ele>
        <time>2022-02-25T13:33:58.960Z</time>
      </trkpt>
      <trkpt lat="36.73518" lon="-3.73015">
        <ele>115.15667</ele>
        <time>2022-02-25T13:34:04.391Z</time>
      </trkpt>
      <trkpt lat="36.73521" lon="-3.73104">
        <ele>105.923191</ele>
        <time>2022-02-25T13:34:13.995Z</time>
      </trkpt>
      <trkpt lat="36.73534" lon="-3.7316">
        <ele>99.741915</ele>
        <time>2022-02-25T13:34:20.332Z</time>
      </trkpt>
      <trkpt lat="36.7354" lon="-3.73244">
        <ele>90.819156</ele>
        <time>2022-02-25T13:34:29.533Z</time>
      </trkpt>
      <trkpt lat="36.73558" lon="-3.73318">
        <ele>83.681713</ele>
        <time>2022-02-25T13:34:38.246Z</time>
      </trkpt>
      <trkpt lat="36.73559" lon="-3.7335">
        <ele>81.031992</ele>
        <time>2022-02-25T13:34:41.897Z</time>
      </trkpt>
      <trkpt lat="36.73554" lon="-3.73366">
        <ele>79.675248</ele>
        <time>2022-02-25T13:34:43.759Z</time>
      </trkpt>
      <trkpt lat="36.73526" lon="-3.73396">
        <ele>75.806837</ele>
        <time>2022-02-25T13:34:49.150Z</time>
      </trkpt>
      <trkpt lat="36.73517" lon="-3.73414">
        <ele>74.09107</ele>
        <time>2022-02-25T13:34:51.579Z</time>
      </trkpt>
      <trkpt lat="36.73512" lon="-3.7344">
        <ele>71.890884</ele>
        <time>2022-02-25T13:34:54.667Z</time>
      </trkpt>
      <trkpt lat="36.73504" lon="-3.73531">
        <ele>64.010098</ele>
        <time>2022-02-25T13:35:05.006Z</time>
      </trkpt>
      <trkpt lat="36.73494" lon="-3.73625">
        <ele>55.56411</ele>
        <time>2022-02-25T13:35:15.657Z</time>
      </trkpt>
      <trkpt lat="36.73495" lon="-3.73644">
        <ele>53.78466</ele>
        <time>2022-02-25T13:35:17.881Z</time>
      </trkpt>
      <trkpt lat="36.73497" lon="-3.73649">
        <ele>53.302903</ele>
        <time>2022-02-25T13:35:18.472Z</time>
      </trkpt>
      <trkpt lat="36.73511" lon="-3.73685">
        <ele>49.703826</ele>
        <time>2022-02-25T13:35:22.931Z</time>
      </trkpt>
      <trkpt lat="36.7353" lon="-3.73733">
        <ele>44.720886</ele>
        <time>2022-02-25T13:35:28.700Z</time>
      </trkpt>
      <trkpt lat="36.7354" lon="-3.73769">
        <ele>41.096523</ele>
        <time>2022-02-25T13:35:32.828Z</time>
      </trkpt>
      <trkpt lat="36.7354" lon="-3.73793">
        <ele>38.849539</ele>
        <time>2022-02-25T13:35:35.401Z</time>
      </trkpt>
      <trkpt lat="36.73528" lon="-3.73856">
        <ele>32.637369</ele>
        <time>2022-02-25T13:35:42.670Z</time>
      </trkpt>
      <trkpt lat="36.73519" lon="-3.73877">
        <ele>30.437215</ele>
        <time>2022-02-25T13:35:45.257Z</time>
      </trkpt>
      <trkpt lat="36.735" lon="-3.73915">
        <ele>26.782452</ele>
        <time>2022-02-25T13:35:50.366Z</time>
      </trkpt>
      <trkpt lat="36.73491" lon="-3.73927">
        <ele>25.866222</ele>
        <time>2022-02-25T13:35:52.358Z</time>
      </trkpt>
      <trkpt lat="36.73497" lon="-3.73938">
        <ele>25.214763</ele>
        <time>2022-02-25T13:35:53.750Z</time>
      </trkpt>
      <trkpt lat="36.73555" lon="-3.73903">
        <ele>20.832368</ele>
        <time>2022-02-25T13:36:03.511Z</time>
      </trkpt>
      <trkpt lat="36.73558" lon="-3.73908">
        <ele>20.515979</ele>
        <time>2022-02-25T13:36:04.212Z</time>
      </trkpt>
      <trkpt lat="36.73561" lon="-3.73915">
        <ele>20.047648</ele>
        <time>2022-02-25T13:36:05.293Z</time>
      </trkpt>
      <trkpt lat="36.73536" lon="-3.73936">
        <ele>18.007842</ele>
        <time>2022-02-25T13:36:10.019Z</time>
      </trkpt>
      <trkpt lat="36.73519" lon="-3.73949">
        <ele>16.677759</ele>
        <time>2022-02-25T13:36:13.252Z</time>
      </trkpt>
      <trkpt lat="36.73516" lon="-3.73958">
        <ele>16.185519</ele>
        <time>2022-02-25T13:36:14.435Z</time>
      </trkpt>
      <trkpt lat="36.73514" lon="-3.73964">
        <ele>15.802427</ele>
        <time>2022-02-25T13:36:15.358Z</time>
      </trkpt>
      <trkpt lat="36.73515" lon="-3.73997">
        <ele>14.613745</ele>
        <time>2022-02-25T13:36:19.913Z</time>
      </trkpt>
      <trkpt lat="36.73505" lon="-3.74017">
        <ele>13.880654</ele>
        <time>2022-02-25T13:36:23.055Z</time>
      </trkpt>
      <trkpt lat="36.73487" lon="-3.74037">
        <ele>12.910441</ele>
        <time>2022-02-25T13:36:27.051Z</time>
      </trkpt>
      <trkpt lat="36.73431" lon="-3.74098">
        <ele>9.944511</ele>
        <time>2022-02-25T13:36:38.985Z</time>
      </trkpt>
      <trkpt lat="36.73486" lon="-3.74181">
        <ele>7.420593</ele>
        <time>2022-02-25T13:36:54.124Z</time>
      </trkpt>
      <trkpt lat="36.73512" lon="-3.7422">
        <ele>6.626334</ele>
        <time>2022-02-25T13:37:01.380Z</time>
      </trkpt>
      <trkpt lat="36.7352" lon="-3.74235">
        <ele>6.333998</ele>
        <time>2022-02-25T13:37:04.158Z</time>
      </trkpt>
      <trkpt lat="36.7353" lon="-3.74269">
        <ele>5.767062</ele>
        <time>2022-02-25T13:37:09.705Z</time>
      </trkpt>
      <trkpt lat="36.7355" lon="-3.7432">
        <ele>4.865827</ele>
        <time>2022-02-25T13:37:18.612Z</time>
      </trkpt>
      <trkpt lat="36.73538" lon="-3.7433">
        <ele>4.720583</ele>
        <time>2022-02-25T13:37:21.536Z</time>
      </trkpt>
      <trkpt lat="36.73517" lon="-3.74348">
        <ele>4.567319</ele>
        <time>2022-02-25T13:37:26.560Z</time>
      </trkpt>
      <trkpt lat="36.73536" lon="-3.74384">
        <ele>4.356636</ele>
        <time>2022-02-25T13:37:33.831Z</time>
      </trkpt>
      <trkpt lat="36.7356" lon="-3.74429">
        <ele>4.09923</ele>
        <time>2022-02-25T13:37:42.821Z</time>
      </trkpt>
      <trkpt lat="36.73574" lon="-3.74456">
        <ele>3.940079</ele>
        <time>2022-02-25T13:37:48.281Z</time>
      </trkpt>
      <trkpt lat="36.73594" lon="-3.7449">
        <ele>3.739342</ele>
        <time>2022-02-25T13:37:55.305Z</time>
      </trkpt>
      <trkpt lat="36.73609" lon="-3.7452">
        <ele>3.719443</ele>
        <time>2022-02-25T13:38:01.596Z</time>
      </trkpt>
      <trkpt lat="36.73612" lon="-3.74525">
        <ele>3.723255</ele>
        <time>2022-02-25T13:38:02.780Z</time>
      </trkpt>
      <trkpt lat="36.73622" lon="-3.74543">
        <ele>3.735523</ele>
        <time>2022-02-25T13:38:06.689Z</time>
      </trkpt>
      <trkpt lat="36.7363" lon="-3.74558">
        <ele>3.7466</ele>
        <time>2022-02-25T13:38:09.978Z</time>
      </trkpt>
      <trkpt lat="36.73635" lon="-3.74568">
        <ele>3.753281</ele>
        <time>2022-02-25T13:38:12.058Z</time>
      </trkpt>
      <trkpt lat="36.73641" lon="-3.74578">
        <ele>3.760887</ele>
        <time>2022-02-25T13:38:14.576Z</time>
      </trkpt>
      <trkpt lat="36.73651" lon="-3.74596">
        <ele>3.772976</ele>
        <time>2022-02-25T13:38:18.187Z</time>
      </trkpt>
      <trkpt lat="36.73662" lon="-3.74617">
        <ele>3.787986</ele>
        <time>2022-02-25T13:38:23.136Z</time>
      </trkpt>
      <trkpt lat="36.73666" lon="-3.74626">
        <ele>3.793828</ele>
        <time>2022-02-25T13:38:24.880Z</time>
      </trkpt>
      <trkpt lat="36.7372" lon="-3.74728">
        <ele>3.876683</ele>
        <time>2022-02-25T13:38:48.116Z</time>
      </trkpt>
      <trkpt lat="36.73727" lon="-3.74742">
        <ele>3.889372</ele>
        <time>2022-02-25T13:38:51.207Z</time>
      </trkpt>
      <trkpt lat="36.7375" lon="-3.7479">
        <ele>3.932833</ele>
        <time>2022-02-25T13:39:02.130Z</time>
      </trkpt>
      <trkpt lat="36.73765" lon="-3.74825">
        <ele>3.964282</ele>
        <time>2022-02-25T13:39:09.512Z</time>
      </trkpt>
      <trkpt lat="36.73777" lon="-3.74854">
        <ele>3.98939</ele>
        <time>2022-02-25T13:39:15.077Z</time>
      </trkpt>
      <trkpt lat="36.73785" lon="-3.74874">
        <ele>4.007446</ele>
        <time>2022-02-25T13:39:19.037Z</time>
      </trkpt>
      <trkpt lat="36.73789" lon="-3.74882">
        <ele>3.987984</ele>
        <time>2022-02-25T13:39:20.577Z</time>
      </trkpt>
      <trkpt lat="36.73794" lon="-3.74897">
        <ele>3.919894</ele>
        <time>2022-02-25T13:39:23.236Z</time>
      </trkpt>
      <trkpt lat="36.73803" lon="-3.74921">
        <ele>3.81048</ele>
        <time>2022-02-25T13:39:27.664Z</time>
      </trkpt>
      <trkpt lat="36.7383" lon="-3.75">
        <ele>3.456284</ele>
        <time>2022-02-25T13:39:41.716Z</time>
      </trkpt>
      <trkpt lat="36.73835" lon="-3.75028">
        <ele>3.336607</ele>
        <time>2022-02-25T13:39:46.479Z</time>
      </trkpt>
      <trkpt lat="36.73848" lon="-3.75155">
        <ele>3.285363</ele>
        <time>2022-02-25T13:40:08.083Z</time>
      </trkpt>
      <trkpt lat="36.7385" lon="-3.75182">
        <ele>3.368448</ele>
        <time>2022-02-25T13:40:12.870Z</time>
      </trkpt>
      <trkpt lat="36.73861" lon="-3.7529">
        <ele>3.706035</ele>
        <time>2022-02-25T13:40:35.202Z</time>
      </trkpt>
      <trkpt lat="36.73878" lon="-3.7536">
        <ele>4.601993</ele>
        <time>2022-02-25T13:40:51.939Z</time>
      </trkpt>
      <trkpt lat="36.73941" lon="-3.75344">
        <ele>5.914761</ele>
        <time>2022-02-25T13:41:14.165Z</time>
      </trkpt>
      <trkpt lat="36.73957" lon="-3.75348">
        <ele>6.260823</ele>
        <time>2022-02-25T13:41:19.765Z</time>
      </trkpt>
      <trkpt lat="36.73963" lon="-3.75374">
        <ele>6.702797</ele>
        <time>2022-02-25T13:41:27.377Z</time>
      </trkpt>
      <trkpt lat="36.73959" lon="-3.7541">
        <ele>7.287921</ele>
        <time>2022-02-25T13:41:36.830Z</time>
      </trkpt>
      <trkpt lat="36.7395" lon="-3.75439">
        <ele>8.076533</ele>
        <time>2022-02-25T13:41:45.169Z</time>
      </trkpt>
      <trkpt lat="36.73965" lon="-3.75447">
        <ele>8.657138</ele>
        <time>2022-02-25T13:41:51.117Z</time>
      </trkpt>
      <trkpt lat="36.73983" lon="-3.75444">
        <ele>9.278316</ele>
        <time>2022-02-25T13:41:56.700Z</time>
      </trkpt>
      <trkpt lat="36.74019" lon="-3.75421">
        <ele>10.713634</ele>
        <time>2022-02-25T13:42:10.439Z</time>
      </trkpt>
      <trkpt lat="36.74042" lon="-3.75393">
        <ele>11.888157</ele>
        <time>2022-02-25T13:42:23.913Z</time>
      </trkpt>
      <trkpt lat="36.74071" lon="-3.75372">
        <ele>13.08759</ele>
        <time>2022-02-25T13:42:40.319Z</time>
      </trkpt>
      <trkpt lat="36.74081" lon="-3.75331">
        <ele>14.650816</ele>
        <time>2022-02-25T13:42:57.762Z</time>
      </trkpt>
      <trkpt lat="36.7412" lon="-3.75281">
        <ele>18.214245</ele>
        <time>2022-02-25T13:43:24.551Z</time>
      </trkpt>
      <trkpt lat="36.74133" lon="-3.75277">
        <ele>19.04442</ele>
        <time>2022-02-25T13:43:32.125Z</time>
      </trkpt>
      <trkpt lat="36.74185" lon="-3.75308">
        <ele>22.702907</ele>
        <time>2022-02-25T13:44:05.141Z</time>
      </trkpt>
      <trkpt lat="36.74241" lon="-3.75332">
        <ele>26.637111</ele>
        <time>2022-02-25T13:44:39.521Z</time>
      </trkpt>
      <trkpt lat="36.74276" lon="-3.75366">
        <ele>29.728778</ele>
        <time>2022-02-25T13:45:05.537Z</time>
      </trkpt>
      <trkpt lat="36.74282" lon="-3.75381">
        <ele>30.657966</ele>
        <time>2022-02-25T13:45:13.864Z</time>
      </trkpt>
      <trkpt lat="36.74182" lon="-3.75382">
        <ele>37.625333</ele>
        <time>2022-02-25T13:46:10.842Z</time>
      </trkpt>
      <trkpt lat="36.74176" lon="-3.75387">
        <ele>38.192936</ele>
        <time>2022-02-25T13:46:16.239Z</time>
      </trkpt>
      <trkpt lat="36.74174" lon="-3.75396">
        <ele>38.716041</ele>
        <time>2022-02-25T13:46:20.016Z</time>
      </trkpt>
      <trkpt lat="36.74186" lon="-3.75468">
        <ele>43.04442</ele>
        <time>2022-02-25T13:46:52.303Z</time>
      </trkpt>
      <trkpt lat="36.74194" lon="-3.75497">
        <ele>44.829894</ele>
        <time>2022-02-25T13:47:06.230Z</time>
      </trkpt>
      <trkpt lat="36.74213" lon="-3.75499">
        <ele>46.268527</ele>
        <time>2022-02-25T13:47:17.438Z</time>
      </trkpt>
      <trkpt lat="36.74207" lon="-3.75451">
        <ele>49.146578</ele>
        <time>2022-02-25T13:47:41.503Z</time>
      </trkpt>
      <trkpt lat="36.74214" lon="-3.75436">
        <ele>50.160105</ele>
        <time>2022-02-25T13:47:50.686Z</time>
      </trkpt>
      <trkpt lat="36.74222" lon="-3.75434">
        <ele>50.721756</ele>
        <time>2022-02-25T13:47:55.825Z</time>
      </trkpt>
      <trkpt lat="36.74258" lon="-3.75456">
        <ele>54.594953</ele>
        <time>2022-02-25T13:48:24.411Z</time>
      </trkpt>
      <trkpt lat="36.74283" lon="-3.7548">
        <ele>57.689383</ele>
        <time>2022-02-25T13:48:46.321Z</time>
      </trkpt>
      <trkpt lat="36.74293" lon="-3.75497">
        <ele>59.315622</ele>
        <time>2022-02-25T13:48:57.437Z</time>
      </trkpt>
      <trkpt lat="36.74296" lon="-3.7552">
        <ele>61.119257</ele>
        <time>2022-02-25T13:49:09.702Z</time>
      </trkpt>
      <trkpt lat="36.74289" lon="-3.75561">
        <ele>64.417411</ele>
        <time>2022-02-25T13:49:34.356Z</time>
      </trkpt>
      <trkpt lat="36.74294" lon="-3.75591">
        <ele>66.804307</ele>
        <time>2022-02-25T13:49:54.703Z</time>
      </trkpt>
      <trkpt lat="36.74313" lon="-3.75626">
        <ele>70.599745</ele>
        <time>2022-02-25T13:50:22.523Z</time>
      </trkpt>
      <trkpt lat="36.74343" lon="-3.75641">
        <ele>74.59299</ele>
        <time>2022-02-25T13:50:48.557Z</time>
      </trkpt>
      <trkpt lat="36.74352" lon="-3.75652">
        <ele>76.148012</ele>
        <time>2022-02-25T13:50:58.483Z</time>
      </trkpt>
      <trkpt lat="36.74356" lon="-3.75664">
        <ele>77.424684</ele>
        <time>2022-02-25T13:51:07.541Z</time>
      </trkpt>
      <trkpt lat="36.74352" lon="-3.75719">
        <ele>82.97501</ele>
        <time>2022-02-25T13:51:43.246Z</time>
      </trkpt>
      <trkpt lat="36.74365" lon="-3.75745">
        <ele>85.992159</ele>
        <time>2022-02-25T13:52:10.158Z</time>
      </trkpt>
      <trkpt lat="36.74384" lon="-3.7576">
        <ele>88.763489</ele>
        <time>2022-02-25T13:52:28.805Z</time>
      </trkpt>
      <trkpt lat="36.7439" lon="-3.75771">
        <ele>90.113114</ele>
        <time>2022-02-25T13:52:40.412Z</time>
      </trkpt>
      <trkpt lat="36.74394" lon="-3.75841">
        <ele>96.119708</ele>
        <time>2022-02-25T13:53:26.954Z</time>
      </trkpt>
      <trkpt lat="36.74402" lon="-3.75881">
        <ele>99.637915</ele>
        <time>2022-02-25T13:53:53.430Z</time>
      </trkpt>
      <trkpt lat="36.74396" lon="-3.75908">
        <ele>101.991234</ele>
        <time>2022-02-25T13:54:13.243Z</time>
      </trkpt>
      <trkpt lat="36.74385" lon="-3.75898">
        <ele>103.402206</ele>
        <time>2022-02-25T13:54:19.453Z</time>
      </trkpt>
      <trkpt lat="36.74344" lon="-3.75848">
        <ele>109.419649</ele>
        <time>2022-02-25T13:54:58.864Z</time>
      </trkpt>
      <trkpt lat="36.74317" lon="-3.7582">
        <ele>111.43363</ele>
        <time>2022-02-25T13:55:19.642Z</time>
      </trkpt>
      <trkpt lat="36.7428" lon="-3.75804">
        <ele>113.417254</ele>
        <time>2022-02-25T13:55:42.277Z</time>
      </trkpt>
      <trkpt lat="36.74236" lon="-3.75805">
        <ele>115.62073</ele>
        <time>2022-02-25T13:55:56.400Z</time>
      </trkpt>
      <trkpt lat="36.74204" lon="-3.75821">
        <ele>117.350036</ele>
        <time>2022-02-25T13:56:09.878Z</time>
      </trkpt>
      <trkpt lat="36.7417" lon="-3.75858">
        <ele>119.656547</ele>
        <time>2022-02-25T13:56:29.792Z</time>
      </trkpt>
      <trkpt lat="36.74154" lon="-3.75896">
        <ele>121.450175</ele>
        <time>2022-02-25T13:56:45.488Z</time>
      </trkpt>
      <trkpt lat="36.74148" lon="-3.75944">
        <ele>123.527403</ele>
        <time>2022-02-25T13:57:04.766Z</time>
      </trkpt>
      <trkpt lat="36.74149" lon="-3.75989">
        <ele>125.410007</ele>
        <time>2022-02-25T13:57:23.254Z</time>
      </trkpt>
      <trkpt lat="36.7416" lon="-3.76102">
        <ele>131.263202</ele>
        <time>2022-02-25T13:58:09.076Z</time>
      </trkpt>
      <trkpt lat="36.74175" lon="-3.76167">
        <ele>135.702797</ele>
        <time>2022-02-25T13:58:39.294Z</time>
      </trkpt>
      <trkpt lat="36.74194" lon="-3.76234">
        <ele>140.451569</ele>
        <time>2022-02-25T13:59:17.160Z</time>
      </trkpt>
      <trkpt lat="36.74208" lon="-3.76311">
        <ele>146.727185</ele>
        <time>2022-02-25T14:00:07.531Z</time>
      </trkpt>
      <trkpt lat="36.74233" lon="-3.76464">
        <ele>161.813046</ele>
        <time>2022-02-25T14:01:58.360Z</time>
      </trkpt>
      <trkpt lat="36.74307" lon="-3.76848">
        <ele>192.500502</ele>
        <time>2022-02-25T14:05:49.553Z</time>
      </trkpt>
      <trkpt lat="36.74354" lon="-3.77006">
        <ele>195.707736</ele>
        <time>2022-02-25T14:07:03.779Z</time>
      </trkpt>
      <trkpt lat="36.74411" lon="-3.77124">
        <ele>191.394411</ele>
        <time>2022-02-25T14:07:20.653Z</time>
      </trkpt>
      <trkpt lat="36.74501" lon="-3.77235">
        <ele>170.989883</ele>
        <time>2022-02-25T14:07:37.464Z</time>
      </trkpt>
      <trkpt lat="36.74549" lon="-3.77301">
        <ele>160.538854</ele>
        <time>2022-02-25T14:07:46.773Z</time>
      </trkpt>
      <trkpt lat="36.74576" lon="-3.77366">
        <ele>155.787621</ele>
        <time>2022-02-25T14:07:54.812Z</time>
      </trkpt>
      <trkpt lat="36.74603" lon="-3.77458">
        <ele>149.405447</ele>
        <time>2022-02-25T14:08:07.617Z</time>
      </trkpt>
      <trkpt lat="36.74633" lon="-3.77515">
        <ele>147.174988</ele>
        <time>2022-02-25T14:08:18.257Z</time>
      </trkpt>
      <trkpt lat="36.74662" lon="-3.77541">
        <ele>147.237009</ele>
        <time>2022-02-25T14:08:26.427Z</time>
      </trkpt>
      <trkpt lat="36.74717" lon="-3.77577">
        <ele>147.3453</ele>
        <time>2022-02-25T14:08:41.983Z</time>
      </trkpt>
      <trkpt lat="36.74768" lon="-3.77628">
        <ele>147.425062</ele>
        <time>2022-02-25T14:09:01.185Z</time>
      </trkpt>
      <trkpt lat="36.74805" lon="-3.77667">
        <ele>147.340445</ele>
        <time>2022-02-25T14:09:15.260Z</time>
      </trkpt>
      <trkpt lat="36.74942" lon="-3.77792">
        <ele>146.042364</ele>
        <time>2022-02-25T14:09:49.356Z</time>
      </trkpt>
      <trkpt lat="36.75005" lon="-3.77907">
        <ele>143.5068</ele>
        <time>2022-02-25T14:10:08.894Z</time>
      </trkpt>
      <trkpt lat="36.75021" lon="-3.77928">
        <ele>142.973863</ele>
        <time>2022-02-25T14:10:12.827Z</time>
      </trkpt>
      <trkpt lat="36.75049" lon="-3.77948">
        <ele>141.995943</ele>
        <time>2022-02-25T14:10:18.408Z</time>
      </trkpt>
      <trkpt lat="36.75131" lon="-3.77992">
        <ele>139.237371</ele>
        <time>2022-02-25T14:10:34.010Z</time>
      </trkpt>
      <trkpt lat="36.7519" lon="-3.78023">
        <ele>137.337691</ele>
        <time>2022-02-25T14:10:44.554Z</time>
      </trkpt>
      <trkpt lat="36.75205" lon="-3.78038">
        <ele>136.884189</ele>
        <time>2022-02-25T14:10:48.326Z</time>
      </trkpt>
      <trkpt lat="36.75222" lon="-3.7806">
        <ele>136.321001</ele>
        <time>2022-02-25T14:10:52.354Z</time>
      </trkpt>
      <trkpt lat="36.75233" lon="-3.78083">
        <ele>135.833197</ele>
        <time>2022-02-25T14:10:56.094Z</time>
      </trkpt>
      <trkpt lat="36.75238" lon="-3.78111">
        <ele>135.294618</ele>
        <time>2022-02-25T14:11:00.261Z</time>
      </trkpt>
      <trkpt lat="36.75238" lon="-3.78131">
        <ele>134.929905</ele>
        <time>2022-02-25T14:11:02.887Z</time>
      </trkpt>
      <trkpt lat="36.75227" lon="-3.78177">
        <ele>134.043382</ele>
        <time>2022-02-25T14:11:09.528Z</time>
      </trkpt>
      <trkpt lat="36.75214" lon="-3.78203">
        <ele>133.477569</ele>
        <time>2022-02-25T14:11:14.573Z</time>
      </trkpt>
      <trkpt lat="36.75195" lon="-3.78221">
        <ele>134.219344</ele>
        <time>2022-02-25T14:11:19.147Z</time>
      </trkpt>
      <trkpt lat="36.75153" lon="-3.78244">
        <ele>136.144898</ele>
        <time>2022-02-25T14:11:35.580Z</time>
      </trkpt>
      <trkpt lat="36.75102" lon="-3.78261">
        <ele>138.375605</ele>
        <time>2022-02-25T14:12:01.642Z</time>
      </trkpt>
      <trkpt lat="36.75064" lon="-3.78289">
        <ele>140.215943</ele>
        <time>2022-02-25T14:12:30.092Z</time>
      </trkpt>
      <trkpt lat="36.7507" lon="-3.78301">
        <ele>140.687671</ele>
        <time>2022-02-25T14:12:36.978Z</time>
      </trkpt>
      <trkpt lat="36.7507" lon="-3.78309">
        <ele>140.948769</ele>
        <time>2022-02-25T14:12:40.727Z</time>
      </trkpt>
      <trkpt lat="36.75061" lon="-3.78326">
        <ele>141.238692</ele>
        <time>2022-02-25T14:12:49.906Z</time>
      </trkpt>
      <trkpt lat="36.75052" lon="-3.78329">
        <ele>141.414436</ele>
        <time>2022-02-25T14:12:55.362Z</time>
      </trkpt>
      <trkpt lat="36.75039" lon="-3.78321">
        <ele>141.661728</ele>
        <time>2022-02-25T14:13:01.619Z</time>
      </trkpt>
      <trkpt lat="36.75028" lon="-3.78405">
        <ele>142.873375</ele>
        <time>2022-02-25T14:13:28.000Z</time>
      </trkpt>
      <trkpt lat="36.75025" lon="-3.78484">
        <ele>143.988233</ele>
        <time>2022-02-25T14:13:39.963Z</time>
      </trkpt>
      <trkpt lat="36.75" lon="-3.78554">
        <ele>140.275895</ele>
        <time>2022-02-25T14:13:49.892Z</time>
      </trkpt>
      <trkpt lat="36.74991" lon="-3.78606">
        <ele>137.174991</ele>
        <time>2022-02-25T14:13:56.183Z</time>
      </trkpt>
      <trkpt lat="36.75024" lon="-3.78743">
        <ele>128.002369</ele>
        <time>2022-02-25T14:14:12.488Z</time>
      </trkpt>
      <trkpt lat="36.75017" lon="-3.78795">
        <ele>123.66864</ele>
        <time>2022-02-25T14:14:18.608Z</time>
      </trkpt>
      <trkpt lat="36.75002" lon="-3.78826">
        <ele>120.798407</ele>
        <time>2022-02-25T14:14:22.700Z</time>
      </trkpt>
      <trkpt lat="36.74937" lon="-3.78891">
        <ele>112.479125</ele>
        <time>2022-02-25T14:14:34.417Z</time>
      </trkpt>
      <trkpt lat="36.74908" lon="-3.78899">
        <ele>110.211879</ele>
        <time>2022-02-25T14:14:38.505Z</time>
      </trkpt>
      <trkpt lat="36.74842" lon="-3.78898">
        <ele>105.058229</ele>
        <time>2022-02-25T14:14:47.927Z</time>
      </trkpt>
      <trkpt lat="36.74821" lon="-3.78907">
        <ele>103.337878</ele>
        <time>2022-02-25T14:14:51.221Z</time>
      </trkpt>
      <trkpt lat="36.74801" lon="-3.78928">
        <ele>101.31604</ele>
        <time>2022-02-25T14:14:55.263Z</time>
      </trkpt>
      <trkpt lat="36.74788" lon="-3.78963">
        <ele>98.941172</ele>
        <time>2022-02-25T14:15:00.482Z</time>
      </trkpt>
      <trkpt lat="36.74784" lon="-3.78989">
        <ele>98.99798</ele>
        <time>2022-02-25T14:15:04.367Z</time>
      </trkpt>
      <trkpt lat="36.74787" lon="-3.79016">
        <ele>99.05694</ele>
        <time>2022-02-25T14:15:08.874Z</time>
      </trkpt>
      <trkpt lat="36.74834" lon="-3.79206">
        <ele>99.266653</ele>
        <time>2022-02-25T14:15:56.820Z</time>
      </trkpt>
      <trkpt lat="36.74838" lon="-3.79237">
        <ele>99.088065</ele>
        <time>2022-02-25T14:16:03.941Z</time>
      </trkpt>
      <trkpt lat="36.74833" lon="-3.7928">
        <ele>98.844112</ele>
        <time>2022-02-25T14:16:11.484Z</time>
      </trkpt>
      <trkpt lat="36.7482" lon="-3.79333">
        <ele>98.538468</ele>
        <time>2022-02-25T14:16:19.669Z</time>
      </trkpt>
      <trkpt lat="36.74767" lon="-3.79482">
        <ele>99.570968</ele>
        <time>2022-02-25T14:16:43.204Z</time>
      </trkpt>
      <trkpt lat="36.74766" lon="-3.79515">
        <ele>100.056284</ele>
        <time>2022-02-25T14:16:50.286Z</time>
      </trkpt>
      <trkpt lat="36.74772" lon="-3.79547">
        <ele>100.520306</ele>
        <time>2022-02-25T14:16:59.722Z</time>
      </trkpt>
      <trkpt lat="36.74783" lon="-3.79574">
        <ele>100.957928</ele>
        <time>2022-02-25T14:17:11.314Z</time>
      </trkpt>
      <trkpt lat="36.74815" lon="-3.79605">
        <ele>102.499266</ele>
        <time>2022-02-25T14:17:35.407Z</time>
      </trkpt>
      <trkpt lat="36.74869" lon="-3.79616">
        <ele>106.436368</ele>
        <time>2022-02-25T14:18:18.426Z</time>
      </trkpt>
      <trkpt lat="36.75017" lon="-3.7959">
        <ele>112.458968</ele>
        <time>2022-02-25T14:19:40.894Z</time>
      </trkpt>
      <trkpt lat="36.75066" lon="-3.79583">
        <ele>110.138092</ele>
        <time>2022-02-25T14:19:49.274Z</time>
      </trkpt>
      <trkpt lat="36.75091" lon="-3.79593">
        <ele>108.897878</ele>
        <time>2022-02-25T14:19:53.462Z</time>
      </trkpt>
      <trkpt lat="36.75102" lon="-3.79621">
        <ele>107.699589</ele>
        <time>2022-02-25T14:19:57.060Z</time>
      </trkpt>
      <trkpt lat="36.75096" lon="-3.79654">
        <ele>106.444711</ele>
        <time>2022-02-25T14:20:00.748Z</time>
      </trkpt>
      <trkpt lat="36.75066" lon="-3.79672">
        <ele>102.663068</ele>
        <time>2022-02-25T14:20:05.266Z</time>
      </trkpt>
      <trkpt lat="36.75023" lon="-3.79679">
        <ele>96.074372</ele>
        <time>2022-02-25T14:20:10.955Z</time>
      </trkpt>
      <trkpt lat="36.74982" lon="-3.79704">
        <ele>89.177223</ele>
        <time>2022-02-25T14:20:16.933Z</time>
      </trkpt>
      <trkpt lat="36.74956" lon="-3.79738">
        <ele>83.325799</ele>
        <time>2022-02-25T14:20:22.110Z</time>
      </trkpt>
      <trkpt lat="36.74914" lon="-3.79781">
        <ele>75.998575</ele>
        <time>2022-02-25T14:20:29.382Z</time>
      </trkpt>
      <trkpt lat="36.74832" lon="-3.79832">
        <ele>65.727912</ele>
        <time>2022-02-25T14:20:42.047Z</time>
      </trkpt>
      <trkpt lat="36.74805" lon="-3.7986">
        <ele>61.863759</ele>
        <time>2022-02-25T14:20:46.996Z</time>
      </trkpt>
      <trkpt lat="36.74786" lon="-3.79906">
        <ele>58.205105</ele>
        <time>2022-02-25T14:20:53.289Z</time>
      </trkpt>
      <trkpt lat="36.74782" lon="-3.79953">
        <ele>57.710597</ele>
        <time>2022-02-25T14:20:59.307Z</time>
      </trkpt>
      <trkpt lat="36.74788" lon="-3.80043">
        <ele>56.765339</ele>
        <time>2022-02-25T14:21:12.815Z</time>
      </trkpt>
      <trkpt lat="36.74806" lon="-3.80119">
        <ele>56.077272</ele>
        <time>2022-02-25T14:21:37.195Z</time>
      </trkpt>
      <trkpt lat="36.74837" lon="-3.80169">
        <ele>57.371415</ele>
        <time>2022-02-25T14:22:00.539Z</time>
      </trkpt>
      <trkpt lat="36.74878" lon="-3.80202">
        <ele>58.626624</ele>
        <time>2022-02-25T14:22:21.931Z</time>
      </trkpt>
      <trkpt lat="36.7496" lon="-3.80253">
        <ele>60.039255</ele>
        <time>2022-02-25T14:22:47.722Z</time>
      </trkpt>
      <trkpt lat="36.75003" lon="-3.80293">
        <ele>58.188969</ele>
        <time>2022-02-25T14:22:57.696Z</time>
      </trkpt>
      <trkpt lat="36.75022" lon="-3.80341">
        <ele>56.702919</ele>
        <time>2022-02-25T14:23:04.274Z</time>
      </trkpt>
      <trkpt lat="36.75028" lon="-3.80389">
        <ele>55.362735</ele>
        <time>2022-02-25T14:23:10.204Z</time>
      </trkpt>
      <trkpt lat="36.75015" lon="-3.80455">
        <ele>53.775052</ele>
        <time>2022-02-25T14:23:18.913Z</time>
      </trkpt>
      <trkpt lat="36.7498" lon="-3.80535">
        <ele>52.11452</ele>
        <time>2022-02-25T14:23:32.280Z</time>
      </trkpt>
      <trkpt lat="36.74978" lon="-3.80557">
        <ele>51.715151</ele>
        <time>2022-02-25T14:23:35.920Z</time>
      </trkpt>
      <trkpt lat="36.74983" lon="-3.80581">
        <ele>51.282433</ele>
        <time>2022-02-25T14:23:39.401Z</time>
      </trkpt>
      <trkpt lat="36.74996" lon="-3.80605">
        <ele>50.741295</ele>
        <time>2022-02-25T14:23:44.263Z</time>
      </trkpt>
      <trkpt lat="36.75007" lon="-3.80621">
        <ele>50.357831</ele>
        <time>2022-02-25T14:23:48.179Z</time>
      </trkpt>
      <trkpt lat="36.75083" lon="-3.80722">
        <ele>47.923744</ele>
        <time>2022-02-25T14:24:09.479Z</time>
      </trkpt>
      <trkpt lat="36.751" lon="-3.80752">
        <ele>47.279798</ele>
        <time>2022-02-25T14:24:14.659Z</time>
      </trkpt>
      <trkpt lat="36.75121" lon="-3.80818">
        <ele>46.319195</ele>
        <time>2022-02-25T14:24:23.733Z</time>
      </trkpt>
      <trkpt lat="36.751" lon="-3.80846">
        <ele>46.297767</ele>
        <time>2022-02-25T14:24:28.619Z</time>
      </trkpt>
      <trkpt lat="36.75092" lon="-3.80871">
        <ele>46.282391</ele>
        <time>2022-02-25T14:24:36.468Z</time>
      </trkpt>
      <trkpt lat="36.75086" lon="-3.80896">
        <ele>46.267922</ele>
        <time>2022-02-25T14:24:40.471Z</time>
      </trkpt>
      <trkpt lat="36.75086" lon="-3.80926">
        <ele>46.250623</ele>
        <time>2022-02-25T14:24:45.810Z</time>
      </trkpt>
      <trkpt lat="36.7509" lon="-3.80967">
        <ele>46.227384</ele>
        <time>2022-02-25T14:24:55.867Z</time>
      </trkpt>
      <trkpt lat="36.75115" lon="-3.81008">
        <ele>46.286661</ele>
        <time>2022-02-25T14:25:07.552Z</time>
      </trkpt>
      <trkpt lat="36.75137" lon="-3.81021">
        <ele>46.730715</ele>
        <time>2022-02-25T14:25:21.182Z</time>
      </trkpt>
      <trkpt lat="36.75165" lon="-3.81124">
        <ele>48.31816</ele>
        <time>2022-02-25T14:26:00.065Z</time>
      </trkpt>
      <trkpt lat="36.75266" lon="-3.81309">
        <ele>46.344179</ele>
        <time>2022-02-25T14:26:32.727Z</time>
      </trkpt>
      <trkpt lat="36.75316" lon="-3.81394">
        <ele>44.530453</ele>
        <time>2022-02-25T14:26:46.437Z</time>
      </trkpt>
      <trkpt lat="36.75336" lon="-3.81445">
        <ele>44.354255</ele>
        <time>2022-02-25T14:26:54.789Z</time>
      </trkpt>
      <trkpt lat="36.75342" lon="-3.81474">
        <ele>44.263272</ele>
        <time>2022-02-25T14:26:59.139Z</time>
      </trkpt>
      <trkpt lat="36.75331" lon="-3.81535">
        <ele>44.075207</ele>
        <time>2022-02-25T14:27:09.279Z</time>
      </trkpt>
      <trkpt lat="36.75321" lon="-3.81613">
        <ele>45.116069</ele>
        <time>2022-02-25T14:27:35.035Z</time>
      </trkpt>
      <trkpt lat="36.75326" lon="-3.81641">
        <ele>46.298178</ele>
        <time>2022-02-25T14:27:48.276Z</time>
      </trkpt>
      <trkpt lat="36.75337" lon="-3.81678">
        <ele>47.947168</ele>
        <time>2022-02-25T14:28:08.193Z</time>
      </trkpt>
      <trkpt lat="36.75426" lon="-3.81808">
        <ele>56.026977</ele>
        <time>2022-02-25T14:29:11.631Z</time>
      </trkpt>
      <trkpt lat="36.75449" lon="-3.81869">
        <ele>60.243382</ele>
        <time>2022-02-25T14:29:42.705Z</time>
      </trkpt>
      <trkpt lat="36.75456" lon="-3.81911">
        <ele>62.948727</ele>
        <time>2022-02-25T14:30:06.687Z</time>
      </trkpt>
      <trkpt lat="36.75455" lon="-3.81949">
        <ele>65.378594</ele>
        <time>2022-02-25T14:30:28.099Z</time>
      </trkpt>
      <trkpt lat="36.75447" lon="-3.81997">
        <ele>68.885401</ele>
        <time>2022-02-25T14:30:55.752Z</time>
      </trkpt>
      <trkpt lat="36.75446" lon="-3.82003">
        <ele>69.463205</ele>
        <time>2022-02-25T14:30:59.870Z</time>
      </trkpt>
      <trkpt lat="36.7544" lon="-3.82078">
        <ele>76.434419</ele>
        <time>2022-02-25T14:31:44.794Z</time>
      </trkpt>
      <trkpt lat="36.7545" lon="-3.82129">
        <ele>81.2002</ele>
        <time>2022-02-25T14:32:19.935Z</time>
      </trkpt>
      <trkpt lat="36.75469" lon="-3.82174">
        <ele>85.945737</ele>
        <time>2022-02-25T14:32:57.710Z</time>
      </trkpt>
      <trkpt lat="36.75492" lon="-3.82203">
        <ele>89.256779</ele>
        <time>2022-02-25T14:33:24.784Z</time>
      </trkpt>
      <trkpt lat="36.75518" lon="-3.82236">
        <ele>92.634276</ele>
        <time>2022-02-25T14:33:53.119Z</time>
      </trkpt>
      <trkpt lat="36.75545" lon="-3.82274">
        <ele>96.22241</ele>
        <time>2022-02-25T14:34:20.922Z</time>
      </trkpt>
      <trkpt lat="36.75573" lon="-3.82373">
        <ele>103.760374</ele>
        <time>2022-02-25T14:35:10.684Z</time>
      </trkpt>
      <trkpt lat="36.75596" lon="-3.82424">
        <ele>106.401253</ele>
        <time>2022-02-25T14:35:35.347Z</time>
      </trkpt>
      <trkpt lat="36.75619" lon="-3.82442">
        <ele>107.825009</ele>
        <time>2022-02-25T14:35:49.052Z</time>
      </trkpt>
      <trkpt lat="36.75729" lon="-3.82457">
        <ele>113.626697</ele>
        <time>2022-02-25T14:36:39.039Z</time>
      </trkpt>
      <trkpt lat="36.7575" lon="-3.8247">
        <ele>114.417146</ele>
        <time>2022-02-25T14:36:50.807Z</time>
      </trkpt>
      <trkpt lat="36.75774" lon="-3.82495">
        <ele>115.516923</ele>
        <time>2022-02-25T14:37:03.497Z</time>
      </trkpt>
      <trkpt lat="36.75791" lon="-3.82523">
        <ele>116.487164</ele>
        <time>2022-02-25T14:37:14.595Z</time>
      </trkpt>
      <trkpt lat="36.75798" lon="-3.82551">
        <ele>117.313003</ele>
        <time>2022-02-25T14:37:24.955Z</time>
      </trkpt>
      <trkpt lat="36.758" lon="-3.82581">
        <ele>118.15628</ele>
        <time>2022-02-25T14:37:38.030Z</time>
      </trkpt>
      <trkpt lat="36.75795" lon="-3.82811">
        <ele>120.395971</ele>
        <time>2022-02-25T14:38:27.995Z</time>
      </trkpt>
      <trkpt lat="36.75799" lon="-3.82885">
        <ele>120.585183</ele>
        <time>2022-02-25T14:38:38.975Z</time>
      </trkpt>
      <trkpt lat="36.75813" lon="-3.82934">
        <ele>120.607674</ele>
        <time>2022-02-25T14:38:47.205Z</time>
      </trkpt>
      <trkpt lat="36.75863" lon="-3.83062">
        <ele>120.66877</ele>
        <time>2022-02-25T14:39:16.067Z</time>
      </trkpt>
      <trkpt lat="36.75907" lon="-3.83165">
        <ele>119.061635</ele>
        <time>2022-02-25T14:39:40.772Z</time>
      </trkpt>
      <trkpt lat="36.75928" lon="-3.83216">
        <ele>118.184282</ele>
        <time>2022-02-25T14:39:48.888Z</time>
      </trkpt>
      <trkpt lat="36.75951" lon="-3.83273">
        <ele>117.113929</ele>
        <time>2022-02-25T14:39:57.185Z</time>
      </trkpt>
      <trkpt lat="36.7596" lon="-3.83307">
        <ele>115.300244</ele>
        <time>2022-02-25T14:40:01.538Z</time>
      </trkpt>
      <trkpt lat="36.75963" lon="-3.83336">
        <ele>113.79398</ele>
        <time>2022-02-25T14:40:04.957Z</time>
      </trkpt>
      <trkpt lat="36.75958" lon="-3.83385">
        <ele>111.230611</ele>
        <time>2022-02-25T14:40:10.850Z</time>
      </trkpt>
      <trkpt lat="36.75942" lon="-3.8343">
        <ele>108.70838</ele>
        <time>2022-02-25T14:40:16.694Z</time>
      </trkpt>
      <trkpt lat="36.75932" lon="-3.83448">
        <ele>107.603293</ele>
        <time>2022-02-25T14:40:19.201Z</time>
      </trkpt>
      <trkpt lat="36.7593" lon="-3.83451">
        <ele>107.370712</ele>
        <time>2022-02-25T14:40:19.788Z</time>
      </trkpt>
      <trkpt lat="36.75893" lon="-3.8353">
        <ele>105.280206</ele>
        <time>2022-02-25T14:40:31.757Z</time>
      </trkpt>
      <trkpt lat="36.75884" lon="-3.8357">
        <ele>104.974912</ele>
        <time>2022-02-25T14:40:37.888Z</time>
      </trkpt>
      <trkpt lat="36.75882" lon="-3.83599">
        <ele>104.757978</ele>
        <time>2022-02-25T14:40:42.979Z</time>
      </trkpt>
      <trkpt lat="36.75885" lon="-3.83631">
        <ele>104.52193</ele>
        <time>2022-02-25T14:40:49.005Z</time>
      </trkpt>
      <trkpt lat="36.75924" lon="-3.83773">
        <ele>106.029128</ele>
        <time>2022-02-25T14:41:31.606Z</time>
      </trkpt>
      <trkpt lat="36.75924" lon="-3.83775">
        <ele>106.073495</ele>
        <time>2022-02-25T14:41:32.211Z</time>
      </trkpt>
      <trkpt lat="36.75925" lon="-3.83778">
        <ele>106.150088</ele>
        <time>2022-02-25T14:41:33.259Z</time>
      </trkpt>
      <trkpt lat="36.75967" lon="-3.83945">
        <ele>110.129316</ele>
        <time>2022-02-25T14:42:25.437Z</time>
      </trkpt>
      <trkpt lat="36.75974" lon="-3.84027">
        <ele>112.079122</ele>
        <time>2022-02-25T14:42:50.086Z</time>
      </trkpt>
      <trkpt lat="36.75975" lon="-3.84072">
        <ele>113.124668</ele>
        <time>2022-02-25T14:43:03.155Z</time>
      </trkpt>
      <trkpt lat="36.75982" lon="-3.84105">
        <ele>113.920095</ele>
        <time>2022-02-25T14:43:13.114Z</time>
      </trkpt>
      <trkpt lat="36.75986" lon="-3.84117">
        <ele>114.241142</ele>
        <time>2022-02-25T14:43:17.495Z</time>
      </trkpt>
      <trkpt lat="36.75984" lon="-3.84127">
        <ele>114.438514</ele>
        <time>2022-02-25T14:43:20.210Z</time>
      </trkpt>
      <trkpt lat="36.75974" lon="-3.84133">
        <ele>114.649974</ele>
        <time>2022-02-25T14:43:24.547Z</time>
      </trkpt>
      <trkpt lat="36.75974" lon="-3.84252">
        <ele>116.435482</ele>
        <time>2022-02-25T14:43:58.173Z</time>
      </trkpt>
      <trkpt lat="36.75999" lon="-3.84379">
        <ele>116.998327</ele>
        <time>2022-02-25T14:44:26.390Z</time>
      </trkpt>
      <trkpt lat="36.76001" lon="-3.84423">
        <ele>116.230728</ele>
        <time>2022-02-25T14:44:32.988Z</time>
      </trkpt>
      <trkpt lat="36.75985" lon="-3.8454">
        <ele>114.168819</ele>
        <time>2022-02-25T14:44:49.485Z</time>
      </trkpt>
      <trkpt lat="36.75965" lon="-3.84599">
        <ele>112.068927</ele>
        <time>2022-02-25T14:44:57.497Z</time>
      </trkpt>
      <trkpt lat="36.75949" lon="-3.8463">
        <ele>110.609132</ele>
        <time>2022-02-25T14:45:02.300Z</time>
      </trkpt>
      <trkpt lat="36.75944" lon="-3.84645">
        <ele>109.977634</ele>
        <time>2022-02-25T14:45:04.326Z</time>
      </trkpt>
      <trkpt lat="36.75943" lon="-3.84672">
        <ele>108.904499</ele>
        <time>2022-02-25T14:45:07.803Z</time>
      </trkpt>
      <trkpt lat="36.75925" lon="-3.84689">
        <ele>107.784578</ele>
        <time>2022-02-25T14:45:11.402Z</time>
      </trkpt>
      <trkpt lat="36.75907" lon="-3.84684">
        <ele>106.901716</ele>
        <time>2022-02-25T14:45:14.162Z</time>
      </trkpt>
      <trkpt lat="36.75878" lon="-3.84688">
        <ele>105.496577</ele>
        <time>2022-02-25T14:45:18.630Z</time>
      </trkpt>
      <trkpt lat="36.75822" lon="-3.84717">
        <ele>102.347697</ele>
        <time>2022-02-25T14:45:28.623Z</time>
      </trkpt>
      <trkpt lat="36.75776" lon="-3.84763">
        <ele>99.292082</ele>
        <time>2022-02-25T14:45:37.821Z</time>
      </trkpt>
      <trkpt lat="36.7576" lon="-3.84791">
        <ele>97.868167</ele>
        <time>2022-02-25T14:45:42.019Z</time>
      </trkpt>
      <trkpt lat="36.75738" lon="-3.84853">
        <ele>95.294158</ele>
        <time>2022-02-25T14:45:50.503Z</time>
      </trkpt>
      <trkpt lat="36.7573" lon="-3.84893">
        <ele>94.272639</ele>
        <time>2022-02-25T14:45:55.921Z</time>
      </trkpt>
      <trkpt lat="36.75729" lon="-3.84899">
        <ele>94.123846</ele>
        <time>2022-02-25T14:45:56.694Z</time>
      </trkpt>
      <trkpt lat="36.75694" lon="-3.85012">
        <ele>91.117812</ele>
        <time>2022-02-25T14:46:13.852Z</time>
      </trkpt>
      <trkpt lat="36.75678" lon="-3.85046">
        <ele>90.135218</ele>
        <time>2022-02-25T14:46:19.749Z</time>
      </trkpt>
      <trkpt lat="36.75634" lon="-3.85108">
        <ele>88.990737</ele>
        <time>2022-02-25T14:46:32.200Z</time>
      </trkpt>
      <trkpt lat="36.756" lon="-3.85144">
        <ele>88.233776</ele>
        <time>2022-02-25T14:46:40.852Z</time>
      </trkpt>
      <trkpt lat="36.75605" lon="-3.85163">
        <ele>87.957296</ele>
        <time>2022-02-25T14:46:44.253Z</time>
      </trkpt>
      <trkpt lat="36.756" lon="-3.85183">
        <ele>87.680617</ele>
        <time>2022-02-25T14:46:47.530Z</time>
      </trkpt>
      <trkpt lat="36.75581" lon="-3.85197">
        <ele>87.309281</ele>
        <time>2022-02-25T14:46:51.579Z</time>
      </trkpt>
      <trkpt lat="36.75569" lon="-3.85195">
        <ele>87.102289</ele>
        <time>2022-02-25T14:46:53.772Z</time>
      </trkpt>
      <trkpt lat="36.75556" lon="-3.8518">
        <ele>86.62046</ele>
        <time>2022-02-25T14:46:57.002Z</time>
      </trkpt>
      <trkpt lat="36.75529" lon="-3.85204">
        <ele>85.696244</ele>
        <time>2022-02-25T14:47:02.703Z</time>
      </trkpt>
      <trkpt lat="36.75517" lon="-3.85221">
        <ele>85.162701</ele>
        <time>2022-02-25T14:47:05.954Z</time>
      </trkpt>
      <trkpt lat="36.75493" lon="-3.85283">
        <ele>83.622746</ele>
        <time>2022-02-25T14:47:15.230Z</time>
      </trkpt>
      <trkpt lat="36.75489" lon="-3.8534">
        <ele>82.322961</ele>
        <time>2022-02-25T14:47:23.122Z</time>
      </trkpt>
      <trkpt lat="36.75491" lon="-3.85359">
        <ele>81.895076</ele>
        <time>2022-02-25T14:47:25.817Z</time>
      </trkpt>
      <trkpt lat="36.75505" lon="-3.85457">
        <ele>79.861188</ele>
        <time>2022-02-25T14:47:39.785Z</time>
      </trkpt>
      <trkpt lat="36.75515" lon="-3.85521">
        <ele>78.539644</ele>
        <time>2022-02-25T14:47:48.978Z</time>
      </trkpt>
      <trkpt lat="36.75532" lon="-3.85665">
        <ele>76.382591</ele>
        <time>2022-02-25T14:48:10.404Z</time>
      </trkpt>
      <trkpt lat="36.75552" lon="-3.85809">
        <ele>74.716459</ele>
        <time>2022-02-25T14:48:33.445Z</time>
      </trkpt>
      <trkpt lat="36.75562" lon="-3.8588">
        <ele>73.965909</ele>
        <time>2022-02-25T14:48:45.482Z</time>
      </trkpt>
      <trkpt lat="36.7557" lon="-3.85906">
        <ele>73.68923</ele>
        <time>2022-02-25T14:48:49.996Z</time>
      </trkpt>
      <trkpt lat="36.75592" lon="-3.8595">
        <ele>73.150205</ele>
        <time>2022-02-25T14:48:58.210Z</time>
      </trkpt>
      <trkpt lat="36.75631" lon="-3.8599">
        <ele>72.495547</ele>
        <time>2022-02-25T14:49:07.361Z</time>
      </trkpt>
      <trkpt lat="36.75688" lon="-3.86033">
        <ele>71.589655</ele>
        <time>2022-02-25T14:49:19.252Z</time>
      </trkpt>
      <trkpt lat="36.75727" lon="-3.86081">
        <ele>70.852824</ele>
        <time>2022-02-25T14:49:29.515Z</time>
      </trkpt>
      <trkpt lat="36.75736" lon="-3.861">
        <ele>70.615099</ele>
        <time>2022-02-25T14:49:32.993Z</time>
      </trkpt>
      <trkpt lat="36.75763" lon="-3.86189">
        <ele>70.658802</ele>
        <time>2022-02-25T14:49:50.237Z</time>
      </trkpt>
      <trkpt lat="36.75792" lon="-3.86311">
        <ele>72.258984</ele>
        <time>2022-02-25T14:50:21.452Z</time>
      </trkpt>
      <trkpt lat="36.75805" lon="-3.8634">
        <ele>72.687565</ele>
        <time>2022-02-25T14:50:31.460Z</time>
      </trkpt>
      <trkpt lat="36.75819" lon="-3.86353">
        <ele>72.965706</ele>
        <time>2022-02-25T14:50:37.922Z</time>
      </trkpt>
      <trkpt lat="36.75821" lon="-3.86367">
        <ele>73.195292</ele>
        <time>2022-02-25T14:50:42.556Z</time>
      </trkpt>
      <trkpt lat="36.75817" lon="-3.86377">
        <ele>73.357492</ele>
        <time>2022-02-25T14:50:45.488Z</time>
      </trkpt>
      <trkpt lat="36.75815" lon="-3.86397">
        <ele>73.687109</ele>
        <time>2022-02-25T14:50:51.948Z</time>
      </trkpt>
      <trkpt lat="36.75819" lon="-3.86425">
        <ele>74.13655</ele>
        <time>2022-02-25T14:51:00.163Z</time>
      </trkpt>
      <trkpt lat="36.75855" lon="-3.86602">
        <ele>76.668786</ele>
        <time>2022-02-25T14:51:43.961Z</time>
      </trkpt>
      <trkpt lat="36.75856" lon="-3.86674">
        <ele>77.049107</ele>
        <time>2022-02-25T14:51:59.539Z</time>
      </trkpt>
      <trkpt lat="36.75851" lon="-3.86732">
        <ele>77.360099</ele>
        <time>2022-02-25T14:52:11.103Z</time>
      </trkpt>
      <trkpt lat="36.75851" lon="-3.86762">
        <ele>77.519751</ele>
        <time>2022-02-25T14:52:16.656Z</time>
      </trkpt>
      <trkpt lat="36.7584" lon="-3.86848">
        <ele>77.406552</ele>
        <time>2022-02-25T14:52:32.279Z</time>
      </trkpt>
      <trkpt lat="36.75855" lon="-3.86849">
        <ele>77.323258</ele>
        <time>2022-02-25T14:52:35.523Z</time>
      </trkpt>
      <trkpt lat="36.75841" lon="-3.86876">
        <ele>77.176779</ele>
        <time>2022-02-25T14:52:41.065Z</time>
      </trkpt>
      <trkpt lat="36.75833" lon="-3.86878">
        <ele>77.130697</ele>
        <time>2022-02-25T14:52:42.750Z</time>
      </trkpt>
      <trkpt lat="36.75836" lon="-3.86884">
        <ele>77.102252</ele>
        <time>2022-02-25T14:52:44.130Z</time>
      </trkpt>
      <trkpt lat="36.75836" lon="-3.86902">
        <ele>77.016395</ele>
        <time>2022-02-25T14:52:47.569Z</time>
      </trkpt>
      <trkpt lat="36.75832" lon="-3.8691">
        <ele>76.972605</ele>
        <time>2022-02-25T14:52:49.230Z</time>
      </trkpt>
      <trkpt lat="36.75828" lon="-3.86958">
        <ele>76.749878</ele>
        <time>2022-02-25T14:52:57.194Z</time>
      </trkpt>
      <trkpt lat="36.75847" lon="-3.87047">
        <ele>75.229817</ele>
        <time>2022-02-25T14:53:11.463Z</time>
      </trkpt>
      <trkpt lat="36.75847" lon="-3.87082">
        <ele>74.493549</ele>
        <time>2022-02-25T14:53:16.871Z</time>
      </trkpt>
      <trkpt lat="36.75846" lon="-3.87094">
        <ele>74.244691</ele>
        <time>2022-02-25T14:53:18.674Z</time>
      </trkpt>
      <trkpt lat="36.75835" lon="-3.87133">
        <ele>73.384755</ele>
        <time>2022-02-25T14:53:24.770Z</time>
      </trkpt>
      <trkpt lat="36.75816" lon="-3.87167">
        <ele>72.520873</ele>
        <time>2022-02-25T14:53:30.700Z</time>
      </trkpt>
      <trkpt lat="36.75757" lon="-3.87216">
        <ele>70.006954</ele>
        <time>2022-02-25T14:53:42.952Z</time>
      </trkpt>
      <trkpt lat="36.75676" lon="-3.87271">
        <ele>66.345634</ele>
        <time>2022-02-25T14:53:58.922Z</time>
      </trkpt>
      <trkpt lat="36.75674" lon="-3.87284">
        <ele>65.919743</ele>
        <time>2022-02-25T14:54:00.729Z</time>
      </trkpt>
      <trkpt lat="36.75662" lon="-3.87297">
        <ele>65.293704</ele>
        <time>2022-02-25T14:54:03.353Z</time>
      </trkpt>
      <trkpt lat="36.75646" lon="-3.87294">
        <ele>64.704631</ele>
        <time>2022-02-25T14:54:05.929Z</time>
      </trkpt>
      <trkpt lat="36.75578" lon="-3.87347">
        <ele>61.980119</ele>
        <time>2022-02-25T14:54:19.974Z</time>
      </trkpt>
      <trkpt lat="36.75506" lon="-3.87398">
        <ele>59.173364</ele>
        <time>2022-02-25T14:54:34.894Z</time>
      </trkpt>
      <trkpt lat="36.75498" lon="-3.87404">
        <ele>58.875475</ele>
        <time>2022-02-25T14:54:36.475Z</time>
      </trkpt>
      <trkpt lat="36.75471" lon="-3.87424">
        <ele>58.144843</ele>
        <time>2022-02-25T14:54:42.256Z</time>
      </trkpt>
      <trkpt lat="36.75431" lon="-3.87454">
        <ele>57.112036</ele>
        <time>2022-02-25T14:54:51.003Z</time>
      </trkpt>
      <trkpt lat="36.75374" lon="-3.87496">
        <ele>55.674765</ele>
        <time>2022-02-25T14:55:03.425Z</time>
      </trkpt>
      <trkpt lat="36.75355" lon="-3.87497">
        <ele>55.244136</ele>
        <time>2022-02-25T14:55:07.253Z</time>
      </trkpt>
      <trkpt lat="36.75349" lon="-3.87501">
        <ele>55.088628</ele>
        <time>2022-02-25T14:55:08.685Z</time>
      </trkpt>
      <trkpt lat="36.75344" lon="-3.87505">
        <ele>54.958236</ele>
        <time>2022-02-25T14:55:09.873Z</time>
      </trkpt>
      <trkpt lat="36.75341" lon="-3.87525">
        <ele>54.693666</ele>
        <time>2022-02-25T14:55:13.144Z</time>
      </trkpt>
      <trkpt lat="36.75328" lon="-3.87536">
        <ele>54.496121</ele>
        <time>2022-02-25T14:55:16.098Z</time>
      </trkpt>
      <trkpt lat="36.75315" lon="-3.87538">
        <ele>54.31122</ele>
        <time>2022-02-25T14:55:18.902Z</time>
      </trkpt>
      <trkpt lat="36.75311" lon="-3.87541">
        <ele>54.250699</ele>
        <time>2022-02-25T14:55:19.884Z</time>
      </trkpt>
      <trkpt lat="36.75249" lon="-3.87586">
        <ele>53.312663</ele>
        <time>2022-02-25T14:55:34.532Z</time>
      </trkpt>
      <trkpt lat="36.75246" lon="-3.87588">
        <ele>53.258803</ele>
        <time>2022-02-25T14:55:35.396Z</time>
      </trkpt>
      <trkpt lat="36.75238" lon="-3.87584">
        <ele>53.1548</ele>
        <time>2022-02-25T14:55:36.933Z</time>
      </trkpt>
      <trkpt lat="36.75233" lon="-3.87602">
        <ele>52.954571</ele>
        <time>2022-02-25T14:55:40.027Z</time>
      </trkpt>
      <trkpt lat="36.75207" lon="-3.87621">
        <ele>52.561459</ele>
        <time>2022-02-25T14:55:46.101Z</time>
      </trkpt>
      <trkpt lat="36.75198" lon="-3.87619">
        <ele>52.42169</ele>
        <time>2022-02-25T14:55:47.928Z</time>
      </trkpt>
      <trkpt lat="36.75195" lon="-3.87622">
        <ele>52.345647</ele>
        <time>2022-02-25T14:55:48.596Z</time>
      </trkpt>
      <trkpt lat="36.75154" lon="-3.87654">
        <ele>51.304775</ele>
        <time>2022-02-25T14:55:57.877Z</time>
      </trkpt>
      <trkpt lat="36.7514" lon="-3.87682">
        <ele>50.737159</ele>
        <time>2022-02-25T14:56:02.946Z</time>
      </trkpt>
      <trkpt lat="36.7514" lon="-3.87685">
        <ele>50.684132</ele>
        <time>2022-02-25T14:56:03.394Z</time>
      </trkpt>
      <trkpt lat="36.75137" lon="-3.87702">
        <ele>50.380951</ele>
        <time>2022-02-25T14:56:05.975Z</time>
      </trkpt>
      <trkpt lat="36.75128" lon="-3.87709">
        <ele>50.16638</ele>
        <time>2022-02-25T14:56:07.818Z</time>
      </trkpt>
      <trkpt lat="36.75125" lon="-3.8771">
        <ele>50.093424</ele>
        <time>2022-02-25T14:56:08.412Z</time>
      </trkpt>
      <trkpt lat="36.75118" lon="-3.87709">
        <ele>49.932999</ele>
        <time>2022-02-25T14:56:09.716Z</time>
      </trkpt>
      <trkpt lat="36.75112" lon="-3.87705">
        <ele>49.789877</ele>
        <time>2022-02-25T14:56:10.901Z</time>
      </trkpt>
      <trkpt lat="36.75106" lon="-3.87685">
        <ele>49.429229</ele>
        <time>2022-02-25T14:56:13.931Z</time>
      </trkpt>
      <trkpt lat="36.75092" lon="-3.87695">
        <ele>49.092786</ele>
        <time>2022-02-25T14:56:16.611Z</time>
      </trkpt>
      <trkpt lat="36.75057" lon="-3.87719">
        <ele>48.164238</ele>
        <time>2022-02-25T14:56:23.622Z</time>
      </trkpt>
      <trkpt lat="36.74986" lon="-3.87767">
        <ele>46.092334</ele>
        <time>2022-02-25T14:56:38.010Z</time>
      </trkpt>
      <trkpt lat="36.7495" lon="-3.87793">
        <ele>45.046205</ele>
        <time>2022-02-25T14:56:45.278Z</time>
      </trkpt>
      <trkpt lat="36.74913" lon="-3.87818">
        <ele>43.960152</ele>
        <time>2022-02-25T14:56:52.802Z</time>
      </trkpt>
      <trkpt lat="36.74911" lon="-3.8782">
        <ele>43.904344</ele>
        <time>2022-02-25T14:56:53.156Z</time>
      </trkpt>
      <trkpt lat="36.74871" lon="-3.87847">
        <ele>42.62509</ele>
        <time>2022-02-25T14:57:01.363Z</time>
      </trkpt>
      <trkpt lat="36.74831" lon="-3.87876">
        <ele>41.322268</ele>
        <time>2022-02-25T14:57:09.530Z</time>
      </trkpt>
      <trkpt lat="36.74797" lon="-3.87906">
        <ele>40.165465</ele>
        <time>2022-02-25T14:57:16.633Z</time>
      </trkpt>
      <trkpt lat="36.74793" lon="-3.87909">
        <ele>40.043167</ele>
        <time>2022-02-25T14:57:17.392Z</time>
      </trkpt>
      <trkpt lat="36.74785" lon="-3.87945">
        <ele>39.18711</ele>
        <time>2022-02-25T14:57:22.616Z</time>
      </trkpt>
      <trkpt lat="36.74786" lon="-3.87963">
        <ele>38.77124</ele>
        <time>2022-02-25T14:57:25.094Z</time>
      </trkpt>
      <trkpt lat="36.7475" lon="-3.87942">
        <ele>37.552414</ele>
        <time>2022-02-25T14:57:31.884Z</time>
      </trkpt>
      <trkpt lat="36.74734" lon="-3.87929">
        <ele>36.963249</ele>
        <time>2022-02-25T14:57:35.153Z</time>
      </trkpt>
      <trkpt lat="36.74693" lon="-3.87932">
        <ele>35.71712</ele>
        <time>2022-02-25T14:57:42.217Z</time>
      </trkpt>
      <trkpt lat="36.74689" lon="-3.87935">
        <ele>35.571635</ele>
        <time>2022-02-25T14:57:43.067Z</time>
      </trkpt>
      <trkpt lat="36.74671" lon="-3.87948">
        <ele>34.917848</ele>
        <time>2022-02-25T14:57:46.741Z</time>
      </trkpt>
      <trkpt lat="36.74637" lon="-3.87972">
        <ele>33.728558</ele>
        <time>2022-02-25T14:57:53.386Z</time>
      </trkpt>
      <trkpt lat="36.74615" lon="-3.87984">
        <ele>32.837434</ele>
        <time>2022-02-25T14:57:57.515Z</time>
      </trkpt>
      <trkpt lat="36.74604" lon="-3.87985">
        <ele>32.39208</ele>
        <time>2022-02-25T14:57:59.331Z</time>
      </trkpt>
      <trkpt lat="36.74601" lon="-3.87985">
        <ele>32.263527</ele>
        <time>2022-02-25T14:57:59.858Z</time>
      </trkpt>
      <trkpt lat="36.74573" lon="-3.87983">
        <ele>31.126857</ele>
        <time>2022-02-25T14:58:04.493Z</time>
      </trkpt>
      <trkpt lat="36.74569" lon="-3.87984">
        <ele>30.950619</ele>
        <time>2022-02-25T14:58:05.202Z</time>
      </trkpt>
      <trkpt lat="36.74551" lon="-3.87989">
        <ele>30.170339</ele>
        <time>2022-02-25T14:58:08.356Z</time>
      </trkpt>
      <trkpt lat="36.74523" lon="-3.87996">
        <ele>29.012543</ele>
        <time>2022-02-25T14:58:12.943Z</time>
      </trkpt>
      <trkpt lat="36.74518" lon="-3.87998">
        <ele>28.795628</ele>
        <time>2022-02-25T14:58:13.807Z</time>
      </trkpt>
      <trkpt lat="36.74515" lon="-3.87999">
        <ele>28.642746</ele>
        <time>2022-02-25T14:58:14.412Z</time>
      </trkpt>
      <trkpt lat="36.74497" lon="-3.88004">
        <ele>27.875105</ele>
        <time>2022-02-25T14:58:17.413Z</time>
      </trkpt>
      <trkpt lat="36.74487" lon="-3.8801">
        <ele>27.420245</ele>
        <time>2022-02-25T14:58:19.217Z</time>
      </trkpt>
      <trkpt lat="36.74439" lon="-3.88019">
        <ele>25.332794</ele>
        <time>2022-02-25T14:58:26.855Z</time>
      </trkpt>
      <trkpt lat="36.74433" lon="-3.8802">
        <ele>25.050698</ele>
        <time>2022-02-25T14:58:27.752Z</time>
      </trkpt>
      <trkpt lat="36.74375" lon="-3.88031">
        <ele>22.17188</ele>
        <time>2022-02-25T14:58:36.898Z</time>
      </trkpt>
      <trkpt lat="36.74335" lon="-3.8804">
        <ele>20.17097</ele>
        <time>2022-02-25T14:58:43.357Z</time>
      </trkpt>
      <trkpt lat="36.74278" lon="-3.88052">
        <ele>17.313188</ele>
        <time>2022-02-25T14:58:52.708Z</time>
      </trkpt>
      <trkpt lat="36.74257" lon="-3.88095">
        <ele>17.172516</ele>
        <time>2022-02-25T14:58:59.232Z</time>
      </trkpt>
      <trkpt lat="36.74255" lon="-3.8813">
        <ele>17.172516</ele>
        <time>2022-02-25T14:59:04.072Z</time>
      </trkpt>
      <trkpt lat="36.74261" lon="-3.88165">
        <ele>17.172516</ele>
        <time>2022-02-25T14:59:09.172Z</time>
      </trkpt>
      <trkpt lat="36.74273" lon="-3.88198">
        <ele>17.172516</ele>
        <time>2022-02-25T14:59:14.582Z</time>
      </trkpt>
      <trkpt lat="36.74286" lon="-3.8823">
        <ele>17.172516</ele>
        <time>2022-02-25T14:59:20.141Z</time>
      </trkpt>
      <trkpt lat="36.74287" lon="-3.88233">
        <ele>17.172516</ele>
        <time>2022-02-25T14:59:20.583Z</time>
      </trkpt>
      <trkpt lat="36.74293" lon="-3.88246">
        <ele>17.172516</ele>
        <time>2022-02-25T14:59:23.013Z</time>
      </trkpt>
      <trkpt lat="36.743" lon="-3.88264">
        <ele>17.172516</ele>
        <time>2022-02-25T14:59:26.308Z</time>
      </trkpt>
    </trkseg>
  </trk>
</gpx>